<?xml version="1.0" encoding="UTF-8" standalone="no" ?>
<gpx xmlns="http://www.topografix.com/GPX/1/1" xmlns:xsi="http://www.w3.org/2001/XMLSchema-instance" xsi:schemaLocation="http://www.topografix.com/GPX/1/1 http://www.topografix.com/GPX/1/1/gpx.xsd" version="1.1" creator="VisuGPX - https://www.visugpx.com">
  <metadata>
    <name>Quingeoise2023-7mai</name>
  </metadata>
  <trk>
    <name><![CDATA[Quingeoise2023-7mai_1]]></name>
    <extensions>
      <line xmlns="http://www.topografix.com/GPX/gpx_style/0/2">
        <color>0000FF</color>
        <width>4</width>
      </line>
    </extensions>
    <trkseg>
      <trkpt lat="47.10065" lon="5.88226">
        <ele>253</ele>
        <time>2023-05-07T06:52:41Z</time>
      </trkpt>
      <trkpt lat="47.10065" lon="5.88222">
        <ele>253</ele>
        <time>2023-05-07T06:52:45Z</time>
      </trkpt>
      <trkpt lat="47.10067" lon="5.88219">
        <ele>253.6</ele>
        <time>2023-05-07T06:52:48Z</time>
      </trkpt>
      <trkpt lat="47.10069" lon="5.8822">
        <ele>254</ele>
        <time>2023-05-07T06:52:49Z</time>
      </trkpt>
      <trkpt lat="47.10075" lon="5.88229">
        <ele>255.2</ele>
        <time>2023-05-07T06:52:52Z</time>
      </trkpt>
      <trkpt lat="47.10092" lon="5.88253">
        <ele>254.6</ele>
        <time>2023-05-07T06:52:59Z</time>
      </trkpt>
      <trkpt lat="47.1011" lon="5.88268">
        <ele>254</ele>
        <time>2023-05-07T06:53:05Z</time>
      </trkpt>
      <trkpt lat="47.10113" lon="5.88271">
        <ele>253.4</ele>
        <time>2023-05-07T06:53:06Z</time>
      </trkpt>
      <trkpt lat="47.10116" lon="5.88273">
        <ele>252.6</ele>
        <time>2023-05-07T06:53:07Z</time>
      </trkpt>
      <trkpt lat="47.10127" lon="5.88277">
        <ele>251.6</ele>
        <time>2023-05-07T06:53:10Z</time>
      </trkpt>
      <trkpt lat="47.10133" lon="5.88279">
        <ele>251</ele>
        <time>2023-05-07T06:53:12Z</time>
      </trkpt>
      <trkpt lat="47.10144" lon="5.88285">
        <ele>250.2</ele>
        <time>2023-05-07T06:53:16Z</time>
      </trkpt>
      <trkpt lat="47.10152" lon="5.8829">
        <ele>249</ele>
        <time>2023-05-07T06:53:18Z</time>
      </trkpt>
      <trkpt lat="47.10156" lon="5.88291">
        <ele>248.6</ele>
        <time>2023-05-07T06:53:19Z</time>
      </trkpt>
      <trkpt lat="47.10172" lon="5.88292">
        <ele>247.8</ele>
        <time>2023-05-07T06:53:22Z</time>
      </trkpt>
      <trkpt lat="47.10176" lon="5.88293">
        <ele>247.8</ele>
        <time>2023-05-07T06:53:23Z</time>
      </trkpt>
      <trkpt lat="47.10185" lon="5.88297">
        <ele>247.2</ele>
        <time>2023-05-07T06:53:25Z</time>
      </trkpt>
      <trkpt lat="47.10188" lon="5.88301">
        <ele>246.6</ele>
        <time>2023-05-07T06:53:26Z</time>
      </trkpt>
      <trkpt lat="47.10191" lon="5.88304">
        <ele>245.6</ele>
        <time>2023-05-07T06:53:27Z</time>
      </trkpt>
      <trkpt lat="47.10194" lon="5.88308">
        <ele>244.6</ele>
        <time>2023-05-07T06:53:28Z</time>
      </trkpt>
      <trkpt lat="47.10202" lon="5.88311">
        <ele>243</ele>
        <time>2023-05-07T06:53:30Z</time>
      </trkpt>
      <trkpt lat="47.10207" lon="5.88311">
        <ele>242.4</ele>
        <time>2023-05-07T06:53:31Z</time>
      </trkpt>
      <trkpt lat="47.10211" lon="5.88313">
        <ele>242</ele>
        <time>2023-05-07T06:53:32Z</time>
      </trkpt>
      <trkpt lat="47.10222" lon="5.88322">
        <ele>241</ele>
        <time>2023-05-07T06:53:35Z</time>
      </trkpt>
      <trkpt lat="47.10225" lon="5.88326">
        <ele>240.8</ele>
        <time>2023-05-07T06:53:36Z</time>
      </trkpt>
      <trkpt lat="47.10236" lon="5.88336">
        <ele>239</ele>
        <time>2023-05-07T06:53:39Z</time>
      </trkpt>
      <trkpt lat="47.10243" lon="5.88344">
        <ele>237.6</ele>
        <time>2023-05-07T06:53:41Z</time>
      </trkpt>
      <trkpt lat="47.10253" lon="5.88356">
        <ele>236.6</ele>
        <time>2023-05-07T06:53:44Z</time>
      </trkpt>
      <trkpt lat="47.10263" lon="5.88367">
        <ele>235.2</ele>
        <time>2023-05-07T06:53:47Z</time>
      </trkpt>
      <trkpt lat="47.10272" lon="5.88377">
        <ele>233.8</ele>
        <time>2023-05-07T06:53:50Z</time>
      </trkpt>
      <trkpt lat="47.10278" lon="5.88381">
        <ele>232.6</ele>
        <time>2023-05-07T06:53:52Z</time>
      </trkpt>
      <trkpt lat="47.10281" lon="5.88383">
        <ele>232.4</ele>
        <time>2023-05-07T06:53:53Z</time>
      </trkpt>
      <trkpt lat="47.10288" lon="5.88388">
        <ele>230.8</ele>
        <time>2023-05-07T06:53:55Z</time>
      </trkpt>
      <trkpt lat="47.10291" lon="5.88391">
        <ele>229.8</ele>
        <time>2023-05-07T06:53:56Z</time>
      </trkpt>
      <trkpt lat="47.10291" lon="5.88393">
        <ele>228.8</ele>
        <time>2023-05-07T06:53:57Z</time>
      </trkpt>
      <trkpt lat="47.10291" lon="5.88396">
        <ele>227.6</ele>
        <time>2023-05-07T06:53:58Z</time>
      </trkpt>
      <trkpt lat="47.1029" lon="5.884">
        <ele>226.4</ele>
        <time>2023-05-07T06:53:59Z</time>
      </trkpt>
      <trkpt lat="47.1029" lon="5.88404">
        <ele>225.4</ele>
        <time>2023-05-07T06:54:00Z</time>
      </trkpt>
      <trkpt lat="47.10289" lon="5.88409">
        <ele>224.2</ele>
        <time>2023-05-07T06:54:01Z</time>
      </trkpt>
      <trkpt lat="47.10288" lon="5.88414">
        <ele>223.2</ele>
        <time>2023-05-07T06:54:02Z</time>
      </trkpt>
      <trkpt lat="47.10286" lon="5.88418">
        <ele>222.2</ele>
        <time>2023-05-07T06:54:03Z</time>
      </trkpt>
      <trkpt lat="47.10283" lon="5.88427">
        <ele>220.2</ele>
        <time>2023-05-07T06:54:05Z</time>
      </trkpt>
      <trkpt lat="47.10282" lon="5.88431">
        <ele>219.2</ele>
        <time>2023-05-07T06:54:06Z</time>
      </trkpt>
      <trkpt lat="47.1028" lon="5.88437">
        <ele>218.4</ele>
        <time>2023-05-07T06:54:07Z</time>
      </trkpt>
      <trkpt lat="47.10278" lon="5.88449">
        <ele>217.2</ele>
        <time>2023-05-07T06:54:09Z</time>
      </trkpt>
      <trkpt lat="47.10275" lon="5.88461">
        <ele>215.8</ele>
        <time>2023-05-07T06:54:11Z</time>
      </trkpt>
      <trkpt lat="47.10272" lon="5.88473">
        <ele>214.6</ele>
        <time>2023-05-07T06:54:13Z</time>
      </trkpt>
      <trkpt lat="47.10269" lon="5.88486">
        <ele>213.2</ele>
        <time>2023-05-07T06:54:15Z</time>
      </trkpt>
      <trkpt lat="47.10266" lon="5.88498">
        <ele>211.8</ele>
        <time>2023-05-07T06:54:17Z</time>
      </trkpt>
      <trkpt lat="47.10264" lon="5.88511">
        <ele>210.8</ele>
        <time>2023-05-07T06:54:19Z</time>
      </trkpt>
      <trkpt lat="47.10262" lon="5.88519">
        <ele>209.8</ele>
        <time>2023-05-07T06:54:21Z</time>
      </trkpt>
      <trkpt lat="47.10262" lon="5.88521">
        <ele>209.4</ele>
        <time>2023-05-07T06:54:22Z</time>
      </trkpt>
      <trkpt lat="47.10261" lon="5.88527">
        <ele>208.2</ele>
        <time>2023-05-07T06:54:25Z</time>
      </trkpt>
      <trkpt lat="47.10262" lon="5.88529">
        <ele>207.8</ele>
        <time>2023-05-07T06:54:26Z</time>
      </trkpt>
      <trkpt lat="47.10266" lon="5.88527">
        <ele>208.8</ele>
        <time>2023-05-07T06:54:28Z</time>
      </trkpt>
      <trkpt lat="47.10267" lon="5.88525">
        <ele>209.6</ele>
        <time>2023-05-07T06:54:29Z</time>
      </trkpt>
      <trkpt lat="47.10268" lon="5.88521">
        <ele>211.2</ele>
        <time>2023-05-07T06:54:31Z</time>
      </trkpt>
      <trkpt lat="47.10269" lon="5.88514">
        <ele>212.6</ele>
        <time>2023-05-07T06:54:33Z</time>
      </trkpt>
      <trkpt lat="47.1027" lon="5.88511">
        <ele>213.6</ele>
        <time>2023-05-07T06:54:34Z</time>
      </trkpt>
      <trkpt lat="47.10271" lon="5.88507">
        <ele>214</ele>
        <time>2023-05-07T06:54:35Z</time>
      </trkpt>
      <trkpt lat="47.10276" lon="5.88493">
        <ele>215.2</ele>
        <time>2023-05-07T06:54:38Z</time>
      </trkpt>
      <trkpt lat="47.10278" lon="5.88488">
        <ele>215.4</ele>
        <time>2023-05-07T06:54:39Z</time>
      </trkpt>
      <trkpt lat="47.10283" lon="5.88474">
        <ele>216.4</ele>
        <time>2023-05-07T06:54:42Z</time>
      </trkpt>
      <trkpt lat="47.10296" lon="5.8844">
        <ele>216.8</ele>
        <time>2023-05-07T06:54:49Z</time>
      </trkpt>
      <trkpt lat="47.10304" lon="5.88415">
        <ele>217.4</ele>
        <time>2023-05-07T06:54:55Z</time>
      </trkpt>
      <trkpt lat="47.10306" lon="5.88413">
        <ele>217.4</ele>
        <time>2023-05-07T06:54:56Z</time>
      </trkpt>
      <trkpt lat="47.10308" lon="5.88406">
        <ele>217.4</ele>
        <time>2023-05-07T06:55:00Z</time>
      </trkpt>
      <trkpt lat="47.10298" lon="5.88413">
        <ele>218</ele>
        <time>2023-05-07T06:55:04Z</time>
      </trkpt>
      <trkpt lat="47.10296" lon="5.88418">
        <ele>217.8</ele>
        <time>2023-05-07T06:55:05Z</time>
      </trkpt>
      <trkpt lat="47.10288" lon="5.88443">
        <ele>216.4</ele>
        <time>2023-05-07T06:55:11Z</time>
      </trkpt>
      <trkpt lat="47.10283" lon="5.88458">
        <ele>215</ele>
        <time>2023-05-07T06:55:14Z</time>
      </trkpt>
      <trkpt lat="47.10278" lon="5.88474">
        <ele>213.8</ele>
        <time>2023-05-07T06:55:17Z</time>
      </trkpt>
      <trkpt lat="47.10274" lon="5.88485">
        <ele>213</ele>
        <time>2023-05-07T06:55:19Z</time>
      </trkpt>
      <trkpt lat="47.10272" lon="5.8849">
        <ele>212.6</ele>
        <time>2023-05-07T06:55:20Z</time>
      </trkpt>
      <trkpt lat="47.10267" lon="5.88508">
        <ele>211.6</ele>
        <time>2023-05-07T06:55:23Z</time>
      </trkpt>
      <trkpt lat="47.10261" lon="5.88525">
        <ele>210.4</ele>
        <time>2023-05-07T06:55:26Z</time>
      </trkpt>
      <trkpt lat="47.10259" lon="5.88532">
        <ele>210.2</ele>
        <time>2023-05-07T06:55:27Z</time>
      </trkpt>
      <trkpt lat="47.10247" lon="5.88556">
        <ele>209.2</ele>
        <time>2023-05-07T06:55:31Z</time>
      </trkpt>
      <trkpt lat="47.1024" lon="5.88569">
        <ele>208.6</ele>
        <time>2023-05-07T06:55:33Z</time>
      </trkpt>
      <trkpt lat="47.10233" lon="5.88581">
        <ele>208</ele>
        <time>2023-05-07T06:55:35Z</time>
      </trkpt>
      <trkpt lat="47.1022" lon="5.88604">
        <ele>206.8</ele>
        <time>2023-05-07T06:55:39Z</time>
      </trkpt>
      <trkpt lat="47.10216" lon="5.88608">
        <ele>206.4</ele>
        <time>2023-05-07T06:55:40Z</time>
      </trkpt>
      <trkpt lat="47.10209" lon="5.88618">
        <ele>205.6</ele>
        <time>2023-05-07T06:55:42Z</time>
      </trkpt>
      <trkpt lat="47.10205" lon="5.88621">
        <ele>205.4</ele>
        <time>2023-05-07T06:55:43Z</time>
      </trkpt>
      <trkpt lat="47.10198" lon="5.88627">
        <ele>204.6</ele>
        <time>2023-05-07T06:55:45Z</time>
      </trkpt>
      <trkpt lat="47.10195" lon="5.88628">
        <ele>204.4</ele>
        <time>2023-05-07T06:55:46Z</time>
      </trkpt>
      <trkpt lat="47.10183" lon="5.8863">
        <ele>203.6</ele>
        <time>2023-05-07T06:55:49Z</time>
      </trkpt>
      <trkpt lat="47.10179" lon="5.88629">
        <ele>203.4</ele>
        <time>2023-05-07T06:55:50Z</time>
      </trkpt>
      <trkpt lat="47.10174" lon="5.88628">
        <ele>203.4</ele>
        <time>2023-05-07T06:55:51Z</time>
      </trkpt>
      <trkpt lat="47.10151" lon="5.88622">
        <ele>202.4</ele>
        <time>2023-05-07T06:55:56Z</time>
      </trkpt>
      <trkpt lat="47.10139" lon="5.88618">
        <ele>207.4</ele>
        <time>2023-05-07T06:55:58Z</time>
      </trkpt>
      <trkpt lat="47.10133" lon="5.88615">
        <ele>211.2</ele>
        <time>2023-05-07T06:55:59Z</time>
      </trkpt>
      <trkpt lat="47.10127" lon="5.88613">
        <ele>214.2</ele>
        <time>2023-05-07T06:56:00Z</time>
      </trkpt>
      <trkpt lat="47.1012" lon="5.8861">
        <ele>216.6</ele>
        <time>2023-05-07T06:56:01Z</time>
      </trkpt>
      <trkpt lat="47.10114" lon="5.88608">
        <ele>219</ele>
        <time>2023-05-07T06:56:02Z</time>
      </trkpt>
      <trkpt lat="47.10108" lon="5.88606">
        <ele>221</ele>
        <time>2023-05-07T06:56:03Z</time>
      </trkpt>
      <trkpt lat="47.10102" lon="5.88605">
        <ele>223</ele>
        <time>2023-05-07T06:56:04Z</time>
      </trkpt>
      <trkpt lat="47.10097" lon="5.88604">
        <ele>224.6</ele>
        <time>2023-05-07T06:56:05Z</time>
      </trkpt>
      <trkpt lat="47.10091" lon="5.88602">
        <ele>226.6</ele>
        <time>2023-05-07T06:56:06Z</time>
      </trkpt>
      <trkpt lat="47.10086" lon="5.88601">
        <ele>228.4</ele>
        <time>2023-05-07T06:56:07Z</time>
      </trkpt>
      <trkpt lat="47.10082" lon="5.88601">
        <ele>228.6</ele>
        <time>2023-05-07T06:56:08Z</time>
      </trkpt>
      <trkpt lat="47.10077" lon="5.886">
        <ele>229.4</ele>
        <time>2023-05-07T06:56:09Z</time>
      </trkpt>
      <trkpt lat="47.10071" lon="5.88599">
        <ele>230.8</ele>
        <time>2023-05-07T06:56:10Z</time>
      </trkpt>
      <trkpt lat="47.10066" lon="5.88597">
        <ele>232.2</ele>
        <time>2023-05-07T06:56:11Z</time>
      </trkpt>
      <trkpt lat="47.10061" lon="5.88596">
        <ele>233.6</ele>
        <time>2023-05-07T06:56:12Z</time>
      </trkpt>
      <trkpt lat="47.10055" lon="5.88594">
        <ele>235.2</ele>
        <time>2023-05-07T06:56:13Z</time>
      </trkpt>
      <trkpt lat="47.10049" lon="5.88593">
        <ele>237.8</ele>
        <time>2023-05-07T06:56:14Z</time>
      </trkpt>
      <trkpt lat="47.10043" lon="5.88591">
        <ele>240.4</ele>
        <time>2023-05-07T06:56:15Z</time>
      </trkpt>
      <trkpt lat="47.10037" lon="5.88589">
        <ele>242.6</ele>
        <time>2023-05-07T06:56:16Z</time>
      </trkpt>
      <trkpt lat="47.10032" lon="5.88587">
        <ele>244.4</ele>
        <time>2023-05-07T06:56:17Z</time>
      </trkpt>
      <trkpt lat="47.10026" lon="5.88585">
        <ele>246.6</ele>
        <time>2023-05-07T06:56:18Z</time>
      </trkpt>
      <trkpt lat="47.10021" lon="5.88583">
        <ele>248.4</ele>
        <time>2023-05-07T06:56:19Z</time>
      </trkpt>
      <trkpt lat="47.10016" lon="5.88581">
        <ele>249.6</ele>
        <time>2023-05-07T06:56:20Z</time>
      </trkpt>
      <trkpt lat="47.1001" lon="5.8858">
        <ele>251</ele>
        <time>2023-05-07T06:56:21Z</time>
      </trkpt>
      <trkpt lat="47.1" lon="5.88578">
        <ele>252.6</ele>
        <time>2023-05-07T06:56:23Z</time>
      </trkpt>
      <trkpt lat="47.09989" lon="5.88576">
        <ele>253.8</ele>
        <time>2023-05-07T06:56:25Z</time>
      </trkpt>
      <trkpt lat="47.09974" lon="5.88573">
        <ele>255</ele>
        <time>2023-05-07T06:56:28Z</time>
      </trkpt>
      <trkpt lat="47.09959" lon="5.8857">
        <ele>256.2</ele>
        <time>2023-05-07T06:56:31Z</time>
      </trkpt>
      <trkpt lat="47.09939" lon="5.88566">
        <ele>257.2</ele>
        <time>2023-05-07T06:56:35Z</time>
      </trkpt>
      <trkpt lat="47.09913" lon="5.8856">
        <ele>258.4</ele>
        <time>2023-05-07T06:56:40Z</time>
      </trkpt>
      <trkpt lat="47.09898" lon="5.88558">
        <ele>259.6</ele>
        <time>2023-05-07T06:56:43Z</time>
      </trkpt>
      <trkpt lat="47.09883" lon="5.88555">
        <ele>260.4</ele>
        <time>2023-05-07T06:56:46Z</time>
      </trkpt>
      <trkpt lat="47.09873" lon="5.88552">
        <ele>260.8</ele>
        <time>2023-05-07T06:56:48Z</time>
      </trkpt>
      <trkpt lat="47.09859" lon="5.88545">
        <ele>261.6</ele>
        <time>2023-05-07T06:56:51Z</time>
      </trkpt>
      <trkpt lat="47.09851" lon="5.88534">
        <ele>261.6</ele>
        <time>2023-05-07T06:56:53Z</time>
      </trkpt>
      <trkpt lat="47.09839" lon="5.88519">
        <ele>261.6</ele>
        <time>2023-05-07T06:56:56Z</time>
      </trkpt>
      <trkpt lat="47.09831" lon="5.8851">
        <ele>261.8</ele>
        <time>2023-05-07T06:56:58Z</time>
      </trkpt>
      <trkpt lat="47.09827" lon="5.88506">
        <ele>262</ele>
        <time>2023-05-07T06:56:59Z</time>
      </trkpt>
      <trkpt lat="47.09785" lon="5.88456">
        <ele>262.2</ele>
        <time>2023-05-07T06:57:09Z</time>
      </trkpt>
      <trkpt lat="47.09744" lon="5.88405">
        <ele>262.2</ele>
        <time>2023-05-07T06:57:19Z</time>
      </trkpt>
      <trkpt lat="47.09737" lon="5.88393">
        <ele>262.2</ele>
        <time>2023-05-07T06:57:21Z</time>
      </trkpt>
      <trkpt lat="47.09718" lon="5.88347">
        <ele>262.2</ele>
        <time>2023-05-07T06:57:28Z</time>
      </trkpt>
      <trkpt lat="47.09705" lon="5.88307">
        <ele>262.8</ele>
        <time>2023-05-07T06:57:34Z</time>
      </trkpt>
      <trkpt lat="47.09701" lon="5.88301">
        <ele>263.4</ele>
        <time>2023-05-07T06:57:35Z</time>
      </trkpt>
      <trkpt lat="47.09685" lon="5.88278">
        <ele>264.2</ele>
        <time>2023-05-07T06:57:39Z</time>
      </trkpt>
      <trkpt lat="47.0968" lon="5.88273">
        <ele>264.4</ele>
        <time>2023-05-07T06:57:40Z</time>
      </trkpt>
      <trkpt lat="47.09649" lon="5.88238">
        <ele>265.6</ele>
        <time>2023-05-07T06:57:47Z</time>
      </trkpt>
      <trkpt lat="47.09631" lon="5.88219">
        <ele>265.8</ele>
        <time>2023-05-07T06:57:51Z</time>
      </trkpt>
      <trkpt lat="47.09619" lon="5.88203">
        <ele>266.6</ele>
        <time>2023-05-07T06:57:54Z</time>
      </trkpt>
      <trkpt lat="47.09583" lon="5.88163">
        <ele>266.8</ele>
        <time>2023-05-07T06:58:02Z</time>
      </trkpt>
      <trkpt lat="47.0954" lon="5.88115">
        <ele>266.8</ele>
        <time>2023-05-07T06:58:12Z</time>
      </trkpt>
      <trkpt lat="47.09505" lon="5.88078">
        <ele>267.6</ele>
        <time>2023-05-07T06:58:20Z</time>
      </trkpt>
      <trkpt lat="47.09496" lon="5.88068">
        <ele>267.6</ele>
        <time>2023-05-07T06:58:22Z</time>
      </trkpt>
      <trkpt lat="47.09456" lon="5.88026">
        <ele>268.2</ele>
        <time>2023-05-07T06:58:31Z</time>
      </trkpt>
      <trkpt lat="47.09421" lon="5.87986">
        <ele>268.2</ele>
        <time>2023-05-07T06:58:39Z</time>
      </trkpt>
      <trkpt lat="47.09416" lon="5.87971">
        <ele>268.4</ele>
        <time>2023-05-07T06:58:41Z</time>
      </trkpt>
      <trkpt lat="47.09413" lon="5.87947">
        <ele>267.8</ele>
        <time>2023-05-07T06:58:44Z</time>
      </trkpt>
      <trkpt lat="47.09411" lon="5.87931">
        <ele>267.4</ele>
        <time>2023-05-07T06:58:46Z</time>
      </trkpt>
      <trkpt lat="47.09399" lon="5.87851">
        <ele>267.4</ele>
        <time>2023-05-07T06:58:56Z</time>
      </trkpt>
      <trkpt lat="47.09398" lon="5.87843">
        <ele>267.4</ele>
        <time>2023-05-07T06:58:57Z</time>
      </trkpt>
      <trkpt lat="47.09385" lon="5.87764">
        <ele>267.4</ele>
        <time>2023-05-07T06:59:07Z</time>
      </trkpt>
      <trkpt lat="47.09372" lon="5.87687">
        <ele>267.6</ele>
        <time>2023-05-07T06:59:17Z</time>
      </trkpt>
      <trkpt lat="47.09359" lon="5.87608">
        <ele>267.8</ele>
        <time>2023-05-07T06:59:27Z</time>
      </trkpt>
      <trkpt lat="47.09346" lon="5.87529">
        <ele>267.6</ele>
        <time>2023-05-07T06:59:37Z</time>
      </trkpt>
      <trkpt lat="47.09345" lon="5.87522">
        <ele>267.8</ele>
        <time>2023-05-07T06:59:38Z</time>
      </trkpt>
      <trkpt lat="47.09335" lon="5.87459">
        <ele>267.4</ele>
        <time>2023-05-07T06:59:46Z</time>
      </trkpt>
      <trkpt lat="47.0933" lon="5.87444">
        <ele>267.4</ele>
        <time>2023-05-07T06:59:48Z</time>
      </trkpt>
      <trkpt lat="47.09319" lon="5.87427">
        <ele>267.6</ele>
        <time>2023-05-07T06:59:51Z</time>
      </trkpt>
      <trkpt lat="47.09309" lon="5.87421">
        <ele>267.8</ele>
        <time>2023-05-07T06:59:53Z</time>
      </trkpt>
      <trkpt lat="47.093" lon="5.87415">
        <ele>268</ele>
        <time>2023-05-07T06:59:55Z</time>
      </trkpt>
      <trkpt lat="47.09275" lon="5.874">
        <ele>268</ele>
        <time>2023-05-07T07:00:00Z</time>
      </trkpt>
      <trkpt lat="47.09256" lon="5.87387">
        <ele>268</ele>
        <time>2023-05-07T07:00:04Z</time>
      </trkpt>
      <trkpt lat="47.09205" lon="5.87355">
        <ele>267.6</ele>
        <time>2023-05-07T07:00:14Z</time>
      </trkpt>
      <trkpt lat="47.092" lon="5.87352">
        <ele>267.4</ele>
        <time>2023-05-07T07:00:15Z</time>
      </trkpt>
      <trkpt lat="47.09155" lon="5.87328">
        <ele>267.4</ele>
        <time>2023-05-07T07:00:24Z</time>
      </trkpt>
      <trkpt lat="47.09103" lon="5.87308">
        <ele>267</ele>
        <time>2023-05-07T07:00:34Z</time>
      </trkpt>
      <trkpt lat="47.09092" lon="5.87309">
        <ele>266.8</ele>
        <time>2023-05-07T07:00:36Z</time>
      </trkpt>
      <trkpt lat="47.09083" lon="5.87316">
        <ele>267</ele>
        <time>2023-05-07T07:00:38Z</time>
      </trkpt>
      <trkpt lat="47.09076" lon="5.87332">
        <ele>267.6</ele>
        <time>2023-05-07T07:00:41Z</time>
      </trkpt>
      <trkpt lat="47.09073" lon="5.87339">
        <ele>267.6</ele>
        <time>2023-05-07T07:00:42Z</time>
      </trkpt>
      <trkpt lat="47.09058" lon="5.87368">
        <ele>267</ele>
        <time>2023-05-07T07:00:47Z</time>
      </trkpt>
      <trkpt lat="47.09053" lon="5.87373">
        <ele>267</ele>
        <time>2023-05-07T07:00:48Z</time>
      </trkpt>
      <trkpt lat="47.09039" lon="5.87382">
        <ele>266.6</ele>
        <time>2023-05-07T07:00:51Z</time>
      </trkpt>
      <trkpt lat="47.09034" lon="5.87384">
        <ele>266.4</ele>
        <time>2023-05-07T07:00:52Z</time>
      </trkpt>
      <trkpt lat="47.09024" lon="5.87387">
        <ele>266</ele>
        <time>2023-05-07T07:00:54Z</time>
      </trkpt>
      <trkpt lat="47.09008" lon="5.87389">
        <ele>265.8</ele>
        <time>2023-05-07T07:00:57Z</time>
      </trkpt>
      <trkpt lat="47.08983" lon="5.87392">
        <ele>265.8</ele>
        <time>2023-05-07T07:01:02Z</time>
      </trkpt>
      <trkpt lat="47.08973" lon="5.87398">
        <ele>265.8</ele>
        <time>2023-05-07T07:01:04Z</time>
      </trkpt>
      <trkpt lat="47.08964" lon="5.87415">
        <ele>266</ele>
        <time>2023-05-07T07:01:07Z</time>
      </trkpt>
      <trkpt lat="47.08961" lon="5.8744">
        <ele>266.4</ele>
        <time>2023-05-07T07:01:11Z</time>
      </trkpt>
      <trkpt lat="47.08965" lon="5.8746">
        <ele>266.4</ele>
        <time>2023-05-07T07:01:14Z</time>
      </trkpt>
      <trkpt lat="47.08966" lon="5.87466">
        <ele>266.2</ele>
        <time>2023-05-07T07:01:15Z</time>
      </trkpt>
      <trkpt lat="47.08969" lon="5.87487">
        <ele>266.4</ele>
        <time>2023-05-07T07:01:18Z</time>
      </trkpt>
      <trkpt lat="47.08968" lon="5.875">
        <ele>266.8</ele>
        <time>2023-05-07T07:01:20Z</time>
      </trkpt>
      <trkpt lat="47.08964" lon="5.87514">
        <ele>267.2</ele>
        <time>2023-05-07T07:01:22Z</time>
      </trkpt>
      <trkpt lat="47.08956" lon="5.87541">
        <ele>267</ele>
        <time>2023-05-07T07:01:26Z</time>
      </trkpt>
      <trkpt lat="47.08945" lon="5.87573">
        <ele>267.4</ele>
        <time>2023-05-07T07:01:31Z</time>
      </trkpt>
      <trkpt lat="47.08942" lon="5.87578">
        <ele>267.2</ele>
        <time>2023-05-07T07:01:32Z</time>
      </trkpt>
      <trkpt lat="47.08925" lon="5.87617">
        <ele>266.2</ele>
        <time>2023-05-07T07:01:39Z</time>
      </trkpt>
      <trkpt lat="47.08917" lon="5.87655">
        <ele>266.8</ele>
        <time>2023-05-07T07:01:45Z</time>
      </trkpt>
      <trkpt lat="47.08903" lon="5.87698">
        <ele>267.4</ele>
        <time>2023-05-07T07:01:52Z</time>
      </trkpt>
      <trkpt lat="47.08901" lon="5.87704">
        <ele>267.4</ele>
        <time>2023-05-07T07:01:53Z</time>
      </trkpt>
      <trkpt lat="47.08886" lon="5.87747">
        <ele>268</ele>
        <time>2023-05-07T07:02:01Z</time>
      </trkpt>
      <trkpt lat="47.08887" lon="5.87752">
        <ele>268.4</ele>
        <time>2023-05-07T07:02:02Z</time>
      </trkpt>
      <trkpt lat="47.08889" lon="5.87756">
        <ele>268.6</ele>
        <time>2023-05-07T07:02:03Z</time>
      </trkpt>
      <trkpt lat="47.08891" lon="5.87761">
        <ele>268.8</ele>
        <time>2023-05-07T07:02:04Z</time>
      </trkpt>
      <trkpt lat="47.08903" lon="5.87789">
        <ele>269</ele>
        <time>2023-05-07T07:02:10Z</time>
      </trkpt>
      <trkpt lat="47.08914" lon="5.87832">
        <ele>269</ele>
        <time>2023-05-07T07:02:18Z</time>
      </trkpt>
      <trkpt lat="47.08925" lon="5.87869">
        <ele>269.4</ele>
        <time>2023-05-07T07:02:25Z</time>
      </trkpt>
      <trkpt lat="47.08928" lon="5.8788">
        <ele>269.8</ele>
        <time>2023-05-07T07:02:27Z</time>
      </trkpt>
      <trkpt lat="47.08938" lon="5.87919">
        <ele>270.8</ele>
        <time>2023-05-07T07:02:34Z</time>
      </trkpt>
      <trkpt lat="47.08943" lon="5.87934">
        <ele>271.8</ele>
        <time>2023-05-07T07:02:37Z</time>
      </trkpt>
      <trkpt lat="47.08949" lon="5.87961">
        <ele>272.6</ele>
        <time>2023-05-07T07:02:42Z</time>
      </trkpt>
      <trkpt lat="47.0895" lon="5.87966">
        <ele>272.8</ele>
        <time>2023-05-07T07:02:43Z</time>
      </trkpt>
      <trkpt lat="47.08953" lon="5.87983">
        <ele>274</ele>
        <time>2023-05-07T07:02:46Z</time>
      </trkpt>
      <trkpt lat="47.08959" lon="5.8801">
        <ele>275</ele>
        <time>2023-05-07T07:02:51Z</time>
      </trkpt>
      <trkpt lat="47.0896" lon="5.88015">
        <ele>275.2</ele>
        <time>2023-05-07T07:02:52Z</time>
      </trkpt>
      <trkpt lat="47.08967" lon="5.88048">
        <ele>276.2</ele>
        <time>2023-05-07T07:02:58Z</time>
      </trkpt>
      <trkpt lat="47.08968" lon="5.88059">
        <ele>276.8</ele>
        <time>2023-05-07T07:03:00Z</time>
      </trkpt>
      <trkpt lat="47.08973" lon="5.88091">
        <ele>277.4</ele>
        <time>2023-05-07T07:03:06Z</time>
      </trkpt>
      <trkpt lat="47.08976" lon="5.88122">
        <ele>278.6</ele>
        <time>2023-05-07T07:03:12Z</time>
      </trkpt>
      <trkpt lat="47.08977" lon="5.88138">
        <ele>279</ele>
        <time>2023-05-07T07:03:15Z</time>
      </trkpt>
      <trkpt lat="47.08978" lon="5.88155">
        <ele>279.6</ele>
        <time>2023-05-07T07:03:18Z</time>
      </trkpt>
      <trkpt lat="47.08978" lon="5.88186">
        <ele>280.8</ele>
        <time>2023-05-07T07:03:24Z</time>
      </trkpt>
      <trkpt lat="47.08978" lon="5.88192">
        <ele>281</ele>
        <time>2023-05-07T07:03:25Z</time>
      </trkpt>
      <trkpt lat="47.08975" lon="5.8822">
        <ele>282</ele>
        <time>2023-05-07T07:03:30Z</time>
      </trkpt>
      <trkpt lat="47.08973" lon="5.88226">
        <ele>282.2</ele>
        <time>2023-05-07T07:03:31Z</time>
      </trkpt>
      <trkpt lat="47.08971" lon="5.88231">
        <ele>282.4</ele>
        <time>2023-05-07T07:03:32Z</time>
      </trkpt>
      <trkpt lat="47.08956" lon="5.88264">
        <ele>282.8</ele>
        <time>2023-05-07T07:03:39Z</time>
      </trkpt>
      <trkpt lat="47.08935" lon="5.88291">
        <ele>283.2</ele>
        <time>2023-05-07T07:03:46Z</time>
      </trkpt>
      <trkpt lat="47.08928" lon="5.88298">
        <ele>283.2</ele>
        <time>2023-05-07T07:03:48Z</time>
      </trkpt>
      <trkpt lat="47.08924" lon="5.88301">
        <ele>283.2</ele>
        <time>2023-05-07T07:03:49Z</time>
      </trkpt>
      <trkpt lat="47.08906" lon="5.88312">
        <ele>283.2</ele>
        <time>2023-05-07T07:03:54Z</time>
      </trkpt>
      <trkpt lat="47.08873" lon="5.88333">
        <ele>284.2</ele>
        <time>2023-05-07T07:04:03Z</time>
      </trkpt>
      <trkpt lat="47.08845" lon="5.88352">
        <ele>285.2</ele>
        <time>2023-05-07T07:04:11Z</time>
      </trkpt>
      <trkpt lat="47.08838" lon="5.88357">
        <ele>285.6</ele>
        <time>2023-05-07T07:04:13Z</time>
      </trkpt>
      <trkpt lat="47.08815" lon="5.88375">
        <ele>286.4</ele>
        <time>2023-05-07T07:04:20Z</time>
      </trkpt>
      <trkpt lat="47.088" lon="5.88394">
        <ele>287.4</ele>
        <time>2023-05-07T07:04:26Z</time>
      </trkpt>
      <trkpt lat="47.08796" lon="5.884">
        <ele>287.8</ele>
        <time>2023-05-07T07:04:28Z</time>
      </trkpt>
      <trkpt lat="47.08789" lon="5.88408">
        <ele>288.4</ele>
        <time>2023-05-07T07:04:32Z</time>
      </trkpt>
      <trkpt lat="47.08788" lon="5.8841">
        <ele>288.6</ele>
        <time>2023-05-07T07:04:33Z</time>
      </trkpt>
      <trkpt lat="47.08773" lon="5.88427">
        <ele>289.4</ele>
        <time>2023-05-07T07:04:39Z</time>
      </trkpt>
      <trkpt lat="47.0877" lon="5.88429">
        <ele>289.4</ele>
        <time>2023-05-07T07:04:40Z</time>
      </trkpt>
      <trkpt lat="47.0876" lon="5.88428">
        <ele>289.8</ele>
        <time>2023-05-07T07:04:43Z</time>
      </trkpt>
      <trkpt lat="47.08739" lon="5.88434">
        <ele>290.2</ele>
        <time>2023-05-07T07:04:49Z</time>
      </trkpt>
      <trkpt lat="47.08728" lon="5.88457">
        <ele>290.4</ele>
        <time>2023-05-07T07:04:54Z</time>
      </trkpt>
      <trkpt lat="47.08726" lon="5.88461">
        <ele>290.6</ele>
        <time>2023-05-07T07:04:55Z</time>
      </trkpt>
      <trkpt lat="47.08724" lon="5.88488">
        <ele>290.4</ele>
        <time>2023-05-07T07:05:00Z</time>
      </trkpt>
      <trkpt lat="47.08733" lon="5.88502">
        <ele>290.8</ele>
        <time>2023-05-07T07:05:04Z</time>
      </trkpt>
      <trkpt lat="47.08752" lon="5.88522">
        <ele>291.2</ele>
        <time>2023-05-07T07:05:11Z</time>
      </trkpt>
      <trkpt lat="47.08758" lon="5.88527">
        <ele>291.6</ele>
        <time>2023-05-07T07:05:13Z</time>
      </trkpt>
      <trkpt lat="47.08768" lon="5.88541">
        <ele>292.2</ele>
        <time>2023-05-07T07:05:18Z</time>
      </trkpt>
      <trkpt lat="47.08769" lon="5.88557">
        <ele>292.6</ele>
        <time>2023-05-07T07:05:22Z</time>
      </trkpt>
      <trkpt lat="47.08769" lon="5.88562">
        <ele>292.8</ele>
        <time>2023-05-07T07:05:23Z</time>
      </trkpt>
      <trkpt lat="47.08771" lon="5.88578">
        <ele>293.8</ele>
        <time>2023-05-07T07:05:27Z</time>
      </trkpt>
      <trkpt lat="47.08771" lon="5.8859">
        <ele>294</ele>
        <time>2023-05-07T07:05:30Z</time>
      </trkpt>
      <trkpt lat="47.08771" lon="5.88606">
        <ele>294.8</ele>
        <time>2023-05-07T07:05:34Z</time>
      </trkpt>
      <trkpt lat="47.08771" lon="5.88618">
        <ele>296</ele>
        <time>2023-05-07T07:05:37Z</time>
      </trkpt>
      <trkpt lat="47.0877" lon="5.88626">
        <ele>296.6</ele>
        <time>2023-05-07T07:05:39Z</time>
      </trkpt>
      <trkpt lat="47.08765" lon="5.8864">
        <ele>297.2</ele>
        <time>2023-05-07T07:05:43Z</time>
      </trkpt>
      <trkpt lat="47.08761" lon="5.88649">
        <ele>297.8</ele>
        <time>2023-05-07T07:05:46Z</time>
      </trkpt>
      <trkpt lat="47.08758" lon="5.88655">
        <ele>298.2</ele>
        <time>2023-05-07T07:05:48Z</time>
      </trkpt>
      <trkpt lat="47.08747" lon="5.8867">
        <ele>299</ele>
        <time>2023-05-07T07:05:54Z</time>
      </trkpt>
      <trkpt lat="47.08744" lon="5.88675">
        <ele>299.4</ele>
        <time>2023-05-07T07:05:56Z</time>
      </trkpt>
      <trkpt lat="47.08734" lon="5.88691">
        <ele>300.2</ele>
        <time>2023-05-07T07:06:02Z</time>
      </trkpt>
      <trkpt lat="47.08729" lon="5.88701">
        <ele>300.6</ele>
        <time>2023-05-07T07:06:06Z</time>
      </trkpt>
      <trkpt lat="47.08725" lon="5.8871">
        <ele>301</ele>
        <time>2023-05-07T07:06:10Z</time>
      </trkpt>
      <trkpt lat="47.08723" lon="5.88726">
        <ele>301.2</ele>
        <time>2023-05-07T07:06:16Z</time>
      </trkpt>
      <trkpt lat="47.08722" lon="5.88738">
        <ele>301.6</ele>
        <time>2023-05-07T07:06:21Z</time>
      </trkpt>
      <trkpt lat="47.08721" lon="5.88745">
        <ele>301.8</ele>
        <time>2023-05-07T07:06:24Z</time>
      </trkpt>
      <trkpt lat="47.08719" lon="5.88761">
        <ele>302</ele>
        <time>2023-05-07T07:06:30Z</time>
      </trkpt>
      <trkpt lat="47.08712" lon="5.88788">
        <ele>302.6</ele>
        <time>2023-05-07T07:06:38Z</time>
      </trkpt>
      <trkpt lat="47.08708" lon="5.88798">
        <ele>304</ele>
        <time>2023-05-07T07:06:41Z</time>
      </trkpt>
      <trkpt lat="47.08703" lon="5.88807">
        <ele>305.2</ele>
        <time>2023-05-07T07:06:44Z</time>
      </trkpt>
      <trkpt lat="47.08699" lon="5.88815">
        <ele>305.8</ele>
        <time>2023-05-07T07:06:47Z</time>
      </trkpt>
      <trkpt lat="47.08694" lon="5.88824">
        <ele>306.6</ele>
        <time>2023-05-07T07:06:50Z</time>
      </trkpt>
      <trkpt lat="47.0869" lon="5.88833">
        <ele>307.6</ele>
        <time>2023-05-07T07:06:53Z</time>
      </trkpt>
      <trkpt lat="47.08686" lon="5.8884">
        <ele>308.2</ele>
        <time>2023-05-07T07:06:56Z</time>
      </trkpt>
      <trkpt lat="47.08678" lon="5.88857">
        <ele>309</ele>
        <time>2023-05-07T07:07:02Z</time>
      </trkpt>
      <trkpt lat="47.08677" lon="5.8886">
        <ele>309.4</ele>
        <time>2023-05-07T07:07:03Z</time>
      </trkpt>
      <trkpt lat="47.08671" lon="5.88871">
        <ele>310.2</ele>
        <time>2023-05-07T07:07:07Z</time>
      </trkpt>
      <trkpt lat="47.08667" lon="5.88883">
        <ele>310.6</ele>
        <time>2023-05-07T07:07:11Z</time>
      </trkpt>
      <trkpt lat="47.08664" lon="5.88892">
        <ele>311.2</ele>
        <time>2023-05-07T07:07:14Z</time>
      </trkpt>
      <trkpt lat="47.08661" lon="5.88901">
        <ele>312.4</ele>
        <time>2023-05-07T07:07:17Z</time>
      </trkpt>
      <trkpt lat="47.08659" lon="5.88904">
        <ele>312.6</ele>
        <time>2023-05-07T07:07:18Z</time>
      </trkpt>
      <trkpt lat="47.08656" lon="5.88913">
        <ele>313.4</ele>
        <time>2023-05-07T07:07:21Z</time>
      </trkpt>
      <trkpt lat="47.08652" lon="5.88925">
        <ele>314.8</ele>
        <time>2023-05-07T07:07:25Z</time>
      </trkpt>
      <trkpt lat="47.08651" lon="5.88932">
        <ele>315.4</ele>
        <time>2023-05-07T07:07:27Z</time>
      </trkpt>
      <trkpt lat="47.0865" lon="5.88942">
        <ele>316.2</ele>
        <time>2023-05-07T07:07:30Z</time>
      </trkpt>
      <trkpt lat="47.08646" lon="5.88955">
        <ele>317.2</ele>
        <time>2023-05-07T07:07:34Z</time>
      </trkpt>
      <trkpt lat="47.08646" lon="5.88959">
        <ele>317.6</ele>
        <time>2023-05-07T07:07:35Z</time>
      </trkpt>
      <trkpt lat="47.08645" lon="5.88966">
        <ele>318.4</ele>
        <time>2023-05-07T07:07:37Z</time>
      </trkpt>
      <trkpt lat="47.08643" lon="5.88975">
        <ele>319.6</ele>
        <time>2023-05-07T07:07:40Z</time>
      </trkpt>
      <trkpt lat="47.08642" lon="5.88981">
        <ele>320</ele>
        <time>2023-05-07T07:07:42Z</time>
      </trkpt>
      <trkpt lat="47.08642" lon="5.88991">
        <ele>320.6</ele>
        <time>2023-05-07T07:07:45Z</time>
      </trkpt>
      <trkpt lat="47.08641" lon="5.89005">
        <ele>321.8</ele>
        <time>2023-05-07T07:07:49Z</time>
      </trkpt>
      <trkpt lat="47.08638" lon="5.89021">
        <ele>322.8</ele>
        <time>2023-05-07T07:07:54Z</time>
      </trkpt>
      <trkpt lat="47.08638" lon="5.89028">
        <ele>323.4</ele>
        <time>2023-05-07T07:07:56Z</time>
      </trkpt>
      <trkpt lat="47.08638" lon="5.89035">
        <ele>324.2</ele>
        <time>2023-05-07T07:07:58Z</time>
      </trkpt>
      <trkpt lat="47.08635" lon="5.89054">
        <ele>325.2</ele>
        <time>2023-05-07T07:08:04Z</time>
      </trkpt>
      <trkpt lat="47.08635" lon="5.89061">
        <ele>325.6</ele>
        <time>2023-05-07T07:08:06Z</time>
      </trkpt>
      <trkpt lat="47.08634" lon="5.89068">
        <ele>326.4</ele>
        <time>2023-05-07T07:08:08Z</time>
      </trkpt>
      <trkpt lat="47.08633" lon="5.89084">
        <ele>327.6</ele>
        <time>2023-05-07T07:08:13Z</time>
      </trkpt>
      <trkpt lat="47.08632" lon="5.89091">
        <ele>328.6</ele>
        <time>2023-05-07T07:08:15Z</time>
      </trkpt>
      <trkpt lat="47.08631" lon="5.89106">
        <ele>329.6</ele>
        <time>2023-05-07T07:08:20Z</time>
      </trkpt>
      <trkpt lat="47.08629" lon="5.89121">
        <ele>330.6</ele>
        <time>2023-05-07T07:08:25Z</time>
      </trkpt>
      <trkpt lat="47.08628" lon="5.89124">
        <ele>330.8</ele>
        <time>2023-05-07T07:08:26Z</time>
      </trkpt>
      <trkpt lat="47.08625" lon="5.89133">
        <ele>332</ele>
        <time>2023-05-07T07:08:29Z</time>
      </trkpt>
      <trkpt lat="47.08622" lon="5.89147">
        <ele>333.2</ele>
        <time>2023-05-07T07:08:34Z</time>
      </trkpt>
      <trkpt lat="47.08621" lon="5.8915">
        <ele>333.6</ele>
        <time>2023-05-07T07:08:35Z</time>
      </trkpt>
      <trkpt lat="47.08619" lon="5.89156">
        <ele>334.4</ele>
        <time>2023-05-07T07:08:37Z</time>
      </trkpt>
      <trkpt lat="47.08616" lon="5.89165">
        <ele>335.4</ele>
        <time>2023-05-07T07:08:40Z</time>
      </trkpt>
      <trkpt lat="47.08612" lon="5.8918">
        <ele>336.6</ele>
        <time>2023-05-07T07:08:45Z</time>
      </trkpt>
      <trkpt lat="47.08606" lon="5.89196">
        <ele>337.8</ele>
        <time>2023-05-07T07:08:51Z</time>
      </trkpt>
      <trkpt lat="47.08604" lon="5.89204">
        <ele>338.2</ele>
        <time>2023-05-07T07:08:54Z</time>
      </trkpt>
      <trkpt lat="47.08601" lon="5.89212">
        <ele>339</ele>
        <time>2023-05-07T07:08:58Z</time>
      </trkpt>
      <trkpt lat="47.08598" lon="5.89221">
        <ele>339.6</ele>
        <time>2023-05-07T07:09:02Z</time>
      </trkpt>
      <trkpt lat="47.08592" lon="5.89241">
        <ele>340.2</ele>
        <time>2023-05-07T07:09:11Z</time>
      </trkpt>
      <trkpt lat="47.0859" lon="5.89247">
        <ele>340.4</ele>
        <time>2023-05-07T07:09:14Z</time>
      </trkpt>
      <trkpt lat="47.08589" lon="5.89268">
        <ele>340.2</ele>
        <time>2023-05-07T07:09:23Z</time>
      </trkpt>
      <trkpt lat="47.0859" lon="5.89287">
        <ele>340.2</ele>
        <time>2023-05-07T07:09:31Z</time>
      </trkpt>
      <trkpt lat="47.08591" lon="5.89301">
        <ele>339.6</ele>
        <time>2023-05-07T07:09:38Z</time>
      </trkpt>
      <trkpt lat="47.08593" lon="5.89308">
        <ele>339.2</ele>
        <time>2023-05-07T07:09:41Z</time>
      </trkpt>
      <trkpt lat="47.08596" lon="5.89316">
        <ele>338.2</ele>
        <time>2023-05-07T07:09:45Z</time>
      </trkpt>
      <trkpt lat="47.08597" lon="5.89318">
        <ele>337.8</ele>
        <time>2023-05-07T07:09:46Z</time>
      </trkpt>
      <trkpt lat="47.08597" lon="5.89324">
        <ele>336.8</ele>
        <time>2023-05-07T07:09:49Z</time>
      </trkpt>
      <trkpt lat="47.086" lon="5.89334">
        <ele>337</ele>
        <time>2023-05-07T07:09:55Z</time>
      </trkpt>
      <trkpt lat="47.08599" lon="5.8936">
        <ele>338.4</ele>
        <time>2023-05-07T07:10:08Z</time>
      </trkpt>
      <trkpt lat="47.08596" lon="5.89371">
        <ele>339.8</ele>
        <time>2023-05-07T07:10:13Z</time>
      </trkpt>
      <trkpt lat="47.08596" lon="5.89373">
        <ele>340.2</ele>
        <time>2023-05-07T07:10:14Z</time>
      </trkpt>
      <trkpt lat="47.08566" lon="5.89477">
        <ele>344.4</ele>
        <time>2023-05-07T07:11:07Z</time>
      </trkpt>
      <trkpt lat="47.08564" lon="5.89484">
        <ele>343.8</ele>
        <time>2023-05-07T07:11:10Z</time>
      </trkpt>
      <trkpt lat="47.08563" lon="5.89486">
        <ele>343.4</ele>
        <time>2023-05-07T07:11:11Z</time>
      </trkpt>
      <trkpt lat="47.0856" lon="5.89493">
        <ele>342</ele>
        <time>2023-05-07T07:11:14Z</time>
      </trkpt>
      <trkpt lat="47.08558" lon="5.89499">
        <ele>341</ele>
        <time>2023-05-07T07:11:17Z</time>
      </trkpt>
      <trkpt lat="47.08557" lon="5.89501">
        <ele>341</ele>
        <time>2023-05-07T07:11:18Z</time>
      </trkpt>
      <trkpt lat="47.08554" lon="5.89515">
        <ele>340.4</ele>
        <time>2023-05-07T07:11:24Z</time>
      </trkpt>
      <trkpt lat="47.08551" lon="5.89521">
        <ele>340</ele>
        <time>2023-05-07T07:11:27Z</time>
      </trkpt>
      <trkpt lat="47.08549" lon="5.89529">
        <ele>339.2</ele>
        <time>2023-05-07T07:11:31Z</time>
      </trkpt>
      <trkpt lat="47.08549" lon="5.89531">
        <ele>339</ele>
        <time>2023-05-07T07:11:32Z</time>
      </trkpt>
      <trkpt lat="47.08544" lon="5.89549">
        <ele>337.2</ele>
        <time>2023-05-07T07:11:41Z</time>
      </trkpt>
      <trkpt lat="47.08541" lon="5.89557">
        <ele>336.6</ele>
        <time>2023-05-07T07:11:45Z</time>
      </trkpt>
      <trkpt lat="47.08539" lon="5.89564">
        <ele>336</ele>
        <time>2023-05-07T07:11:48Z</time>
      </trkpt>
      <trkpt lat="47.08531" lon="5.89586">
        <ele>336.4</ele>
        <time>2023-05-07T07:11:59Z</time>
      </trkpt>
      <trkpt lat="47.08525" lon="5.89603">
        <ele>336</ele>
        <time>2023-05-07T07:12:06Z</time>
      </trkpt>
      <trkpt lat="47.08519" lon="5.89614">
        <ele>337.4</ele>
        <time>2023-05-07T07:12:10Z</time>
      </trkpt>
      <trkpt lat="47.08517" lon="5.89621">
        <ele>336.4</ele>
        <time>2023-05-07T07:12:12Z</time>
      </trkpt>
      <trkpt lat="47.08515" lon="5.89625">
        <ele>336</ele>
        <time>2023-05-07T07:12:13Z</time>
      </trkpt>
      <trkpt lat="47.08508" lon="5.89644">
        <ele>335.2</ele>
        <time>2023-05-07T07:12:19Z</time>
      </trkpt>
      <trkpt lat="47.08504" lon="5.89655">
        <ele>335</ele>
        <time>2023-05-07T07:12:22Z</time>
      </trkpt>
      <trkpt lat="47.08502" lon="5.89662">
        <ele>333.8</ele>
        <time>2023-05-07T07:12:24Z</time>
      </trkpt>
      <trkpt lat="47.08502" lon="5.89664">
        <ele>332.8</ele>
        <time>2023-05-07T07:12:25Z</time>
      </trkpt>
      <trkpt lat="47.08501" lon="5.89667">
        <ele>331.8</ele>
        <time>2023-05-07T07:12:26Z</time>
      </trkpt>
      <trkpt lat="47.08499" lon="5.89671">
        <ele>332.4</ele>
        <time>2023-05-07T07:12:27Z</time>
      </trkpt>
      <trkpt lat="47.08498" lon="5.89674">
        <ele>332.8</ele>
        <time>2023-05-07T07:12:28Z</time>
      </trkpt>
      <trkpt lat="47.08497" lon="5.89681">
        <ele>331.6</ele>
        <time>2023-05-07T07:12:30Z</time>
      </trkpt>
      <trkpt lat="47.08494" lon="5.89691">
        <ele>330</ele>
        <time>2023-05-07T07:12:33Z</time>
      </trkpt>
      <trkpt lat="47.08492" lon="5.89698">
        <ele>329.8</ele>
        <time>2023-05-07T07:12:35Z</time>
      </trkpt>
      <trkpt lat="47.08489" lon="5.89708">
        <ele>329.8</ele>
        <time>2023-05-07T07:12:38Z</time>
      </trkpt>
      <trkpt lat="47.08488" lon="5.89714">
        <ele>328.8</ele>
        <time>2023-05-07T07:12:40Z</time>
      </trkpt>
      <trkpt lat="47.08482" lon="5.89733">
        <ele>328.6</ele>
        <time>2023-05-07T07:12:45Z</time>
      </trkpt>
      <trkpt lat="47.08481" lon="5.89742">
        <ele>327.2</ele>
        <time>2023-05-07T07:12:47Z</time>
      </trkpt>
      <trkpt lat="47.08479" lon="5.8975">
        <ele>325.6</ele>
        <time>2023-05-07T07:12:49Z</time>
      </trkpt>
      <trkpt lat="47.08478" lon="5.89757">
        <ele>324.2</ele>
        <time>2023-05-07T07:12:51Z</time>
      </trkpt>
      <trkpt lat="47.08477" lon="5.8976">
        <ele>323</ele>
        <time>2023-05-07T07:12:52Z</time>
      </trkpt>
      <trkpt lat="47.08477" lon="5.89763">
        <ele>322</ele>
        <time>2023-05-07T07:12:53Z</time>
      </trkpt>
      <trkpt lat="47.08476" lon="5.89766">
        <ele>320.8</ele>
        <time>2023-05-07T07:12:54Z</time>
      </trkpt>
      <trkpt lat="47.08474" lon="5.89783">
        <ele>318.6</ele>
        <time>2023-05-07T07:12:58Z</time>
      </trkpt>
      <trkpt lat="47.08472" lon="5.89796">
        <ele>317.6</ele>
        <time>2023-05-07T07:13:01Z</time>
      </trkpt>
      <trkpt lat="47.08471" lon="5.89806">
        <ele>316</ele>
        <time>2023-05-07T07:13:03Z</time>
      </trkpt>
      <trkpt lat="47.0847" lon="5.89811">
        <ele>315</ele>
        <time>2023-05-07T07:13:04Z</time>
      </trkpt>
      <trkpt lat="47.0847" lon="5.89816">
        <ele>314</ele>
        <time>2023-05-07T07:13:05Z</time>
      </trkpt>
      <trkpt lat="47.08469" lon="5.8982">
        <ele>313.2</ele>
        <time>2023-05-07T07:13:06Z</time>
      </trkpt>
      <trkpt lat="47.08467" lon="5.89829">
        <ele>311.8</ele>
        <time>2023-05-07T07:13:08Z</time>
      </trkpt>
      <trkpt lat="47.08465" lon="5.89839">
        <ele>310.4</ele>
        <time>2023-05-07T07:13:10Z</time>
      </trkpt>
      <trkpt lat="47.08462" lon="5.89848">
        <ele>311</ele>
        <time>2023-05-07T07:13:12Z</time>
      </trkpt>
      <trkpt lat="47.08461" lon="5.89853">
        <ele>311.6</ele>
        <time>2023-05-07T07:13:13Z</time>
      </trkpt>
      <trkpt lat="47.08453" lon="5.89882">
        <ele>310</ele>
        <time>2023-05-07T07:13:20Z</time>
      </trkpt>
      <trkpt lat="47.08446" lon="5.89906">
        <ele>311.8</ele>
        <time>2023-05-07T07:13:25Z</time>
      </trkpt>
      <trkpt lat="47.08445" lon="5.8991">
        <ele>311.8</ele>
        <time>2023-05-07T07:13:26Z</time>
      </trkpt>
      <trkpt lat="47.08441" lon="5.89921">
        <ele>312.8</ele>
        <time>2023-05-07T07:13:28Z</time>
      </trkpt>
      <trkpt lat="47.08438" lon="5.89939">
        <ele>311.2</ele>
        <time>2023-05-07T07:13:31Z</time>
      </trkpt>
      <trkpt lat="47.08427" lon="5.89984">
        <ele>311.8</ele>
        <time>2023-05-07T07:13:37Z</time>
      </trkpt>
      <trkpt lat="47.0842" lon="5.90015">
        <ele>311.2</ele>
        <time>2023-05-07T07:13:41Z</time>
      </trkpt>
      <trkpt lat="47.08419" lon="5.9003">
        <ele>311</ele>
        <time>2023-05-07T07:13:43Z</time>
      </trkpt>
      <trkpt lat="47.08412" lon="5.90071">
        <ele>310.6</ele>
        <time>2023-05-07T07:13:49Z</time>
      </trkpt>
      <trkpt lat="47.0841" lon="5.90084">
        <ele>310.2</ele>
        <time>2023-05-07T07:13:51Z</time>
      </trkpt>
      <trkpt lat="47.08408" lon="5.90098">
        <ele>309.4</ele>
        <time>2023-05-07T07:13:53Z</time>
      </trkpt>
      <trkpt lat="47.08407" lon="5.90106">
        <ele>308.8</ele>
        <time>2023-05-07T07:13:54Z</time>
      </trkpt>
      <trkpt lat="47.08405" lon="5.90112">
        <ele>308.4</ele>
        <time>2023-05-07T07:13:55Z</time>
      </trkpt>
      <trkpt lat="47.08398" lon="5.90138">
        <ele>308.6</ele>
        <time>2023-05-07T07:13:59Z</time>
      </trkpt>
      <trkpt lat="47.08391" lon="5.90162">
        <ele>310</ele>
        <time>2023-05-07T07:14:02Z</time>
      </trkpt>
      <trkpt lat="47.08389" lon="5.90169">
        <ele>310</ele>
        <time>2023-05-07T07:14:03Z</time>
      </trkpt>
      <trkpt lat="47.08384" lon="5.90181">
        <ele>311.2</ele>
        <time>2023-05-07T07:14:05Z</time>
      </trkpt>
      <trkpt lat="47.08376" lon="5.90198">
        <ele>314.2</ele>
        <time>2023-05-07T07:14:08Z</time>
      </trkpt>
      <trkpt lat="47.08373" lon="5.90204">
        <ele>316.2</ele>
        <time>2023-05-07T07:14:09Z</time>
      </trkpt>
      <trkpt lat="47.0837" lon="5.90212">
        <ele>318.2</ele>
        <time>2023-05-07T07:14:10Z</time>
      </trkpt>
      <trkpt lat="47.08367" lon="5.90219">
        <ele>320.2</ele>
        <time>2023-05-07T07:14:11Z</time>
      </trkpt>
      <trkpt lat="47.08364" lon="5.90226">
        <ele>321.6</ele>
        <time>2023-05-07T07:14:12Z</time>
      </trkpt>
      <trkpt lat="47.08361" lon="5.90233">
        <ele>322.8</ele>
        <time>2023-05-07T07:14:13Z</time>
      </trkpt>
      <trkpt lat="47.08359" lon="5.9024">
        <ele>323.8</ele>
        <time>2023-05-07T07:14:14Z</time>
      </trkpt>
      <trkpt lat="47.08357" lon="5.90248">
        <ele>325</ele>
        <time>2023-05-07T07:14:15Z</time>
      </trkpt>
      <trkpt lat="47.08351" lon="5.90262">
        <ele>326.8</ele>
        <time>2023-05-07T07:14:17Z</time>
      </trkpt>
      <trkpt lat="47.08346" lon="5.90275">
        <ele>328</ele>
        <time>2023-05-07T07:14:19Z</time>
      </trkpt>
      <trkpt lat="47.08343" lon="5.90281">
        <ele>328.8</ele>
        <time>2023-05-07T07:14:20Z</time>
      </trkpt>
      <trkpt lat="47.0834" lon="5.90287">
        <ele>329.4</ele>
        <time>2023-05-07T07:14:21Z</time>
      </trkpt>
      <trkpt lat="47.08334" lon="5.90299">
        <ele>331</ele>
        <time>2023-05-07T07:14:23Z</time>
      </trkpt>
      <trkpt lat="47.08328" lon="5.9031">
        <ele>332.6</ele>
        <time>2023-05-07T07:14:25Z</time>
      </trkpt>
      <trkpt lat="47.08325" lon="5.90315">
        <ele>333.6</ele>
        <time>2023-05-07T07:14:26Z</time>
      </trkpt>
      <trkpt lat="47.08322" lon="5.90321">
        <ele>334.6</ele>
        <time>2023-05-07T07:14:27Z</time>
      </trkpt>
      <trkpt lat="47.0832" lon="5.90327">
        <ele>335.6</ele>
        <time>2023-05-07T07:14:28Z</time>
      </trkpt>
      <trkpt lat="47.08318" lon="5.90333">
        <ele>336.6</ele>
        <time>2023-05-07T07:14:29Z</time>
      </trkpt>
      <trkpt lat="47.08316" lon="5.9034">
        <ele>337.8</ele>
        <time>2023-05-07T07:14:30Z</time>
      </trkpt>
      <trkpt lat="47.08313" lon="5.90353">
        <ele>339.4</ele>
        <time>2023-05-07T07:14:32Z</time>
      </trkpt>
      <trkpt lat="47.08311" lon="5.90359">
        <ele>340.2</ele>
        <time>2023-05-07T07:14:33Z</time>
      </trkpt>
      <trkpt lat="47.0831" lon="5.90365">
        <ele>340.6</ele>
        <time>2023-05-07T07:14:34Z</time>
      </trkpt>
      <trkpt lat="47.08308" lon="5.90371">
        <ele>341.4</ele>
        <time>2023-05-07T07:14:35Z</time>
      </trkpt>
      <trkpt lat="47.08306" lon="5.90376">
        <ele>341.8</ele>
        <time>2023-05-07T07:14:36Z</time>
      </trkpt>
      <trkpt lat="47.083" lon="5.9039">
        <ele>343.2</ele>
        <time>2023-05-07T07:14:39Z</time>
      </trkpt>
      <trkpt lat="47.08297" lon="5.90398">
        <ele>344.2</ele>
        <time>2023-05-07T07:14:41Z</time>
      </trkpt>
      <trkpt lat="47.08294" lon="5.90406">
        <ele>345.2</ele>
        <time>2023-05-07T07:14:43Z</time>
      </trkpt>
      <trkpt lat="47.08289" lon="5.90417">
        <ele>346.4</ele>
        <time>2023-05-07T07:14:46Z</time>
      </trkpt>
      <trkpt lat="47.08286" lon="5.90423">
        <ele>347.4</ele>
        <time>2023-05-07T07:14:48Z</time>
      </trkpt>
      <trkpt lat="47.08283" lon="5.90429">
        <ele>348.4</ele>
        <time>2023-05-07T07:14:50Z</time>
      </trkpt>
      <trkpt lat="47.0828" lon="5.90436">
        <ele>349.8</ele>
        <time>2023-05-07T07:14:52Z</time>
      </trkpt>
      <trkpt lat="47.08277" lon="5.90443">
        <ele>351.2</ele>
        <time>2023-05-07T07:14:54Z</time>
      </trkpt>
      <trkpt lat="47.08272" lon="5.90451">
        <ele>352.4</ele>
        <time>2023-05-07T07:14:57Z</time>
      </trkpt>
      <trkpt lat="47.08268" lon="5.90461">
        <ele>354</ele>
        <time>2023-05-07T07:15:00Z</time>
      </trkpt>
      <trkpt lat="47.08265" lon="5.90468">
        <ele>355</ele>
        <time>2023-05-07T07:15:02Z</time>
      </trkpt>
      <trkpt lat="47.08264" lon="5.9047">
        <ele>355.6</ele>
        <time>2023-05-07T07:15:03Z</time>
      </trkpt>
      <trkpt lat="47.08262" lon="5.90474">
        <ele>357</ele>
        <time>2023-05-07T07:15:04Z</time>
      </trkpt>
      <trkpt lat="47.08261" lon="5.90477">
        <ele>358.2</ele>
        <time>2023-05-07T07:15:05Z</time>
      </trkpt>
      <trkpt lat="47.08259" lon="5.90479">
        <ele>359.2</ele>
        <time>2023-05-07T07:15:06Z</time>
      </trkpt>
      <trkpt lat="47.08258" lon="5.90483">
        <ele>361</ele>
        <time>2023-05-07T07:15:08Z</time>
      </trkpt>
      <trkpt lat="47.08257" lon="5.90487">
        <ele>362.2</ele>
        <time>2023-05-07T07:15:10Z</time>
      </trkpt>
      <trkpt lat="47.08255" lon="5.90493">
        <ele>363.6</ele>
        <time>2023-05-07T07:15:13Z</time>
      </trkpt>
      <trkpt lat="47.08253" lon="5.90499">
        <ele>365.2</ele>
        <time>2023-05-07T07:15:16Z</time>
      </trkpt>
      <trkpt lat="47.08253" lon="5.90501">
        <ele>365.6</ele>
        <time>2023-05-07T07:15:17Z</time>
      </trkpt>
      <trkpt lat="47.08251" lon="5.90504">
        <ele>366.6</ele>
        <time>2023-05-07T07:15:19Z</time>
      </trkpt>
      <trkpt lat="47.08249" lon="5.90512">
        <ele>367.8</ele>
        <time>2023-05-07T07:15:22Z</time>
      </trkpt>
      <trkpt lat="47.08246" lon="5.90519">
        <ele>369.2</ele>
        <time>2023-05-07T07:15:25Z</time>
      </trkpt>
      <trkpt lat="47.08243" lon="5.90524">
        <ele>370.2</ele>
        <time>2023-05-07T07:15:27Z</time>
      </trkpt>
      <trkpt lat="47.08238" lon="5.90532">
        <ele>371.2</ele>
        <time>2023-05-07T07:15:31Z</time>
      </trkpt>
      <trkpt lat="47.08234" lon="5.90539">
        <ele>372.4</ele>
        <time>2023-05-07T07:15:34Z</time>
      </trkpt>
      <trkpt lat="47.0823" lon="5.90549">
        <ele>373.4</ele>
        <time>2023-05-07T07:15:37Z</time>
      </trkpt>
      <trkpt lat="47.08226" lon="5.90558">
        <ele>373.8</ele>
        <time>2023-05-07T07:15:40Z</time>
      </trkpt>
      <trkpt lat="47.08218" lon="5.90585">
        <ele>374.4</ele>
        <time>2023-05-07T07:15:46Z</time>
      </trkpt>
      <trkpt lat="47.08217" lon="5.9059">
        <ele>374.8</ele>
        <time>2023-05-07T07:15:47Z</time>
      </trkpt>
      <trkpt lat="47.08213" lon="5.90615">
        <ele>375.4</ele>
        <time>2023-05-07T07:15:52Z</time>
      </trkpt>
      <trkpt lat="47.0821" lon="5.90633">
        <ele>375.8</ele>
        <time>2023-05-07T07:15:56Z</time>
      </trkpt>
      <trkpt lat="47.08206" lon="5.90664">
        <ele>376.6</ele>
        <time>2023-05-07T07:16:03Z</time>
      </trkpt>
      <trkpt lat="47.08204" lon="5.90672">
        <ele>377</ele>
        <time>2023-05-07T07:16:05Z</time>
      </trkpt>
      <trkpt lat="47.08203" lon="5.9068">
        <ele>377.6</ele>
        <time>2023-05-07T07:16:07Z</time>
      </trkpt>
      <trkpt lat="47.08201" lon="5.90695">
        <ele>378.6</ele>
        <time>2023-05-07T07:16:11Z</time>
      </trkpt>
      <trkpt lat="47.08198" lon="5.90702">
        <ele>379.2</ele>
        <time>2023-05-07T07:16:13Z</time>
      </trkpt>
      <trkpt lat="47.08196" lon="5.90705">
        <ele>379.4</ele>
        <time>2023-05-07T07:16:14Z</time>
      </trkpt>
      <trkpt lat="47.08193" lon="5.90705">
        <ele>379.6</ele>
        <time>2023-05-07T07:16:15Z</time>
      </trkpt>
      <trkpt lat="47.0819" lon="5.90705">
        <ele>380</ele>
        <time>2023-05-07T07:16:16Z</time>
      </trkpt>
      <trkpt lat="47.08185" lon="5.90702">
        <ele>380.8</ele>
        <time>2023-05-07T07:16:18Z</time>
      </trkpt>
      <trkpt lat="47.08174" lon="5.90693">
        <ele>381.4</ele>
        <time>2023-05-07T07:16:22Z</time>
      </trkpt>
      <trkpt lat="47.08161" lon="5.90684">
        <ele>381.8</ele>
        <time>2023-05-07T07:16:26Z</time>
      </trkpt>
      <trkpt lat="47.08149" lon="5.90678">
        <ele>382.2</ele>
        <time>2023-05-07T07:16:29Z</time>
      </trkpt>
      <trkpt lat="47.08112" lon="5.90659">
        <ele>381.6</ele>
        <time>2023-05-07T07:16:37Z</time>
      </trkpt>
      <trkpt lat="47.08081" lon="5.90644">
        <ele>380.8</ele>
        <time>2023-05-07T07:16:43Z</time>
      </trkpt>
      <trkpt lat="47.08071" lon="5.9064">
        <ele>380.4</ele>
        <time>2023-05-07T07:16:45Z</time>
      </trkpt>
      <trkpt lat="47.08052" lon="5.9063">
        <ele>379.8</ele>
        <time>2023-05-07T07:16:49Z</time>
      </trkpt>
      <trkpt lat="47.08031" lon="5.90621">
        <ele>379.2</ele>
        <time>2023-05-07T07:16:53Z</time>
      </trkpt>
      <trkpt lat="47.08015" lon="5.90613">
        <ele>378.6</ele>
        <time>2023-05-07T07:16:56Z</time>
      </trkpt>
      <trkpt lat="47.07987" lon="5.90597">
        <ele>378</ele>
        <time>2023-05-07T07:17:01Z</time>
      </trkpt>
      <trkpt lat="47.07982" lon="5.90592">
        <ele>377.8</ele>
        <time>2023-05-07T07:17:02Z</time>
      </trkpt>
      <trkpt lat="47.07976" lon="5.90587">
        <ele>377.6</ele>
        <time>2023-05-07T07:17:03Z</time>
      </trkpt>
      <trkpt lat="47.07946" lon="5.9056">
        <ele>376.6</ele>
        <time>2023-05-07T07:17:08Z</time>
      </trkpt>
      <trkpt lat="47.0794" lon="5.90554">
        <ele>376.4</ele>
        <time>2023-05-07T07:17:09Z</time>
      </trkpt>
      <trkpt lat="47.0792" lon="5.90536">
        <ele>375.4</ele>
        <time>2023-05-07T07:17:12Z</time>
      </trkpt>
      <trkpt lat="47.07893" lon="5.90511">
        <ele>374.4</ele>
        <time>2023-05-07T07:17:16Z</time>
      </trkpt>
      <trkpt lat="47.07872" lon="5.90491">
        <ele>373.6</ele>
        <time>2023-05-07T07:17:19Z</time>
      </trkpt>
      <trkpt lat="47.07865" lon="5.90485">
        <ele>373.4</ele>
        <time>2023-05-07T07:17:20Z</time>
      </trkpt>
      <trkpt lat="47.07838" lon="5.9046">
        <ele>372.2</ele>
        <time>2023-05-07T07:17:24Z</time>
      </trkpt>
      <trkpt lat="47.07817" lon="5.90445">
        <ele>371.6</ele>
        <time>2023-05-07T07:17:27Z</time>
      </trkpt>
      <trkpt lat="47.07797" lon="5.90432">
        <ele>371</ele>
        <time>2023-05-07T07:17:30Z</time>
      </trkpt>
      <trkpt lat="47.07763" lon="5.90414">
        <ele>370</ele>
        <time>2023-05-07T07:17:35Z</time>
      </trkpt>
      <trkpt lat="47.07756" lon="5.90412">
        <ele>369.8</ele>
        <time>2023-05-07T07:17:36Z</time>
      </trkpt>
      <trkpt lat="47.07748" lon="5.9041">
        <ele>369.6</ele>
        <time>2023-05-07T07:17:37Z</time>
      </trkpt>
      <trkpt lat="47.07734" lon="5.90411">
        <ele>369.2</ele>
        <time>2023-05-07T07:17:39Z</time>
      </trkpt>
      <trkpt lat="47.07711" lon="5.90413">
        <ele>368.4</ele>
        <time>2023-05-07T07:17:42Z</time>
      </trkpt>
      <trkpt lat="47.07694" lon="5.90412">
        <ele>367.6</ele>
        <time>2023-05-07T07:17:44Z</time>
      </trkpt>
      <trkpt lat="47.07685" lon="5.90412">
        <ele>367.2</ele>
        <time>2023-05-07T07:17:45Z</time>
      </trkpt>
      <trkpt lat="47.07667" lon="5.90409">
        <ele>366</ele>
        <time>2023-05-07T07:17:47Z</time>
      </trkpt>
      <trkpt lat="47.07639" lon="5.90405">
        <ele>364.8</ele>
        <time>2023-05-07T07:17:50Z</time>
      </trkpt>
      <trkpt lat="47.07612" lon="5.90398">
        <ele>363.6</ele>
        <time>2023-05-07T07:17:53Z</time>
      </trkpt>
      <trkpt lat="47.07586" lon="5.90391">
        <ele>362.4</ele>
        <time>2023-05-07T07:17:56Z</time>
      </trkpt>
      <trkpt lat="47.0756" lon="5.90383">
        <ele>361.4</ele>
        <time>2023-05-07T07:17:59Z</time>
      </trkpt>
      <trkpt lat="47.07527" lon="5.90373">
        <ele>360.2</ele>
        <time>2023-05-07T07:18:03Z</time>
      </trkpt>
      <trkpt lat="47.07494" lon="5.90364">
        <ele>359</ele>
        <time>2023-05-07T07:18:07Z</time>
      </trkpt>
      <trkpt lat="47.07471" lon="5.9036">
        <ele>358</ele>
        <time>2023-05-07T07:18:10Z</time>
      </trkpt>
      <trkpt lat="47.07457" lon="5.9036">
        <ele>357.4</ele>
        <time>2023-05-07T07:18:12Z</time>
      </trkpt>
      <trkpt lat="47.07421" lon="5.90354">
        <ele>356.8</ele>
        <time>2023-05-07T07:18:17Z</time>
      </trkpt>
      <trkpt lat="47.07414" lon="5.90354">
        <ele>356.4</ele>
        <time>2023-05-07T07:18:18Z</time>
      </trkpt>
      <trkpt lat="47.07385" lon="5.9035">
        <ele>355.6</ele>
        <time>2023-05-07T07:18:22Z</time>
      </trkpt>
      <trkpt lat="47.07357" lon="5.90345">
        <ele>355.2</ele>
        <time>2023-05-07T07:18:26Z</time>
      </trkpt>
      <trkpt lat="47.07323" lon="5.90344">
        <ele>355.2</ele>
        <time>2023-05-07T07:18:31Z</time>
      </trkpt>
      <trkpt lat="47.07294" lon="5.90352">
        <ele>355.2</ele>
        <time>2023-05-07T07:18:36Z</time>
      </trkpt>
      <trkpt lat="47.07255" lon="5.90352">
        <ele>355</ele>
        <time>2023-05-07T07:18:44Z</time>
      </trkpt>
      <trkpt lat="47.07217" lon="5.90344">
        <ele>355</ele>
        <time>2023-05-07T07:18:53Z</time>
      </trkpt>
      <trkpt lat="47.07187" lon="5.90335">
        <ele>355.2</ele>
        <time>2023-05-07T07:19:01Z</time>
      </trkpt>
      <trkpt lat="47.07157" lon="5.90319">
        <ele>355.6</ele>
        <time>2023-05-07T07:19:10Z</time>
      </trkpt>
      <trkpt lat="47.07123" lon="5.90305">
        <ele>355.4</ele>
        <time>2023-05-07T07:19:20Z</time>
      </trkpt>
      <trkpt lat="47.07103" lon="5.90304">
        <ele>355</ele>
        <time>2023-05-07T07:19:25Z</time>
      </trkpt>
      <trkpt lat="47.07093" lon="5.90305">
        <ele>354.6</ele>
        <time>2023-05-07T07:19:27Z</time>
      </trkpt>
      <trkpt lat="47.07071" lon="5.90308">
        <ele>354</ele>
        <time>2023-05-07T07:19:31Z</time>
      </trkpt>
      <trkpt lat="47.07065" lon="5.9031">
        <ele>353.6</ele>
        <time>2023-05-07T07:19:32Z</time>
      </trkpt>
      <trkpt lat="47.07059" lon="5.90311">
        <ele>353.4</ele>
        <time>2023-05-07T07:19:33Z</time>
      </trkpt>
      <trkpt lat="47.07036" lon="5.90316">
        <ele>352.4</ele>
        <time>2023-05-07T07:19:37Z</time>
      </trkpt>
      <trkpt lat="47.0703" lon="5.90317">
        <ele>352.2</ele>
        <time>2023-05-07T07:19:38Z</time>
      </trkpt>
      <trkpt lat="47.06988" lon="5.90326">
        <ele>351.2</ele>
        <time>2023-05-07T07:19:45Z</time>
      </trkpt>
      <trkpt lat="47.06939" lon="5.90335">
        <ele>350.6</ele>
        <time>2023-05-07T07:19:54Z</time>
      </trkpt>
      <trkpt lat="47.06898" lon="5.9033">
        <ele>350.6</ele>
        <time>2023-05-07T07:20:02Z</time>
      </trkpt>
      <trkpt lat="47.06875" lon="5.90321">
        <ele>350.2</ele>
        <time>2023-05-07T07:20:07Z</time>
      </trkpt>
      <trkpt lat="47.06862" lon="5.90315">
        <ele>350</ele>
        <time>2023-05-07T07:20:10Z</time>
      </trkpt>
      <trkpt lat="47.06828" lon="5.90301">
        <ele>349.8</ele>
        <time>2023-05-07T07:20:18Z</time>
      </trkpt>
      <trkpt lat="47.06789" lon="5.90287">
        <ele>349.4</ele>
        <time>2023-05-07T07:20:27Z</time>
      </trkpt>
      <trkpt lat="47.06785" lon="5.90285">
        <ele>349.2</ele>
        <time>2023-05-07T07:20:28Z</time>
      </trkpt>
      <trkpt lat="47.06746" lon="5.90268">
        <ele>348.2</ele>
        <time>2023-05-07T07:20:37Z</time>
      </trkpt>
      <trkpt lat="47.06717" lon="5.90257">
        <ele>347</ele>
        <time>2023-05-07T07:20:43Z</time>
      </trkpt>
      <trkpt lat="47.06706" lon="5.90253">
        <ele>346.6</ele>
        <time>2023-05-07T07:20:45Z</time>
      </trkpt>
      <trkpt lat="47.06682" lon="5.90244">
        <ele>345.6</ele>
        <time>2023-05-07T07:20:49Z</time>
      </trkpt>
      <trkpt lat="47.06653" lon="5.90234">
        <ele>344.4</ele>
        <time>2023-05-07T07:20:54Z</time>
      </trkpt>
      <trkpt lat="47.06647" lon="5.90233">
        <ele>344.2</ele>
        <time>2023-05-07T07:20:55Z</time>
      </trkpt>
      <trkpt lat="47.06627" lon="5.9023">
        <ele>343.8</ele>
        <time>2023-05-07T07:20:59Z</time>
      </trkpt>
      <trkpt lat="47.0659" lon="5.90232">
        <ele>343.6</ele>
        <time>2023-05-07T07:21:06Z</time>
      </trkpt>
      <trkpt lat="47.0658" lon="5.90235">
        <ele>343.4</ele>
        <time>2023-05-07T07:21:08Z</time>
      </trkpt>
      <trkpt lat="47.06563" lon="5.90244">
        <ele>343.2</ele>
        <time>2023-05-07T07:21:12Z</time>
      </trkpt>
      <trkpt lat="47.06545" lon="5.90253">
        <ele>342.8</ele>
        <time>2023-05-07T07:21:16Z</time>
      </trkpt>
      <trkpt lat="47.06536" lon="5.90253">
        <ele>342.6</ele>
        <time>2023-05-07T07:21:18Z</time>
      </trkpt>
      <trkpt lat="47.06521" lon="5.9025">
        <ele>342.4</ele>
        <time>2023-05-07T07:21:21Z</time>
      </trkpt>
      <trkpt lat="47.06492" lon="5.90244">
        <ele>342</ele>
        <time>2023-05-07T07:21:27Z</time>
      </trkpt>
      <trkpt lat="47.06457" lon="5.90237">
        <ele>341.6</ele>
        <time>2023-05-07T07:21:35Z</time>
      </trkpt>
      <trkpt lat="47.06442" lon="5.90233">
        <ele>341.2</ele>
        <time>2023-05-07T07:21:39Z</time>
      </trkpt>
      <trkpt lat="47.06435" lon="5.9023">
        <ele>340.8</ele>
        <time>2023-05-07T07:21:41Z</time>
      </trkpt>
      <trkpt lat="47.06407" lon="5.90223">
        <ele>340.6</ele>
        <time>2023-05-07T07:21:48Z</time>
      </trkpt>
      <trkpt lat="47.06392" lon="5.9022">
        <ele>340.2</ele>
        <time>2023-05-07T07:21:51Z</time>
      </trkpt>
      <trkpt lat="47.06383" lon="5.90216">
        <ele>339.8</ele>
        <time>2023-05-07T07:21:53Z</time>
      </trkpt>
      <trkpt lat="47.06379" lon="5.90211">
        <ele>339.6</ele>
        <time>2023-05-07T07:21:54Z</time>
      </trkpt>
      <trkpt lat="47.06373" lon="5.90198">
        <ele>338.8</ele>
        <time>2023-05-07T07:21:56Z</time>
      </trkpt>
      <trkpt lat="47.06365" lon="5.90185">
        <ele>338.2</ele>
        <time>2023-05-07T07:21:58Z</time>
      </trkpt>
      <trkpt lat="47.06362" lon="5.9018">
        <ele>337.8</ele>
        <time>2023-05-07T07:21:59Z</time>
      </trkpt>
      <trkpt lat="47.06353" lon="5.90165">
        <ele>336.6</ele>
        <time>2023-05-07T07:22:02Z</time>
      </trkpt>
      <trkpt lat="47.06351" lon="5.9016">
        <ele>336.2</ele>
        <time>2023-05-07T07:22:03Z</time>
      </trkpt>
      <trkpt lat="47.06345" lon="5.90152">
        <ele>335.4</ele>
        <time>2023-05-07T07:22:05Z</time>
      </trkpt>
      <trkpt lat="47.06334" lon="5.90142">
        <ele>334.6</ele>
        <time>2023-05-07T07:22:08Z</time>
      </trkpt>
      <trkpt lat="47.06327" lon="5.90135">
        <ele>334.2</ele>
        <time>2023-05-07T07:22:10Z</time>
      </trkpt>
      <trkpt lat="47.0632" lon="5.90133">
        <ele>334</ele>
        <time>2023-05-07T07:22:12Z</time>
      </trkpt>
      <trkpt lat="47.06317" lon="5.90135">
        <ele>334</ele>
        <time>2023-05-07T07:22:13Z</time>
      </trkpt>
      <trkpt lat="47.0631" lon="5.9015">
        <ele>334.4</ele>
        <time>2023-05-07T07:22:17Z</time>
      </trkpt>
      <trkpt lat="47.06308" lon="5.90154">
        <ele>334.6</ele>
        <time>2023-05-07T07:22:18Z</time>
      </trkpt>
      <trkpt lat="47.06304" lon="5.90166">
        <ele>335.4</ele>
        <time>2023-05-07T07:22:21Z</time>
      </trkpt>
      <trkpt lat="47.063" lon="5.90187">
        <ele>336.2</ele>
        <time>2023-05-07T07:22:27Z</time>
      </trkpt>
      <trkpt lat="47.06298" lon="5.90194">
        <ele>336.4</ele>
        <time>2023-05-07T07:22:29Z</time>
      </trkpt>
      <trkpt lat="47.06295" lon="5.9021">
        <ele>337.6</ele>
        <time>2023-05-07T07:22:34Z</time>
      </trkpt>
      <trkpt lat="47.06294" lon="5.90216">
        <ele>338</ele>
        <time>2023-05-07T07:22:36Z</time>
      </trkpt>
      <trkpt lat="47.06293" lon="5.90224">
        <ele>340.2</ele>
        <time>2023-05-07T07:23:03Z</time>
      </trkpt>
      <trkpt lat="47.06295" lon="5.90238">
        <ele>341.2</ele>
        <time>2023-05-07T07:23:14Z</time>
      </trkpt>
      <trkpt lat="47.06295" lon="5.90244">
        <ele>340.8</ele>
        <time>2023-05-07T07:23:16Z</time>
      </trkpt>
      <trkpt lat="47.06293" lon="5.90263">
        <ele>340</ele>
        <time>2023-05-07T07:23:22Z</time>
      </trkpt>
      <trkpt lat="47.06287" lon="5.90285">
        <ele>340.6</ele>
        <time>2023-05-07T07:23:31Z</time>
      </trkpt>
      <trkpt lat="47.06286" lon="5.90287">
        <ele>341.2</ele>
        <time>2023-05-07T07:23:32Z</time>
      </trkpt>
      <trkpt lat="47.06282" lon="5.90295">
        <ele>342.6</ele>
        <time>2023-05-07T07:23:36Z</time>
      </trkpt>
      <trkpt lat="47.06278" lon="5.903">
        <ele>343</ele>
        <time>2023-05-07T07:23:39Z</time>
      </trkpt>
      <trkpt lat="47.0627" lon="5.90311">
        <ele>343.6</ele>
        <time>2023-05-07T07:23:45Z</time>
      </trkpt>
      <trkpt lat="47.06269" lon="5.90312">
        <ele>344</ele>
        <time>2023-05-07T07:23:46Z</time>
      </trkpt>
      <trkpt lat="47.06264" lon="5.90317">
        <ele>344.8</ele>
        <time>2023-05-07T07:23:49Z</time>
      </trkpt>
      <trkpt lat="47.06258" lon="5.9032">
        <ele>345.4</ele>
        <time>2023-05-07T07:23:53Z</time>
      </trkpt>
      <trkpt lat="47.06255" lon="5.90322">
        <ele>346</ele>
        <time>2023-05-07T07:23:55Z</time>
      </trkpt>
      <trkpt lat="47.06247" lon="5.90324">
        <ele>347</ele>
        <time>2023-05-07T07:23:59Z</time>
      </trkpt>
      <trkpt lat="47.06244" lon="5.90325">
        <ele>347.6</ele>
        <time>2023-05-07T07:24:01Z</time>
      </trkpt>
      <trkpt lat="47.06236" lon="5.90327">
        <ele>348.2</ele>
        <time>2023-05-07T07:24:06Z</time>
      </trkpt>
      <trkpt lat="47.06231" lon="5.90329">
        <ele>349.2</ele>
        <time>2023-05-07T07:24:10Z</time>
      </trkpt>
      <trkpt lat="47.06225" lon="5.90331">
        <ele>350.4</ele>
        <time>2023-05-07T07:24:14Z</time>
      </trkpt>
      <trkpt lat="47.06222" lon="5.90333">
        <ele>351.4</ele>
        <time>2023-05-07T07:24:17Z</time>
      </trkpt>
      <trkpt lat="47.06221" lon="5.90334">
        <ele>351.6</ele>
        <time>2023-05-07T07:24:18Z</time>
      </trkpt>
      <trkpt lat="47.06215" lon="5.90337">
        <ele>352.6</ele>
        <time>2023-05-07T07:24:23Z</time>
      </trkpt>
      <trkpt lat="47.06207" lon="5.90341">
        <ele>353.6</ele>
        <time>2023-05-07T07:24:28Z</time>
      </trkpt>
      <trkpt lat="47.06201" lon="5.90344">
        <ele>354.2</ele>
        <time>2023-05-07T07:24:32Z</time>
      </trkpt>
      <trkpt lat="47.06189" lon="5.90358">
        <ele>354.8</ele>
        <time>2023-05-07T07:24:42Z</time>
      </trkpt>
      <trkpt lat="47.06185" lon="5.90367">
        <ele>356.2</ele>
        <time>2023-05-07T07:24:47Z</time>
      </trkpt>
      <trkpt lat="47.06183" lon="5.9037">
        <ele>356.4</ele>
        <time>2023-05-07T07:24:49Z</time>
      </trkpt>
      <trkpt lat="47.0618" lon="5.90376">
        <ele>357.4</ele>
        <time>2023-05-07T07:24:53Z</time>
      </trkpt>
      <trkpt lat="47.06176" lon="5.90383">
        <ele>358.8</ele>
        <time>2023-05-07T07:24:57Z</time>
      </trkpt>
      <trkpt lat="47.06173" lon="5.90389">
        <ele>360</ele>
        <time>2023-05-07T07:25:01Z</time>
      </trkpt>
      <trkpt lat="47.0617" lon="5.90394">
        <ele>360.6</ele>
        <time>2023-05-07T07:25:04Z</time>
      </trkpt>
      <trkpt lat="47.06167" lon="5.90399">
        <ele>361</ele>
        <time>2023-05-07T07:25:07Z</time>
      </trkpt>
      <trkpt lat="47.06162" lon="5.9041">
        <ele>361.4</ele>
        <time>2023-05-07T07:25:13Z</time>
      </trkpt>
      <trkpt lat="47.06154" lon="5.90423">
        <ele>362</ele>
        <time>2023-05-07T07:25:20Z</time>
      </trkpt>
      <trkpt lat="47.06153" lon="5.90425">
        <ele>362.2</ele>
        <time>2023-05-07T07:25:21Z</time>
      </trkpt>
      <trkpt lat="47.06145" lon="5.9044">
        <ele>363.4</ele>
        <time>2023-05-07T07:25:29Z</time>
      </trkpt>
      <trkpt lat="47.06145" lon="5.90442">
        <ele>363.8</ele>
        <time>2023-05-07T07:25:30Z</time>
      </trkpt>
      <trkpt lat="47.06145" lon="5.90444">
        <ele>364</ele>
        <time>2023-05-07T07:25:31Z</time>
      </trkpt>
      <trkpt lat="47.06144" lon="5.90445">
        <ele>364.4</ele>
        <time>2023-05-07T07:25:32Z</time>
      </trkpt>
      <trkpt lat="47.06141" lon="5.9045">
        <ele>364.6</ele>
        <time>2023-05-07T07:25:35Z</time>
      </trkpt>
      <trkpt lat="47.06141" lon="5.90452">
        <ele>364.8</ele>
        <time>2023-05-07T07:25:36Z</time>
      </trkpt>
      <trkpt lat="47.06139" lon="5.9047">
        <ele>364.6</ele>
        <time>2023-05-07T07:25:43Z</time>
      </trkpt>
      <trkpt lat="47.06144" lon="5.90493">
        <ele>364.6</ele>
        <time>2023-05-07T07:25:52Z</time>
      </trkpt>
      <trkpt lat="47.0615" lon="5.90511">
        <ele>364.4</ele>
        <time>2023-05-07T07:25:59Z</time>
      </trkpt>
      <trkpt lat="47.06154" lon="5.90521">
        <ele>365.6</ele>
        <time>2023-05-07T07:26:03Z</time>
      </trkpt>
      <trkpt lat="47.0616" lon="5.90531">
        <ele>366.6</ele>
        <time>2023-05-07T07:26:07Z</time>
      </trkpt>
      <trkpt lat="47.06161" lon="5.90534">
        <ele>366.6</ele>
        <time>2023-05-07T07:26:08Z</time>
      </trkpt>
      <trkpt lat="47.06167" lon="5.90546">
        <ele>367.8</ele>
        <time>2023-05-07T07:26:13Z</time>
      </trkpt>
      <trkpt lat="47.06172" lon="5.90556">
        <ele>368.8</ele>
        <time>2023-05-07T07:26:17Z</time>
      </trkpt>
      <trkpt lat="47.06175" lon="5.90564">
        <ele>369</ele>
        <time>2023-05-07T07:26:20Z</time>
      </trkpt>
      <trkpt lat="47.06181" lon="5.90578">
        <ele>369.8</ele>
        <time>2023-05-07T07:26:25Z</time>
      </trkpt>
      <trkpt lat="47.06183" lon="5.9058">
        <ele>370</ele>
        <time>2023-05-07T07:26:26Z</time>
      </trkpt>
      <trkpt lat="47.06194" lon="5.906">
        <ele>370.4</ele>
        <time>2023-05-07T07:26:34Z</time>
      </trkpt>
      <trkpt lat="47.06207" lon="5.90624">
        <ele>371</ele>
        <time>2023-05-07T07:26:43Z</time>
      </trkpt>
      <trkpt lat="47.06208" lon="5.90627">
        <ele>371</ele>
        <time>2023-05-07T07:26:44Z</time>
      </trkpt>
      <trkpt lat="47.06217" lon="5.90651">
        <ele>370.8</ele>
        <time>2023-05-07T07:26:53Z</time>
      </trkpt>
      <trkpt lat="47.06225" lon="5.90672">
        <ele>371</ele>
        <time>2023-05-07T07:27:00Z</time>
      </trkpt>
      <trkpt lat="47.06232" lon="5.9069">
        <ele>371</ele>
        <time>2023-05-07T07:27:06Z</time>
      </trkpt>
      <trkpt lat="47.0624" lon="5.90712">
        <ele>371</ele>
        <time>2023-05-07T07:27:14Z</time>
      </trkpt>
      <trkpt lat="47.0625" lon="5.90729">
        <ele>371</ele>
        <time>2023-05-07T07:27:20Z</time>
      </trkpt>
      <trkpt lat="47.06259" lon="5.90745">
        <ele>371.2</ele>
        <time>2023-05-07T07:27:27Z</time>
      </trkpt>
      <trkpt lat="47.06269" lon="5.90773">
        <ele>374.4</ele>
        <time>2023-05-07T07:27:40Z</time>
      </trkpt>
      <trkpt lat="47.06271" lon="5.90777">
        <ele>374.6</ele>
        <time>2023-05-07T07:27:42Z</time>
      </trkpt>
      <trkpt lat="47.06279" lon="5.90794">
        <ele>375.4</ele>
        <time>2023-05-07T07:27:50Z</time>
      </trkpt>
      <trkpt lat="47.06279" lon="5.90796">
        <ele>375.4</ele>
        <time>2023-05-07T07:27:51Z</time>
      </trkpt>
      <trkpt lat="47.06285" lon="5.9081">
        <ele>374.8</ele>
        <time>2023-05-07T07:27:58Z</time>
      </trkpt>
      <trkpt lat="47.06353" lon="5.90916">
        <ele>385.2</ele>
        <time>2023-05-07T07:29:08Z</time>
      </trkpt>
      <trkpt lat="47.06354" lon="5.90917">
        <ele>385.4</ele>
        <time>2023-05-07T07:29:09Z</time>
      </trkpt>
      <trkpt lat="47.06361" lon="5.90922">
        <ele>386.2</ele>
        <time>2023-05-07T07:29:13Z</time>
      </trkpt>
      <trkpt lat="47.06368" lon="5.90927">
        <ele>386.6</ele>
        <time>2023-05-07T07:29:17Z</time>
      </trkpt>
      <trkpt lat="47.0638" lon="5.90933">
        <ele>387.2</ele>
        <time>2023-05-07T07:29:23Z</time>
      </trkpt>
      <trkpt lat="47.06386" lon="5.90936">
        <ele>387.6</ele>
        <time>2023-05-07T07:29:26Z</time>
      </trkpt>
      <trkpt lat="47.06396" lon="5.9094">
        <ele>388.4</ele>
        <time>2023-05-07T07:29:31Z</time>
      </trkpt>
      <trkpt lat="47.06404" lon="5.90944">
        <ele>389.2</ele>
        <time>2023-05-07T07:29:36Z</time>
      </trkpt>
      <trkpt lat="47.06412" lon="5.90948">
        <ele>389.4</ele>
        <time>2023-05-07T07:29:40Z</time>
      </trkpt>
      <trkpt lat="47.06419" lon="5.90953">
        <ele>389.6</ele>
        <time>2023-05-07T07:29:45Z</time>
      </trkpt>
      <trkpt lat="47.0643" lon="5.9096">
        <ele>390.4</ele>
        <time>2023-05-07T07:29:52Z</time>
      </trkpt>
      <trkpt lat="47.06432" lon="5.90961">
        <ele>390.8</ele>
        <time>2023-05-07T07:29:53Z</time>
      </trkpt>
      <trkpt lat="47.06436" lon="5.90964">
        <ele>391.6</ele>
        <time>2023-05-07T07:29:56Z</time>
      </trkpt>
      <trkpt lat="47.06442" lon="5.90967">
        <ele>392.2</ele>
        <time>2023-05-07T07:30:00Z</time>
      </trkpt>
      <trkpt lat="47.06449" lon="5.9097">
        <ele>392.6</ele>
        <time>2023-05-07T07:30:05Z</time>
      </trkpt>
      <trkpt lat="47.0645" lon="5.90971">
        <ele>392.8</ele>
        <time>2023-05-07T07:30:06Z</time>
      </trkpt>
      <trkpt lat="47.06459" lon="5.90976">
        <ele>393.2</ele>
        <time>2023-05-07T07:30:13Z</time>
      </trkpt>
      <trkpt lat="47.0646" lon="5.90976">
        <ele>393.4</ele>
        <time>2023-05-07T07:30:14Z</time>
      </trkpt>
      <trkpt lat="47.06461" lon="5.90977">
        <ele>393.6</ele>
        <time>2023-05-07T07:30:15Z</time>
      </trkpt>
      <trkpt lat="47.06465" lon="5.90981">
        <ele>394.8</ele>
        <time>2023-05-07T07:30:18Z</time>
      </trkpt>
      <trkpt lat="47.0647" lon="5.90985">
        <ele>396</ele>
        <time>2023-05-07T07:30:21Z</time>
      </trkpt>
      <trkpt lat="47.06475" lon="5.90989">
        <ele>397.2</ele>
        <time>2023-05-07T07:30:25Z</time>
      </trkpt>
      <trkpt lat="47.06481" lon="5.90993">
        <ele>398.4</ele>
        <time>2023-05-07T07:30:29Z</time>
      </trkpt>
      <trkpt lat="47.06482" lon="5.90993">
        <ele>398.4</ele>
        <time>2023-05-07T07:30:30Z</time>
      </trkpt>
      <trkpt lat="47.0649" lon="5.90998">
        <ele>399.6</ele>
        <time>2023-05-07T07:30:35Z</time>
      </trkpt>
      <trkpt lat="47.06494" lon="5.91">
        <ele>400.2</ele>
        <time>2023-05-07T07:30:37Z</time>
      </trkpt>
      <trkpt lat="47.06498" lon="5.91002">
        <ele>400.8</ele>
        <time>2023-05-07T07:30:39Z</time>
      </trkpt>
      <trkpt lat="47.06506" lon="5.91008">
        <ele>402</ele>
        <time>2023-05-07T07:30:44Z</time>
      </trkpt>
      <trkpt lat="47.06514" lon="5.91015">
        <ele>403</ele>
        <time>2023-05-07T07:30:49Z</time>
      </trkpt>
      <trkpt lat="47.06516" lon="5.91018">
        <ele>403.8</ele>
        <time>2023-05-07T07:30:51Z</time>
      </trkpt>
      <trkpt lat="47.06518" lon="5.9102">
        <ele>404.4</ele>
        <time>2023-05-07T07:30:52Z</time>
      </trkpt>
      <trkpt lat="47.06523" lon="5.91028">
        <ele>405.6</ele>
        <time>2023-05-07T07:30:55Z</time>
      </trkpt>
      <trkpt lat="47.06528" lon="5.91032">
        <ele>406.2</ele>
        <time>2023-05-07T07:30:57Z</time>
      </trkpt>
      <trkpt lat="47.06531" lon="5.91036">
        <ele>407.2</ele>
        <time>2023-05-07T07:30:59Z</time>
      </trkpt>
      <trkpt lat="47.06535" lon="5.9104">
        <ele>408.4</ele>
        <time>2023-05-07T07:31:01Z</time>
      </trkpt>
      <trkpt lat="47.06539" lon="5.91043">
        <ele>409.4</ele>
        <time>2023-05-07T07:31:03Z</time>
      </trkpt>
      <trkpt lat="47.06541" lon="5.91045">
        <ele>410.2</ele>
        <time>2023-05-07T07:31:04Z</time>
      </trkpt>
      <trkpt lat="47.06543" lon="5.91047">
        <ele>410.4</ele>
        <time>2023-05-07T07:31:05Z</time>
      </trkpt>
      <trkpt lat="47.06547" lon="5.91049">
        <ele>411.6</ele>
        <time>2023-05-07T07:31:07Z</time>
      </trkpt>
      <trkpt lat="47.06552" lon="5.91052">
        <ele>412.8</ele>
        <time>2023-05-07T07:31:10Z</time>
      </trkpt>
      <trkpt lat="47.06556" lon="5.91055">
        <ele>414</ele>
        <time>2023-05-07T07:31:12Z</time>
      </trkpt>
      <trkpt lat="47.06562" lon="5.9106">
        <ele>415.2</ele>
        <time>2023-05-07T07:31:15Z</time>
      </trkpt>
      <trkpt lat="47.06566" lon="5.91063">
        <ele>415.6</ele>
        <time>2023-05-07T07:31:17Z</time>
      </trkpt>
      <trkpt lat="47.06571" lon="5.91068">
        <ele>416.2</ele>
        <time>2023-05-07T07:31:20Z</time>
      </trkpt>
      <trkpt lat="47.06577" lon="5.91072">
        <ele>417.8</ele>
        <time>2023-05-07T07:31:23Z</time>
      </trkpt>
      <trkpt lat="47.06579" lon="5.91074">
        <ele>418.4</ele>
        <time>2023-05-07T07:31:24Z</time>
      </trkpt>
      <trkpt lat="47.06582" lon="5.91075">
        <ele>419.2</ele>
        <time>2023-05-07T07:31:25Z</time>
      </trkpt>
      <trkpt lat="47.06586" lon="5.91077">
        <ele>420.2</ele>
        <time>2023-05-07T07:31:27Z</time>
      </trkpt>
      <trkpt lat="47.06636" lon="5.91123">
        <ele>427.8</ele>
        <time>2023-05-07T07:32:05Z</time>
      </trkpt>
      <trkpt lat="47.06637" lon="5.91125">
        <ele>427.6</ele>
        <time>2023-05-07T07:32:06Z</time>
      </trkpt>
      <trkpt lat="47.06642" lon="5.91139">
        <ele>426.8</ele>
        <time>2023-05-07T07:32:13Z</time>
      </trkpt>
      <trkpt lat="47.06642" lon="5.91141">
        <ele>426.6</ele>
        <time>2023-05-07T07:32:14Z</time>
      </trkpt>
      <trkpt lat="47.06641" lon="5.91153">
        <ele>425.8</ele>
        <time>2023-05-07T07:32:20Z</time>
      </trkpt>
      <trkpt lat="47.06638" lon="5.91159">
        <ele>425.6</ele>
        <time>2023-05-07T07:32:24Z</time>
      </trkpt>
      <trkpt lat="47.06636" lon="5.91163">
        <ele>425.6</ele>
        <time>2023-05-07T07:32:27Z</time>
      </trkpt>
      <trkpt lat="47.0663" lon="5.9117">
        <ele>426.6</ele>
        <time>2023-05-07T07:32:31Z</time>
      </trkpt>
      <trkpt lat="47.06622" lon="5.91174">
        <ele>426.8</ele>
        <time>2023-05-07T07:32:36Z</time>
      </trkpt>
      <trkpt lat="47.06616" lon="5.91176">
        <ele>427.8</ele>
        <time>2023-05-07T07:32:40Z</time>
      </trkpt>
      <trkpt lat="47.0661" lon="5.91179">
        <ele>429</ele>
        <time>2023-05-07T07:32:44Z</time>
      </trkpt>
      <trkpt lat="47.06601" lon="5.91181">
        <ele>429.8</ele>
        <time>2023-05-07T07:32:50Z</time>
      </trkpt>
      <trkpt lat="47.066" lon="5.91181">
        <ele>430</ele>
        <time>2023-05-07T07:32:51Z</time>
      </trkpt>
      <trkpt lat="47.06591" lon="5.91184">
        <ele>430</ele>
        <time>2023-05-07T07:32:58Z</time>
      </trkpt>
      <trkpt lat="47.06577" lon="5.91193">
        <ele>430.4</ele>
        <time>2023-05-07T07:33:09Z</time>
      </trkpt>
      <trkpt lat="47.06568" lon="5.91197">
        <ele>431.2</ele>
        <time>2023-05-07T07:33:14Z</time>
      </trkpt>
      <trkpt lat="47.06563" lon="5.91199">
        <ele>431.6</ele>
        <time>2023-05-07T07:33:17Z</time>
      </trkpt>
      <trkpt lat="47.06552" lon="5.91204">
        <ele>432.4</ele>
        <time>2023-05-07T07:33:23Z</time>
      </trkpt>
      <trkpt lat="47.06545" lon="5.91208">
        <ele>433</ele>
        <time>2023-05-07T07:33:27Z</time>
      </trkpt>
      <trkpt lat="47.06544" lon="5.91209">
        <ele>433</ele>
        <time>2023-05-07T07:33:28Z</time>
      </trkpt>
      <trkpt lat="47.06537" lon="5.91212">
        <ele>433</ele>
        <time>2023-05-07T07:33:33Z</time>
      </trkpt>
      <trkpt lat="47.06535" lon="5.91213">
        <ele>432.8</ele>
        <time>2023-05-07T07:33:34Z</time>
      </trkpt>
      <trkpt lat="47.06529" lon="5.91216">
        <ele>433.4</ele>
        <time>2023-05-07T07:33:38Z</time>
      </trkpt>
      <trkpt lat="47.06527" lon="5.91217">
        <ele>433.6</ele>
        <time>2023-05-07T07:33:39Z</time>
      </trkpt>
      <trkpt lat="47.06517" lon="5.91224">
        <ele>434.4</ele>
        <time>2023-05-07T07:33:47Z</time>
      </trkpt>
      <trkpt lat="47.06515" lon="5.91225">
        <ele>434.6</ele>
        <time>2023-05-07T07:33:49Z</time>
      </trkpt>
      <trkpt lat="47.06508" lon="5.91228">
        <ele>435.6</ele>
        <time>2023-05-07T07:33:53Z</time>
      </trkpt>
      <trkpt lat="47.06505" lon="5.91229">
        <ele>435.8</ele>
        <time>2023-05-07T07:33:55Z</time>
      </trkpt>
      <trkpt lat="47.06499" lon="5.91232">
        <ele>436.6</ele>
        <time>2023-05-07T07:34:00Z</time>
      </trkpt>
      <trkpt lat="47.06497" lon="5.91233">
        <ele>437.2</ele>
        <time>2023-05-07T07:34:01Z</time>
      </trkpt>
      <trkpt lat="47.06486" lon="5.9124">
        <ele>438.2</ele>
        <time>2023-05-07T07:34:08Z</time>
      </trkpt>
      <trkpt lat="47.06485" lon="5.91241">
        <ele>438.6</ele>
        <time>2023-05-07T07:34:09Z</time>
      </trkpt>
      <trkpt lat="47.06482" lon="5.91242">
        <ele>439.6</ele>
        <time>2023-05-07T07:34:11Z</time>
      </trkpt>
      <trkpt lat="47.06472" lon="5.91246">
        <ele>440.6</ele>
        <time>2023-05-07T07:34:17Z</time>
      </trkpt>
      <trkpt lat="47.06467" lon="5.91249">
        <ele>441.8</ele>
        <time>2023-05-07T07:34:21Z</time>
      </trkpt>
      <trkpt lat="47.06466" lon="5.91251">
        <ele>442.4</ele>
        <time>2023-05-07T07:34:22Z</time>
      </trkpt>
      <trkpt lat="47.06464" lon="5.91253">
        <ele>443</ele>
        <time>2023-05-07T07:34:24Z</time>
      </trkpt>
      <trkpt lat="47.06464" lon="5.91255">
        <ele>443</ele>
        <time>2023-05-07T07:34:25Z</time>
      </trkpt>
      <trkpt lat="47.06457" lon="5.91349">
        <ele>458.2</ele>
        <time>2023-05-07T07:38:20Z</time>
      </trkpt>
      <trkpt lat="47.06456" lon="5.91352">
        <ele>458.4</ele>
        <time>2023-05-07T07:38:21Z</time>
      </trkpt>
      <trkpt lat="47.06451" lon="5.91386">
        <ele>459.8</ele>
        <time>2023-05-07T07:38:35Z</time>
      </trkpt>
      <trkpt lat="47.06451" lon="5.9139">
        <ele>459.2</ele>
        <time>2023-05-07T07:38:37Z</time>
      </trkpt>
      <trkpt lat="47.06451" lon="5.91393">
        <ele>458.4</ele>
        <time>2023-05-07T07:38:39Z</time>
      </trkpt>
      <trkpt lat="47.06427" lon="5.91455">
        <ele>466.2</ele>
        <time>2023-05-07T07:39:20Z</time>
      </trkpt>
      <trkpt lat="47.06426" lon="5.91457">
        <ele>466.2</ele>
        <time>2023-05-07T07:39:21Z</time>
      </trkpt>
      <trkpt lat="47.0642" lon="5.91468">
        <ele>467</ele>
        <time>2023-05-07T07:39:28Z</time>
      </trkpt>
      <trkpt lat="47.06413" lon="5.9148">
        <ele>467.2</ele>
        <time>2023-05-07T07:39:34Z</time>
      </trkpt>
      <trkpt lat="47.06412" lon="5.91482">
        <ele>467.4</ele>
        <time>2023-05-07T07:39:35Z</time>
      </trkpt>
      <trkpt lat="47.06406" lon="5.91496">
        <ele>468.2</ele>
        <time>2023-05-07T07:39:42Z</time>
      </trkpt>
      <trkpt lat="47.06401" lon="5.91512">
        <ele>468.2</ele>
        <time>2023-05-07T07:39:50Z</time>
      </trkpt>
      <trkpt lat="47.06401" lon="5.91514">
        <ele>468.4</ele>
        <time>2023-05-07T07:39:51Z</time>
      </trkpt>
      <trkpt lat="47.064" lon="5.91526">
        <ele>469</ele>
        <time>2023-05-07T07:39:57Z</time>
      </trkpt>
      <trkpt lat="47.064" lon="5.9153">
        <ele>469.4</ele>
        <time>2023-05-07T07:39:59Z</time>
      </trkpt>
      <trkpt lat="47.0634" lon="5.91629">
        <ele>480.2</ele>
        <time>2023-05-07T07:45:44Z</time>
      </trkpt>
      <trkpt lat="47.06338" lon="5.91631">
        <ele>480.6</ele>
        <time>2023-05-07T07:45:45Z</time>
      </trkpt>
      <trkpt lat="47.06331" lon="5.91635">
        <ele>481.4</ele>
        <time>2023-05-07T07:45:49Z</time>
      </trkpt>
      <trkpt lat="47.06326" lon="5.91638">
        <ele>482.4</ele>
        <time>2023-05-07T07:45:52Z</time>
      </trkpt>
      <trkpt lat="47.06324" lon="5.9164">
        <ele>482.6</ele>
        <time>2023-05-07T07:45:53Z</time>
      </trkpt>
      <trkpt lat="47.06232" lon="5.91714">
        <ele>492.6</ele>
        <time>2023-05-07T07:47:06Z</time>
      </trkpt>
      <trkpt lat="47.06228" lon="5.91717">
        <ele>493.6</ele>
        <time>2023-05-07T07:47:08Z</time>
      </trkpt>
      <trkpt lat="47.06224" lon="5.91721">
        <ele>494.8</ele>
        <time>2023-05-07T07:47:12Z</time>
      </trkpt>
      <trkpt lat="47.06214" lon="5.91728">
        <ele>495.4</ele>
        <time>2023-05-07T07:47:19Z</time>
      </trkpt>
      <trkpt lat="47.06208" lon="5.91741">
        <ele>495.4</ele>
        <time>2023-05-07T07:47:26Z</time>
      </trkpt>
      <trkpt lat="47.06206" lon="5.91745">
        <ele>495.2</ele>
        <time>2023-05-07T07:47:28Z</time>
      </trkpt>
      <trkpt lat="47.06193" lon="5.91762">
        <ele>494.8</ele>
        <time>2023-05-07T07:47:37Z</time>
      </trkpt>
      <trkpt lat="47.06179" lon="5.91779">
        <ele>494.8</ele>
        <time>2023-05-07T07:47:49Z</time>
      </trkpt>
      <trkpt lat="47.06173" lon="5.9178">
        <ele>494.8</ele>
        <time>2023-05-07T07:47:51Z</time>
      </trkpt>
      <trkpt lat="47.06161" lon="5.91783">
        <ele>495.4</ele>
        <time>2023-05-07T07:47:57Z</time>
      </trkpt>
      <trkpt lat="47.06147" lon="5.9178">
        <ele>496.2</ele>
        <time>2023-05-07T07:48:04Z</time>
      </trkpt>
      <trkpt lat="47.06143" lon="5.91779">
        <ele>497</ele>
        <time>2023-05-07T07:48:06Z</time>
      </trkpt>
      <trkpt lat="47.06131" lon="5.9177">
        <ele>496.2</ele>
        <time>2023-05-07T07:48:13Z</time>
      </trkpt>
      <trkpt lat="47.06117" lon="5.91759">
        <ele>495.4</ele>
        <time>2023-05-07T07:48:20Z</time>
      </trkpt>
      <trkpt lat="47.06116" lon="5.91758">
        <ele>495</ele>
        <time>2023-05-07T07:48:21Z</time>
      </trkpt>
      <trkpt lat="47.06112" lon="5.91755">
        <ele>493.8</ele>
        <time>2023-05-07T07:48:23Z</time>
      </trkpt>
      <trkpt lat="47.06105" lon="5.91749">
        <ele>492.6</ele>
        <time>2023-05-07T07:48:26Z</time>
      </trkpt>
      <trkpt lat="47.06091" lon="5.91737">
        <ele>491.6</ele>
        <time>2023-05-07T07:48:32Z</time>
      </trkpt>
      <trkpt lat="47.06076" lon="5.91724">
        <ele>493.2</ele>
        <time>2023-05-07T07:48:38Z</time>
      </trkpt>
      <trkpt lat="47.06073" lon="5.91723">
        <ele>493.8</ele>
        <time>2023-05-07T07:48:39Z</time>
      </trkpt>
      <trkpt lat="47.06065" lon="5.91719">
        <ele>495</ele>
        <time>2023-05-07T07:48:42Z</time>
      </trkpt>
      <trkpt lat="47.0606" lon="5.91715">
        <ele>495.8</ele>
        <time>2023-05-07T07:48:45Z</time>
      </trkpt>
      <trkpt lat="47.06054" lon="5.91711">
        <ele>496.4</ele>
        <time>2023-05-07T07:48:49Z</time>
      </trkpt>
      <trkpt lat="47.06051" lon="5.91707">
        <ele>497.8</ele>
        <time>2023-05-07T07:48:51Z</time>
      </trkpt>
      <trkpt lat="47.06047" lon="5.91705">
        <ele>499</ele>
        <time>2023-05-07T07:48:53Z</time>
      </trkpt>
      <trkpt lat="47.06044" lon="5.91701">
        <ele>500.2</ele>
        <time>2023-05-07T07:48:56Z</time>
      </trkpt>
      <trkpt lat="47.0604" lon="5.91699">
        <ele>501.4</ele>
        <time>2023-05-07T07:48:58Z</time>
      </trkpt>
      <trkpt lat="47.06039" lon="5.91698">
        <ele>501.8</ele>
        <time>2023-05-07T07:48:59Z</time>
      </trkpt>
      <trkpt lat="47.06036" lon="5.91696">
        <ele>502.6</ele>
        <time>2023-05-07T07:49:01Z</time>
      </trkpt>
      <trkpt lat="47.06033" lon="5.91693">
        <ele>504</ele>
        <time>2023-05-07T07:49:03Z</time>
      </trkpt>
      <trkpt lat="47.0603" lon="5.91691">
        <ele>505</ele>
        <time>2023-05-07T07:49:05Z</time>
      </trkpt>
      <trkpt lat="47.06026" lon="5.91688">
        <ele>506</ele>
        <time>2023-05-07T07:49:08Z</time>
      </trkpt>
      <trkpt lat="47.06024" lon="5.91685">
        <ele>506.6</ele>
        <time>2023-05-07T07:49:10Z</time>
      </trkpt>
      <trkpt lat="47.06023" lon="5.91684">
        <ele>507.2</ele>
        <time>2023-05-07T07:49:11Z</time>
      </trkpt>
      <trkpt lat="47.06018" lon="5.9168">
        <ele>508.4</ele>
        <time>2023-05-07T07:49:14Z</time>
      </trkpt>
      <trkpt lat="47.06012" lon="5.91676">
        <ele>509.2</ele>
        <time>2023-05-07T07:49:17Z</time>
      </trkpt>
      <trkpt lat="47.06011" lon="5.91675">
        <ele>509.6</ele>
        <time>2023-05-07T07:49:18Z</time>
      </trkpt>
      <trkpt lat="47.06" lon="5.91664">
        <ele>510.2</ele>
        <time>2023-05-07T07:49:25Z</time>
      </trkpt>
      <trkpt lat="47.05992" lon="5.91656">
        <ele>508.2</ele>
        <time>2023-05-07T07:49:31Z</time>
      </trkpt>
      <trkpt lat="47.05979" lon="5.91639">
        <ele>508.4</ele>
        <time>2023-05-07T07:49:38Z</time>
      </trkpt>
      <trkpt lat="47.05965" lon="5.91621">
        <ele>507.6</ele>
        <time>2023-05-07T07:49:45Z</time>
      </trkpt>
      <trkpt lat="47.05952" lon="5.91608">
        <ele>507.2</ele>
        <time>2023-05-07T07:49:50Z</time>
      </trkpt>
      <trkpt lat="47.05951" lon="5.91606">
        <ele>506.6</ele>
        <time>2023-05-07T07:49:51Z</time>
      </trkpt>
      <trkpt lat="47.05946" lon="5.91598">
        <ele>506</ele>
        <time>2023-05-07T07:49:54Z</time>
      </trkpt>
      <trkpt lat="47.05937" lon="5.91586">
        <ele>506</ele>
        <time>2023-05-07T07:49:57Z</time>
      </trkpt>
      <trkpt lat="47.05927" lon="5.91574">
        <ele>504.6</ele>
        <time>2023-05-07T07:50:00Z</time>
      </trkpt>
      <trkpt lat="47.05921" lon="5.91564">
        <ele>503.6</ele>
        <time>2023-05-07T07:50:02Z</time>
      </trkpt>
      <trkpt lat="47.05913" lon="5.91553">
        <ele>502</ele>
        <time>2023-05-07T07:50:04Z</time>
      </trkpt>
      <trkpt lat="47.05905" lon="5.91544">
        <ele>500.4</ele>
        <time>2023-05-07T07:50:06Z</time>
      </trkpt>
      <trkpt lat="47.05897" lon="5.91536">
        <ele>499.2</ele>
        <time>2023-05-07T07:50:08Z</time>
      </trkpt>
      <trkpt lat="47.05891" lon="5.91529">
        <ele>498.2</ele>
        <time>2023-05-07T07:50:10Z</time>
      </trkpt>
      <trkpt lat="47.05881" lon="5.91512">
        <ele>496.8</ele>
        <time>2023-05-07T07:50:14Z</time>
      </trkpt>
      <trkpt lat="47.05874" lon="5.91505">
        <ele>496.2</ele>
        <time>2023-05-07T07:50:16Z</time>
      </trkpt>
      <trkpt lat="47.0586" lon="5.9149">
        <ele>497</ele>
        <time>2023-05-07T07:50:21Z</time>
      </trkpt>
      <trkpt lat="47.05858" lon="5.91481">
        <ele>497</ele>
        <time>2023-05-07T07:50:23Z</time>
      </trkpt>
      <trkpt lat="47.05858" lon="5.91471">
        <ele>496.4</ele>
        <time>2023-05-07T07:50:25Z</time>
      </trkpt>
      <trkpt lat="47.05855" lon="5.91461">
        <ele>495.4</ele>
        <time>2023-05-07T07:50:27Z</time>
      </trkpt>
      <trkpt lat="47.05849" lon="5.91452">
        <ele>494.2</ele>
        <time>2023-05-07T07:50:29Z</time>
      </trkpt>
      <trkpt lat="47.05843" lon="5.91442">
        <ele>492.8</ele>
        <time>2023-05-07T07:50:31Z</time>
      </trkpt>
      <trkpt lat="47.05841" lon="5.91435">
        <ele>491.6</ele>
        <time>2023-05-07T07:50:32Z</time>
      </trkpt>
      <trkpt lat="47.05839" lon="5.91427">
        <ele>490.2</ele>
        <time>2023-05-07T07:50:33Z</time>
      </trkpt>
      <trkpt lat="47.05837" lon="5.9142">
        <ele>488.6</ele>
        <time>2023-05-07T07:50:34Z</time>
      </trkpt>
      <trkpt lat="47.05833" lon="5.91414">
        <ele>486.2</ele>
        <time>2023-05-07T07:50:35Z</time>
      </trkpt>
      <trkpt lat="47.05831" lon="5.91411">
        <ele>484.8</ele>
        <time>2023-05-07T07:50:36Z</time>
      </trkpt>
      <trkpt lat="47.05827" lon="5.91403">
        <ele>483.6</ele>
        <time>2023-05-07T07:50:37Z</time>
      </trkpt>
      <trkpt lat="47.05825" lon="5.91397">
        <ele>482.4</ele>
        <time>2023-05-07T07:50:38Z</time>
      </trkpt>
      <trkpt lat="47.05817" lon="5.91384">
        <ele>480.6</ele>
        <time>2023-05-07T07:50:41Z</time>
      </trkpt>
      <trkpt lat="47.05809" lon="5.91376">
        <ele>479</ele>
        <time>2023-05-07T07:50:43Z</time>
      </trkpt>
      <trkpt lat="47.05805" lon="5.9137">
        <ele>478.6</ele>
        <time>2023-05-07T07:50:44Z</time>
      </trkpt>
      <trkpt lat="47.05799" lon="5.91362">
        <ele>477.8</ele>
        <time>2023-05-07T07:50:46Z</time>
      </trkpt>
      <trkpt lat="47.05795" lon="5.91352">
        <ele>477.8</ele>
        <time>2023-05-07T07:50:48Z</time>
      </trkpt>
      <trkpt lat="47.05794" lon="5.91345">
        <ele>476.8</ele>
        <time>2023-05-07T07:50:49Z</time>
      </trkpt>
      <trkpt lat="47.05793" lon="5.91338">
        <ele>474.8</ele>
        <time>2023-05-07T07:50:50Z</time>
      </trkpt>
      <trkpt lat="47.05792" lon="5.91332">
        <ele>473.4</ele>
        <time>2023-05-07T07:50:51Z</time>
      </trkpt>
      <trkpt lat="47.05789" lon="5.91314">
        <ele>471.6</ele>
        <time>2023-05-07T07:50:54Z</time>
      </trkpt>
      <trkpt lat="47.05786" lon="5.91307">
        <ele>470</ele>
        <time>2023-05-07T07:50:55Z</time>
      </trkpt>
      <trkpt lat="47.05784" lon="5.91302">
        <ele>468.8</ele>
        <time>2023-05-07T07:50:56Z</time>
      </trkpt>
      <trkpt lat="47.05777" lon="5.91291">
        <ele>467.4</ele>
        <time>2023-05-07T07:50:59Z</time>
      </trkpt>
      <trkpt lat="47.05772" lon="5.91284">
        <ele>466.2</ele>
        <time>2023-05-07T07:51:01Z</time>
      </trkpt>
      <trkpt lat="47.05771" lon="5.91279">
        <ele>465</ele>
        <time>2023-05-07T07:51:02Z</time>
      </trkpt>
      <trkpt lat="47.0577" lon="5.91273">
        <ele>464</ele>
        <time>2023-05-07T07:51:03Z</time>
      </trkpt>
      <trkpt lat="47.05768" lon="5.91267">
        <ele>462</ele>
        <time>2023-05-07T07:51:04Z</time>
      </trkpt>
      <trkpt lat="47.05767" lon="5.91259">
        <ele>460.4</ele>
        <time>2023-05-07T07:51:06Z</time>
      </trkpt>
      <trkpt lat="47.05768" lon="5.91243">
        <ele>458.6</ele>
        <time>2023-05-07T07:51:09Z</time>
      </trkpt>
      <trkpt lat="47.05768" lon="5.91238">
        <ele>457.2</ele>
        <time>2023-05-07T07:51:10Z</time>
      </trkpt>
      <trkpt lat="47.05767" lon="5.91221">
        <ele>455.8</ele>
        <time>2023-05-07T07:51:13Z</time>
      </trkpt>
      <trkpt lat="47.05763" lon="5.91214">
        <ele>455</ele>
        <time>2023-05-07T07:51:14Z</time>
      </trkpt>
      <trkpt lat="47.05761" lon="5.91207">
        <ele>454.6</ele>
        <time>2023-05-07T07:51:15Z</time>
      </trkpt>
      <trkpt lat="47.0576" lon="5.91203">
        <ele>453.4</ele>
        <time>2023-05-07T07:51:16Z</time>
      </trkpt>
      <trkpt lat="47.05759" lon="5.912">
        <ele>452.4</ele>
        <time>2023-05-07T07:51:17Z</time>
      </trkpt>
      <trkpt lat="47.05757" lon="5.91192">
        <ele>452.4</ele>
        <time>2023-05-07T07:51:18Z</time>
      </trkpt>
      <trkpt lat="47.05752" lon="5.9118">
        <ele>450.8</ele>
        <time>2023-05-07T07:51:21Z</time>
      </trkpt>
      <trkpt lat="47.05748" lon="5.91173">
        <ele>449.8</ele>
        <time>2023-05-07T07:51:23Z</time>
      </trkpt>
      <trkpt lat="47.05744" lon="5.91168">
        <ele>448.4</ele>
        <time>2023-05-07T07:51:25Z</time>
      </trkpt>
      <trkpt lat="47.05737" lon="5.91162">
        <ele>447.2</ele>
        <time>2023-05-07T07:51:28Z</time>
      </trkpt>
      <trkpt lat="47.05733" lon="5.91158">
        <ele>445.6</ele>
        <time>2023-05-07T07:51:30Z</time>
      </trkpt>
      <trkpt lat="47.05725" lon="5.91151">
        <ele>443.6</ele>
        <time>2023-05-07T07:51:33Z</time>
      </trkpt>
      <trkpt lat="47.05717" lon="5.91142">
        <ele>442.6</ele>
        <time>2023-05-07T07:51:37Z</time>
      </trkpt>
      <trkpt lat="47.05715" lon="5.91138">
        <ele>442.8</ele>
        <time>2023-05-07T07:51:38Z</time>
      </trkpt>
      <trkpt lat="47.05709" lon="5.91131">
        <ele>443.6</ele>
        <time>2023-05-07T07:51:40Z</time>
      </trkpt>
      <trkpt lat="47.05704" lon="5.91128">
        <ele>444</ele>
        <time>2023-05-07T07:51:41Z</time>
      </trkpt>
      <trkpt lat="47.05699" lon="5.91124">
        <ele>444.2</ele>
        <time>2023-05-07T07:51:42Z</time>
      </trkpt>
      <trkpt lat="47.05677" lon="5.91107">
        <ele>444.2</ele>
        <time>2023-05-07T07:51:46Z</time>
      </trkpt>
      <trkpt lat="47.05671" lon="5.91101">
        <ele>444</ele>
        <time>2023-05-07T07:51:47Z</time>
      </trkpt>
      <trkpt lat="47.05656" lon="5.91084">
        <ele>443</ele>
        <time>2023-05-07T07:51:50Z</time>
      </trkpt>
      <trkpt lat="47.05651" lon="5.91077">
        <ele>442.4</ele>
        <time>2023-05-07T07:51:51Z</time>
      </trkpt>
      <trkpt lat="47.05639" lon="5.91063">
        <ele>440.8</ele>
        <time>2023-05-07T07:51:53Z</time>
      </trkpt>
      <trkpt lat="47.05626" lon="5.9105">
        <ele>439.6</ele>
        <time>2023-05-07T07:51:55Z</time>
      </trkpt>
      <trkpt lat="47.05612" lon="5.91035">
        <ele>438.4</ele>
        <time>2023-05-07T07:51:58Z</time>
      </trkpt>
      <trkpt lat="47.05607" lon="5.91031">
        <ele>437.8</ele>
        <time>2023-05-07T07:51:59Z</time>
      </trkpt>
      <trkpt lat="47.05603" lon="5.91027">
        <ele>437.2</ele>
        <time>2023-05-07T07:52:00Z</time>
      </trkpt>
      <trkpt lat="47.05592" lon="5.91015">
        <ele>436.2</ele>
        <time>2023-05-07T07:52:03Z</time>
      </trkpt>
      <trkpt lat="47.05584" lon="5.91007">
        <ele>435.6</ele>
        <time>2023-05-07T07:52:05Z</time>
      </trkpt>
      <trkpt lat="47.05581" lon="5.91003">
        <ele>435</ele>
        <time>2023-05-07T07:52:06Z</time>
      </trkpt>
      <trkpt lat="47.05567" lon="5.9099">
        <ele>433.8</ele>
        <time>2023-05-07T07:52:09Z</time>
      </trkpt>
      <trkpt lat="47.05564" lon="5.90987">
        <ele>433.8</ele>
        <time>2023-05-07T07:52:10Z</time>
      </trkpt>
      <trkpt lat="47.05552" lon="5.90974">
        <ele>432.6</ele>
        <time>2023-05-07T07:52:13Z</time>
      </trkpt>
      <trkpt lat="47.05539" lon="5.90959">
        <ele>432</ele>
        <time>2023-05-07T07:52:16Z</time>
      </trkpt>
      <trkpt lat="47.05534" lon="5.90954">
        <ele>431.8</ele>
        <time>2023-05-07T07:52:17Z</time>
      </trkpt>
      <trkpt lat="47.05525" lon="5.90945">
        <ele>431.4</ele>
        <time>2023-05-07T07:52:19Z</time>
      </trkpt>
      <trkpt lat="47.05516" lon="5.90936">
        <ele>431</ele>
        <time>2023-05-07T07:52:21Z</time>
      </trkpt>
      <trkpt lat="47.05506" lon="5.90927">
        <ele>430.4</ele>
        <time>2023-05-07T07:52:24Z</time>
      </trkpt>
      <trkpt lat="47.05504" lon="5.90925">
        <ele>430.2</ele>
        <time>2023-05-07T07:52:25Z</time>
      </trkpt>
      <trkpt lat="47.05498" lon="5.90919">
        <ele>429.2</ele>
        <time>2023-05-07T07:52:29Z</time>
      </trkpt>
      <trkpt lat="47.05495" lon="5.90915">
        <ele>428.6</ele>
        <time>2023-05-07T07:52:31Z</time>
      </trkpt>
      <trkpt lat="47.05493" lon="5.90912">
        <ele>428</ele>
        <time>2023-05-07T07:52:33Z</time>
      </trkpt>
      <trkpt lat="47.05492" lon="5.90911">
        <ele>427.6</ele>
        <time>2023-05-07T07:52:34Z</time>
      </trkpt>
      <trkpt lat="47.05488" lon="5.9091">
        <ele>427.2</ele>
        <time>2023-05-07T07:52:36Z</time>
      </trkpt>
      <trkpt lat="47.05486" lon="5.90913">
        <ele>427.2</ele>
        <time>2023-05-07T07:52:39Z</time>
      </trkpt>
      <trkpt lat="47.05485" lon="5.90915">
        <ele>427</ele>
        <time>2023-05-07T07:52:40Z</time>
      </trkpt>
      <trkpt lat="47.05484" lon="5.90918">
        <ele>426.8</ele>
        <time>2023-05-07T07:52:41Z</time>
      </trkpt>
      <trkpt lat="47.05478" lon="5.90933">
        <ele>426</ele>
        <time>2023-05-07T07:52:48Z</time>
      </trkpt>
      <trkpt lat="47.05464" lon="5.9098">
        <ele>420</ele>
        <time>2023-05-07T07:53:07Z</time>
      </trkpt>
      <trkpt lat="47.05463" lon="5.90983">
        <ele>419.6</ele>
        <time>2023-05-07T07:53:08Z</time>
      </trkpt>
      <trkpt lat="47.05461" lon="5.9099">
        <ele>418.8</ele>
        <time>2023-05-07T07:53:10Z</time>
      </trkpt>
      <trkpt lat="47.05458" lon="5.90999">
        <ele>417.6</ele>
        <time>2023-05-07T07:53:13Z</time>
      </trkpt>
      <trkpt lat="47.05455" lon="5.91004">
        <ele>416.6</ele>
        <time>2023-05-07T07:53:15Z</time>
      </trkpt>
      <trkpt lat="47.05453" lon="5.91006">
        <ele>416</ele>
        <time>2023-05-07T07:53:16Z</time>
      </trkpt>
      <trkpt lat="47.05453" lon="5.91009">
        <ele>415.4</ele>
        <time>2023-05-07T07:53:17Z</time>
      </trkpt>
      <trkpt lat="47.05451" lon="5.91017">
        <ele>414.4</ele>
        <time>2023-05-07T07:53:19Z</time>
      </trkpt>
      <trkpt lat="47.0545" lon="5.91022">
        <ele>414</ele>
        <time>2023-05-07T07:53:21Z</time>
      </trkpt>
      <trkpt lat="47.05447" lon="5.91028">
        <ele>412.8</ele>
        <time>2023-05-07T07:53:23Z</time>
      </trkpt>
      <trkpt lat="47.05446" lon="5.91031">
        <ele>412.2</ele>
        <time>2023-05-07T07:53:24Z</time>
      </trkpt>
      <trkpt lat="47.05446" lon="5.91034">
        <ele>411.4</ele>
        <time>2023-05-07T07:53:25Z</time>
      </trkpt>
      <trkpt lat="47.05445" lon="5.91041">
        <ele>410.2</ele>
        <time>2023-05-07T07:53:27Z</time>
      </trkpt>
      <trkpt lat="47.05446" lon="5.91046">
        <ele>409.4</ele>
        <time>2023-05-07T07:53:28Z</time>
      </trkpt>
      <trkpt lat="47.05446" lon="5.91052">
        <ele>408.6</ele>
        <time>2023-05-07T07:53:29Z</time>
      </trkpt>
      <trkpt lat="47.05447" lon="5.91064">
        <ele>407</ele>
        <time>2023-05-07T07:53:31Z</time>
      </trkpt>
      <trkpt lat="47.05449" lon="5.91074">
        <ele>405.2</ele>
        <time>2023-05-07T07:53:33Z</time>
      </trkpt>
      <trkpt lat="47.05449" lon="5.91079">
        <ele>404.6</ele>
        <time>2023-05-07T07:53:34Z</time>
      </trkpt>
      <trkpt lat="47.05449" lon="5.91084">
        <ele>403.6</ele>
        <time>2023-05-07T07:53:35Z</time>
      </trkpt>
      <trkpt lat="47.0545" lon="5.91089">
        <ele>402.6</ele>
        <time>2023-05-07T07:53:36Z</time>
      </trkpt>
      <trkpt lat="47.05458" lon="5.91108">
        <ele>401.6</ele>
        <time>2023-05-07T07:53:41Z</time>
      </trkpt>
      <trkpt lat="47.05465" lon="5.91125">
        <ele>402.2</ele>
        <time>2023-05-07T07:53:46Z</time>
      </trkpt>
      <trkpt lat="47.05466" lon="5.91129">
        <ele>401.6</ele>
        <time>2023-05-07T07:53:47Z</time>
      </trkpt>
      <trkpt lat="47.05466" lon="5.91155">
        <ele>405.2</ele>
        <time>2023-05-07T07:53:52Z</time>
      </trkpt>
      <trkpt lat="47.05466" lon="5.91162">
        <ele>407.6</ele>
        <time>2023-05-07T07:53:53Z</time>
      </trkpt>
      <trkpt lat="47.05465" lon="5.91167">
        <ele>409.6</ele>
        <time>2023-05-07T07:53:54Z</time>
      </trkpt>
      <trkpt lat="47.05465" lon="5.91172">
        <ele>411.4</ele>
        <time>2023-05-07T07:53:55Z</time>
      </trkpt>
      <trkpt lat="47.05464" lon="5.91176">
        <ele>413</ele>
        <time>2023-05-07T07:53:56Z</time>
      </trkpt>
      <trkpt lat="47.05463" lon="5.91181">
        <ele>414.6</ele>
        <time>2023-05-07T07:53:57Z</time>
      </trkpt>
      <trkpt lat="47.05462" lon="5.91184">
        <ele>415.4</ele>
        <time>2023-05-07T07:53:58Z</time>
      </trkpt>
      <trkpt lat="47.0546" lon="5.91187">
        <ele>416.2</ele>
        <time>2023-05-07T07:53:59Z</time>
      </trkpt>
      <trkpt lat="47.05458" lon="5.9119">
        <ele>416.6</ele>
        <time>2023-05-07T07:54:00Z</time>
      </trkpt>
      <trkpt lat="47.05455" lon="5.91195">
        <ele>417.6</ele>
        <time>2023-05-07T07:54:02Z</time>
      </trkpt>
      <trkpt lat="47.05451" lon="5.91199">
        <ele>418.8</ele>
        <time>2023-05-07T07:54:04Z</time>
      </trkpt>
      <trkpt lat="47.05446" lon="5.91206">
        <ele>419.6</ele>
        <time>2023-05-07T07:54:08Z</time>
      </trkpt>
      <trkpt lat="47.05445" lon="5.91208">
        <ele>419.8</ele>
        <time>2023-05-07T07:54:09Z</time>
      </trkpt>
      <trkpt lat="47.05441" lon="5.91214">
        <ele>420.8</ele>
        <time>2023-05-07T07:54:13Z</time>
      </trkpt>
      <trkpt lat="47.0544" lon="5.91215">
        <ele>421</ele>
        <time>2023-05-07T07:54:14Z</time>
      </trkpt>
      <trkpt lat="47.05437" lon="5.91218">
        <ele>421.8</ele>
        <time>2023-05-07T07:54:16Z</time>
      </trkpt>
      <trkpt lat="47.05436" lon="5.91219">
        <ele>422.2</ele>
        <time>2023-05-07T07:54:17Z</time>
      </trkpt>
      <trkpt lat="47.05432" lon="5.91222">
        <ele>423</ele>
        <time>2023-05-07T07:54:20Z</time>
      </trkpt>
      <trkpt lat="47.0534" lon="5.9132">
        <ele>463</ele>
        <time>2023-05-07T07:56:18Z</time>
      </trkpt>
      <trkpt lat="47.05321" lon="5.91317">
        <ele>469</ele>
        <time>2023-05-07T07:56:31Z</time>
      </trkpt>
      <trkpt lat="47.05313" lon="5.91315">
        <ele>470.4</ele>
        <time>2023-05-07T07:56:36Z</time>
      </trkpt>
      <trkpt lat="47.05308" lon="5.91314">
        <ele>471.6</ele>
        <time>2023-05-07T07:56:39Z</time>
      </trkpt>
      <trkpt lat="47.05306" lon="5.91314">
        <ele>472</ele>
        <time>2023-05-07T07:56:40Z</time>
      </trkpt>
      <trkpt lat="47.05304" lon="5.91314">
        <ele>472.6</ele>
        <time>2023-05-07T07:56:41Z</time>
      </trkpt>
      <trkpt lat="47.05299" lon="5.91312">
        <ele>473.8</ele>
        <time>2023-05-07T07:56:44Z</time>
      </trkpt>
      <trkpt lat="47.05298" lon="5.91395">
        <ele>490</ele>
        <time>2023-05-07T07:57:59Z</time>
      </trkpt>
      <trkpt lat="47.053" lon="5.91397">
        <ele>490.2</ele>
        <time>2023-05-07T07:58:00Z</time>
      </trkpt>
      <trkpt lat="47.05311" lon="5.91409">
        <ele>491.2</ele>
        <time>2023-05-07T07:58:08Z</time>
      </trkpt>
      <trkpt lat="47.05416" lon="5.91568">
        <ele>507.6</ele>
        <time>2023-05-07T07:59:50Z</time>
      </trkpt>
      <trkpt lat="47.05437" lon="5.91689">
        <ele>520.2</ele>
        <time>2023-05-07T08:07:34Z</time>
      </trkpt>
      <trkpt lat="47.05428" lon="5.91691">
        <ele>521.2</ele>
        <time>2023-05-07T08:07:40Z</time>
      </trkpt>
      <trkpt lat="47.05425" lon="5.91691">
        <ele>521.6</ele>
        <time>2023-05-07T08:07:41Z</time>
      </trkpt>
      <trkpt lat="47.05422" lon="5.91691">
        <ele>522.6</ele>
        <time>2023-05-07T08:07:43Z</time>
      </trkpt>
      <trkpt lat="47.05407" lon="5.91692">
        <ele>523.4</ele>
        <time>2023-05-07T08:07:53Z</time>
      </trkpt>
      <trkpt lat="47.05401" lon="5.91691">
        <ele>523</ele>
        <time>2023-05-07T08:07:57Z</time>
      </trkpt>
      <trkpt lat="47.05387" lon="5.91689">
        <ele>523.4</ele>
        <time>2023-05-07T08:08:04Z</time>
      </trkpt>
      <trkpt lat="47.05376" lon="5.91688">
        <ele>524</ele>
        <time>2023-05-07T08:08:11Z</time>
      </trkpt>
      <trkpt lat="47.05369" lon="5.91686">
        <ele>525.2</ele>
        <time>2023-05-07T08:08:15Z</time>
      </trkpt>
      <trkpt lat="47.05363" lon="5.91685">
        <ele>526.2</ele>
        <time>2023-05-07T08:08:19Z</time>
      </trkpt>
      <trkpt lat="47.05361" lon="5.91685">
        <ele>526.4</ele>
        <time>2023-05-07T08:08:20Z</time>
      </trkpt>
      <trkpt lat="47.05355" lon="5.91683">
        <ele>527.4</ele>
        <time>2023-05-07T08:08:24Z</time>
      </trkpt>
      <trkpt lat="47.05351" lon="5.9168">
        <ele>528.4</ele>
        <time>2023-05-07T08:08:27Z</time>
      </trkpt>
      <trkpt lat="47.05339" lon="5.91672">
        <ele>528.8</ele>
        <time>2023-05-07T08:08:34Z</time>
      </trkpt>
      <trkpt lat="47.05325" lon="5.91664">
        <ele>529.2</ele>
        <time>2023-05-07T08:08:40Z</time>
      </trkpt>
      <trkpt lat="47.05321" lon="5.91662">
        <ele>529.4</ele>
        <time>2023-05-07T08:08:42Z</time>
      </trkpt>
      <trkpt lat="47.05318" lon="5.91658">
        <ele>530</ele>
        <time>2023-05-07T08:08:44Z</time>
      </trkpt>
      <trkpt lat="47.05308" lon="5.91651">
        <ele>530.6</ele>
        <time>2023-05-07T08:08:48Z</time>
      </trkpt>
      <trkpt lat="47.05305" lon="5.91649">
        <ele>530.4</ele>
        <time>2023-05-07T08:08:49Z</time>
      </trkpt>
      <trkpt lat="47.05298" lon="5.91645">
        <ele>529.4</ele>
        <time>2023-05-07T08:08:51Z</time>
      </trkpt>
      <trkpt lat="47.05288" lon="5.91636">
        <ele>528.2</ele>
        <time>2023-05-07T08:08:54Z</time>
      </trkpt>
      <trkpt lat="47.0528" lon="5.91628">
        <ele>526.8</ele>
        <time>2023-05-07T08:08:56Z</time>
      </trkpt>
      <trkpt lat="47.05272" lon="5.91618">
        <ele>525.6</ele>
        <time>2023-05-07T08:08:58Z</time>
      </trkpt>
      <trkpt lat="47.05267" lon="5.91613">
        <ele>525</ele>
        <time>2023-05-07T08:08:59Z</time>
      </trkpt>
      <trkpt lat="47.05262" lon="5.91608">
        <ele>524.4</ele>
        <time>2023-05-07T08:09:00Z</time>
      </trkpt>
      <trkpt lat="47.05253" lon="5.916">
        <ele>523.6</ele>
        <time>2023-05-07T08:09:02Z</time>
      </trkpt>
      <trkpt lat="47.05249" lon="5.91596">
        <ele>523.2</ele>
        <time>2023-05-07T08:09:03Z</time>
      </trkpt>
      <trkpt lat="47.05234" lon="5.91588">
        <ele>521.6</ele>
        <time>2023-05-07T08:09:06Z</time>
      </trkpt>
      <trkpt lat="47.05223" lon="5.91583">
        <ele>520.8</ele>
        <time>2023-05-07T08:09:08Z</time>
      </trkpt>
      <trkpt lat="47.05218" lon="5.91582">
        <ele>520.2</ele>
        <time>2023-05-07T08:09:09Z</time>
      </trkpt>
      <trkpt lat="47.05204" lon="5.91577">
        <ele>519.2</ele>
        <time>2023-05-07T08:09:12Z</time>
      </trkpt>
      <trkpt lat="47.052" lon="5.91575">
        <ele>518.8</ele>
        <time>2023-05-07T08:09:13Z</time>
      </trkpt>
      <trkpt lat="47.05188" lon="5.91567">
        <ele>518</ele>
        <time>2023-05-07T08:09:16Z</time>
      </trkpt>
      <trkpt lat="47.05183" lon="5.91564">
        <ele>517.8</ele>
        <time>2023-05-07T08:09:17Z</time>
      </trkpt>
      <trkpt lat="47.05178" lon="5.91561">
        <ele>517.6</ele>
        <time>2023-05-07T08:09:18Z</time>
      </trkpt>
      <trkpt lat="47.05165" lon="5.91546">
        <ele>517</ele>
        <time>2023-05-07T08:09:21Z</time>
      </trkpt>
      <trkpt lat="47.05162" lon="5.9154">
        <ele>516.6</ele>
        <time>2023-05-07T08:09:22Z</time>
      </trkpt>
      <trkpt lat="47.05158" lon="5.91533">
        <ele>515.8</ele>
        <time>2023-05-07T08:09:23Z</time>
      </trkpt>
      <trkpt lat="47.05148" lon="5.91524">
        <ele>515</ele>
        <time>2023-05-07T08:09:25Z</time>
      </trkpt>
      <trkpt lat="47.05143" lon="5.91521">
        <ele>514.8</ele>
        <time>2023-05-07T08:09:26Z</time>
      </trkpt>
      <trkpt lat="47.05128" lon="5.91513">
        <ele>514.4</ele>
        <time>2023-05-07T08:09:29Z</time>
      </trkpt>
      <trkpt lat="47.05117" lon="5.91506">
        <ele>514</ele>
        <time>2023-05-07T08:09:31Z</time>
      </trkpt>
      <trkpt lat="47.05107" lon="5.915">
        <ele>513.8</ele>
        <time>2023-05-07T08:09:33Z</time>
      </trkpt>
      <trkpt lat="47.05102" lon="5.91497">
        <ele>513.8</ele>
        <time>2023-05-07T08:09:34Z</time>
      </trkpt>
      <trkpt lat="47.05079" lon="5.91486">
        <ele>513.2</ele>
        <time>2023-05-07T08:09:39Z</time>
      </trkpt>
      <trkpt lat="47.05051" lon="5.91482">
        <ele>514.6</ele>
        <time>2023-05-07T08:09:44Z</time>
      </trkpt>
      <trkpt lat="47.05046" lon="5.91481">
        <ele>515</ele>
        <time>2023-05-07T08:09:45Z</time>
      </trkpt>
      <trkpt lat="47.05036" lon="5.91478">
        <ele>515.8</ele>
        <time>2023-05-07T08:09:47Z</time>
      </trkpt>
      <trkpt lat="47.05031" lon="5.91476">
        <ele>516.2</ele>
        <time>2023-05-07T08:09:48Z</time>
      </trkpt>
      <trkpt lat="47.05026" lon="5.91473">
        <ele>516.4</ele>
        <time>2023-05-07T08:09:49Z</time>
      </trkpt>
      <trkpt lat="47.05006" lon="5.9146">
        <ele>517</ele>
        <time>2023-05-07T08:09:53Z</time>
      </trkpt>
      <trkpt lat="47.04984" lon="5.91453">
        <ele>517.4</ele>
        <time>2023-05-07T08:09:58Z</time>
      </trkpt>
      <trkpt lat="47.04976" lon="5.91455">
        <ele>518.4</ele>
        <time>2023-05-07T08:10:00Z</time>
      </trkpt>
      <trkpt lat="47.0497" lon="5.91459">
        <ele>519.6</ele>
        <time>2023-05-07T08:10:02Z</time>
      </trkpt>
      <trkpt lat="47.04967" lon="5.91461">
        <ele>520.4</ele>
        <time>2023-05-07T08:10:03Z</time>
      </trkpt>
      <trkpt lat="47.04964" lon="5.91464">
        <ele>521</ele>
        <time>2023-05-07T08:10:04Z</time>
      </trkpt>
      <trkpt lat="47.04961" lon="5.91466">
        <ele>523</ele>
        <time>2023-05-07T08:10:06Z</time>
      </trkpt>
      <trkpt lat="47.04959" lon="5.91467">
        <ele>523.6</ele>
        <time>2023-05-07T08:10:07Z</time>
      </trkpt>
      <trkpt lat="47.0495" lon="5.91478">
        <ele>525.8</ele>
        <time>2023-05-07T08:10:14Z</time>
      </trkpt>
      <trkpt lat="47.04944" lon="5.91483">
        <ele>526.6</ele>
        <time>2023-05-07T08:10:18Z</time>
      </trkpt>
      <trkpt lat="47.04891" lon="5.91545">
        <ele>537.4</ele>
        <time>2023-05-07T08:11:07Z</time>
      </trkpt>
      <trkpt lat="47.04888" lon="5.91549">
        <ele>538.8</ele>
        <time>2023-05-07T08:11:09Z</time>
      </trkpt>
      <trkpt lat="47.04886" lon="5.91551">
        <ele>539</ele>
        <time>2023-05-07T08:11:10Z</time>
      </trkpt>
      <trkpt lat="47.04877" lon="5.91554">
        <ele>539.4</ele>
        <time>2023-05-07T08:11:14Z</time>
      </trkpt>
      <trkpt lat="47.04869" lon="5.91557">
        <ele>539.4</ele>
        <time>2023-05-07T08:11:17Z</time>
      </trkpt>
      <trkpt lat="47.04864" lon="5.91559">
        <ele>539.8</ele>
        <time>2023-05-07T08:11:19Z</time>
      </trkpt>
      <trkpt lat="47.04855" lon="5.91565">
        <ele>541</ele>
        <time>2023-05-07T08:11:23Z</time>
      </trkpt>
      <trkpt lat="47.04852" lon="5.91566">
        <ele>541.2</ele>
        <time>2023-05-07T08:11:24Z</time>
      </trkpt>
      <trkpt lat="47.04844" lon="5.91575">
        <ele>541.4</ele>
        <time>2023-05-07T08:11:29Z</time>
      </trkpt>
      <trkpt lat="47.04831" lon="5.91585">
        <ele>541.8</ele>
        <time>2023-05-07T08:11:35Z</time>
      </trkpt>
      <trkpt lat="47.04803" lon="5.91625">
        <ele>542</ele>
        <time>2023-05-07T08:11:55Z</time>
      </trkpt>
      <trkpt lat="47.04798" lon="5.91627">
        <ele>541.4</ele>
        <time>2023-05-07T08:11:57Z</time>
      </trkpt>
      <trkpt lat="47.04796" lon="5.91627">
        <ele>541</ele>
        <time>2023-05-07T08:11:58Z</time>
      </trkpt>
      <trkpt lat="47.04787" lon="5.91627">
        <ele>539.8</ele>
        <time>2023-05-07T08:12:02Z</time>
      </trkpt>
      <trkpt lat="47.04783" lon="5.91628">
        <ele>539.2</ele>
        <time>2023-05-07T08:12:04Z</time>
      </trkpt>
      <trkpt lat="47.04781" lon="5.91628">
        <ele>538.8</ele>
        <time>2023-05-07T08:12:05Z</time>
      </trkpt>
      <trkpt lat="47.04779" lon="5.91627">
        <ele>538.6</ele>
        <time>2023-05-07T08:12:06Z</time>
      </trkpt>
      <trkpt lat="47.04771" lon="5.91623">
        <ele>538.6</ele>
        <time>2023-05-07T08:12:10Z</time>
      </trkpt>
      <trkpt lat="47.04762" lon="5.91617">
        <ele>539.8</ele>
        <time>2023-05-07T08:12:16Z</time>
      </trkpt>
      <trkpt lat="47.04761" lon="5.91616">
        <ele>539.8</ele>
        <time>2023-05-07T08:12:17Z</time>
      </trkpt>
      <trkpt lat="47.04754" lon="5.91614">
        <ele>540.8</ele>
        <time>2023-05-07T08:12:21Z</time>
      </trkpt>
      <trkpt lat="47.04748" lon="5.91611">
        <ele>541.4</ele>
        <time>2023-05-07T08:12:25Z</time>
      </trkpt>
      <trkpt lat="47.04736" lon="5.91608">
        <ele>541</ele>
        <time>2023-05-07T08:12:34Z</time>
      </trkpt>
      <trkpt lat="47.04725" lon="5.91606">
        <ele>541.8</ele>
        <time>2023-05-07T08:12:40Z</time>
      </trkpt>
      <trkpt lat="47.04723" lon="5.91606">
        <ele>541.8</ele>
        <time>2023-05-07T08:12:41Z</time>
      </trkpt>
      <trkpt lat="47.04711" lon="5.91603">
        <ele>542.8</ele>
        <time>2023-05-07T08:12:48Z</time>
      </trkpt>
      <trkpt lat="47.04709" lon="5.91602">
        <ele>543</ele>
        <time>2023-05-07T08:12:49Z</time>
      </trkpt>
      <trkpt lat="47.04699" lon="5.91597">
        <ele>542.8</ele>
        <time>2023-05-07T08:12:56Z</time>
      </trkpt>
      <trkpt lat="47.04688" lon="5.91593">
        <ele>543.2</ele>
        <time>2023-05-07T08:13:03Z</time>
      </trkpt>
      <trkpt lat="47.04677" lon="5.91587">
        <ele>543.2</ele>
        <time>2023-05-07T08:13:10Z</time>
      </trkpt>
      <trkpt lat="47.04667" lon="5.91581">
        <ele>541.8</ele>
        <time>2023-05-07T08:13:16Z</time>
      </trkpt>
      <trkpt lat="47.04665" lon="5.91579">
        <ele>541.6</ele>
        <time>2023-05-07T08:13:17Z</time>
      </trkpt>
      <trkpt lat="47.04658" lon="5.91576">
        <ele>540.6</ele>
        <time>2023-05-07T08:13:20Z</time>
      </trkpt>
      <trkpt lat="47.04651" lon="5.91571">
        <ele>539.4</ele>
        <time>2023-05-07T08:13:23Z</time>
      </trkpt>
      <trkpt lat="47.04644" lon="5.91566">
        <ele>538.2</ele>
        <time>2023-05-07T08:13:27Z</time>
      </trkpt>
      <trkpt lat="47.04636" lon="5.9156">
        <ele>537.2</ele>
        <time>2023-05-07T08:13:31Z</time>
      </trkpt>
      <trkpt lat="47.04624" lon="5.91552">
        <ele>536.4</ele>
        <time>2023-05-07T08:13:38Z</time>
      </trkpt>
      <trkpt lat="47.04613" lon="5.91548">
        <ele>537</ele>
        <time>2023-05-07T08:13:45Z</time>
      </trkpt>
      <trkpt lat="47.04611" lon="5.91547">
        <ele>536.6</ele>
        <time>2023-05-07T08:13:46Z</time>
      </trkpt>
      <trkpt lat="47.0461" lon="5.91546">
        <ele>536.2</ele>
        <time>2023-05-07T08:13:47Z</time>
      </trkpt>
      <trkpt lat="47.04606" lon="5.91546">
        <ele>536</ele>
        <time>2023-05-07T08:13:50Z</time>
      </trkpt>
      <trkpt lat="47.04603" lon="5.91547">
        <ele>536.6</ele>
        <time>2023-05-07T08:13:51Z</time>
      </trkpt>
      <trkpt lat="47.04597" lon="5.91546">
        <ele>537.2</ele>
        <time>2023-05-07T08:13:54Z</time>
      </trkpt>
      <trkpt lat="47.04594" lon="5.91543">
        <ele>536.8</ele>
        <time>2023-05-07T08:13:56Z</time>
      </trkpt>
      <trkpt lat="47.04593" lon="5.91543">
        <ele>537.2</ele>
        <time>2023-05-07T08:13:57Z</time>
      </trkpt>
      <trkpt lat="47.0459" lon="5.91543">
        <ele>538.2</ele>
        <time>2023-05-07T08:13:59Z</time>
      </trkpt>
      <trkpt lat="47.04587" lon="5.91542">
        <ele>539.8</ele>
        <time>2023-05-07T08:14:01Z</time>
      </trkpt>
      <trkpt lat="47.04581" lon="5.9154">
        <ele>540</ele>
        <time>2023-05-07T08:14:04Z</time>
      </trkpt>
      <trkpt lat="47.04567" lon="5.91533">
        <ele>539.4</ele>
        <time>2023-05-07T08:14:12Z</time>
      </trkpt>
      <trkpt lat="47.04552" lon="5.91526">
        <ele>539.4</ele>
        <time>2023-05-07T08:14:19Z</time>
      </trkpt>
      <trkpt lat="47.04545" lon="5.91522">
        <ele>538.6</ele>
        <time>2023-05-07T08:14:22Z</time>
      </trkpt>
      <trkpt lat="47.04535" lon="5.91518">
        <ele>538.4</ele>
        <time>2023-05-07T08:14:27Z</time>
      </trkpt>
      <trkpt lat="47.04526" lon="5.91513">
        <ele>540</ele>
        <time>2023-05-07T08:14:32Z</time>
      </trkpt>
      <trkpt lat="47.04522" lon="5.91511">
        <ele>541.2</ele>
        <time>2023-05-07T08:14:34Z</time>
      </trkpt>
      <trkpt lat="47.0452" lon="5.9151">
        <ele>541.4</ele>
        <time>2023-05-07T08:14:35Z</time>
      </trkpt>
      <trkpt lat="47.04506" lon="5.91506">
        <ele>541.4</ele>
        <time>2023-05-07T08:14:41Z</time>
      </trkpt>
      <trkpt lat="47.0449" lon="5.91495">
        <ele>539.8</ele>
        <time>2023-05-07T08:14:48Z</time>
      </trkpt>
      <trkpt lat="47.04478" lon="5.91489">
        <ele>538.8</ele>
        <time>2023-05-07T08:14:53Z</time>
      </trkpt>
      <trkpt lat="47.04476" lon="5.91488">
        <ele>538.6</ele>
        <time>2023-05-07T08:14:54Z</time>
      </trkpt>
      <trkpt lat="47.04466" lon="5.91482">
        <ele>540</ele>
        <time>2023-05-07T08:14:59Z</time>
      </trkpt>
      <trkpt lat="47.04463" lon="5.9148">
        <ele>541.2</ele>
        <time>2023-05-07T08:15:01Z</time>
      </trkpt>
      <trkpt lat="47.04461" lon="5.91479">
        <ele>541.6</ele>
        <time>2023-05-07T08:15:02Z</time>
      </trkpt>
      <trkpt lat="47.04459" lon="5.91478">
        <ele>543</ele>
        <time>2023-05-07T08:15:03Z</time>
      </trkpt>
      <trkpt lat="47.04455" lon="5.91476">
        <ele>544.4</ele>
        <time>2023-05-07T08:15:05Z</time>
      </trkpt>
      <trkpt lat="47.04453" lon="5.91476">
        <ele>545.4</ele>
        <time>2023-05-07T08:15:06Z</time>
      </trkpt>
      <trkpt lat="47.04451" lon="5.91476">
        <ele>546.8</ele>
        <time>2023-05-07T08:15:07Z</time>
      </trkpt>
      <trkpt lat="47.04449" lon="5.91476">
        <ele>548</ele>
        <time>2023-05-07T08:15:08Z</time>
      </trkpt>
      <trkpt lat="47.04447" lon="5.91475">
        <ele>548.8</ele>
        <time>2023-05-07T08:15:09Z</time>
      </trkpt>
      <trkpt lat="47.04444" lon="5.91475">
        <ele>549.2</ele>
        <time>2023-05-07T08:15:10Z</time>
      </trkpt>
      <trkpt lat="47.0444" lon="5.91474">
        <ele>550.6</ele>
        <time>2023-05-07T08:15:12Z</time>
      </trkpt>
      <trkpt lat="47.04436" lon="5.91471">
        <ele>551</ele>
        <time>2023-05-07T08:15:14Z</time>
      </trkpt>
      <trkpt lat="47.04431" lon="5.91466">
        <ele>552</ele>
        <time>2023-05-07T08:15:17Z</time>
      </trkpt>
      <trkpt lat="47.04427" lon="5.91461">
        <ele>553.2</ele>
        <time>2023-05-07T08:15:20Z</time>
      </trkpt>
      <trkpt lat="47.04421" lon="5.91456">
        <ele>554.6</ele>
        <time>2023-05-07T08:15:23Z</time>
      </trkpt>
      <trkpt lat="47.04416" lon="5.91452">
        <ele>555.8</ele>
        <time>2023-05-07T08:15:26Z</time>
      </trkpt>
      <trkpt lat="47.04409" lon="5.91447">
        <ele>555.6</ele>
        <time>2023-05-07T08:15:30Z</time>
      </trkpt>
      <trkpt lat="47.04393" lon="5.91438">
        <ele>555.8</ele>
        <time>2023-05-07T08:15:38Z</time>
      </trkpt>
      <trkpt lat="47.04386" lon="5.91437">
        <ele>557</ele>
        <time>2023-05-07T08:15:42Z</time>
      </trkpt>
      <trkpt lat="47.0438" lon="5.91438">
        <ele>559.4</ele>
        <time>2023-05-07T08:15:47Z</time>
      </trkpt>
      <trkpt lat="47.04379" lon="5.91438">
        <ele>559.8</ele>
        <time>2023-05-07T08:15:48Z</time>
      </trkpt>
      <trkpt lat="47.04376" lon="5.91436">
        <ele>560.4</ele>
        <time>2023-05-07T08:15:50Z</time>
      </trkpt>
      <trkpt lat="47.04369" lon="5.91434">
        <ele>561.6</ele>
        <time>2023-05-07T08:15:55Z</time>
      </trkpt>
      <trkpt lat="47.04367" lon="5.91434">
        <ele>562</ele>
        <time>2023-05-07T08:15:56Z</time>
      </trkpt>
      <trkpt lat="47.0436" lon="5.91432">
        <ele>563</ele>
        <time>2023-05-07T08:16:00Z</time>
      </trkpt>
      <trkpt lat="47.04354" lon="5.91432">
        <ele>563.6</ele>
        <time>2023-05-07T08:16:03Z</time>
      </trkpt>
      <trkpt lat="47.04348" lon="5.91431">
        <ele>564</ele>
        <time>2023-05-07T08:16:06Z</time>
      </trkpt>
      <trkpt lat="47.04341" lon="5.91427">
        <ele>565.2</ele>
        <time>2023-05-07T08:16:10Z</time>
      </trkpt>
      <trkpt lat="47.04339" lon="5.91426">
        <ele>565.6</ele>
        <time>2023-05-07T08:16:11Z</time>
      </trkpt>
      <trkpt lat="47.04334" lon="5.91424">
        <ele>566.2</ele>
        <time>2023-05-07T08:16:14Z</time>
      </trkpt>
      <trkpt lat="47.04323" lon="5.91419">
        <ele>567</ele>
        <time>2023-05-07T08:16:19Z</time>
      </trkpt>
      <trkpt lat="47.04319" lon="5.91417">
        <ele>567.6</ele>
        <time>2023-05-07T08:16:21Z</time>
      </trkpt>
      <trkpt lat="47.04306" lon="5.91409">
        <ele>568.6</ele>
        <time>2023-05-07T08:16:28Z</time>
      </trkpt>
      <trkpt lat="47.04302" lon="5.91407">
        <ele>568.6</ele>
        <time>2023-05-07T08:16:30Z</time>
      </trkpt>
      <trkpt lat="47.04289" lon="5.91398">
        <ele>569.2</ele>
        <time>2023-05-07T08:16:37Z</time>
      </trkpt>
      <trkpt lat="47.04284" lon="5.91394">
        <ele>569.8</ele>
        <time>2023-05-07T08:16:40Z</time>
      </trkpt>
      <trkpt lat="47.04275" lon="5.91386">
        <ele>570</ele>
        <time>2023-05-07T08:16:45Z</time>
      </trkpt>
      <trkpt lat="47.04265" lon="5.91377">
        <ele>570.8</ele>
        <time>2023-05-07T08:16:51Z</time>
      </trkpt>
      <trkpt lat="47.04264" lon="5.91376">
        <ele>570.8</ele>
        <time>2023-05-07T08:16:52Z</time>
      </trkpt>
      <trkpt lat="47.0426" lon="5.91372">
        <ele>571.8</ele>
        <time>2023-05-07T08:16:56Z</time>
      </trkpt>
      <trkpt lat="47.04256" lon="5.91368">
        <ele>572</ele>
        <time>2023-05-07T08:16:59Z</time>
      </trkpt>
      <trkpt lat="47.04247" lon="5.91361">
        <ele>572.4</ele>
        <time>2023-05-07T08:17:06Z</time>
      </trkpt>
      <trkpt lat="47.04237" lon="5.91355">
        <ele>571.4</ele>
        <time>2023-05-07T08:17:13Z</time>
      </trkpt>
      <trkpt lat="47.04225" lon="5.91349">
        <ele>571</ele>
        <time>2023-05-07T08:17:20Z</time>
      </trkpt>
      <trkpt lat="47.04224" lon="5.91349">
        <ele>570.8</ele>
        <time>2023-05-07T08:17:21Z</time>
      </trkpt>
      <trkpt lat="47.04211" lon="5.91349">
        <ele>570.8</ele>
        <time>2023-05-07T08:17:29Z</time>
      </trkpt>
      <trkpt lat="47.04196" lon="5.91346">
        <ele>570</ele>
        <time>2023-05-07T08:17:36Z</time>
      </trkpt>
      <trkpt lat="47.04186" lon="5.91346">
        <ele>569.8</ele>
        <time>2023-05-07T08:17:40Z</time>
      </trkpt>
      <trkpt lat="47.0418" lon="5.91347">
        <ele>569.4</ele>
        <time>2023-05-07T08:17:42Z</time>
      </trkpt>
      <trkpt lat="47.04165" lon="5.91354">
        <ele>568.6</ele>
        <time>2023-05-07T08:17:46Z</time>
      </trkpt>
      <trkpt lat="47.04161" lon="5.91355">
        <ele>568.4</ele>
        <time>2023-05-07T08:17:47Z</time>
      </trkpt>
      <trkpt lat="47.04144" lon="5.91356">
        <ele>567.6</ele>
        <time>2023-05-07T08:17:51Z</time>
      </trkpt>
      <trkpt lat="47.04139" lon="5.91356">
        <ele>567.2</ele>
        <time>2023-05-07T08:17:52Z</time>
      </trkpt>
      <trkpt lat="47.0413" lon="5.91354">
        <ele>566.4</ele>
        <time>2023-05-07T08:17:54Z</time>
      </trkpt>
      <trkpt lat="47.04113" lon="5.91353">
        <ele>565.2</ele>
        <time>2023-05-07T08:17:57Z</time>
      </trkpt>
      <trkpt lat="47.04107" lon="5.91353">
        <ele>564.8</ele>
        <time>2023-05-07T08:17:58Z</time>
      </trkpt>
      <trkpt lat="47.04095" lon="5.91354">
        <ele>564</ele>
        <time>2023-05-07T08:18:00Z</time>
      </trkpt>
      <trkpt lat="47.04076" lon="5.91353">
        <ele>562.8</ele>
        <time>2023-05-07T08:18:03Z</time>
      </trkpt>
      <trkpt lat="47.0407" lon="5.91351">
        <ele>562.4</ele>
        <time>2023-05-07T08:18:04Z</time>
      </trkpt>
      <trkpt lat="47.0406" lon="5.91352">
        <ele>561.4</ele>
        <time>2023-05-07T08:18:06Z</time>
      </trkpt>
      <trkpt lat="47.04055" lon="5.91355">
        <ele>561</ele>
        <time>2023-05-07T08:18:07Z</time>
      </trkpt>
      <trkpt lat="47.04047" lon="5.91365">
        <ele>560</ele>
        <time>2023-05-07T08:18:09Z</time>
      </trkpt>
      <trkpt lat="47.04045" lon="5.91371">
        <ele>559.6</ele>
        <time>2023-05-07T08:18:10Z</time>
      </trkpt>
      <trkpt lat="47.04044" lon="5.9138">
        <ele>558.6</ele>
        <time>2023-05-07T08:18:12Z</time>
      </trkpt>
      <trkpt lat="47.04043" lon="5.91384">
        <ele>558</ele>
        <time>2023-05-07T08:18:13Z</time>
      </trkpt>
      <trkpt lat="47.04043" lon="5.91386">
        <ele>557.6</ele>
        <time>2023-05-07T08:18:14Z</time>
      </trkpt>
      <trkpt lat="47.0404" lon="5.91401">
        <ele>556.4</ele>
        <time>2023-05-07T08:18:18Z</time>
      </trkpt>
      <trkpt lat="47.04039" lon="5.91408">
        <ele>556.2</ele>
        <time>2023-05-07T08:18:20Z</time>
      </trkpt>
      <trkpt lat="47.04036" lon="5.91424">
        <ele>555.4</ele>
        <time>2023-05-07T08:18:24Z</time>
      </trkpt>
      <trkpt lat="47.04033" lon="5.91436">
        <ele>554.8</ele>
        <time>2023-05-07T08:18:26Z</time>
      </trkpt>
      <trkpt lat="47.04031" lon="5.91443">
        <ele>554.4</ele>
        <time>2023-05-07T08:18:27Z</time>
      </trkpt>
      <trkpt lat="47.0403" lon="5.91456">
        <ele>553.6</ele>
        <time>2023-05-07T08:18:29Z</time>
      </trkpt>
      <trkpt lat="47.04029" lon="5.91463">
        <ele>553.2</ele>
        <time>2023-05-07T08:18:30Z</time>
      </trkpt>
      <trkpt lat="47.04028" lon="5.9147">
        <ele>553</ele>
        <time>2023-05-07T08:18:31Z</time>
      </trkpt>
      <trkpt lat="47.04026" lon="5.91487">
        <ele>552</ele>
        <time>2023-05-07T08:18:33Z</time>
      </trkpt>
      <trkpt lat="47.04024" lon="5.91506">
        <ele>550.8</ele>
        <time>2023-05-07T08:18:35Z</time>
      </trkpt>
      <trkpt lat="47.04023" lon="5.91528">
        <ele>549</ele>
        <time>2023-05-07T08:18:37Z</time>
      </trkpt>
      <trkpt lat="47.04023" lon="5.91537">
        <ele>548.2</ele>
        <time>2023-05-07T08:18:38Z</time>
      </trkpt>
      <trkpt lat="47.04024" lon="5.91545">
        <ele>547.4</ele>
        <time>2023-05-07T08:18:39Z</time>
      </trkpt>
      <trkpt lat="47.04025" lon="5.91561">
        <ele>546</ele>
        <time>2023-05-07T08:18:41Z</time>
      </trkpt>
      <trkpt lat="47.04027" lon="5.91575">
        <ele>544.6</ele>
        <time>2023-05-07T08:18:43Z</time>
      </trkpt>
      <trkpt lat="47.04028" lon="5.91581">
        <ele>543.8</ele>
        <time>2023-05-07T08:18:44Z</time>
      </trkpt>
      <trkpt lat="47.0403" lon="5.91587">
        <ele>542.8</ele>
        <time>2023-05-07T08:18:45Z</time>
      </trkpt>
      <trkpt lat="47.04032" lon="5.91593">
        <ele>541.6</ele>
        <time>2023-05-07T08:18:46Z</time>
      </trkpt>
      <trkpt lat="47.04035" lon="5.9162">
        <ele>540.6</ele>
        <time>2023-05-07T08:18:50Z</time>
      </trkpt>
      <trkpt lat="47.04036" lon="5.91626">
        <ele>540.6</ele>
        <time>2023-05-07T08:18:51Z</time>
      </trkpt>
      <trkpt lat="47.04036" lon="5.91651">
        <ele>539.8</ele>
        <time>2023-05-07T08:18:55Z</time>
      </trkpt>
      <trkpt lat="47.04031" lon="5.91666">
        <ele>539.2</ele>
        <time>2023-05-07T08:18:57Z</time>
      </trkpt>
      <trkpt lat="47.04024" lon="5.91686">
        <ele>537.8</ele>
        <time>2023-05-07T08:19:00Z</time>
      </trkpt>
      <trkpt lat="47.04021" lon="5.91692">
        <ele>537.2</ele>
        <time>2023-05-07T08:19:01Z</time>
      </trkpt>
      <trkpt lat="47.04015" lon="5.91704">
        <ele>536.4</ele>
        <time>2023-05-07T08:19:03Z</time>
      </trkpt>
      <trkpt lat="47.0401" lon="5.91717">
        <ele>535.4</ele>
        <time>2023-05-07T08:19:05Z</time>
      </trkpt>
      <trkpt lat="47.04008" lon="5.91722">
        <ele>534.8</ele>
        <time>2023-05-07T08:19:06Z</time>
      </trkpt>
      <trkpt lat="47.04005" lon="5.91734">
        <ele>533.8</ele>
        <time>2023-05-07T08:19:08Z</time>
      </trkpt>
      <trkpt lat="47.03999" lon="5.91751">
        <ele>532.2</ele>
        <time>2023-05-07T08:19:11Z</time>
      </trkpt>
      <trkpt lat="47.03995" lon="5.9176">
        <ele>531.2</ele>
        <time>2023-05-07T08:19:13Z</time>
      </trkpt>
      <trkpt lat="47.03986" lon="5.91773">
        <ele>529.8</ele>
        <time>2023-05-07T08:19:16Z</time>
      </trkpt>
      <trkpt lat="47.0398" lon="5.91781">
        <ele>528.6</ele>
        <time>2023-05-07T08:19:18Z</time>
      </trkpt>
      <trkpt lat="47.03975" lon="5.91788">
        <ele>527.4</ele>
        <time>2023-05-07T08:19:20Z</time>
      </trkpt>
      <trkpt lat="47.03966" lon="5.91799">
        <ele>526.2</ele>
        <time>2023-05-07T08:19:23Z</time>
      </trkpt>
      <trkpt lat="47.03964" lon="5.91801">
        <ele>525.8</ele>
        <time>2023-05-07T08:19:24Z</time>
      </trkpt>
      <trkpt lat="47.03958" lon="5.91807">
        <ele>525</ele>
        <time>2023-05-07T08:19:26Z</time>
      </trkpt>
      <trkpt lat="47.0395" lon="5.91817">
        <ele>523.8</ele>
        <time>2023-05-07T08:19:29Z</time>
      </trkpt>
      <trkpt lat="47.03944" lon="5.91825">
        <ele>523</ele>
        <time>2023-05-07T08:19:31Z</time>
      </trkpt>
      <trkpt lat="47.03942" lon="5.91829">
        <ele>522.6</ele>
        <time>2023-05-07T08:19:32Z</time>
      </trkpt>
      <trkpt lat="47.03936" lon="5.91837">
        <ele>521.4</ele>
        <time>2023-05-07T08:19:34Z</time>
      </trkpt>
      <trkpt lat="47.03931" lon="5.91844">
        <ele>520</ele>
        <time>2023-05-07T08:19:36Z</time>
      </trkpt>
      <trkpt lat="47.03929" lon="5.91848">
        <ele>519.4</ele>
        <time>2023-05-07T08:19:37Z</time>
      </trkpt>
      <trkpt lat="47.03926" lon="5.91851">
        <ele>518.6</ele>
        <time>2023-05-07T08:19:38Z</time>
      </trkpt>
      <trkpt lat="47.03923" lon="5.91858">
        <ele>517.2</ele>
        <time>2023-05-07T08:19:40Z</time>
      </trkpt>
      <trkpt lat="47.03919" lon="5.91866">
        <ele>515.6</ele>
        <time>2023-05-07T08:19:42Z</time>
      </trkpt>
      <trkpt lat="47.03915" lon="5.91873">
        <ele>514.2</ele>
        <time>2023-05-07T08:19:44Z</time>
      </trkpt>
      <trkpt lat="47.03912" lon="5.91881">
        <ele>512.6</ele>
        <time>2023-05-07T08:19:46Z</time>
      </trkpt>
      <trkpt lat="47.03909" lon="5.9189">
        <ele>511</ele>
        <time>2023-05-07T08:19:48Z</time>
      </trkpt>
      <trkpt lat="47.03906" lon="5.91899">
        <ele>509.2</ele>
        <time>2023-05-07T08:19:50Z</time>
      </trkpt>
      <trkpt lat="47.03904" lon="5.91906">
        <ele>507.4</ele>
        <time>2023-05-07T08:19:52Z</time>
      </trkpt>
      <trkpt lat="47.03904" lon="5.91917">
        <ele>505.8</ele>
        <time>2023-05-07T08:19:54Z</time>
      </trkpt>
      <trkpt lat="47.03902" lon="5.91929">
        <ele>504</ele>
        <time>2023-05-07T08:19:56Z</time>
      </trkpt>
      <trkpt lat="47.03902" lon="5.91935">
        <ele>502.8</ele>
        <time>2023-05-07T08:19:57Z</time>
      </trkpt>
      <trkpt lat="47.03902" lon="5.91941">
        <ele>501.8</ele>
        <time>2023-05-07T08:19:58Z</time>
      </trkpt>
      <trkpt lat="47.03903" lon="5.91947">
        <ele>500.6</ele>
        <time>2023-05-07T08:19:59Z</time>
      </trkpt>
      <trkpt lat="47.03905" lon="5.91954">
        <ele>499.4</ele>
        <time>2023-05-07T08:20:00Z</time>
      </trkpt>
      <trkpt lat="47.03907" lon="5.9196">
        <ele>498</ele>
        <time>2023-05-07T08:20:01Z</time>
      </trkpt>
      <trkpt lat="47.03909" lon="5.91967">
        <ele>497</ele>
        <time>2023-05-07T08:20:02Z</time>
      </trkpt>
      <trkpt lat="47.03911" lon="5.91975">
        <ele>496</ele>
        <time>2023-05-07T08:20:03Z</time>
      </trkpt>
      <trkpt lat="47.03914" lon="5.91982">
        <ele>495</ele>
        <time>2023-05-07T08:20:04Z</time>
      </trkpt>
      <trkpt lat="47.03918" lon="5.91989">
        <ele>494</ele>
        <time>2023-05-07T08:20:05Z</time>
      </trkpt>
      <trkpt lat="47.03925" lon="5.92005">
        <ele>492.4</ele>
        <time>2023-05-07T08:20:07Z</time>
      </trkpt>
      <trkpt lat="47.03933" lon="5.92022">
        <ele>490.8</ele>
        <time>2023-05-07T08:20:09Z</time>
      </trkpt>
      <trkpt lat="47.03942" lon="5.92039">
        <ele>489.6</ele>
        <time>2023-05-07T08:20:11Z</time>
      </trkpt>
      <trkpt lat="47.03948" lon="5.92051">
        <ele>488.4</ele>
        <time>2023-05-07T08:20:13Z</time>
      </trkpt>
      <trkpt lat="47.03952" lon="5.92056">
        <ele>487.8</ele>
        <time>2023-05-07T08:20:14Z</time>
      </trkpt>
      <trkpt lat="47.03957" lon="5.9206">
        <ele>487.2</ele>
        <time>2023-05-07T08:20:15Z</time>
      </trkpt>
      <trkpt lat="47.03976" lon="5.92066">
        <ele>486.4</ele>
        <time>2023-05-07T08:20:18Z</time>
      </trkpt>
      <trkpt lat="47.03982" lon="5.92068">
        <ele>486.6</ele>
        <time>2023-05-07T08:20:19Z</time>
      </trkpt>
      <trkpt lat="47.04012" lon="5.92078">
        <ele>488.6</ele>
        <time>2023-05-07T08:20:23Z</time>
      </trkpt>
      <trkpt lat="47.04019" lon="5.92079">
        <ele>488.8</ele>
        <time>2023-05-07T08:20:24Z</time>
      </trkpt>
      <trkpt lat="47.04035" lon="5.92078">
        <ele>489.4</ele>
        <time>2023-05-07T08:20:26Z</time>
      </trkpt>
      <trkpt lat="47.04042" lon="5.92076">
        <ele>489.8</ele>
        <time>2023-05-07T08:20:27Z</time>
      </trkpt>
      <trkpt lat="47.04049" lon="5.92073">
        <ele>489.4</ele>
        <time>2023-05-07T08:20:28Z</time>
      </trkpt>
      <trkpt lat="47.04071" lon="5.92068">
        <ele>488.8</ele>
        <time>2023-05-07T08:20:31Z</time>
      </trkpt>
      <trkpt lat="47.04079" lon="5.92069">
        <ele>488.4</ele>
        <time>2023-05-07T08:20:32Z</time>
      </trkpt>
      <trkpt lat="47.04087" lon="5.92071">
        <ele>488</ele>
        <time>2023-05-07T08:20:33Z</time>
      </trkpt>
      <trkpt lat="47.04104" lon="5.92076">
        <ele>487.2</ele>
        <time>2023-05-07T08:20:35Z</time>
      </trkpt>
      <trkpt lat="47.04119" lon="5.92084">
        <ele>486.4</ele>
        <time>2023-05-07T08:20:37Z</time>
      </trkpt>
      <trkpt lat="47.04126" lon="5.92087">
        <ele>486</ele>
        <time>2023-05-07T08:20:38Z</time>
      </trkpt>
      <trkpt lat="47.04149" lon="5.92096">
        <ele>485</ele>
        <time>2023-05-07T08:20:41Z</time>
      </trkpt>
      <trkpt lat="47.04156" lon="5.92097">
        <ele>484.8</ele>
        <time>2023-05-07T08:20:42Z</time>
      </trkpt>
      <trkpt lat="47.04164" lon="5.92097">
        <ele>484.4</ele>
        <time>2023-05-07T08:20:43Z</time>
      </trkpt>
      <trkpt lat="47.04186" lon="5.92099">
        <ele>483.8</ele>
        <time>2023-05-07T08:20:46Z</time>
      </trkpt>
      <trkpt lat="47.04198" lon="5.92103">
        <ele>483.4</ele>
        <time>2023-05-07T08:20:48Z</time>
      </trkpt>
      <trkpt lat="47.0421" lon="5.92107">
        <ele>483</ele>
        <time>2023-05-07T08:20:50Z</time>
      </trkpt>
      <trkpt lat="47.04221" lon="5.92109">
        <ele>482.6</ele>
        <time>2023-05-07T08:20:52Z</time>
      </trkpt>
      <trkpt lat="47.04227" lon="5.9211">
        <ele>482.2</ele>
        <time>2023-05-07T08:20:53Z</time>
      </trkpt>
      <trkpt lat="47.04238" lon="5.92111">
        <ele>481.4</ele>
        <time>2023-05-07T08:20:55Z</time>
      </trkpt>
      <trkpt lat="47.04257" lon="5.92113">
        <ele>479.8</ele>
        <time>2023-05-07T08:20:58Z</time>
      </trkpt>
      <trkpt lat="47.04264" lon="5.92113">
        <ele>479.4</ele>
        <time>2023-05-07T08:20:59Z</time>
      </trkpt>
      <trkpt lat="47.0427" lon="5.92112">
        <ele>478.8</ele>
        <time>2023-05-07T08:21:00Z</time>
      </trkpt>
      <trkpt lat="47.04289" lon="5.92112">
        <ele>477.4</ele>
        <time>2023-05-07T08:21:03Z</time>
      </trkpt>
      <trkpt lat="47.04296" lon="5.92113">
        <ele>477</ele>
        <time>2023-05-07T08:21:04Z</time>
      </trkpt>
      <trkpt lat="47.04309" lon="5.92113">
        <ele>476</ele>
        <time>2023-05-07T08:21:06Z</time>
      </trkpt>
      <trkpt lat="47.04328" lon="5.92111">
        <ele>474.6</ele>
        <time>2023-05-07T08:21:09Z</time>
      </trkpt>
      <trkpt lat="47.04356" lon="5.92114">
        <ele>473.8</ele>
        <time>2023-05-07T08:21:13Z</time>
      </trkpt>
      <trkpt lat="47.04362" lon="5.92115">
        <ele>473.6</ele>
        <time>2023-05-07T08:21:14Z</time>
      </trkpt>
      <trkpt lat="47.04384" lon="5.92118">
        <ele>472.6</ele>
        <time>2023-05-07T08:21:18Z</time>
      </trkpt>
      <trkpt lat="47.04402" lon="5.92121">
        <ele>472</ele>
        <time>2023-05-07T08:21:22Z</time>
      </trkpt>
      <trkpt lat="47.0441" lon="5.92122">
        <ele>472</ele>
        <time>2023-05-07T08:21:24Z</time>
      </trkpt>
      <trkpt lat="47.04419" lon="5.92122">
        <ele>471.8</ele>
        <time>2023-05-07T08:21:26Z</time>
      </trkpt>
      <trkpt lat="47.04437" lon="5.92122">
        <ele>471.6</ele>
        <time>2023-05-07T08:21:30Z</time>
      </trkpt>
      <trkpt lat="47.04441" lon="5.92122">
        <ele>471.4</ele>
        <time>2023-05-07T08:21:31Z</time>
      </trkpt>
      <trkpt lat="47.04454" lon="5.92117">
        <ele>471</ele>
        <time>2023-05-07T08:21:35Z</time>
      </trkpt>
      <trkpt lat="47.04469" lon="5.92105">
        <ele>471.2</ele>
        <time>2023-05-07T08:21:40Z</time>
      </trkpt>
      <trkpt lat="47.04488" lon="5.92097">
        <ele>470.2</ele>
        <time>2023-05-07T08:21:45Z</time>
      </trkpt>
      <trkpt lat="47.04503" lon="5.92092">
        <ele>470.2</ele>
        <time>2023-05-07T08:21:49Z</time>
      </trkpt>
      <trkpt lat="47.04524" lon="5.92078">
        <ele>471</ele>
        <time>2023-05-07T08:21:54Z</time>
      </trkpt>
      <trkpt lat="47.04532" lon="5.92072">
        <ele>471.4</ele>
        <time>2023-05-07T08:21:56Z</time>
      </trkpt>
      <trkpt lat="47.04547" lon="5.92058">
        <ele>472.6</ele>
        <time>2023-05-07T08:22:00Z</time>
      </trkpt>
      <trkpt lat="47.04551" lon="5.92054">
        <ele>473</ele>
        <time>2023-05-07T08:22:01Z</time>
      </trkpt>
      <trkpt lat="47.04558" lon="5.92045">
        <ele>473.8</ele>
        <time>2023-05-07T08:22:03Z</time>
      </trkpt>
      <trkpt lat="47.04565" lon="5.9204">
        <ele>475</ele>
        <time>2023-05-07T08:22:05Z</time>
      </trkpt>
      <trkpt lat="47.04569" lon="5.92039">
        <ele>475.4</ele>
        <time>2023-05-07T08:22:06Z</time>
      </trkpt>
      <trkpt lat="47.04582" lon="5.92039">
        <ele>475.8</ele>
        <time>2023-05-07T08:22:09Z</time>
      </trkpt>
      <trkpt lat="47.04592" lon="5.92038">
        <ele>475.8</ele>
        <time>2023-05-07T08:22:11Z</time>
      </trkpt>
      <trkpt lat="47.0461" lon="5.92039">
        <ele>475.6</ele>
        <time>2023-05-07T08:22:14Z</time>
      </trkpt>
      <trkpt lat="47.04615" lon="5.9204">
        <ele>475.4</ele>
        <time>2023-05-07T08:22:15Z</time>
      </trkpt>
      <trkpt lat="47.04629" lon="5.92045">
        <ele>475</ele>
        <time>2023-05-07T08:22:19Z</time>
      </trkpt>
      <trkpt lat="47.04633" lon="5.92046">
        <ele>474.8</ele>
        <time>2023-05-07T08:22:20Z</time>
      </trkpt>
      <trkpt lat="47.04648" lon="5.92049">
        <ele>474.2</ele>
        <time>2023-05-07T08:22:23Z</time>
      </trkpt>
      <trkpt lat="47.04653" lon="5.92051">
        <ele>474.2</ele>
        <time>2023-05-07T08:22:24Z</time>
      </trkpt>
      <trkpt lat="47.0466" lon="5.92054">
        <ele>473.8</ele>
        <time>2023-05-07T08:22:25Z</time>
      </trkpt>
      <trkpt lat="47.04671" lon="5.92057">
        <ele>473.4</ele>
        <time>2023-05-07T08:22:27Z</time>
      </trkpt>
      <trkpt lat="47.0468" lon="5.92059">
        <ele>472.8</ele>
        <time>2023-05-07T08:22:29Z</time>
      </trkpt>
      <trkpt lat="47.04685" lon="5.92058">
        <ele>472.6</ele>
        <time>2023-05-07T08:22:30Z</time>
      </trkpt>
      <trkpt lat="47.04689" lon="5.92057">
        <ele>472.4</ele>
        <time>2023-05-07T08:22:31Z</time>
      </trkpt>
      <trkpt lat="47.04703" lon="5.92057">
        <ele>471.6</ele>
        <time>2023-05-07T08:22:35Z</time>
      </trkpt>
      <trkpt lat="47.04707" lon="5.92058">
        <ele>471.2</ele>
        <time>2023-05-07T08:22:36Z</time>
      </trkpt>
      <trkpt lat="47.04729" lon="5.92058">
        <ele>470.4</ele>
        <time>2023-05-07T08:22:40Z</time>
      </trkpt>
      <trkpt lat="47.04758" lon="5.92054">
        <ele>469</ele>
        <time>2023-05-07T08:22:45Z</time>
      </trkpt>
      <trkpt lat="47.0477" lon="5.92052">
        <ele>468</ele>
        <time>2023-05-07T08:22:47Z</time>
      </trkpt>
      <trkpt lat="47.04776" lon="5.92053">
        <ele>467.6</ele>
        <time>2023-05-07T08:22:48Z</time>
      </trkpt>
      <trkpt lat="47.04781" lon="5.92055">
        <ele>467</ele>
        <time>2023-05-07T08:22:49Z</time>
      </trkpt>
      <trkpt lat="47.04786" lon="5.92057">
        <ele>466.8</ele>
        <time>2023-05-07T08:22:50Z</time>
      </trkpt>
      <trkpt lat="47.04797" lon="5.9206">
        <ele>466.2</ele>
        <time>2023-05-07T08:22:52Z</time>
      </trkpt>
      <trkpt lat="47.04807" lon="5.92059">
        <ele>465.8</ele>
        <time>2023-05-07T08:22:54Z</time>
      </trkpt>
      <trkpt lat="47.04811" lon="5.92059">
        <ele>465.4</ele>
        <time>2023-05-07T08:22:55Z</time>
      </trkpt>
      <trkpt lat="47.04827" lon="5.92062">
        <ele>464.4</ele>
        <time>2023-05-07T08:22:59Z</time>
      </trkpt>
      <trkpt lat="47.04831" lon="5.92063">
        <ele>464.4</ele>
        <time>2023-05-07T08:23:00Z</time>
      </trkpt>
      <trkpt lat="47.04849" lon="5.92063">
        <ele>464.2</ele>
        <time>2023-05-07T08:23:04Z</time>
      </trkpt>
      <trkpt lat="47.04853" lon="5.92061">
        <ele>464.2</ele>
        <time>2023-05-07T08:23:05Z</time>
      </trkpt>
      <trkpt lat="47.04879" lon="5.92051">
        <ele>463.2</ele>
        <time>2023-05-07T08:23:12Z</time>
      </trkpt>
      <trkpt lat="47.04892" lon="5.92051">
        <ele>463.4</ele>
        <time>2023-05-07T08:23:15Z</time>
      </trkpt>
      <trkpt lat="47.04902" lon="5.92051">
        <ele>463.6</ele>
        <time>2023-05-07T08:23:17Z</time>
      </trkpt>
      <trkpt lat="47.04923" lon="5.92053">
        <ele>464</ele>
        <time>2023-05-07T08:23:22Z</time>
      </trkpt>
      <trkpt lat="47.04928" lon="5.92052">
        <ele>464.4</ele>
        <time>2023-05-07T08:23:23Z</time>
      </trkpt>
      <trkpt lat="47.04937" lon="5.92049">
        <ele>465</ele>
        <time>2023-05-07T08:23:26Z</time>
      </trkpt>
      <trkpt lat="47.04944" lon="5.92047">
        <ele>465.4</ele>
        <time>2023-05-07T08:23:30Z</time>
      </trkpt>
      <trkpt lat="47.04945" lon="5.92047">
        <ele>465.4</ele>
        <time>2023-05-07T08:23:31Z</time>
      </trkpt>
      <trkpt lat="47.04959" lon="5.92049">
        <ele>466.6</ele>
        <time>2023-05-07T08:23:37Z</time>
      </trkpt>
      <trkpt lat="47.04975" lon="5.92053">
        <ele>467.2</ele>
        <time>2023-05-07T08:23:42Z</time>
      </trkpt>
      <trkpt lat="47.04992" lon="5.92062">
        <ele>466.6</ele>
        <time>2023-05-07T08:23:47Z</time>
      </trkpt>
      <trkpt lat="47.05004" lon="5.92069">
        <ele>465.4</ele>
        <time>2023-05-07T08:23:50Z</time>
      </trkpt>
      <trkpt lat="47.05008" lon="5.92077">
        <ele>463.8</ele>
        <time>2023-05-07T08:23:52Z</time>
      </trkpt>
      <trkpt lat="47.05008" lon="5.92083">
        <ele>463</ele>
        <time>2023-05-07T08:23:53Z</time>
      </trkpt>
      <trkpt lat="47.0501" lon="5.92089">
        <ele>462.2</ele>
        <time>2023-05-07T08:23:54Z</time>
      </trkpt>
      <trkpt lat="47.05013" lon="5.92098">
        <ele>461.2</ele>
        <time>2023-05-07T08:23:55Z</time>
      </trkpt>
      <trkpt lat="47.05011" lon="5.9211">
        <ele>460</ele>
        <time>2023-05-07T08:23:56Z</time>
      </trkpt>
      <trkpt lat="47.0501" lon="5.92122">
        <ele>458</ele>
        <time>2023-05-07T08:23:57Z</time>
      </trkpt>
      <trkpt lat="47.05009" lon="5.92133">
        <ele>456.4</ele>
        <time>2023-05-07T08:23:58Z</time>
      </trkpt>
      <trkpt lat="47.05007" lon="5.92144">
        <ele>454.6</ele>
        <time>2023-05-07T08:23:59Z</time>
      </trkpt>
      <trkpt lat="47.05006" lon="5.92155">
        <ele>453.4</ele>
        <time>2023-05-07T08:24:00Z</time>
      </trkpt>
      <trkpt lat="47.05005" lon="5.92166">
        <ele>452.2</ele>
        <time>2023-05-07T08:24:01Z</time>
      </trkpt>
      <trkpt lat="47.05003" lon="5.92192">
        <ele>450.8</ele>
        <time>2023-05-07T08:24:03Z</time>
      </trkpt>
      <trkpt lat="47.05002" lon="5.92205">
        <ele>450.2</ele>
        <time>2023-05-07T08:24:04Z</time>
      </trkpt>
      <trkpt lat="47.05" lon="5.9222">
        <ele>449.2</ele>
        <time>2023-05-07T08:24:05Z</time>
      </trkpt>
      <trkpt lat="47.04998" lon="5.92247">
        <ele>448</ele>
        <time>2023-05-07T08:24:07Z</time>
      </trkpt>
      <trkpt lat="47.04996" lon="5.9226">
        <ele>447</ele>
        <time>2023-05-07T08:24:08Z</time>
      </trkpt>
      <trkpt lat="47.04995" lon="5.92272">
        <ele>446.2</ele>
        <time>2023-05-07T08:24:09Z</time>
      </trkpt>
      <trkpt lat="47.04993" lon="5.92284">
        <ele>445.4</ele>
        <time>2023-05-07T08:24:10Z</time>
      </trkpt>
      <trkpt lat="47.0499" lon="5.92327">
        <ele>445.2</ele>
        <time>2023-05-07T08:24:14Z</time>
      </trkpt>
      <trkpt lat="47.04996" lon="5.92339">
        <ele>446</ele>
        <time>2023-05-07T08:24:16Z</time>
      </trkpt>
      <trkpt lat="47.05004" lon="5.92351">
        <ele>446.6</ele>
        <time>2023-05-07T08:24:18Z</time>
      </trkpt>
      <trkpt lat="47.05008" lon="5.92355">
        <ele>447</ele>
        <time>2023-05-07T08:24:19Z</time>
      </trkpt>
      <trkpt lat="47.05018" lon="5.92363">
        <ele>447.2</ele>
        <time>2023-05-07T08:24:21Z</time>
      </trkpt>
      <trkpt lat="47.0503" lon="5.92368">
        <ele>447.6</ele>
        <time>2023-05-07T08:24:23Z</time>
      </trkpt>
      <trkpt lat="47.05036" lon="5.9237">
        <ele>447.8</ele>
        <time>2023-05-07T08:24:24Z</time>
      </trkpt>
      <trkpt lat="47.0505" lon="5.92375">
        <ele>448</ele>
        <time>2023-05-07T08:24:26Z</time>
      </trkpt>
      <trkpt lat="47.0508" lon="5.92396">
        <ele>448</ele>
        <time>2023-05-07T08:24:31Z</time>
      </trkpt>
      <trkpt lat="47.05084" lon="5.92403">
        <ele>448.2</ele>
        <time>2023-05-07T08:24:32Z</time>
      </trkpt>
      <trkpt lat="47.05086" lon="5.92407">
        <ele>448.8</ele>
        <time>2023-05-07T08:24:33Z</time>
      </trkpt>
      <trkpt lat="47.05089" lon="5.92411">
        <ele>449.8</ele>
        <time>2023-05-07T08:24:34Z</time>
      </trkpt>
      <trkpt lat="47.05091" lon="5.92414">
        <ele>450.6</ele>
        <time>2023-05-07T08:24:35Z</time>
      </trkpt>
      <trkpt lat="47.05093" lon="5.92416">
        <ele>451.2</ele>
        <time>2023-05-07T08:24:36Z</time>
      </trkpt>
      <trkpt lat="47.05096" lon="5.92419">
        <ele>452.4</ele>
        <time>2023-05-07T08:24:38Z</time>
      </trkpt>
      <trkpt lat="47.05099" lon="5.92422">
        <ele>453</ele>
        <time>2023-05-07T08:24:39Z</time>
      </trkpt>
      <trkpt lat="47.05101" lon="5.92424">
        <ele>453.4</ele>
        <time>2023-05-07T08:24:40Z</time>
      </trkpt>
      <trkpt lat="47.05112" lon="5.9243">
        <ele>454.6</ele>
        <time>2023-05-07T08:24:43Z</time>
      </trkpt>
      <trkpt lat="47.05118" lon="5.92431">
        <ele>454.8</ele>
        <time>2023-05-07T08:24:44Z</time>
      </trkpt>
      <trkpt lat="47.05137" lon="5.92439">
        <ele>456</ele>
        <time>2023-05-07T08:24:48Z</time>
      </trkpt>
      <trkpt lat="47.05152" lon="5.92445">
        <ele>456.8</ele>
        <time>2023-05-07T08:24:51Z</time>
      </trkpt>
      <trkpt lat="47.05168" lon="5.92452">
        <ele>457</ele>
        <time>2023-05-07T08:24:54Z</time>
      </trkpt>
      <trkpt lat="47.05179" lon="5.92455">
        <ele>457.2</ele>
        <time>2023-05-07T08:24:56Z</time>
      </trkpt>
      <trkpt lat="47.05184" lon="5.92456">
        <ele>457.2</ele>
        <time>2023-05-07T08:24:57Z</time>
      </trkpt>
      <trkpt lat="47.05215" lon="5.92461">
        <ele>457</ele>
        <time>2023-05-07T08:25:03Z</time>
      </trkpt>
      <trkpt lat="47.05233" lon="5.92464">
        <ele>456</ele>
        <time>2023-05-07T08:25:07Z</time>
      </trkpt>
      <trkpt lat="47.05241" lon="5.92465">
        <ele>455.6</ele>
        <time>2023-05-07T08:25:09Z</time>
      </trkpt>
      <trkpt lat="47.05253" lon="5.92469">
        <ele>454.8</ele>
        <time>2023-05-07T08:25:12Z</time>
      </trkpt>
      <trkpt lat="47.05265" lon="5.92471">
        <ele>453.8</ele>
        <time>2023-05-07T08:25:15Z</time>
      </trkpt>
      <trkpt lat="47.05269" lon="5.92473">
        <ele>453.4</ele>
        <time>2023-05-07T08:25:16Z</time>
      </trkpt>
      <trkpt lat="47.05293" lon="5.92479">
        <ele>452.4</ele>
        <time>2023-05-07T08:25:21Z</time>
      </trkpt>
      <trkpt lat="47.05299" lon="5.92479">
        <ele>452.2</ele>
        <time>2023-05-07T08:25:22Z</time>
      </trkpt>
      <trkpt lat="47.05316" lon="5.92482">
        <ele>451.4</ele>
        <time>2023-05-07T08:25:25Z</time>
      </trkpt>
      <trkpt lat="47.05337" lon="5.92486">
        <ele>450.6</ele>
        <time>2023-05-07T08:25:29Z</time>
      </trkpt>
      <trkpt lat="47.05357" lon="5.92492">
        <ele>450.6</ele>
        <time>2023-05-07T08:25:34Z</time>
      </trkpt>
      <trkpt lat="47.05376" lon="5.92495">
        <ele>450.2</ele>
        <time>2023-05-07T08:25:39Z</time>
      </trkpt>
      <trkpt lat="47.05382" lon="5.92495">
        <ele>450.2</ele>
        <time>2023-05-07T08:25:41Z</time>
      </trkpt>
      <trkpt lat="47.05401" lon="5.92494">
        <ele>450.8</ele>
        <time>2023-05-07T08:25:47Z</time>
      </trkpt>
      <trkpt lat="47.05404" lon="5.92494">
        <ele>451.4</ele>
        <time>2023-05-07T08:25:48Z</time>
      </trkpt>
      <trkpt lat="47.05415" lon="5.92494">
        <ele>453</ele>
        <time>2023-05-07T08:25:51Z</time>
      </trkpt>
      <trkpt lat="47.05426" lon="5.92494">
        <ele>453.8</ele>
        <time>2023-05-07T08:25:54Z</time>
      </trkpt>
      <trkpt lat="47.0543" lon="5.92495">
        <ele>454</ele>
        <time>2023-05-07T08:25:55Z</time>
      </trkpt>
      <trkpt lat="47.05449" lon="5.925">
        <ele>453.4</ele>
        <time>2023-05-07T08:26:00Z</time>
      </trkpt>
      <trkpt lat="47.05466" lon="5.92507">
        <ele>453.6</ele>
        <time>2023-05-07T08:26:06Z</time>
      </trkpt>
      <trkpt lat="47.05477" lon="5.92511">
        <ele>453</ele>
        <time>2023-05-07T08:26:09Z</time>
      </trkpt>
      <trkpt lat="47.05486" lon="5.92513">
        <ele>452.4</ele>
        <time>2023-05-07T08:26:11Z</time>
      </trkpt>
      <trkpt lat="47.05498" lon="5.92513">
        <ele>452</ele>
        <time>2023-05-07T08:26:14Z</time>
      </trkpt>
      <trkpt lat="47.05506" lon="5.92513">
        <ele>452</ele>
        <time>2023-05-07T08:26:16Z</time>
      </trkpt>
      <trkpt lat="47.05519" lon="5.92513">
        <ele>453.4</ele>
        <time>2023-05-07T08:26:20Z</time>
      </trkpt>
      <trkpt lat="47.05526" lon="5.92512">
        <ele>453.8</ele>
        <time>2023-05-07T08:26:22Z</time>
      </trkpt>
      <trkpt lat="47.05555" lon="5.92508">
        <ele>455.2</ele>
        <time>2023-05-07T08:26:29Z</time>
      </trkpt>
      <trkpt lat="47.0556" lon="5.92507">
        <ele>456.6</ele>
        <time>2023-05-07T08:26:30Z</time>
      </trkpt>
      <trkpt lat="47.05569" lon="5.92505">
        <ele>457.6</ele>
        <time>2023-05-07T08:26:32Z</time>
      </trkpt>
      <trkpt lat="47.05584" lon="5.925">
        <ele>458.2</ele>
        <time>2023-05-07T08:26:36Z</time>
      </trkpt>
      <trkpt lat="47.05593" lon="5.92497">
        <ele>458.8</ele>
        <time>2023-05-07T08:26:39Z</time>
      </trkpt>
      <trkpt lat="47.05599" lon="5.92494">
        <ele>457.4</ele>
        <time>2023-05-07T08:26:41Z</time>
      </trkpt>
      <trkpt lat="47.05603" lon="5.92492">
        <ele>457.4</ele>
        <time>2023-05-07T08:26:42Z</time>
      </trkpt>
      <trkpt lat="47.05617" lon="5.92485">
        <ele>456.4</ele>
        <time>2023-05-07T08:26:46Z</time>
      </trkpt>
      <trkpt lat="47.05624" lon="5.92481">
        <ele>455.8</ele>
        <time>2023-05-07T08:26:48Z</time>
      </trkpt>
      <trkpt lat="47.05632" lon="5.92477">
        <ele>455.4</ele>
        <time>2023-05-07T08:26:50Z</time>
      </trkpt>
      <trkpt lat="47.05651" lon="5.92466">
        <ele>454.6</ele>
        <time>2023-05-07T08:26:55Z</time>
      </trkpt>
      <trkpt lat="47.05674" lon="5.92455">
        <ele>454.2</ele>
        <time>2023-05-07T08:27:01Z</time>
      </trkpt>
      <trkpt lat="47.05682" lon="5.92453">
        <ele>454.4</ele>
        <time>2023-05-07T08:27:03Z</time>
      </trkpt>
      <trkpt lat="47.05709" lon="5.92449">
        <ele>453.2</ele>
        <time>2023-05-07T08:27:10Z</time>
      </trkpt>
      <trkpt lat="47.0573" lon="5.92447">
        <ele>452</ele>
        <time>2023-05-07T08:27:16Z</time>
      </trkpt>
      <trkpt lat="47.05737" lon="5.92448">
        <ele>451.6</ele>
        <time>2023-05-07T08:27:18Z</time>
      </trkpt>
      <trkpt lat="47.05759" lon="5.92448">
        <ele>452</ele>
        <time>2023-05-07T08:27:24Z</time>
      </trkpt>
      <trkpt lat="47.05769" lon="5.92448">
        <ele>453</ele>
        <time>2023-05-07T08:27:28Z</time>
      </trkpt>
      <trkpt lat="47.05774" lon="5.92448">
        <ele>453.6</ele>
        <time>2023-05-07T08:27:30Z</time>
      </trkpt>
      <trkpt lat="47.05777" lon="5.92448">
        <ele>454</ele>
        <time>2023-05-07T08:27:31Z</time>
      </trkpt>
      <trkpt lat="47.05784" lon="5.92448">
        <ele>455.2</ele>
        <time>2023-05-07T08:27:34Z</time>
      </trkpt>
      <trkpt lat="47.05786" lon="5.92448">
        <ele>455.4</ele>
        <time>2023-05-07T08:27:35Z</time>
      </trkpt>
      <trkpt lat="47.05802" lon="5.92445">
        <ele>455.2</ele>
        <time>2023-05-07T08:27:42Z</time>
      </trkpt>
      <trkpt lat="47.05816" lon="5.92441">
        <ele>455.2</ele>
        <time>2023-05-07T08:27:49Z</time>
      </trkpt>
      <trkpt lat="47.05827" lon="5.92436">
        <ele>456.2</ele>
        <time>2023-05-07T08:27:55Z</time>
      </trkpt>
      <trkpt lat="47.0583" lon="5.92433">
        <ele>456.2</ele>
        <time>2023-05-07T08:27:57Z</time>
      </trkpt>
      <trkpt lat="47.05841" lon="5.92421">
        <ele>457.4</ele>
        <time>2023-05-07T08:28:03Z</time>
      </trkpt>
      <trkpt lat="47.05844" lon="5.92417">
        <ele>458</ele>
        <time>2023-05-07T08:28:05Z</time>
      </trkpt>
      <trkpt lat="47.05845" lon="5.92412">
        <ele>458.6</ele>
        <time>2023-05-07T08:28:07Z</time>
      </trkpt>
      <trkpt lat="47.05847" lon="5.92403">
        <ele>459.8</ele>
        <time>2023-05-07T08:28:10Z</time>
      </trkpt>
      <trkpt lat="47.05848" lon="5.924">
        <ele>460.4</ele>
        <time>2023-05-07T08:28:11Z</time>
      </trkpt>
      <trkpt lat="47.05848" lon="5.92395">
        <ele>460.8</ele>
        <time>2023-05-07T08:28:13Z</time>
      </trkpt>
      <trkpt lat="47.05847" lon="5.92384">
        <ele>462</ele>
        <time>2023-05-07T08:28:17Z</time>
      </trkpt>
      <trkpt lat="47.05847" lon="5.92376">
        <ele>463.2</ele>
        <time>2023-05-07T08:28:20Z</time>
      </trkpt>
      <trkpt lat="47.05847" lon="5.92366">
        <ele>464.4</ele>
        <time>2023-05-07T08:28:24Z</time>
      </trkpt>
      <trkpt lat="47.05842" lon="5.92335">
        <ele>466.4</ele>
        <time>2023-05-07T08:28:34Z</time>
      </trkpt>
      <trkpt lat="47.05841" lon="5.92332">
        <ele>466.4</ele>
        <time>2023-05-07T08:28:35Z</time>
      </trkpt>
      <trkpt lat="47.05843" lon="5.92317">
        <ele>468</ele>
        <time>2023-05-07T08:28:40Z</time>
      </trkpt>
      <trkpt lat="47.05844" lon="5.92314">
        <ele>468.6</ele>
        <time>2023-05-07T08:28:41Z</time>
      </trkpt>
      <trkpt lat="47.05843" lon="5.92311">
        <ele>469.2</ele>
        <time>2023-05-07T08:28:42Z</time>
      </trkpt>
      <trkpt lat="47.05843" lon="5.92303">
        <ele>470.6</ele>
        <time>2023-05-07T08:28:44Z</time>
      </trkpt>
      <trkpt lat="47.05843" lon="5.92297">
        <ele>471.6</ele>
        <time>2023-05-07T08:28:46Z</time>
      </trkpt>
      <trkpt lat="47.05844" lon="5.92291">
        <ele>472.6</ele>
        <time>2023-05-07T08:28:48Z</time>
      </trkpt>
      <trkpt lat="47.05845" lon="5.92288">
        <ele>473.2</ele>
        <time>2023-05-07T08:28:49Z</time>
      </trkpt>
      <trkpt lat="47.05848" lon="5.92268">
        <ele>474.4</ele>
        <time>2023-05-07T08:28:55Z</time>
      </trkpt>
      <trkpt lat="47.05849" lon="5.92265">
        <ele>474.4</ele>
        <time>2023-05-07T08:28:56Z</time>
      </trkpt>
      <trkpt lat="47.05857" lon="5.92245">
        <ele>474.6</ele>
        <time>2023-05-07T08:29:04Z</time>
      </trkpt>
      <trkpt lat="47.05866" lon="5.92232">
        <ele>475</ele>
        <time>2023-05-07T08:29:10Z</time>
      </trkpt>
      <trkpt lat="47.05881" lon="5.92215">
        <ele>475.2</ele>
        <time>2023-05-07T08:29:19Z</time>
      </trkpt>
      <trkpt lat="47.05892" lon="5.92202">
        <ele>475.2</ele>
        <time>2023-05-07T08:29:25Z</time>
      </trkpt>
      <trkpt lat="47.05895" lon="5.92198">
        <ele>475.6</ele>
        <time>2023-05-07T08:29:27Z</time>
      </trkpt>
      <trkpt lat="47.05909" lon="5.92187">
        <ele>476.6</ele>
        <time>2023-05-07T08:29:33Z</time>
      </trkpt>
      <trkpt lat="47.05918" lon="5.92183">
        <ele>476.8</ele>
        <time>2023-05-07T08:29:37Z</time>
      </trkpt>
      <trkpt lat="47.05924" lon="5.9218">
        <ele>477.4</ele>
        <time>2023-05-07T08:29:40Z</time>
      </trkpt>
      <trkpt lat="47.0593" lon="5.92178">
        <ele>477.8</ele>
        <time>2023-05-07T08:29:43Z</time>
      </trkpt>
      <trkpt lat="47.05939" lon="5.92173">
        <ele>478</ele>
        <time>2023-05-07T08:29:47Z</time>
      </trkpt>
      <trkpt lat="47.05953" lon="5.92169">
        <ele>478.8</ele>
        <time>2023-05-07T08:29:52Z</time>
      </trkpt>
      <trkpt lat="47.05959" lon="5.92165">
        <ele>478.8</ele>
        <time>2023-05-07T08:29:55Z</time>
      </trkpt>
      <trkpt lat="47.0597" lon="5.92168">
        <ele>479.4</ele>
        <time>2023-05-07T08:30:01Z</time>
      </trkpt>
      <trkpt lat="47.05973" lon="5.9217">
        <ele>479.8</ele>
        <time>2023-05-07T08:30:03Z</time>
      </trkpt>
      <trkpt lat="47.05979" lon="5.92172">
        <ele>480</ele>
        <time>2023-05-07T08:30:06Z</time>
      </trkpt>
      <trkpt lat="47.05983" lon="5.92174">
        <ele>480.4</ele>
        <time>2023-05-07T08:30:08Z</time>
      </trkpt>
      <trkpt lat="47.05989" lon="5.92178">
        <ele>481.2</ele>
        <time>2023-05-07T08:30:11Z</time>
      </trkpt>
      <trkpt lat="47.05994" lon="5.92181">
        <ele>482</ele>
        <time>2023-05-07T08:30:14Z</time>
      </trkpt>
      <trkpt lat="47.06005" lon="5.92193">
        <ele>481.6</ele>
        <time>2023-05-07T08:30:20Z</time>
      </trkpt>
      <trkpt lat="47.06015" lon="5.92205">
        <ele>481.4</ele>
        <time>2023-05-07T08:30:24Z</time>
      </trkpt>
      <trkpt lat="47.06021" lon="5.92214">
        <ele>480</ele>
        <time>2023-05-07T08:30:26Z</time>
      </trkpt>
      <trkpt lat="47.06027" lon="5.92224">
        <ele>478.4</ele>
        <time>2023-05-07T08:30:28Z</time>
      </trkpt>
      <trkpt lat="47.0603" lon="5.92227">
        <ele>477.8</ele>
        <time>2023-05-07T08:30:29Z</time>
      </trkpt>
      <trkpt lat="47.06033" lon="5.92231">
        <ele>477.2</ele>
        <time>2023-05-07T08:30:30Z</time>
      </trkpt>
      <trkpt lat="47.06042" lon="5.92243">
        <ele>476.2</ele>
        <time>2023-05-07T08:30:33Z</time>
      </trkpt>
      <trkpt lat="47.06045" lon="5.92248">
        <ele>475.8</ele>
        <time>2023-05-07T08:30:34Z</time>
      </trkpt>
      <trkpt lat="47.06056" lon="5.92266">
        <ele>475.2</ele>
        <time>2023-05-07T08:30:38Z</time>
      </trkpt>
      <trkpt lat="47.06063" lon="5.92279">
        <ele>475.6</ele>
        <time>2023-05-07T08:30:41Z</time>
      </trkpt>
      <trkpt lat="47.06082" lon="5.92298">
        <ele>475</ele>
        <time>2023-05-07T08:30:47Z</time>
      </trkpt>
      <trkpt lat="47.06102" lon="5.92303">
        <ele>474.2</ele>
        <time>2023-05-07T08:30:52Z</time>
      </trkpt>
      <trkpt lat="47.06105" lon="5.92304">
        <ele>474</ele>
        <time>2023-05-07T08:30:53Z</time>
      </trkpt>
      <trkpt lat="47.06122" lon="5.92306">
        <ele>474.8</ele>
        <time>2023-05-07T08:30:58Z</time>
      </trkpt>
      <trkpt lat="47.06125" lon="5.92306">
        <ele>475.6</ele>
        <time>2023-05-07T08:30:59Z</time>
      </trkpt>
      <trkpt lat="47.06134" lon="5.92307">
        <ele>476.8</ele>
        <time>2023-05-07T08:31:01Z</time>
      </trkpt>
      <trkpt lat="47.06143" lon="5.92304">
        <ele>477.8</ele>
        <time>2023-05-07T08:31:04Z</time>
      </trkpt>
      <trkpt lat="47.06162" lon="5.92303">
        <ele>477.2</ele>
        <time>2023-05-07T08:31:10Z</time>
      </trkpt>
      <trkpt lat="47.06186" lon="5.92306">
        <ele>476.8</ele>
        <time>2023-05-07T08:31:16Z</time>
      </trkpt>
      <trkpt lat="47.06207" lon="5.92309">
        <ele>477.8</ele>
        <time>2023-05-07T08:31:22Z</time>
      </trkpt>
      <trkpt lat="47.06231" lon="5.92318">
        <ele>477.6</ele>
        <time>2023-05-07T08:31:28Z</time>
      </trkpt>
      <trkpt lat="47.06254" lon="5.92326">
        <ele>477</ele>
        <time>2023-05-07T08:31:34Z</time>
      </trkpt>
      <trkpt lat="47.06261" lon="5.92329">
        <ele>476.8</ele>
        <time>2023-05-07T08:31:36Z</time>
      </trkpt>
      <trkpt lat="47.06278" lon="5.92334">
        <ele>476.2</ele>
        <time>2023-05-07T08:31:40Z</time>
      </trkpt>
      <trkpt lat="47.06291" lon="5.92339">
        <ele>475.6</ele>
        <time>2023-05-07T08:31:43Z</time>
      </trkpt>
      <trkpt lat="47.063" lon="5.92344">
        <ele>475.2</ele>
        <time>2023-05-07T08:31:45Z</time>
      </trkpt>
      <trkpt lat="47.06314" lon="5.92351">
        <ele>474.4</ele>
        <time>2023-05-07T08:31:48Z</time>
      </trkpt>
      <trkpt lat="47.06326" lon="5.92357">
        <ele>473.6</ele>
        <time>2023-05-07T08:31:51Z</time>
      </trkpt>
      <trkpt lat="47.06331" lon="5.92358">
        <ele>473.6</ele>
        <time>2023-05-07T08:31:52Z</time>
      </trkpt>
      <trkpt lat="47.06341" lon="5.92358">
        <ele>473.4</ele>
        <time>2023-05-07T08:31:54Z</time>
      </trkpt>
      <trkpt lat="47.06362" lon="5.9236">
        <ele>472.4</ele>
        <time>2023-05-07T08:31:58Z</time>
      </trkpt>
      <trkpt lat="47.06367" lon="5.9236">
        <ele>472</ele>
        <time>2023-05-07T08:31:59Z</time>
      </trkpt>
      <trkpt lat="47.06379" lon="5.92361">
        <ele>470.6</ele>
        <time>2023-05-07T08:32:01Z</time>
      </trkpt>
      <trkpt lat="47.06391" lon="5.92361">
        <ele>470</ele>
        <time>2023-05-07T08:32:03Z</time>
      </trkpt>
      <trkpt lat="47.06396" lon="5.92362">
        <ele>469.8</ele>
        <time>2023-05-07T08:32:04Z</time>
      </trkpt>
      <trkpt lat="47.06407" lon="5.92365">
        <ele>469.4</ele>
        <time>2023-05-07T08:32:06Z</time>
      </trkpt>
      <trkpt lat="47.06411" lon="5.92366">
        <ele>469.2</ele>
        <time>2023-05-07T08:32:07Z</time>
      </trkpt>
      <trkpt lat="47.06421" lon="5.92366">
        <ele>468.4</ele>
        <time>2023-05-07T08:32:09Z</time>
      </trkpt>
      <trkpt lat="47.06425" lon="5.92366">
        <ele>468.2</ele>
        <time>2023-05-07T08:32:10Z</time>
      </trkpt>
      <trkpt lat="47.06449" lon="5.92365">
        <ele>466.6</ele>
        <time>2023-05-07T08:32:16Z</time>
      </trkpt>
      <trkpt lat="47.0646" lon="5.92353">
        <ele>467.4</ele>
        <time>2023-05-07T08:32:20Z</time>
      </trkpt>
      <trkpt lat="47.06464" lon="5.92344">
        <ele>467.8</ele>
        <time>2023-05-07T08:32:25Z</time>
      </trkpt>
      <trkpt lat="47.06464" lon="5.92343">
        <ele>467.8</ele>
        <time>2023-05-07T08:32:26Z</time>
      </trkpt>
      <trkpt lat="47.06471" lon="5.92336">
        <ele>470.6</ele>
        <time>2023-05-07T08:34:48Z</time>
      </trkpt>
      <trkpt lat="47.06477" lon="5.92326">
        <ele>471.8</ele>
        <time>2023-05-07T08:34:52Z</time>
      </trkpt>
      <trkpt lat="47.06479" lon="5.92323">
        <ele>472</ele>
        <time>2023-05-07T08:34:53Z</time>
      </trkpt>
      <trkpt lat="47.0648" lon="5.92321">
        <ele>472.2</ele>
        <time>2023-05-07T08:34:54Z</time>
      </trkpt>
      <trkpt lat="47.06486" lon="5.92312">
        <ele>472.8</ele>
        <time>2023-05-07T08:34:59Z</time>
      </trkpt>
      <trkpt lat="47.06487" lon="5.92311">
        <ele>472.8</ele>
        <time>2023-05-07T08:35:00Z</time>
      </trkpt>
      <trkpt lat="47.06501" lon="5.92297">
        <ele>474</ele>
        <time>2023-05-07T08:35:15Z</time>
      </trkpt>
      <trkpt lat="47.06523" lon="5.92285">
        <ele>474.6</ele>
        <time>2023-05-07T08:35:29Z</time>
      </trkpt>
      <trkpt lat="47.06527" lon="5.92284">
        <ele>475</ele>
        <time>2023-05-07T08:35:31Z</time>
      </trkpt>
      <trkpt lat="47.06536" lon="5.92275">
        <ele>474.2</ele>
        <time>2023-05-07T08:36:19Z</time>
      </trkpt>
      <trkpt lat="47.06539" lon="5.92271">
        <ele>474</ele>
        <time>2023-05-07T08:36:21Z</time>
      </trkpt>
      <trkpt lat="47.06534" lon="5.92237">
        <ele>478.2</ele>
        <time>2023-05-07T08:36:37Z</time>
      </trkpt>
      <trkpt lat="47.06531" lon="5.92232">
        <ele>479.4</ele>
        <time>2023-05-07T08:36:39Z</time>
      </trkpt>
      <trkpt lat="47.06528" lon="5.92228">
        <ele>479.4</ele>
        <time>2023-05-07T08:36:41Z</time>
      </trkpt>
      <trkpt lat="47.06526" lon="5.92223">
        <ele>480.8</ele>
        <time>2023-05-07T08:36:43Z</time>
      </trkpt>
      <trkpt lat="47.06525" lon="5.92216">
        <ele>482</ele>
        <time>2023-05-07T08:36:46Z</time>
      </trkpt>
      <trkpt lat="47.06522" lon="5.92211">
        <ele>483.4</ele>
        <time>2023-05-07T08:36:48Z</time>
      </trkpt>
      <trkpt lat="47.0652" lon="5.92207">
        <ele>484.6</ele>
        <time>2023-05-07T08:36:50Z</time>
      </trkpt>
      <trkpt lat="47.06515" lon="5.922">
        <ele>485.6</ele>
        <time>2023-05-07T08:36:53Z</time>
      </trkpt>
      <trkpt lat="47.06514" lon="5.92198">
        <ele>486</ele>
        <time>2023-05-07T08:36:54Z</time>
      </trkpt>
      <trkpt lat="47.06506" lon="5.92156">
        <ele>493</ele>
        <time>2023-05-07T08:37:11Z</time>
      </trkpt>
      <trkpt lat="47.06506" lon="5.92148">
        <ele>493.8</ele>
        <time>2023-05-07T08:37:14Z</time>
      </trkpt>
      <trkpt lat="47.06506" lon="5.92145">
        <ele>494.4</ele>
        <time>2023-05-07T08:37:15Z</time>
      </trkpt>
      <trkpt lat="47.06508" lon="5.92137">
        <ele>495.6</ele>
        <time>2023-05-07T08:37:18Z</time>
      </trkpt>
      <trkpt lat="47.06511" lon="5.92128">
        <ele>496.6</ele>
        <time>2023-05-07T08:37:21Z</time>
      </trkpt>
      <trkpt lat="47.06511" lon="5.92126">
        <ele>496.8</ele>
        <time>2023-05-07T08:37:22Z</time>
      </trkpt>
      <trkpt lat="47.0651" lon="5.92113">
        <ele>497.8</ele>
        <time>2023-05-07T08:37:26Z</time>
      </trkpt>
      <trkpt lat="47.06511" lon="5.92102">
        <ele>498.4</ele>
        <time>2023-05-07T08:37:29Z</time>
      </trkpt>
      <trkpt lat="47.06513" lon="5.92093">
        <ele>498.8</ele>
        <time>2023-05-07T08:37:31Z</time>
      </trkpt>
      <trkpt lat="47.06515" lon="5.92077">
        <ele>500</ele>
        <time>2023-05-07T08:37:35Z</time>
      </trkpt>
      <trkpt lat="47.06516" lon="5.92072">
        <ele>500</ele>
        <time>2023-05-07T08:37:36Z</time>
      </trkpt>
      <trkpt lat="47.06519" lon="5.92046">
        <ele>500.6</ele>
        <time>2023-05-07T08:37:42Z</time>
      </trkpt>
      <trkpt lat="47.0652" lon="5.92042">
        <ele>501.2</ele>
        <time>2023-05-07T08:37:43Z</time>
      </trkpt>
      <trkpt lat="47.06518" lon="5.9202">
        <ele>502</ele>
        <time>2023-05-07T08:37:48Z</time>
      </trkpt>
      <trkpt lat="47.06517" lon="5.92005">
        <ele>502.2</ele>
        <time>2023-05-07T08:37:51Z</time>
      </trkpt>
      <trkpt lat="47.06518" lon="5.9199">
        <ele>502.4</ele>
        <time>2023-05-07T08:37:54Z</time>
      </trkpt>
      <trkpt lat="47.0652" lon="5.91956">
        <ele>503</ele>
        <time>2023-05-07T08:38:00Z</time>
      </trkpt>
      <trkpt lat="47.0652" lon="5.91921">
        <ele>502.4</ele>
        <time>2023-05-07T08:38:05Z</time>
      </trkpt>
      <trkpt lat="47.06516" lon="5.91889">
        <ele>501.4</ele>
        <time>2023-05-07T08:38:09Z</time>
      </trkpt>
      <trkpt lat="47.06512" lon="5.91872">
        <ele>501</ele>
        <time>2023-05-07T08:38:11Z</time>
      </trkpt>
      <trkpt lat="47.0651" lon="5.91864">
        <ele>501</ele>
        <time>2023-05-07T08:38:12Z</time>
      </trkpt>
      <trkpt lat="47.06505" lon="5.9183">
        <ele>500.8</ele>
        <time>2023-05-07T08:38:16Z</time>
      </trkpt>
      <trkpt lat="47.065" lon="5.91814">
        <ele>501.6</ele>
        <time>2023-05-07T08:38:19Z</time>
      </trkpt>
      <trkpt lat="47.06499" lon="5.91809">
        <ele>502.2</ele>
        <time>2023-05-07T08:38:20Z</time>
      </trkpt>
      <trkpt lat="47.065" lon="5.91807">
        <ele>502.8</ele>
        <time>2023-05-07T08:38:21Z</time>
      </trkpt>
      <trkpt lat="47.06502" lon="5.91805">
        <ele>504.8</ele>
        <time>2023-05-07T08:38:25Z</time>
      </trkpt>
      <trkpt lat="47.06504" lon="5.91815">
        <ele>505.2</ele>
        <time>2023-05-07T08:38:30Z</time>
      </trkpt>
      <trkpt lat="47.06506" lon="5.91822">
        <ele>505.6</ele>
        <time>2023-05-07T08:38:32Z</time>
      </trkpt>
      <trkpt lat="47.06512" lon="5.9184">
        <ele>505.4</ele>
        <time>2023-05-07T08:38:37Z</time>
      </trkpt>
      <trkpt lat="47.06518" lon="5.91858">
        <ele>505.2</ele>
        <time>2023-05-07T08:38:41Z</time>
      </trkpt>
      <trkpt lat="47.06531" lon="5.91886">
        <ele>504.8</ele>
        <time>2023-05-07T08:38:48Z</time>
      </trkpt>
      <trkpt lat="47.06543" lon="5.91905">
        <ele>505</ele>
        <time>2023-05-07T08:38:54Z</time>
      </trkpt>
      <trkpt lat="47.06558" lon="5.91924">
        <ele>506</ele>
        <time>2023-05-07T08:39:00Z</time>
      </trkpt>
      <trkpt lat="47.06561" lon="5.91928">
        <ele>506.2</ele>
        <time>2023-05-07T08:39:01Z</time>
      </trkpt>
      <trkpt lat="47.06578" lon="5.91956">
        <ele>504.8</ele>
        <time>2023-05-07T08:39:08Z</time>
      </trkpt>
      <trkpt lat="47.06581" lon="5.91969">
        <ele>503.6</ele>
        <time>2023-05-07T08:39:11Z</time>
      </trkpt>
      <trkpt lat="47.06582" lon="5.91978">
        <ele>502.8</ele>
        <time>2023-05-07T08:39:13Z</time>
      </trkpt>
      <trkpt lat="47.06583" lon="5.91982">
        <ele>502.4</ele>
        <time>2023-05-07T08:39:14Z</time>
      </trkpt>
      <trkpt lat="47.06585" lon="5.92009">
        <ele>501.4</ele>
        <time>2023-05-07T08:39:20Z</time>
      </trkpt>
      <trkpt lat="47.06586" lon="5.92019">
        <ele>501.4</ele>
        <time>2023-05-07T08:39:22Z</time>
      </trkpt>
      <trkpt lat="47.0659" lon="5.92041">
        <ele>502.2</ele>
        <time>2023-05-07T08:39:27Z</time>
      </trkpt>
      <trkpt lat="47.06592" lon="5.9205">
        <ele>502.4</ele>
        <time>2023-05-07T08:39:29Z</time>
      </trkpt>
      <trkpt lat="47.06595" lon="5.92073">
        <ele>503.2</ele>
        <time>2023-05-07T08:39:34Z</time>
      </trkpt>
      <trkpt lat="47.06596" lon="5.92078">
        <ele>503.4</ele>
        <time>2023-05-07T08:39:35Z</time>
      </trkpt>
      <trkpt lat="47.06598" lon="5.92093">
        <ele>504.6</ele>
        <time>2023-05-07T08:39:38Z</time>
      </trkpt>
      <trkpt lat="47.066" lon="5.92105">
        <ele>505</ele>
        <time>2023-05-07T08:39:41Z</time>
      </trkpt>
      <trkpt lat="47.06606" lon="5.92131">
        <ele>505.8</ele>
        <time>2023-05-07T08:39:47Z</time>
      </trkpt>
      <trkpt lat="47.06612" lon="5.92161">
        <ele>506.2</ele>
        <time>2023-05-07T08:39:53Z</time>
      </trkpt>
      <trkpt lat="47.06614" lon="5.9218">
        <ele>504.6</ele>
        <time>2023-05-07T08:39:57Z</time>
      </trkpt>
      <trkpt lat="47.06615" lon="5.9219">
        <ele>504.4</ele>
        <time>2023-05-07T08:39:59Z</time>
      </trkpt>
      <trkpt lat="47.06624" lon="5.9221">
        <ele>504.4</ele>
        <time>2023-05-07T08:40:04Z</time>
      </trkpt>
      <trkpt lat="47.06632" lon="5.92217">
        <ele>504.4</ele>
        <time>2023-05-07T08:40:09Z</time>
      </trkpt>
      <trkpt lat="47.06642" lon="5.92221">
        <ele>504.6</ele>
        <time>2023-05-07T08:40:14Z</time>
      </trkpt>
      <trkpt lat="47.06656" lon="5.92223">
        <ele>504.4</ele>
        <time>2023-05-07T08:40:20Z</time>
      </trkpt>
      <trkpt lat="47.06673" lon="5.92224">
        <ele>505.8</ele>
        <time>2023-05-07T08:40:28Z</time>
      </trkpt>
      <trkpt lat="47.06688" lon="5.92228">
        <ele>506</ele>
        <time>2023-05-07T08:40:34Z</time>
      </trkpt>
      <trkpt lat="47.06696" lon="5.92229">
        <ele>506.8</ele>
        <time>2023-05-07T08:40:37Z</time>
      </trkpt>
      <trkpt lat="47.06705" lon="5.92234">
        <ele>507.2</ele>
        <time>2023-05-07T08:40:41Z</time>
      </trkpt>
      <trkpt lat="47.06712" lon="5.9224">
        <ele>507.8</ele>
        <time>2023-05-07T08:40:45Z</time>
      </trkpt>
      <trkpt lat="47.06715" lon="5.92241">
        <ele>509</ele>
        <time>2023-05-07T08:40:46Z</time>
      </trkpt>
      <trkpt lat="47.06717" lon="5.92243">
        <ele>510.2</ele>
        <time>2023-05-07T08:40:47Z</time>
      </trkpt>
      <trkpt lat="47.06723" lon="5.92246">
        <ele>511.6</ele>
        <time>2023-05-07T08:40:49Z</time>
      </trkpt>
      <trkpt lat="47.06731" lon="5.9225">
        <ele>512.6</ele>
        <time>2023-05-07T08:40:53Z</time>
      </trkpt>
      <trkpt lat="47.06734" lon="5.92251">
        <ele>513.4</ele>
        <time>2023-05-07T08:40:54Z</time>
      </trkpt>
      <trkpt lat="47.06745" lon="5.92253">
        <ele>515</ele>
        <time>2023-05-07T08:40:58Z</time>
      </trkpt>
      <trkpt lat="47.06757" lon="5.92254">
        <ele>515</ele>
        <time>2023-05-07T08:41:05Z</time>
      </trkpt>
      <trkpt lat="47.06766" lon="5.92254">
        <ele>516.2</ele>
        <time>2023-05-07T08:41:08Z</time>
      </trkpt>
      <trkpt lat="47.06779" lon="5.9225">
        <ele>516.8</ele>
        <time>2023-05-07T08:41:12Z</time>
      </trkpt>
      <trkpt lat="47.06796" lon="5.92246">
        <ele>517</ele>
        <time>2023-05-07T08:41:18Z</time>
      </trkpt>
      <trkpt lat="47.06815" lon="5.92244">
        <ele>517.4</ele>
        <time>2023-05-07T08:41:25Z</time>
      </trkpt>
      <trkpt lat="47.06832" lon="5.92248">
        <ele>516.8</ele>
        <time>2023-05-07T08:41:33Z</time>
      </trkpt>
      <trkpt lat="47.06845" lon="5.92254">
        <ele>517</ele>
        <time>2023-05-07T08:41:39Z</time>
      </trkpt>
      <trkpt lat="47.0686" lon="5.92268">
        <ele>517.6</ele>
        <time>2023-05-07T08:41:44Z</time>
      </trkpt>
      <trkpt lat="47.06869" lon="5.92279">
        <ele>518.6</ele>
        <time>2023-05-07T08:41:47Z</time>
      </trkpt>
      <trkpt lat="47.06877" lon="5.92292">
        <ele>520.2</ele>
        <time>2023-05-07T08:41:50Z</time>
      </trkpt>
      <trkpt lat="47.06879" lon="5.92295">
        <ele>520.4</ele>
        <time>2023-05-07T08:41:51Z</time>
      </trkpt>
      <trkpt lat="47.06886" lon="5.92307">
        <ele>521.4</ele>
        <time>2023-05-07T08:41:54Z</time>
      </trkpt>
      <trkpt lat="47.06897" lon="5.92317">
        <ele>521.2</ele>
        <time>2023-05-07T08:41:58Z</time>
      </trkpt>
      <trkpt lat="47.06916" lon="5.92326">
        <ele>521.2</ele>
        <time>2023-05-07T08:42:05Z</time>
      </trkpt>
      <trkpt lat="47.06935" lon="5.92337">
        <ele>520.8</ele>
        <time>2023-05-07T08:42:11Z</time>
      </trkpt>
      <trkpt lat="47.06938" lon="5.92338">
        <ele>520.4</ele>
        <time>2023-05-07T08:42:12Z</time>
      </trkpt>
      <trkpt lat="47.06949" lon="5.92341">
        <ele>519.2</ele>
        <time>2023-05-07T08:42:15Z</time>
      </trkpt>
      <trkpt lat="47.06958" lon="5.92341">
        <ele>518.4</ele>
        <time>2023-05-07T08:42:17Z</time>
      </trkpt>
      <trkpt lat="47.06962" lon="5.92341">
        <ele>517.8</ele>
        <time>2023-05-07T08:42:18Z</time>
      </trkpt>
      <trkpt lat="47.06983" lon="5.92347">
        <ele>519.4</ele>
        <time>2023-05-07T08:42:22Z</time>
      </trkpt>
      <trkpt lat="47.06993" lon="5.92351">
        <ele>520</ele>
        <time>2023-05-07T08:42:24Z</time>
      </trkpt>
      <trkpt lat="47.06998" lon="5.92354">
        <ele>520.4</ele>
        <time>2023-05-07T08:42:25Z</time>
      </trkpt>
      <trkpt lat="47.07018" lon="5.9236">
        <ele>521.2</ele>
        <time>2023-05-07T08:42:30Z</time>
      </trkpt>
      <trkpt lat="47.07027" lon="5.92356">
        <ele>521.6</ele>
        <time>2023-05-07T08:42:33Z</time>
      </trkpt>
      <trkpt lat="47.07034" lon="5.92349">
        <ele>522.2</ele>
        <time>2023-05-07T08:42:35Z</time>
      </trkpt>
      <trkpt lat="47.07036" lon="5.92345">
        <ele>522.6</ele>
        <time>2023-05-07T08:42:36Z</time>
      </trkpt>
      <trkpt lat="47.07046" lon="5.92329">
        <ele>523.6</ele>
        <time>2023-05-07T08:42:40Z</time>
      </trkpt>
      <trkpt lat="47.07051" lon="5.92315">
        <ele>523.8</ele>
        <time>2023-05-07T08:42:43Z</time>
      </trkpt>
      <trkpt lat="47.07055" lon="5.92308">
        <ele>523.8</ele>
        <time>2023-05-07T08:42:45Z</time>
      </trkpt>
      <trkpt lat="47.07063" lon="5.92296">
        <ele>524.8</ele>
        <time>2023-05-07T08:42:50Z</time>
      </trkpt>
      <trkpt lat="47.07065" lon="5.92294">
        <ele>525</ele>
        <time>2023-05-07T08:42:51Z</time>
      </trkpt>
      <trkpt lat="47.07073" lon="5.9228">
        <ele>526.2</ele>
        <time>2023-05-07T08:42:55Z</time>
      </trkpt>
      <trkpt lat="47.07074" lon="5.92277">
        <ele>526.2</ele>
        <time>2023-05-07T08:42:56Z</time>
      </trkpt>
      <trkpt lat="47.07083" lon="5.92263">
        <ele>526.8</ele>
        <time>2023-05-07T08:43:01Z</time>
      </trkpt>
      <trkpt lat="47.07089" lon="5.92254">
        <ele>527.2</ele>
        <time>2023-05-07T08:43:04Z</time>
      </trkpt>
      <trkpt lat="47.07096" lon="5.92243">
        <ele>528.2</ele>
        <time>2023-05-07T08:43:08Z</time>
      </trkpt>
      <trkpt lat="47.07098" lon="5.9224">
        <ele>528.4</ele>
        <time>2023-05-07T08:43:09Z</time>
      </trkpt>
      <trkpt lat="47.07104" lon="5.92229">
        <ele>529.4</ele>
        <time>2023-05-07T08:43:14Z</time>
      </trkpt>
      <trkpt lat="47.07106" lon="5.92227">
        <ele>529.6</ele>
        <time>2023-05-07T08:43:15Z</time>
      </trkpt>
      <trkpt lat="47.0711" lon="5.92221">
        <ele>530.6</ele>
        <time>2023-05-07T08:43:18Z</time>
      </trkpt>
      <trkpt lat="47.07114" lon="5.92214">
        <ele>531.2</ele>
        <time>2023-05-07T08:43:21Z</time>
      </trkpt>
      <trkpt lat="47.07118" lon="5.92207">
        <ele>531.8</ele>
        <time>2023-05-07T08:43:24Z</time>
      </trkpt>
      <trkpt lat="47.07122" lon="5.92201">
        <ele>532.4</ele>
        <time>2023-05-07T08:43:27Z</time>
      </trkpt>
      <trkpt lat="47.07125" lon="5.92197">
        <ele>533</ele>
        <time>2023-05-07T08:43:29Z</time>
      </trkpt>
      <trkpt lat="47.07129" lon="5.92189">
        <ele>533.6</ele>
        <time>2023-05-07T08:43:33Z</time>
      </trkpt>
      <trkpt lat="47.07134" lon="5.92182">
        <ele>534</ele>
        <time>2023-05-07T08:43:36Z</time>
      </trkpt>
      <trkpt lat="47.07139" lon="5.92175">
        <ele>534.8</ele>
        <time>2023-05-07T08:43:39Z</time>
      </trkpt>
      <trkpt lat="47.0714" lon="5.92173">
        <ele>535.2</ele>
        <time>2023-05-07T08:43:40Z</time>
      </trkpt>
      <trkpt lat="47.07149" lon="5.9216">
        <ele>536.2</ele>
        <time>2023-05-07T08:43:46Z</time>
      </trkpt>
      <trkpt lat="47.07151" lon="5.92158">
        <ele>536.2</ele>
        <time>2023-05-07T08:43:47Z</time>
      </trkpt>
      <trkpt lat="47.07158" lon="5.92147">
        <ele>537.2</ele>
        <time>2023-05-07T08:43:52Z</time>
      </trkpt>
      <trkpt lat="47.0716" lon="5.92143">
        <ele>537.6</ele>
        <time>2023-05-07T08:43:54Z</time>
      </trkpt>
      <trkpt lat="47.07162" lon="5.92135">
        <ele>537.6</ele>
        <time>2023-05-07T08:43:57Z</time>
      </trkpt>
      <trkpt lat="47.07172" lon="5.9212">
        <ele>538.4</ele>
        <time>2023-05-07T08:44:04Z</time>
      </trkpt>
      <trkpt lat="47.07173" lon="5.92118">
        <ele>538.6</ele>
        <time>2023-05-07T08:44:05Z</time>
      </trkpt>
      <trkpt lat="47.07175" lon="5.9211">
        <ele>539.6</ele>
        <time>2023-05-07T08:44:10Z</time>
      </trkpt>
      <trkpt lat="47.07176" lon="5.92103">
        <ele>539.6</ele>
        <time>2023-05-07T08:44:13Z</time>
      </trkpt>
      <trkpt lat="47.07175" lon="5.92086">
        <ele>539</ele>
        <time>2023-05-07T08:44:19Z</time>
      </trkpt>
      <trkpt lat="47.07175" lon="5.92083">
        <ele>538.6</ele>
        <time>2023-05-07T08:44:20Z</time>
      </trkpt>
      <trkpt lat="47.07169" lon="5.92062">
        <ele>537</ele>
        <time>2023-05-07T08:44:25Z</time>
      </trkpt>
      <trkpt lat="47.07165" lon="5.92055">
        <ele>535.6</ele>
        <time>2023-05-07T08:44:27Z</time>
      </trkpt>
      <trkpt lat="47.07162" lon="5.92047">
        <ele>533.6</ele>
        <time>2023-05-07T08:44:29Z</time>
      </trkpt>
      <trkpt lat="47.0716" lon="5.92044">
        <ele>532.6</ele>
        <time>2023-05-07T08:44:30Z</time>
      </trkpt>
      <trkpt lat="47.07159" lon="5.9204">
        <ele>531.6</ele>
        <time>2023-05-07T08:44:31Z</time>
      </trkpt>
      <trkpt lat="47.07156" lon="5.92036">
        <ele>530.4</ele>
        <time>2023-05-07T08:44:32Z</time>
      </trkpt>
      <trkpt lat="47.07153" lon="5.92032">
        <ele>529.2</ele>
        <time>2023-05-07T08:44:33Z</time>
      </trkpt>
      <trkpt lat="47.0715" lon="5.92029">
        <ele>527.8</ele>
        <time>2023-05-07T08:44:34Z</time>
      </trkpt>
      <trkpt lat="47.07146" lon="5.92022">
        <ele>526.4</ele>
        <time>2023-05-07T08:44:36Z</time>
      </trkpt>
      <trkpt lat="47.07142" lon="5.92015">
        <ele>524.8</ele>
        <time>2023-05-07T08:44:38Z</time>
      </trkpt>
      <trkpt lat="47.07145" lon="5.92013">
        <ele>527.2</ele>
        <time>2023-05-07T08:44:39Z</time>
      </trkpt>
      <trkpt lat="47.07142" lon="5.92008">
        <ele>527.2</ele>
        <time>2023-05-07T08:44:41Z</time>
      </trkpt>
      <trkpt lat="47.0713" lon="5.91995">
        <ele>528</ele>
        <time>2023-05-07T08:44:46Z</time>
      </trkpt>
      <trkpt lat="47.07128" lon="5.91992">
        <ele>528.6</ele>
        <time>2023-05-07T08:44:47Z</time>
      </trkpt>
      <trkpt lat="47.07124" lon="5.91984">
        <ele>529.6</ele>
        <time>2023-05-07T08:44:49Z</time>
      </trkpt>
      <trkpt lat="47.07121" lon="5.91976">
        <ele>530.4</ele>
        <time>2023-05-07T08:44:51Z</time>
      </trkpt>
      <trkpt lat="47.07119" lon="5.91972">
        <ele>531</ele>
        <time>2023-05-07T08:44:52Z</time>
      </trkpt>
      <trkpt lat="47.07114" lon="5.91963">
        <ele>532.2</ele>
        <time>2023-05-07T08:44:55Z</time>
      </trkpt>
      <trkpt lat="47.07111" lon="5.91962">
        <ele>532.8</ele>
        <time>2023-05-07T08:44:57Z</time>
      </trkpt>
      <trkpt lat="47.07116" lon="5.91967">
        <ele>537.4</ele>
        <time>2023-05-07T08:45:39Z</time>
      </trkpt>
      <trkpt lat="47.07118" lon="5.91963">
        <ele>538</ele>
        <time>2023-05-07T08:45:41Z</time>
      </trkpt>
      <trkpt lat="47.07121" lon="5.91959">
        <ele>538.4</ele>
        <time>2023-05-07T08:45:43Z</time>
      </trkpt>
      <trkpt lat="47.07128" lon="5.91947">
        <ele>538.6</ele>
        <time>2023-05-07T08:45:48Z</time>
      </trkpt>
      <trkpt lat="47.07135" lon="5.91944">
        <ele>538.4</ele>
        <time>2023-05-07T08:45:52Z</time>
      </trkpt>
      <trkpt lat="47.07136" lon="5.91942">
        <ele>538.6</ele>
        <time>2023-05-07T08:45:53Z</time>
      </trkpt>
      <trkpt lat="47.07142" lon="5.9193">
        <ele>539.2</ele>
        <time>2023-05-07T08:45:58Z</time>
      </trkpt>
      <trkpt lat="47.07149" lon="5.91914">
        <ele>539.8</ele>
        <time>2023-05-07T08:46:03Z</time>
      </trkpt>
      <trkpt lat="47.07151" lon="5.91911">
        <ele>540</ele>
        <time>2023-05-07T08:46:04Z</time>
      </trkpt>
      <trkpt lat="47.07162" lon="5.91883">
        <ele>540.8</ele>
        <time>2023-05-07T08:46:12Z</time>
      </trkpt>
      <trkpt lat="47.07168" lon="5.91869">
        <ele>541.6</ele>
        <time>2023-05-07T08:46:17Z</time>
      </trkpt>
      <trkpt lat="47.07175" lon="5.91859">
        <ele>541.8</ele>
        <time>2023-05-07T08:46:22Z</time>
      </trkpt>
      <trkpt lat="47.07177" lon="5.91854">
        <ele>542</ele>
        <time>2023-05-07T08:46:24Z</time>
      </trkpt>
      <trkpt lat="47.07182" lon="5.91845">
        <ele>543</ele>
        <time>2023-05-07T08:46:29Z</time>
      </trkpt>
      <trkpt lat="47.07186" lon="5.9184">
        <ele>543.2</ele>
        <time>2023-05-07T08:46:32Z</time>
      </trkpt>
      <trkpt lat="47.07194" lon="5.91835">
        <ele>544.2</ele>
        <time>2023-05-07T08:46:37Z</time>
      </trkpt>
      <trkpt lat="47.07196" lon="5.91835">
        <ele>544.4</ele>
        <time>2023-05-07T08:46:38Z</time>
      </trkpt>
      <trkpt lat="47.07208" lon="5.91834">
        <ele>545.4</ele>
        <time>2023-05-07T08:46:44Z</time>
      </trkpt>
      <trkpt lat="47.07212" lon="5.91834">
        <ele>545.8</ele>
        <time>2023-05-07T08:46:46Z</time>
      </trkpt>
      <trkpt lat="47.07219" lon="5.91835">
        <ele>546.4</ele>
        <time>2023-05-07T08:46:49Z</time>
      </trkpt>
      <trkpt lat="47.07224" lon="5.91836">
        <ele>546.8</ele>
        <time>2023-05-07T08:46:51Z</time>
      </trkpt>
      <trkpt lat="47.07232" lon="5.91836">
        <ele>547.6</ele>
        <time>2023-05-07T08:46:55Z</time>
      </trkpt>
      <trkpt lat="47.07238" lon="5.91834">
        <ele>548.4</ele>
        <time>2023-05-07T08:46:58Z</time>
      </trkpt>
      <trkpt lat="47.07241" lon="5.91832">
        <ele>548.8</ele>
        <time>2023-05-07T08:47:00Z</time>
      </trkpt>
      <trkpt lat="47.07249" lon="5.91828">
        <ele>549</ele>
        <time>2023-05-07T08:47:04Z</time>
      </trkpt>
      <trkpt lat="47.07262" lon="5.91823">
        <ele>549.8</ele>
        <time>2023-05-07T08:47:10Z</time>
      </trkpt>
      <trkpt lat="47.07266" lon="5.91823">
        <ele>550.2</ele>
        <time>2023-05-07T08:47:12Z</time>
      </trkpt>
      <trkpt lat="47.0727" lon="5.91824">
        <ele>550.8</ele>
        <time>2023-05-07T08:47:14Z</time>
      </trkpt>
      <trkpt lat="47.07277" lon="5.91823">
        <ele>551.6</ele>
        <time>2023-05-07T08:47:19Z</time>
      </trkpt>
      <trkpt lat="47.0728" lon="5.91823">
        <ele>551.8</ele>
        <time>2023-05-07T08:47:21Z</time>
      </trkpt>
      <trkpt lat="47.07286" lon="5.91823">
        <ele>552.8</ele>
        <time>2023-05-07T08:47:25Z</time>
      </trkpt>
      <trkpt lat="47.07288" lon="5.91823">
        <ele>553.2</ele>
        <time>2023-05-07T08:47:26Z</time>
      </trkpt>
      <trkpt lat="47.07296" lon="5.91823">
        <ele>554.2</ele>
        <time>2023-05-07T08:47:30Z</time>
      </trkpt>
      <trkpt lat="47.07297" lon="5.91823">
        <ele>554.6</ele>
        <time>2023-05-07T08:47:31Z</time>
      </trkpt>
      <trkpt lat="47.07301" lon="5.91823">
        <ele>555.4</ele>
        <time>2023-05-07T08:47:33Z</time>
      </trkpt>
      <trkpt lat="47.07305" lon="5.91824">
        <ele>556.6</ele>
        <time>2023-05-07T08:47:36Z</time>
      </trkpt>
      <trkpt lat="47.07308" lon="5.91825">
        <ele>556.8</ele>
        <time>2023-05-07T08:47:38Z</time>
      </trkpt>
      <trkpt lat="47.07315" lon="5.91829">
        <ele>557.8</ele>
        <time>2023-05-07T08:47:42Z</time>
      </trkpt>
      <trkpt lat="47.07322" lon="5.9183">
        <ele>558.6</ele>
        <time>2023-05-07T08:47:46Z</time>
      </trkpt>
      <trkpt lat="47.07331" lon="5.91829">
        <ele>559</ele>
        <time>2023-05-07T08:47:50Z</time>
      </trkpt>
      <trkpt lat="47.07336" lon="5.91828">
        <ele>559.4</ele>
        <time>2023-05-07T08:47:52Z</time>
      </trkpt>
      <trkpt lat="47.07347" lon="5.91823">
        <ele>560</ele>
        <time>2023-05-07T08:47:58Z</time>
      </trkpt>
      <trkpt lat="47.07356" lon="5.91818">
        <ele>559.8</ele>
        <time>2023-05-07T08:48:04Z</time>
      </trkpt>
      <trkpt lat="47.07368" lon="5.91814">
        <ele>560.4</ele>
        <time>2023-05-07T08:48:10Z</time>
      </trkpt>
      <trkpt lat="47.07392" lon="5.91811">
        <ele>562</ele>
        <time>2023-05-07T08:48:24Z</time>
      </trkpt>
      <trkpt lat="47.07396" lon="5.91813">
        <ele>562.2</ele>
        <time>2023-05-07T08:48:26Z</time>
      </trkpt>
      <trkpt lat="47.07399" lon="5.91815">
        <ele>562.2</ele>
        <time>2023-05-07T08:48:28Z</time>
      </trkpt>
      <trkpt lat="47.07407" lon="5.91825">
        <ele>560.8</ele>
        <time>2023-05-07T08:48:34Z</time>
      </trkpt>
      <trkpt lat="47.0741" lon="5.91828">
        <ele>560.4</ele>
        <time>2023-05-07T08:48:36Z</time>
      </trkpt>
      <trkpt lat="47.07422" lon="5.91839">
        <ele>561.2</ele>
        <time>2023-05-07T08:48:42Z</time>
      </trkpt>
      <trkpt lat="47.07433" lon="5.91848">
        <ele>562.2</ele>
        <time>2023-05-07T08:48:49Z</time>
      </trkpt>
      <trkpt lat="47.07446" lon="5.9186">
        <ele>562.6</ele>
        <time>2023-05-07T08:48:57Z</time>
      </trkpt>
      <trkpt lat="47.07454" lon="5.91867">
        <ele>563.2</ele>
        <time>2023-05-07T08:49:01Z</time>
      </trkpt>
      <trkpt lat="47.07463" lon="5.91873">
        <ele>564.4</ele>
        <time>2023-05-07T08:49:05Z</time>
      </trkpt>
      <trkpt lat="47.07475" lon="5.91879">
        <ele>564.2</ele>
        <time>2023-05-07T08:49:11Z</time>
      </trkpt>
      <trkpt lat="47.07481" lon="5.91881">
        <ele>565.4</ele>
        <time>2023-05-07T08:49:14Z</time>
      </trkpt>
      <trkpt lat="47.07488" lon="5.91885">
        <ele>566</ele>
        <time>2023-05-07T08:49:17Z</time>
      </trkpt>
      <trkpt lat="47.07494" lon="5.9189">
        <ele>566.4</ele>
        <time>2023-05-07T08:49:20Z</time>
      </trkpt>
      <trkpt lat="47.07503" lon="5.91897">
        <ele>567.2</ele>
        <time>2023-05-07T08:49:24Z</time>
      </trkpt>
      <trkpt lat="47.0752" lon="5.91913">
        <ele>566</ele>
        <time>2023-05-07T08:49:31Z</time>
      </trkpt>
      <trkpt lat="47.07524" lon="5.91917">
        <ele>565.4</ele>
        <time>2023-05-07T08:49:33Z</time>
      </trkpt>
      <trkpt lat="47.0753" lon="5.91922">
        <ele>564.8</ele>
        <time>2023-05-07T08:49:36Z</time>
      </trkpt>
      <trkpt lat="47.07534" lon="5.91925">
        <ele>564.4</ele>
        <time>2023-05-07T08:49:38Z</time>
      </trkpt>
      <trkpt lat="47.07545" lon="5.91933">
        <ele>564.2</ele>
        <time>2023-05-07T08:49:43Z</time>
      </trkpt>
      <trkpt lat="47.07565" lon="5.91948">
        <ele>565</ele>
        <time>2023-05-07T08:49:50Z</time>
      </trkpt>
      <trkpt lat="47.07583" lon="5.91964">
        <ele>565.2</ele>
        <time>2023-05-07T08:49:56Z</time>
      </trkpt>
      <trkpt lat="47.07602" lon="5.91976">
        <ele>564.8</ele>
        <time>2023-05-07T08:50:03Z</time>
      </trkpt>
      <trkpt lat="47.07617" lon="5.91981">
        <ele>565</ele>
        <time>2023-05-07T08:50:09Z</time>
      </trkpt>
      <trkpt lat="47.07638" lon="5.91987">
        <ele>565</ele>
        <time>2023-05-07T08:50:17Z</time>
      </trkpt>
      <trkpt lat="47.07647" lon="5.9199">
        <ele>565.6</ele>
        <time>2023-05-07T08:50:20Z</time>
      </trkpt>
      <trkpt lat="47.07655" lon="5.91995">
        <ele>566.4</ele>
        <time>2023-05-07T08:50:23Z</time>
      </trkpt>
      <trkpt lat="47.07672" lon="5.92005">
        <ele>565.8</ele>
        <time>2023-05-07T08:50:30Z</time>
      </trkpt>
      <trkpt lat="47.07681" lon="5.92008">
        <ele>567</ele>
        <time>2023-05-07T08:50:32Z</time>
      </trkpt>
      <trkpt lat="47.07695" lon="5.92011">
        <ele>567.4</ele>
        <time>2023-05-07T08:50:37Z</time>
      </trkpt>
      <trkpt lat="47.07713" lon="5.92012">
        <ele>568</ele>
        <time>2023-05-07T08:50:42Z</time>
      </trkpt>
      <trkpt lat="47.07736" lon="5.92013">
        <ele>569</ele>
        <time>2023-05-07T08:50:50Z</time>
      </trkpt>
      <trkpt lat="47.07738" lon="5.92014">
        <ele>569.4</ele>
        <time>2023-05-07T08:50:51Z</time>
      </trkpt>
      <trkpt lat="47.07755" lon="5.92016">
        <ele>569.8</ele>
        <time>2023-05-07T08:50:58Z</time>
      </trkpt>
      <trkpt lat="47.07762" lon="5.92013">
        <ele>569.8</ele>
        <time>2023-05-07T08:51:01Z</time>
      </trkpt>
      <trkpt lat="47.07768" lon="5.9201">
        <ele>570</ele>
        <time>2023-05-07T08:51:03Z</time>
      </trkpt>
      <trkpt lat="47.07786" lon="5.92003">
        <ele>569.8</ele>
        <time>2023-05-07T08:51:09Z</time>
      </trkpt>
      <trkpt lat="47.07796" lon="5.91997">
        <ele>568.4</ele>
        <time>2023-05-07T08:51:13Z</time>
      </trkpt>
      <trkpt lat="47.07807" lon="5.91992">
        <ele>567.8</ele>
        <time>2023-05-07T08:51:17Z</time>
      </trkpt>
      <trkpt lat="47.07812" lon="5.91989">
        <ele>567.2</ele>
        <time>2023-05-07T08:51:19Z</time>
      </trkpt>
      <trkpt lat="47.07825" lon="5.91982">
        <ele>566.8</ele>
        <time>2023-05-07T08:51:23Z</time>
      </trkpt>
      <trkpt lat="47.07853" lon="5.91969">
        <ele>566.4</ele>
        <time>2023-05-07T08:51:32Z</time>
      </trkpt>
      <trkpt lat="47.07869" lon="5.91961">
        <ele>566.8</ele>
        <time>2023-05-07T08:51:38Z</time>
      </trkpt>
      <trkpt lat="47.0788" lon="5.91957">
        <ele>568.4</ele>
        <time>2023-05-07T08:51:42Z</time>
      </trkpt>
      <trkpt lat="47.07885" lon="5.91954">
        <ele>568.8</ele>
        <time>2023-05-07T08:51:44Z</time>
      </trkpt>
      <trkpt lat="47.07898" lon="5.9195">
        <ele>569.4</ele>
        <time>2023-05-07T08:51:49Z</time>
      </trkpt>
      <trkpt lat="47.07909" lon="5.91948">
        <ele>570.6</ele>
        <time>2023-05-07T08:51:53Z</time>
      </trkpt>
      <trkpt lat="47.07915" lon="5.91945">
        <ele>570.6</ele>
        <time>2023-05-07T08:51:55Z</time>
      </trkpt>
      <trkpt lat="47.07927" lon="5.91944">
        <ele>572.2</ele>
        <time>2023-05-07T08:52:00Z</time>
      </trkpt>
      <trkpt lat="47.07931" lon="5.91945">
        <ele>573.2</ele>
        <time>2023-05-07T08:52:01Z</time>
      </trkpt>
      <trkpt lat="47.07939" lon="5.91949">
        <ele>574.6</ele>
        <time>2023-05-07T08:52:03Z</time>
      </trkpt>
      <trkpt lat="47.07954" lon="5.91957">
        <ele>575.6</ele>
        <time>2023-05-07T08:52:09Z</time>
      </trkpt>
      <trkpt lat="47.07972" lon="5.91974">
        <ele>574.4</ele>
        <time>2023-05-07T08:52:14Z</time>
      </trkpt>
      <trkpt lat="47.07985" lon="5.9199">
        <ele>573.4</ele>
        <time>2023-05-07T08:52:18Z</time>
      </trkpt>
      <trkpt lat="47.07988" lon="5.91995">
        <ele>573</ele>
        <time>2023-05-07T08:52:19Z</time>
      </trkpt>
      <trkpt lat="47.07994" lon="5.92005">
        <ele>572.4</ele>
        <time>2023-05-07T08:52:21Z</time>
      </trkpt>
      <trkpt lat="47.08004" lon="5.92022">
        <ele>571.2</ele>
        <time>2023-05-07T08:52:24Z</time>
      </trkpt>
      <trkpt lat="47.08006" lon="5.92029">
        <ele>570.8</ele>
        <time>2023-05-07T08:52:25Z</time>
      </trkpt>
      <trkpt lat="47.08009" lon="5.92036">
        <ele>570.2</ele>
        <time>2023-05-07T08:52:26Z</time>
      </trkpt>
      <trkpt lat="47.08015" lon="5.92052">
        <ele>568.8</ele>
        <time>2023-05-07T08:52:28Z</time>
      </trkpt>
      <trkpt lat="47.08019" lon="5.92059">
        <ele>568</ele>
        <time>2023-05-07T08:52:29Z</time>
      </trkpt>
      <trkpt lat="47.08024" lon="5.92064">
        <ele>567.4</ele>
        <time>2023-05-07T08:52:30Z</time>
      </trkpt>
      <trkpt lat="47.08037" lon="5.92072">
        <ele>566.4</ele>
        <time>2023-05-07T08:52:32Z</time>
      </trkpt>
      <trkpt lat="47.08043" lon="5.92076">
        <ele>566</ele>
        <time>2023-05-07T08:52:33Z</time>
      </trkpt>
      <trkpt lat="47.08055" lon="5.92084">
        <ele>565</ele>
        <time>2023-05-07T08:52:35Z</time>
      </trkpt>
      <trkpt lat="47.08062" lon="5.92088">
        <ele>564.4</ele>
        <time>2023-05-07T08:52:36Z</time>
      </trkpt>
      <trkpt lat="47.0807" lon="5.92091">
        <ele>564</ele>
        <time>2023-05-07T08:52:37Z</time>
      </trkpt>
      <trkpt lat="47.08085" lon="5.92096">
        <ele>562.6</ele>
        <time>2023-05-07T08:52:39Z</time>
      </trkpt>
      <trkpt lat="47.081" lon="5.92098">
        <ele>561.4</ele>
        <time>2023-05-07T08:52:41Z</time>
      </trkpt>
      <trkpt lat="47.08114" lon="5.921">
        <ele>560.2</ele>
        <time>2023-05-07T08:52:43Z</time>
      </trkpt>
      <trkpt lat="47.08127" lon="5.92101">
        <ele>559.2</ele>
        <time>2023-05-07T08:52:45Z</time>
      </trkpt>
      <trkpt lat="47.0814" lon="5.92105">
        <ele>558</ele>
        <time>2023-05-07T08:52:47Z</time>
      </trkpt>
      <trkpt lat="47.08146" lon="5.92105">
        <ele>557.2</ele>
        <time>2023-05-07T08:52:48Z</time>
      </trkpt>
      <trkpt lat="47.08151" lon="5.92105">
        <ele>556.6</ele>
        <time>2023-05-07T08:52:49Z</time>
      </trkpt>
      <trkpt lat="47.08158" lon="5.92104">
        <ele>556</ele>
        <time>2023-05-07T08:52:50Z</time>
      </trkpt>
      <trkpt lat="47.08163" lon="5.92101">
        <ele>555.4</ele>
        <time>2023-05-07T08:52:51Z</time>
      </trkpt>
      <trkpt lat="47.08173" lon="5.92096">
        <ele>554</ele>
        <time>2023-05-07T08:52:53Z</time>
      </trkpt>
      <trkpt lat="47.08183" lon="5.9209">
        <ele>552.8</ele>
        <time>2023-05-07T08:52:55Z</time>
      </trkpt>
      <trkpt lat="47.08193" lon="5.92084">
        <ele>551.6</ele>
        <time>2023-05-07T08:52:57Z</time>
      </trkpt>
      <trkpt lat="47.08202" lon="5.92078">
        <ele>550.6</ele>
        <time>2023-05-07T08:52:59Z</time>
      </trkpt>
      <trkpt lat="47.08215" lon="5.92066">
        <ele>549.2</ele>
        <time>2023-05-07T08:53:02Z</time>
      </trkpt>
      <trkpt lat="47.08228" lon="5.92054">
        <ele>548.2</ele>
        <time>2023-05-07T08:53:05Z</time>
      </trkpt>
      <trkpt lat="47.08249" lon="5.92033">
        <ele>547.2</ele>
        <time>2023-05-07T08:53:10Z</time>
      </trkpt>
      <trkpt lat="47.08254" lon="5.9203">
        <ele>547</ele>
        <time>2023-05-07T08:53:11Z</time>
      </trkpt>
      <trkpt lat="47.08273" lon="5.92017">
        <ele>546.4</ele>
        <time>2023-05-07T08:53:15Z</time>
      </trkpt>
      <trkpt lat="47.08278" lon="5.92014">
        <ele>546.2</ele>
        <time>2023-05-07T08:53:16Z</time>
      </trkpt>
      <trkpt lat="47.08284" lon="5.92013">
        <ele>545.8</ele>
        <time>2023-05-07T08:53:17Z</time>
      </trkpt>
      <trkpt lat="47.08297" lon="5.92013">
        <ele>545.4</ele>
        <time>2023-05-07T08:53:19Z</time>
      </trkpt>
      <trkpt lat="47.08302" lon="5.92014">
        <ele>545.2</ele>
        <time>2023-05-07T08:53:20Z</time>
      </trkpt>
      <trkpt lat="47.08313" lon="5.92014">
        <ele>544.8</ele>
        <time>2023-05-07T08:53:22Z</time>
      </trkpt>
      <trkpt lat="47.08319" lon="5.92013">
        <ele>544.6</ele>
        <time>2023-05-07T08:53:23Z</time>
      </trkpt>
      <trkpt lat="47.08324" lon="5.92011">
        <ele>544.2</ele>
        <time>2023-05-07T08:53:24Z</time>
      </trkpt>
      <trkpt lat="47.08328" lon="5.9201">
        <ele>544</ele>
        <time>2023-05-07T08:53:25Z</time>
      </trkpt>
      <trkpt lat="47.08338" lon="5.92008">
        <ele>543.6</ele>
        <time>2023-05-07T08:53:27Z</time>
      </trkpt>
      <trkpt lat="47.0835" lon="5.92006">
        <ele>542.8</ele>
        <time>2023-05-07T08:53:29Z</time>
      </trkpt>
      <trkpt lat="47.08357" lon="5.92003">
        <ele>542.2</ele>
        <time>2023-05-07T08:53:30Z</time>
      </trkpt>
      <trkpt lat="47.08364" lon="5.91997">
        <ele>541.6</ele>
        <time>2023-05-07T08:53:31Z</time>
      </trkpt>
      <trkpt lat="47.08376" lon="5.91985">
        <ele>540.2</ele>
        <time>2023-05-07T08:53:33Z</time>
      </trkpt>
      <trkpt lat="47.08382" lon="5.91979">
        <ele>539.6</ele>
        <time>2023-05-07T08:53:34Z</time>
      </trkpt>
      <trkpt lat="47.08388" lon="5.91974">
        <ele>539</ele>
        <time>2023-05-07T08:53:35Z</time>
      </trkpt>
      <trkpt lat="47.08399" lon="5.91965">
        <ele>538.2</ele>
        <time>2023-05-07T08:53:37Z</time>
      </trkpt>
      <trkpt lat="47.08404" lon="5.91958">
        <ele>538</ele>
        <time>2023-05-07T08:53:38Z</time>
      </trkpt>
      <trkpt lat="47.08415" lon="5.91947">
        <ele>537.8</ele>
        <time>2023-05-07T08:53:40Z</time>
      </trkpt>
      <trkpt lat="47.08419" lon="5.91941">
        <ele>537.2</ele>
        <time>2023-05-07T08:53:41Z</time>
      </trkpt>
      <trkpt lat="47.08423" lon="5.91935">
        <ele>536.6</ele>
        <time>2023-05-07T08:53:42Z</time>
      </trkpt>
      <trkpt lat="47.08432" lon="5.91925">
        <ele>535.2</ele>
        <time>2023-05-07T08:53:44Z</time>
      </trkpt>
      <trkpt lat="47.08437" lon="5.91921">
        <ele>534.8</ele>
        <time>2023-05-07T08:53:45Z</time>
      </trkpt>
      <trkpt lat="47.08448" lon="5.91912">
        <ele>533.8</ele>
        <time>2023-05-07T08:53:47Z</time>
      </trkpt>
      <trkpt lat="47.08459" lon="5.91905">
        <ele>533</ele>
        <time>2023-05-07T08:53:49Z</time>
      </trkpt>
      <trkpt lat="47.08465" lon="5.91905">
        <ele>532.6</ele>
        <time>2023-05-07T08:53:50Z</time>
      </trkpt>
      <trkpt lat="47.08484" lon="5.919">
        <ele>531.4</ele>
        <time>2023-05-07T08:53:53Z</time>
      </trkpt>
      <trkpt lat="47.08496" lon="5.91895">
        <ele>530.4</ele>
        <time>2023-05-07T08:53:55Z</time>
      </trkpt>
      <trkpt lat="47.08504" lon="5.91891">
        <ele>529.6</ele>
        <time>2023-05-07T08:53:57Z</time>
      </trkpt>
      <trkpt lat="47.08508" lon="5.91887">
        <ele>529.4</ele>
        <time>2023-05-07T08:53:58Z</time>
      </trkpt>
      <trkpt lat="47.08511" lon="5.91883">
        <ele>529.2</ele>
        <time>2023-05-07T08:53:59Z</time>
      </trkpt>
      <trkpt lat="47.08516" lon="5.91882">
        <ele>529</ele>
        <time>2023-05-07T08:54:01Z</time>
      </trkpt>
      <trkpt lat="47.08523" lon="5.9188">
        <ele>528</ele>
        <time>2023-05-07T08:54:03Z</time>
      </trkpt>
      <trkpt lat="47.08534" lon="5.91878">
        <ele>526.6</ele>
        <time>2023-05-07T08:54:06Z</time>
      </trkpt>
      <trkpt lat="47.08539" lon="5.91879">
        <ele>525.6</ele>
        <time>2023-05-07T08:54:08Z</time>
      </trkpt>
      <trkpt lat="47.08544" lon="5.91881">
        <ele>525.4</ele>
        <time>2023-05-07T08:54:10Z</time>
      </trkpt>
      <trkpt lat="47.08545" lon="5.91883">
        <ele>525.4</ele>
        <time>2023-05-07T08:54:11Z</time>
      </trkpt>
      <trkpt lat="47.08555" lon="5.91887">
        <ele>524.8</ele>
        <time>2023-05-07T08:54:14Z</time>
      </trkpt>
      <trkpt lat="47.08559" lon="5.91888">
        <ele>524.6</ele>
        <time>2023-05-07T08:54:15Z</time>
      </trkpt>
      <trkpt lat="47.08582" lon="5.91893">
        <ele>523.6</ele>
        <time>2023-05-07T08:54:20Z</time>
      </trkpt>
      <trkpt lat="47.08586" lon="5.91895">
        <ele>523.4</ele>
        <time>2023-05-07T08:54:21Z</time>
      </trkpt>
      <trkpt lat="47.08604" lon="5.91901">
        <ele>522.4</ele>
        <time>2023-05-07T08:54:25Z</time>
      </trkpt>
      <trkpt lat="47.08611" lon="5.91902">
        <ele>522</ele>
        <time>2023-05-07T08:54:27Z</time>
      </trkpt>
      <trkpt lat="47.08627" lon="5.91906">
        <ele>523.6</ele>
        <time>2023-05-07T08:54:32Z</time>
      </trkpt>
      <trkpt lat="47.08631" lon="5.91907">
        <ele>523.8</ele>
        <time>2023-05-07T08:54:33Z</time>
      </trkpt>
      <trkpt lat="47.08653" lon="5.91921">
        <ele>523.2</ele>
        <time>2023-05-07T08:54:38Z</time>
      </trkpt>
      <trkpt lat="47.08666" lon="5.91929">
        <ele>522.6</ele>
        <time>2023-05-07T08:54:41Z</time>
      </trkpt>
      <trkpt lat="47.08683" lon="5.91936">
        <ele>523</ele>
        <time>2023-05-07T08:54:45Z</time>
      </trkpt>
      <trkpt lat="47.08709" lon="5.91938">
        <ele>521.8</ele>
        <time>2023-05-07T08:54:50Z</time>
      </trkpt>
      <trkpt lat="47.08721" lon="5.91938">
        <ele>521.4</ele>
        <time>2023-05-07T08:54:52Z</time>
      </trkpt>
      <trkpt lat="47.08739" lon="5.91941">
        <ele>520.4</ele>
        <time>2023-05-07T08:54:55Z</time>
      </trkpt>
      <trkpt lat="47.08745" lon="5.91942">
        <ele>519.8</ele>
        <time>2023-05-07T08:54:56Z</time>
      </trkpt>
      <trkpt lat="47.0875" lon="5.91942">
        <ele>519.2</ele>
        <time>2023-05-07T08:54:57Z</time>
      </trkpt>
      <trkpt lat="47.08762" lon="5.91942">
        <ele>518.2</ele>
        <time>2023-05-07T08:54:59Z</time>
      </trkpt>
      <trkpt lat="47.08775" lon="5.91943">
        <ele>517.2</ele>
        <time>2023-05-07T08:55:01Z</time>
      </trkpt>
      <trkpt lat="47.08781" lon="5.91944">
        <ele>516.6</ele>
        <time>2023-05-07T08:55:02Z</time>
      </trkpt>
      <trkpt lat="47.08787" lon="5.91945">
        <ele>516.2</ele>
        <time>2023-05-07T08:55:03Z</time>
      </trkpt>
      <trkpt lat="47.08794" lon="5.91947">
        <ele>515.6</ele>
        <time>2023-05-07T08:55:04Z</time>
      </trkpt>
      <trkpt lat="47.088" lon="5.91949">
        <ele>515.2</ele>
        <time>2023-05-07T08:55:05Z</time>
      </trkpt>
      <trkpt lat="47.08813" lon="5.91952">
        <ele>514</ele>
        <time>2023-05-07T08:55:07Z</time>
      </trkpt>
      <trkpt lat="47.08819" lon="5.91954">
        <ele>513.2</ele>
        <time>2023-05-07T08:55:08Z</time>
      </trkpt>
      <trkpt lat="47.08825" lon="5.91957">
        <ele>512.8</ele>
        <time>2023-05-07T08:55:09Z</time>
      </trkpt>
      <trkpt lat="47.08837" lon="5.91963">
        <ele>511.4</ele>
        <time>2023-05-07T08:55:11Z</time>
      </trkpt>
      <trkpt lat="47.08842" lon="5.91965">
        <ele>510.8</ele>
        <time>2023-05-07T08:55:12Z</time>
      </trkpt>
      <trkpt lat="47.08849" lon="5.91965">
        <ele>510</ele>
        <time>2023-05-07T08:55:13Z</time>
      </trkpt>
      <trkpt lat="47.08864" lon="5.91961">
        <ele>508.6</ele>
        <time>2023-05-07T08:55:15Z</time>
      </trkpt>
      <trkpt lat="47.08871" lon="5.9196">
        <ele>507.8</ele>
        <time>2023-05-07T08:55:16Z</time>
      </trkpt>
      <trkpt lat="47.08877" lon="5.91957">
        <ele>507</ele>
        <time>2023-05-07T08:55:17Z</time>
      </trkpt>
      <trkpt lat="47.08888" lon="5.91955">
        <ele>505.2</ele>
        <time>2023-05-07T08:55:19Z</time>
      </trkpt>
      <trkpt lat="47.089" lon="5.91957">
        <ele>503.6</ele>
        <time>2023-05-07T08:55:21Z</time>
      </trkpt>
      <trkpt lat="47.0891" lon="5.91961">
        <ele>502</ele>
        <time>2023-05-07T08:55:23Z</time>
      </trkpt>
      <trkpt lat="47.08915" lon="5.91965">
        <ele>501</ele>
        <time>2023-05-07T08:55:24Z</time>
      </trkpt>
      <trkpt lat="47.08919" lon="5.9197">
        <ele>500.2</ele>
        <time>2023-05-07T08:55:25Z</time>
      </trkpt>
      <trkpt lat="47.08921" lon="5.91975">
        <ele>499.6</ele>
        <time>2023-05-07T08:55:26Z</time>
      </trkpt>
      <trkpt lat="47.08925" lon="5.91985">
        <ele>499</ele>
        <time>2023-05-07T08:55:28Z</time>
      </trkpt>
      <trkpt lat="47.08927" lon="5.91989">
        <ele>499.6</ele>
        <time>2023-05-07T08:55:29Z</time>
      </trkpt>
      <trkpt lat="47.08929" lon="5.91994">
        <ele>500</ele>
        <time>2023-05-07T08:55:30Z</time>
      </trkpt>
      <trkpt lat="47.08931" lon="5.92">
        <ele>500.2</ele>
        <time>2023-05-07T08:55:31Z</time>
      </trkpt>
      <trkpt lat="47.08934" lon="5.92023">
        <ele>500</ele>
        <time>2023-05-07T08:55:36Z</time>
      </trkpt>
      <trkpt lat="47.08933" lon="5.92044">
        <ele>501.2</ele>
        <time>2023-05-07T08:55:42Z</time>
      </trkpt>
      <trkpt lat="47.0893" lon="5.92054">
        <ele>502.2</ele>
        <time>2023-05-07T08:55:45Z</time>
      </trkpt>
      <trkpt lat="47.08927" lon="5.92061">
        <ele>503.4</ele>
        <time>2023-05-07T08:55:47Z</time>
      </trkpt>
      <trkpt lat="47.08925" lon="5.92064">
        <ele>504.6</ele>
        <time>2023-05-07T08:55:48Z</time>
      </trkpt>
      <trkpt lat="47.08922" lon="5.92071">
        <ele>506</ele>
        <time>2023-05-07T08:55:50Z</time>
      </trkpt>
      <trkpt lat="47.0892" lon="5.92077">
        <ele>507.2</ele>
        <time>2023-05-07T08:55:52Z</time>
      </trkpt>
      <trkpt lat="47.08917" lon="5.92083">
        <ele>508.4</ele>
        <time>2023-05-07T08:55:54Z</time>
      </trkpt>
      <trkpt lat="47.08914" lon="5.92092">
        <ele>510</ele>
        <time>2023-05-07T08:55:57Z</time>
      </trkpt>
      <trkpt lat="47.08912" lon="5.92098">
        <ele>511.2</ele>
        <time>2023-05-07T08:55:59Z</time>
      </trkpt>
      <trkpt lat="47.08912" lon="5.92103">
        <ele>512.6</ele>
        <time>2023-05-07T08:56:01Z</time>
      </trkpt>
      <trkpt lat="47.0891" lon="5.92111">
        <ele>514</ele>
        <time>2023-05-07T08:56:04Z</time>
      </trkpt>
      <trkpt lat="47.0891" lon="5.92121">
        <ele>515</ele>
        <time>2023-05-07T08:56:07Z</time>
      </trkpt>
      <trkpt lat="47.0891" lon="5.9213">
        <ele>516.4</ele>
        <time>2023-05-07T08:56:10Z</time>
      </trkpt>
      <trkpt lat="47.08907" lon="5.92141">
        <ele>517.6</ele>
        <time>2023-05-07T08:56:14Z</time>
      </trkpt>
      <trkpt lat="47.08906" lon="5.92146">
        <ele>518.2</ele>
        <time>2023-05-07T08:56:16Z</time>
      </trkpt>
      <trkpt lat="47.08904" lon="5.92152">
        <ele>518.8</ele>
        <time>2023-05-07T08:56:19Z</time>
      </trkpt>
      <trkpt lat="47.08902" lon="5.92161">
        <ele>520</ele>
        <time>2023-05-07T08:56:23Z</time>
      </trkpt>
      <trkpt lat="47.08901" lon="5.92166">
        <ele>520.6</ele>
        <time>2023-05-07T08:56:25Z</time>
      </trkpt>
      <trkpt lat="47.089" lon="5.9217">
        <ele>521</ele>
        <time>2023-05-07T08:56:27Z</time>
      </trkpt>
      <trkpt lat="47.08895" lon="5.92186">
        <ele>520.6</ele>
        <time>2023-05-07T08:56:33Z</time>
      </trkpt>
      <trkpt lat="47.0889" lon="5.92212">
        <ele>521.2</ele>
        <time>2023-05-07T08:56:40Z</time>
      </trkpt>
      <trkpt lat="47.08889" lon="5.92232">
        <ele>522</ele>
        <time>2023-05-07T08:56:45Z</time>
      </trkpt>
      <trkpt lat="47.0889" lon="5.92246">
        <ele>523.2</ele>
        <time>2023-05-07T08:56:48Z</time>
      </trkpt>
      <trkpt lat="47.08887" lon="5.92267">
        <ele>524.2</ele>
        <time>2023-05-07T08:56:53Z</time>
      </trkpt>
      <trkpt lat="47.08886" lon="5.92276">
        <ele>524.4</ele>
        <time>2023-05-07T08:56:55Z</time>
      </trkpt>
      <trkpt lat="47.08881" lon="5.92301">
        <ele>524.2</ele>
        <time>2023-05-07T08:57:02Z</time>
      </trkpt>
      <trkpt lat="47.0888" lon="5.92307">
        <ele>523.8</ele>
        <time>2023-05-07T08:57:21Z</time>
      </trkpt>
      <trkpt lat="47.08879" lon="5.92309">
        <ele>523.6</ele>
        <time>2023-05-07T08:57:22Z</time>
      </trkpt>
      <trkpt lat="47.08877" lon="5.92318">
        <ele>523.2</ele>
        <time>2023-05-07T08:57:25Z</time>
      </trkpt>
      <trkpt lat="47.08875" lon="5.92326">
        <ele>523.2</ele>
        <time>2023-05-07T08:57:28Z</time>
      </trkpt>
      <trkpt lat="47.08868" lon="5.92333">
        <ele>522</ele>
        <time>2023-05-07T08:57:32Z</time>
      </trkpt>
      <trkpt lat="47.08865" lon="5.92337">
        <ele>520.8</ele>
        <time>2023-05-07T08:57:34Z</time>
      </trkpt>
      <trkpt lat="47.08861" lon="5.92343">
        <ele>519.6</ele>
        <time>2023-05-07T08:57:36Z</time>
      </trkpt>
      <trkpt lat="47.08857" lon="5.9235">
        <ele>518.6</ele>
        <time>2023-05-07T08:57:38Z</time>
      </trkpt>
      <trkpt lat="47.08851" lon="5.92361">
        <ele>517.6</ele>
        <time>2023-05-07T08:57:40Z</time>
      </trkpt>
      <trkpt lat="47.08848" lon="5.92366">
        <ele>517.2</ele>
        <time>2023-05-07T08:57:41Z</time>
      </trkpt>
      <trkpt lat="47.08842" lon="5.92377">
        <ele>515.8</ele>
        <time>2023-05-07T08:57:43Z</time>
      </trkpt>
      <trkpt lat="47.08834" lon="5.92389">
        <ele>514.6</ele>
        <time>2023-05-07T08:57:45Z</time>
      </trkpt>
      <trkpt lat="47.0883" lon="5.92396">
        <ele>514</ele>
        <time>2023-05-07T08:57:46Z</time>
      </trkpt>
      <trkpt lat="47.08826" lon="5.92403">
        <ele>513.4</ele>
        <time>2023-05-07T08:57:47Z</time>
      </trkpt>
      <trkpt lat="47.08816" lon="5.92418">
        <ele>512.2</ele>
        <time>2023-05-07T08:57:49Z</time>
      </trkpt>
      <trkpt lat="47.08806" lon="5.92435">
        <ele>511</ele>
        <time>2023-05-07T08:57:51Z</time>
      </trkpt>
      <trkpt lat="47.08797" lon="5.92454">
        <ele>510</ele>
        <time>2023-05-07T08:57:53Z</time>
      </trkpt>
      <trkpt lat="47.08787" lon="5.92473">
        <ele>508.6</ele>
        <time>2023-05-07T08:57:55Z</time>
      </trkpt>
      <trkpt lat="47.08774" lon="5.92491">
        <ele>506.8</ele>
        <time>2023-05-07T08:57:57Z</time>
      </trkpt>
      <trkpt lat="47.0876" lon="5.9251">
        <ele>505.4</ele>
        <time>2023-05-07T08:57:59Z</time>
      </trkpt>
      <trkpt lat="47.08744" lon="5.92525">
        <ele>504.2</ele>
        <time>2023-05-07T08:58:01Z</time>
      </trkpt>
      <trkpt lat="47.08736" lon="5.92533">
        <ele>503.4</ele>
        <time>2023-05-07T08:58:02Z</time>
      </trkpt>
      <trkpt lat="47.08728" lon="5.92539">
        <ele>502.8</ele>
        <time>2023-05-07T08:58:03Z</time>
      </trkpt>
      <trkpt lat="47.08712" lon="5.92554">
        <ele>501.6</ele>
        <time>2023-05-07T08:58:05Z</time>
      </trkpt>
      <trkpt lat="47.08704" lon="5.92563">
        <ele>500.8</ele>
        <time>2023-05-07T08:58:06Z</time>
      </trkpt>
      <trkpt lat="47.08697" lon="5.9257">
        <ele>500</ele>
        <time>2023-05-07T08:58:07Z</time>
      </trkpt>
      <trkpt lat="47.08684" lon="5.92585">
        <ele>498.4</ele>
        <time>2023-05-07T08:58:09Z</time>
      </trkpt>
      <trkpt lat="47.0867" lon="5.92599">
        <ele>496.6</ele>
        <time>2023-05-07T08:58:11Z</time>
      </trkpt>
      <trkpt lat="47.08655" lon="5.92616">
        <ele>494.8</ele>
        <time>2023-05-07T08:58:13Z</time>
      </trkpt>
      <trkpt lat="47.08641" lon="5.92632">
        <ele>493</ele>
        <time>2023-05-07T08:58:15Z</time>
      </trkpt>
      <trkpt lat="47.08633" lon="5.92639">
        <ele>492</ele>
        <time>2023-05-07T08:58:16Z</time>
      </trkpt>
      <trkpt lat="47.08624" lon="5.92643">
        <ele>490.8</ele>
        <time>2023-05-07T08:58:17Z</time>
      </trkpt>
      <trkpt lat="47.08613" lon="5.92648">
        <ele>489.2</ele>
        <time>2023-05-07T08:58:18Z</time>
      </trkpt>
      <trkpt lat="47.08603" lon="5.92653">
        <ele>487.8</ele>
        <time>2023-05-07T08:58:19Z</time>
      </trkpt>
      <trkpt lat="47.08594" lon="5.9266">
        <ele>486.4</ele>
        <time>2023-05-07T08:58:20Z</time>
      </trkpt>
      <trkpt lat="47.08585" lon="5.92667">
        <ele>485</ele>
        <time>2023-05-07T08:58:21Z</time>
      </trkpt>
      <trkpt lat="47.08578" lon="5.92675">
        <ele>483.8</ele>
        <time>2023-05-07T08:58:22Z</time>
      </trkpt>
      <trkpt lat="47.08572" lon="5.92685">
        <ele>482.6</ele>
        <time>2023-05-07T08:58:23Z</time>
      </trkpt>
      <trkpt lat="47.08567" lon="5.92694">
        <ele>481.6</ele>
        <time>2023-05-07T08:58:24Z</time>
      </trkpt>
      <trkpt lat="47.08562" lon="5.92704">
        <ele>480.6</ele>
        <time>2023-05-07T08:58:25Z</time>
      </trkpt>
      <trkpt lat="47.08558" lon="5.92715">
        <ele>479.4</ele>
        <time>2023-05-07T08:58:26Z</time>
      </trkpt>
      <trkpt lat="47.08554" lon="5.92726">
        <ele>478.2</ele>
        <time>2023-05-07T08:58:27Z</time>
      </trkpt>
      <trkpt lat="47.0855" lon="5.92736">
        <ele>477</ele>
        <time>2023-05-07T08:58:28Z</time>
      </trkpt>
      <trkpt lat="47.08546" lon="5.92746">
        <ele>475.8</ele>
        <time>2023-05-07T08:58:29Z</time>
      </trkpt>
      <trkpt lat="47.08543" lon="5.92755">
        <ele>474.6</ele>
        <time>2023-05-07T08:58:30Z</time>
      </trkpt>
      <trkpt lat="47.08534" lon="5.92773">
        <ele>472.6</ele>
        <time>2023-05-07T08:58:32Z</time>
      </trkpt>
      <trkpt lat="47.08528" lon="5.92782">
        <ele>471.6</ele>
        <time>2023-05-07T08:58:33Z</time>
      </trkpt>
      <trkpt lat="47.08516" lon="5.928">
        <ele>469.6</ele>
        <time>2023-05-07T08:58:35Z</time>
      </trkpt>
      <trkpt lat="47.0851" lon="5.92808">
        <ele>468.4</ele>
        <time>2023-05-07T08:58:36Z</time>
      </trkpt>
      <trkpt lat="47.08497" lon="5.92822">
        <ele>466.2</ele>
        <time>2023-05-07T08:58:38Z</time>
      </trkpt>
      <trkpt lat="47.0849" lon="5.92828">
        <ele>464.8</ele>
        <time>2023-05-07T08:58:39Z</time>
      </trkpt>
      <trkpt lat="47.08483" lon="5.92834">
        <ele>463.6</ele>
        <time>2023-05-07T08:58:40Z</time>
      </trkpt>
      <trkpt lat="47.08475" lon="5.9284">
        <ele>462.6</ele>
        <time>2023-05-07T08:58:41Z</time>
      </trkpt>
      <trkpt lat="47.08466" lon="5.92847">
        <ele>461.4</ele>
        <time>2023-05-07T08:58:42Z</time>
      </trkpt>
      <trkpt lat="47.0845" lon="5.92862">
        <ele>459.6</ele>
        <time>2023-05-07T08:58:44Z</time>
      </trkpt>
      <trkpt lat="47.08443" lon="5.92871">
        <ele>458.6</ele>
        <time>2023-05-07T08:58:45Z</time>
      </trkpt>
      <trkpt lat="47.08437" lon="5.9288">
        <ele>457.8</ele>
        <time>2023-05-07T08:58:46Z</time>
      </trkpt>
      <trkpt lat="47.08432" lon="5.92888">
        <ele>457</ele>
        <time>2023-05-07T08:58:47Z</time>
      </trkpt>
      <trkpt lat="47.08428" lon="5.92897">
        <ele>456</ele>
        <time>2023-05-07T08:58:48Z</time>
      </trkpt>
      <trkpt lat="47.08428" lon="5.92905">
        <ele>454.8</ele>
        <time>2023-05-07T08:58:49Z</time>
      </trkpt>
      <trkpt lat="47.08429" lon="5.92913">
        <ele>453.8</ele>
        <time>2023-05-07T08:58:50Z</time>
      </trkpt>
      <trkpt lat="47.08431" lon="5.92919">
        <ele>452.8</ele>
        <time>2023-05-07T08:58:51Z</time>
      </trkpt>
      <trkpt lat="47.08434" lon="5.92927">
        <ele>451.2</ele>
        <time>2023-05-07T08:58:53Z</time>
      </trkpt>
      <trkpt lat="47.08438" lon="5.92929">
        <ele>449.4</ele>
        <time>2023-05-07T08:58:55Z</time>
      </trkpt>
      <trkpt lat="47.08442" lon="5.92926">
        <ele>448.2</ele>
        <time>2023-05-07T08:58:57Z</time>
      </trkpt>
      <trkpt lat="47.08443" lon="5.92925">
        <ele>447.8</ele>
        <time>2023-05-07T08:58:58Z</time>
      </trkpt>
      <trkpt lat="47.08445" lon="5.92922">
        <ele>447</ele>
        <time>2023-05-07T08:59:00Z</time>
      </trkpt>
      <trkpt lat="47.08448" lon="5.9292">
        <ele>445.8</ele>
        <time>2023-05-07T08:59:03Z</time>
      </trkpt>
      <trkpt lat="47.08459" lon="5.92911">
        <ele>444.8</ele>
        <time>2023-05-07T08:59:09Z</time>
      </trkpt>
      <trkpt lat="47.08476" lon="5.92899">
        <ele>443.8</ele>
        <time>2023-05-07T08:59:16Z</time>
      </trkpt>
      <trkpt lat="47.08493" lon="5.92889">
        <ele>443.2</ele>
        <time>2023-05-07T08:59:23Z</time>
      </trkpt>
      <trkpt lat="47.08503" lon="5.92881">
        <ele>443.4</ele>
        <time>2023-05-07T08:59:29Z</time>
      </trkpt>
      <trkpt lat="47.08513" lon="5.92873">
        <ele>443.4</ele>
        <time>2023-05-07T08:59:36Z</time>
      </trkpt>
      <trkpt lat="47.08515" lon="5.92873">
        <ele>443.4</ele>
        <time>2023-05-07T08:59:37Z</time>
      </trkpt>
      <trkpt lat="47.08521" lon="5.92869">
        <ele>443.2</ele>
        <time>2023-05-07T08:59:41Z</time>
      </trkpt>
      <trkpt lat="47.08528" lon="5.92864">
        <ele>442.8</ele>
        <time>2023-05-07T08:59:45Z</time>
      </trkpt>
      <trkpt lat="47.08535" lon="5.92858">
        <ele>442.2</ele>
        <time>2023-05-07T08:59:49Z</time>
      </trkpt>
      <trkpt lat="47.08544" lon="5.9285">
        <ele>442.4</ele>
        <time>2023-05-07T08:59:55Z</time>
      </trkpt>
      <trkpt lat="47.08558" lon="5.92835">
        <ele>443</ele>
        <time>2023-05-07T09:00:02Z</time>
      </trkpt>
      <trkpt lat="47.08563" lon="5.92832">
        <ele>444</ele>
        <time>2023-05-07T09:00:04Z</time>
      </trkpt>
      <trkpt lat="47.08568" lon="5.92828">
        <ele>445</ele>
        <time>2023-05-07T09:00:06Z</time>
      </trkpt>
      <trkpt lat="47.08574" lon="5.92822">
        <ele>445.6</ele>
        <time>2023-05-07T09:00:09Z</time>
      </trkpt>
      <trkpt lat="47.0858" lon="5.92819">
        <ele>446</ele>
        <time>2023-05-07T09:00:12Z</time>
      </trkpt>
      <trkpt lat="47.08587" lon="5.92816">
        <ele>447.2</ele>
        <time>2023-05-07T09:00:15Z</time>
      </trkpt>
      <trkpt lat="47.0859" lon="5.92815">
        <ele>447.4</ele>
        <time>2023-05-07T09:00:16Z</time>
      </trkpt>
      <trkpt lat="47.08599" lon="5.92814">
        <ele>448.2</ele>
        <time>2023-05-07T09:00:19Z</time>
      </trkpt>
      <trkpt lat="47.08606" lon="5.92811">
        <ele>449.2</ele>
        <time>2023-05-07T09:00:22Z</time>
      </trkpt>
      <trkpt lat="47.08609" lon="5.92811">
        <ele>449.6</ele>
        <time>2023-05-07T09:00:23Z</time>
      </trkpt>
      <trkpt lat="47.08616" lon="5.92811">
        <ele>451</ele>
        <time>2023-05-07T09:00:25Z</time>
      </trkpt>
      <trkpt lat="47.08622" lon="5.9281">
        <ele>452.4</ele>
        <time>2023-05-07T09:00:27Z</time>
      </trkpt>
      <trkpt lat="47.08625" lon="5.92809">
        <ele>452.8</ele>
        <time>2023-05-07T09:00:28Z</time>
      </trkpt>
      <trkpt lat="47.08631" lon="5.92809">
        <ele>453.6</ele>
        <time>2023-05-07T09:00:30Z</time>
      </trkpt>
      <trkpt lat="47.08642" lon="5.92809">
        <ele>455</ele>
        <time>2023-05-07T09:00:33Z</time>
      </trkpt>
      <trkpt lat="47.08649" lon="5.9281">
        <ele>456</ele>
        <time>2023-05-07T09:00:35Z</time>
      </trkpt>
      <trkpt lat="47.08653" lon="5.92811">
        <ele>456.4</ele>
        <time>2023-05-07T09:00:36Z</time>
      </trkpt>
      <trkpt lat="47.08671" lon="5.92811">
        <ele>456</ele>
        <time>2023-05-07T09:00:41Z</time>
      </trkpt>
      <trkpt lat="47.08701" lon="5.92812">
        <ele>455.4</ele>
        <time>2023-05-07T09:00:48Z</time>
      </trkpt>
      <trkpt lat="47.0871" lon="5.92815">
        <ele>455</ele>
        <time>2023-05-07T09:00:50Z</time>
      </trkpt>
      <trkpt lat="47.08724" lon="5.92819">
        <ele>454.4</ele>
        <time>2023-05-07T09:00:53Z</time>
      </trkpt>
      <trkpt lat="47.0873" lon="5.92821">
        <ele>454</ele>
        <time>2023-05-07T09:00:54Z</time>
      </trkpt>
      <trkpt lat="47.08764" lon="5.92829">
        <ele>453.6</ele>
        <time>2023-05-07T09:01:01Z</time>
      </trkpt>
      <trkpt lat="47.08792" lon="5.92826">
        <ele>453.8</ele>
        <time>2023-05-07T09:01:07Z</time>
      </trkpt>
      <trkpt lat="47.0882" lon="5.92824">
        <ele>454.2</ele>
        <time>2023-05-07T09:01:13Z</time>
      </trkpt>
      <trkpt lat="47.08842" lon="5.92823">
        <ele>453.6</ele>
        <time>2023-05-07T09:01:18Z</time>
      </trkpt>
      <trkpt lat="47.08861" lon="5.92827">
        <ele>453.2</ele>
        <time>2023-05-07T09:01:22Z</time>
      </trkpt>
      <trkpt lat="47.08865" lon="5.92829">
        <ele>453</ele>
        <time>2023-05-07T09:01:23Z</time>
      </trkpt>
      <trkpt lat="47.08887" lon="5.92834">
        <ele>452</ele>
        <time>2023-05-07T09:01:28Z</time>
      </trkpt>
      <trkpt lat="47.08912" lon="5.92837">
        <ele>451.2</ele>
        <time>2023-05-07T09:01:34Z</time>
      </trkpt>
      <trkpt lat="47.08917" lon="5.92838">
        <ele>451</ele>
        <time>2023-05-07T09:01:35Z</time>
      </trkpt>
      <trkpt lat="47.08931" lon="5.9284">
        <ele>449.8</ele>
        <time>2023-05-07T09:01:38Z</time>
      </trkpt>
      <trkpt lat="47.08947" lon="5.92843">
        <ele>449.2</ele>
        <time>2023-05-07T09:01:41Z</time>
      </trkpt>
      <trkpt lat="47.08952" lon="5.92843">
        <ele>449</ele>
        <time>2023-05-07T09:01:42Z</time>
      </trkpt>
      <trkpt lat="47.08957" lon="5.92844">
        <ele>448.8</ele>
        <time>2023-05-07T09:01:43Z</time>
      </trkpt>
      <trkpt lat="47.08972" lon="5.92848">
        <ele>448.4</ele>
        <time>2023-05-07T09:01:46Z</time>
      </trkpt>
      <trkpt lat="47.08978" lon="5.92848">
        <ele>448</ele>
        <time>2023-05-07T09:01:47Z</time>
      </trkpt>
      <trkpt lat="47.08997" lon="5.92847">
        <ele>448.6</ele>
        <time>2023-05-07T09:01:51Z</time>
      </trkpt>
      <trkpt lat="47.09016" lon="5.92838">
        <ele>448.8</ele>
        <time>2023-05-07T09:01:56Z</time>
      </trkpt>
      <trkpt lat="47.09025" lon="5.92833">
        <ele>449.2</ele>
        <time>2023-05-07T09:02:00Z</time>
      </trkpt>
      <trkpt lat="47.09031" lon="5.92829">
        <ele>450</ele>
        <time>2023-05-07T09:02:02Z</time>
      </trkpt>
      <trkpt lat="47.0904" lon="5.92822">
        <ele>451</ele>
        <time>2023-05-07T09:02:05Z</time>
      </trkpt>
      <trkpt lat="47.09045" lon="5.92819">
        <ele>451.4</ele>
        <time>2023-05-07T09:02:07Z</time>
      </trkpt>
      <trkpt lat="47.09057" lon="5.92813">
        <ele>452.2</ele>
        <time>2023-05-07T09:02:11Z</time>
      </trkpt>
      <trkpt lat="47.09065" lon="5.92808">
        <ele>453.2</ele>
        <time>2023-05-07T09:02:14Z</time>
      </trkpt>
      <trkpt lat="47.09068" lon="5.92807">
        <ele>453.6</ele>
        <time>2023-05-07T09:02:15Z</time>
      </trkpt>
      <trkpt lat="47.09082" lon="5.92797">
        <ele>454.8</ele>
        <time>2023-05-07T09:02:20Z</time>
      </trkpt>
      <trkpt lat="47.0909" lon="5.92792">
        <ele>456.4</ele>
        <time>2023-05-07T09:02:23Z</time>
      </trkpt>
      <trkpt lat="47.09098" lon="5.92787">
        <ele>457.8</ele>
        <time>2023-05-07T09:02:26Z</time>
      </trkpt>
      <trkpt lat="47.09104" lon="5.92783">
        <ele>458.8</ele>
        <time>2023-05-07T09:02:28Z</time>
      </trkpt>
      <trkpt lat="47.09118" lon="5.92777">
        <ele>460.4</ele>
        <time>2023-05-07T09:02:33Z</time>
      </trkpt>
      <trkpt lat="47.09136" lon="5.92766">
        <ele>460.8</ele>
        <time>2023-05-07T09:02:39Z</time>
      </trkpt>
      <trkpt lat="47.0915" lon="5.92757">
        <ele>461.4</ele>
        <time>2023-05-07T09:02:43Z</time>
      </trkpt>
      <trkpt lat="47.09157" lon="5.92754">
        <ele>461.8</ele>
        <time>2023-05-07T09:02:45Z</time>
      </trkpt>
      <trkpt lat="47.09165" lon="5.9275">
        <ele>462.4</ele>
        <time>2023-05-07T09:02:47Z</time>
      </trkpt>
      <trkpt lat="47.09186" lon="5.92741">
        <ele>463.2</ele>
        <time>2023-05-07T09:02:52Z</time>
      </trkpt>
      <trkpt lat="47.0921" lon="5.92734">
        <ele>463.6</ele>
        <time>2023-05-07T09:02:58Z</time>
      </trkpt>
      <trkpt lat="47.09239" lon="5.92725">
        <ele>464</ele>
        <time>2023-05-07T09:03:04Z</time>
      </trkpt>
      <trkpt lat="47.09244" lon="5.92723">
        <ele>464.2</ele>
        <time>2023-05-07T09:03:05Z</time>
      </trkpt>
      <trkpt lat="47.09263" lon="5.92711">
        <ele>464.2</ele>
        <time>2023-05-07T09:03:09Z</time>
      </trkpt>
      <trkpt lat="47.09268" lon="5.92708">
        <ele>464</ele>
        <time>2023-05-07T09:03:10Z</time>
      </trkpt>
      <trkpt lat="47.093" lon="5.92686">
        <ele>463.4</ele>
        <time>2023-05-07T09:03:16Z</time>
      </trkpt>
      <trkpt lat="47.09323" lon="5.92667">
        <ele>462.4</ele>
        <time>2023-05-07T09:03:20Z</time>
      </trkpt>
      <trkpt lat="47.09347" lon="5.9265">
        <ele>461</ele>
        <time>2023-05-07T09:03:24Z</time>
      </trkpt>
      <trkpt lat="47.0937" lon="5.92632">
        <ele>460.2</ele>
        <time>2023-05-07T09:03:28Z</time>
      </trkpt>
      <trkpt lat="47.09381" lon="5.92622">
        <ele>460</ele>
        <time>2023-05-07T09:03:30Z</time>
      </trkpt>
      <trkpt lat="47.09409" lon="5.92593">
        <ele>459.6</ele>
        <time>2023-05-07T09:03:35Z</time>
      </trkpt>
      <trkpt lat="47.09438" lon="5.92562">
        <ele>459</ele>
        <time>2023-05-07T09:03:41Z</time>
      </trkpt>
      <trkpt lat="47.09442" lon="5.92558">
        <ele>459</ele>
        <time>2023-05-07T09:03:42Z</time>
      </trkpt>
      <trkpt lat="47.09467" lon="5.92534">
        <ele>458.6</ele>
        <time>2023-05-07T09:03:47Z</time>
      </trkpt>
      <trkpt lat="47.09475" lon="5.92525">
        <ele>458.4</ele>
        <time>2023-05-07T09:03:49Z</time>
      </trkpt>
      <trkpt lat="47.09485" lon="5.92517">
        <ele>458</ele>
        <time>2023-05-07T09:03:51Z</time>
      </trkpt>
      <trkpt lat="47.09496" lon="5.92508">
        <ele>457.6</ele>
        <time>2023-05-07T09:03:53Z</time>
      </trkpt>
      <trkpt lat="47.09521" lon="5.92488">
        <ele>456.8</ele>
        <time>2023-05-07T09:03:57Z</time>
      </trkpt>
      <trkpt lat="47.09532" lon="5.92478">
        <ele>456.4</ele>
        <time>2023-05-07T09:03:59Z</time>
      </trkpt>
      <trkpt lat="47.09543" lon="5.92469">
        <ele>455.8</ele>
        <time>2023-05-07T09:04:01Z</time>
      </trkpt>
      <trkpt lat="47.09561" lon="5.92457">
        <ele>455.4</ele>
        <time>2023-05-07T09:04:04Z</time>
      </trkpt>
      <trkpt lat="47.09583" lon="5.92445">
        <ele>454.6</ele>
        <time>2023-05-07T09:04:08Z</time>
      </trkpt>
      <trkpt lat="47.09595" lon="5.92438">
        <ele>454</ele>
        <time>2023-05-07T09:04:10Z</time>
      </trkpt>
      <trkpt lat="47.09606" lon="5.9243">
        <ele>453.4</ele>
        <time>2023-05-07T09:04:12Z</time>
      </trkpt>
      <trkpt lat="47.09632" lon="5.92413">
        <ele>452.2</ele>
        <time>2023-05-07T09:04:16Z</time>
      </trkpt>
      <trkpt lat="47.09653" lon="5.92399">
        <ele>450.6</ele>
        <time>2023-05-07T09:04:19Z</time>
      </trkpt>
      <trkpt lat="47.09668" lon="5.9239">
        <ele>449.4</ele>
        <time>2023-05-07T09:04:21Z</time>
      </trkpt>
      <trkpt lat="47.09676" lon="5.92385">
        <ele>449</ele>
        <time>2023-05-07T09:04:22Z</time>
      </trkpt>
      <trkpt lat="47.09683" lon="5.9238">
        <ele>448.4</ele>
        <time>2023-05-07T09:04:23Z</time>
      </trkpt>
      <trkpt lat="47.09706" lon="5.92367">
        <ele>447</ele>
        <time>2023-05-07T09:04:26Z</time>
      </trkpt>
      <trkpt lat="47.0973" lon="5.92356">
        <ele>445.4</ele>
        <time>2023-05-07T09:04:29Z</time>
      </trkpt>
      <trkpt lat="47.09746" lon="5.92349">
        <ele>444.2</ele>
        <time>2023-05-07T09:04:31Z</time>
      </trkpt>
      <trkpt lat="47.09761" lon="5.92343">
        <ele>443.2</ele>
        <time>2023-05-07T09:04:33Z</time>
      </trkpt>
      <trkpt lat="47.09777" lon="5.92341">
        <ele>442</ele>
        <time>2023-05-07T09:04:35Z</time>
      </trkpt>
      <trkpt lat="47.09809" lon="5.92348">
        <ele>440.6</ele>
        <time>2023-05-07T09:04:39Z</time>
      </trkpt>
      <trkpt lat="47.09824" lon="5.92351">
        <ele>439.2</ele>
        <time>2023-05-07T09:04:41Z</time>
      </trkpt>
      <trkpt lat="47.09849" lon="5.92357">
        <ele>437.8</ele>
        <time>2023-05-07T09:04:44Z</time>
      </trkpt>
      <trkpt lat="47.09873" lon="5.92361">
        <ele>436.4</ele>
        <time>2023-05-07T09:04:47Z</time>
      </trkpt>
      <trkpt lat="47.09881" lon="5.9236">
        <ele>436</ele>
        <time>2023-05-07T09:04:48Z</time>
      </trkpt>
      <trkpt lat="47.0989" lon="5.92359">
        <ele>435.4</ele>
        <time>2023-05-07T09:04:49Z</time>
      </trkpt>
      <trkpt lat="47.09914" lon="5.92357">
        <ele>434</ele>
        <time>2023-05-07T09:04:52Z</time>
      </trkpt>
      <trkpt lat="47.09929" lon="5.92355">
        <ele>433</ele>
        <time>2023-05-07T09:04:54Z</time>
      </trkpt>
      <trkpt lat="47.09937" lon="5.92354">
        <ele>432.2</ele>
        <time>2023-05-07T09:04:55Z</time>
      </trkpt>
      <trkpt lat="47.09945" lon="5.92355">
        <ele>431.6</ele>
        <time>2023-05-07T09:04:56Z</time>
      </trkpt>
      <trkpt lat="47.0996" lon="5.92353">
        <ele>431</ele>
        <time>2023-05-07T09:04:58Z</time>
      </trkpt>
      <trkpt lat="47.09975" lon="5.92348">
        <ele>430.2</ele>
        <time>2023-05-07T09:05:00Z</time>
      </trkpt>
      <trkpt lat="47.09982" lon="5.92347">
        <ele>429.8</ele>
        <time>2023-05-07T09:05:01Z</time>
      </trkpt>
      <trkpt lat="47.10013" lon="5.92347">
        <ele>430</ele>
        <time>2023-05-07T09:05:05Z</time>
      </trkpt>
      <trkpt lat="47.10037" lon="5.92352">
        <ele>429</ele>
        <time>2023-05-07T09:05:08Z</time>
      </trkpt>
      <trkpt lat="47.10062" lon="5.92357">
        <ele>428.2</ele>
        <time>2023-05-07T09:05:11Z</time>
      </trkpt>
      <trkpt lat="47.10069" lon="5.9236">
        <ele>427.8</ele>
        <time>2023-05-07T09:05:12Z</time>
      </trkpt>
      <trkpt lat="47.10091" lon="5.92366">
        <ele>426.6</ele>
        <time>2023-05-07T09:05:15Z</time>
      </trkpt>
      <trkpt lat="47.10107" lon="5.9237">
        <ele>425.8</ele>
        <time>2023-05-07T09:05:17Z</time>
      </trkpt>
      <trkpt lat="47.10122" lon="5.92375">
        <ele>425.6</ele>
        <time>2023-05-07T09:05:19Z</time>
      </trkpt>
      <trkpt lat="47.10151" lon="5.92387">
        <ele>425</ele>
        <time>2023-05-07T09:05:23Z</time>
      </trkpt>
      <trkpt lat="47.10166" lon="5.92392">
        <ele>424.6</ele>
        <time>2023-05-07T09:05:25Z</time>
      </trkpt>
      <trkpt lat="47.10174" lon="5.92396">
        <ele>424.2</ele>
        <time>2023-05-07T09:05:26Z</time>
      </trkpt>
      <trkpt lat="47.10187" lon="5.92406">
        <ele>423.8</ele>
        <time>2023-05-07T09:05:28Z</time>
      </trkpt>
      <trkpt lat="47.10213" lon="5.92422">
        <ele>423.4</ele>
        <time>2023-05-07T09:05:32Z</time>
      </trkpt>
      <trkpt lat="47.10232" lon="5.92429">
        <ele>423</ele>
        <time>2023-05-07T09:05:35Z</time>
      </trkpt>
      <trkpt lat="47.10266" lon="5.92433">
        <ele>422.4</ele>
        <time>2023-05-07T09:05:40Z</time>
      </trkpt>
      <trkpt lat="47.10273" lon="5.92434">
        <ele>422</ele>
        <time>2023-05-07T09:05:41Z</time>
      </trkpt>
      <trkpt lat="47.10286" lon="5.92437">
        <ele>422</ele>
        <time>2023-05-07T09:05:43Z</time>
      </trkpt>
      <trkpt lat="47.10303" lon="5.92444">
        <ele>421.6</ele>
        <time>2023-05-07T09:05:46Z</time>
      </trkpt>
      <trkpt lat="47.10311" lon="5.92449">
        <ele>421.8</ele>
        <time>2023-05-07T09:05:49Z</time>
      </trkpt>
      <trkpt lat="47.10315" lon="5.9245">
        <ele>422.4</ele>
        <time>2023-05-07T09:05:51Z</time>
      </trkpt>
      <trkpt lat="47.10321" lon="5.92451">
        <ele>423.2</ele>
        <time>2023-05-07T09:05:54Z</time>
      </trkpt>
      <trkpt lat="47.10325" lon="5.92454">
        <ele>423.4</ele>
        <time>2023-05-07T09:05:56Z</time>
      </trkpt>
      <trkpt lat="47.1033" lon="5.92459">
        <ele>423.4</ele>
        <time>2023-05-07T09:05:59Z</time>
      </trkpt>
      <trkpt lat="47.10333" lon="5.92465">
        <ele>426.4</ele>
        <time>2023-05-07T09:23:16Z</time>
      </trkpt>
      <trkpt lat="47.10331" lon="5.92461">
        <ele>426.8</ele>
        <time>2023-05-07T09:23:20Z</time>
      </trkpt>
      <trkpt lat="47.1033" lon="5.9246">
        <ele>426.8</ele>
        <time>2023-05-07T09:23:21Z</time>
      </trkpt>
      <trkpt lat="47.10318" lon="5.92462">
        <ele>427</ele>
        <time>2023-05-07T09:23:26Z</time>
      </trkpt>
      <trkpt lat="47.10308" lon="5.92475">
        <ele>427.8</ele>
        <time>2023-05-07T09:23:30Z</time>
      </trkpt>
      <trkpt lat="47.10303" lon="5.92481">
        <ele>427.8</ele>
        <time>2023-05-07T09:23:32Z</time>
      </trkpt>
      <trkpt lat="47.10282" lon="5.92504">
        <ele>428.4</ele>
        <time>2023-05-07T09:23:40Z</time>
      </trkpt>
      <trkpt lat="47.1027" lon="5.92519">
        <ele>428.8</ele>
        <time>2023-05-07T09:23:44Z</time>
      </trkpt>
      <trkpt lat="47.10261" lon="5.92529">
        <ele>429.2</ele>
        <time>2023-05-07T09:23:47Z</time>
      </trkpt>
      <trkpt lat="47.10238" lon="5.9256">
        <ele>430</ele>
        <time>2023-05-07T09:23:55Z</time>
      </trkpt>
      <trkpt lat="47.10235" lon="5.92565">
        <ele>430</ele>
        <time>2023-05-07T09:23:56Z</time>
      </trkpt>
      <trkpt lat="47.10208" lon="5.92607">
        <ele>429.8</ele>
        <time>2023-05-07T09:24:05Z</time>
      </trkpt>
      <trkpt lat="47.10194" lon="5.92627">
        <ele>430.4</ele>
        <time>2023-05-07T09:24:11Z</time>
      </trkpt>
      <trkpt lat="47.10186" lon="5.92641">
        <ele>431</ele>
        <time>2023-05-07T09:24:16Z</time>
      </trkpt>
      <trkpt lat="47.10183" lon="5.92644">
        <ele>431.2</ele>
        <time>2023-05-07T09:24:17Z</time>
      </trkpt>
      <trkpt lat="47.10174" lon="5.92657">
        <ele>432.2</ele>
        <time>2023-05-07T09:24:21Z</time>
      </trkpt>
      <trkpt lat="47.10163" lon="5.92673">
        <ele>432.2</ele>
        <time>2023-05-07T09:24:25Z</time>
      </trkpt>
      <trkpt lat="47.10136" lon="5.92712">
        <ele>431.8</ele>
        <time>2023-05-07T09:24:33Z</time>
      </trkpt>
      <trkpt lat="47.10111" lon="5.92749">
        <ele>431.6</ele>
        <time>2023-05-07T09:24:41Z</time>
      </trkpt>
      <trkpt lat="47.10091" lon="5.92771">
        <ele>431.8</ele>
        <time>2023-05-07T09:24:46Z</time>
      </trkpt>
      <trkpt lat="47.10084" lon="5.92779">
        <ele>432</ele>
        <time>2023-05-07T09:24:48Z</time>
      </trkpt>
      <trkpt lat="47.10062" lon="5.92799">
        <ele>431.6</ele>
        <time>2023-05-07T09:24:53Z</time>
      </trkpt>
      <trkpt lat="47.10057" lon="5.92805">
        <ele>431.6</ele>
        <time>2023-05-07T09:24:54Z</time>
      </trkpt>
      <trkpt lat="47.10044" lon="5.92821">
        <ele>431.4</ele>
        <time>2023-05-07T09:24:57Z</time>
      </trkpt>
      <trkpt lat="47.10039" lon="5.92826">
        <ele>431.2</ele>
        <time>2023-05-07T09:24:58Z</time>
      </trkpt>
      <trkpt lat="47.10034" lon="5.92831">
        <ele>431.2</ele>
        <time>2023-05-07T09:24:59Z</time>
      </trkpt>
      <trkpt lat="47.10001" lon="5.92862">
        <ele>430.2</ele>
        <time>2023-05-07T09:25:05Z</time>
      </trkpt>
      <trkpt lat="47.09995" lon="5.92867">
        <ele>430</ele>
        <time>2023-05-07T09:25:06Z</time>
      </trkpt>
      <trkpt lat="47.09967" lon="5.92896">
        <ele>428.6</ele>
        <time>2023-05-07T09:25:11Z</time>
      </trkpt>
      <trkpt lat="47.09958" lon="5.92907">
        <ele>427.6</ele>
        <time>2023-05-07T09:25:13Z</time>
      </trkpt>
      <trkpt lat="47.09956" lon="5.92911">
        <ele>427.2</ele>
        <time>2023-05-07T09:25:14Z</time>
      </trkpt>
      <trkpt lat="47.09959" lon="5.92922">
        <ele>426.4</ele>
        <time>2023-05-07T09:25:17Z</time>
      </trkpt>
      <trkpt lat="47.09965" lon="5.92926">
        <ele>426</ele>
        <time>2023-05-07T09:25:19Z</time>
      </trkpt>
      <trkpt lat="47.09974" lon="5.92931">
        <ele>425.6</ele>
        <time>2023-05-07T09:25:21Z</time>
      </trkpt>
      <trkpt lat="47.09979" lon="5.92933">
        <ele>425.4</ele>
        <time>2023-05-07T09:25:22Z</time>
      </trkpt>
      <trkpt lat="47.09989" lon="5.92938">
        <ele>424.8</ele>
        <time>2023-05-07T09:25:24Z</time>
      </trkpt>
      <trkpt lat="47.09995" lon="5.92939">
        <ele>424.4</ele>
        <time>2023-05-07T09:25:25Z</time>
      </trkpt>
      <trkpt lat="47.10006" lon="5.92939">
        <ele>423.4</ele>
        <time>2023-05-07T09:25:27Z</time>
      </trkpt>
      <trkpt lat="47.10024" lon="5.92941">
        <ele>422</ele>
        <time>2023-05-07T09:25:30Z</time>
      </trkpt>
      <trkpt lat="47.10039" lon="5.92941">
        <ele>420.8</ele>
        <time>2023-05-07T09:25:32Z</time>
      </trkpt>
      <trkpt lat="47.10056" lon="5.92935">
        <ele>419.4</ele>
        <time>2023-05-07T09:25:34Z</time>
      </trkpt>
      <trkpt lat="47.10072" lon="5.92931">
        <ele>417.6</ele>
        <time>2023-05-07T09:25:36Z</time>
      </trkpt>
      <trkpt lat="47.10089" lon="5.92934">
        <ele>415.8</ele>
        <time>2023-05-07T09:25:38Z</time>
      </trkpt>
      <trkpt lat="47.10107" lon="5.92938">
        <ele>414.2</ele>
        <time>2023-05-07T09:25:40Z</time>
      </trkpt>
      <trkpt lat="47.10124" lon="5.92941">
        <ele>413</ele>
        <time>2023-05-07T09:25:42Z</time>
      </trkpt>
      <trkpt lat="47.1014" lon="5.92944">
        <ele>411.8</ele>
        <time>2023-05-07T09:25:44Z</time>
      </trkpt>
      <trkpt lat="47.10149" lon="5.92948">
        <ele>410.8</ele>
        <time>2023-05-07T09:25:45Z</time>
      </trkpt>
      <trkpt lat="47.10158" lon="5.92953">
        <ele>410</ele>
        <time>2023-05-07T09:25:46Z</time>
      </trkpt>
      <trkpt lat="47.10176" lon="5.92962">
        <ele>408.4</ele>
        <time>2023-05-07T09:25:48Z</time>
      </trkpt>
      <trkpt lat="47.10193" lon="5.92964">
        <ele>407.4</ele>
        <time>2023-05-07T09:25:50Z</time>
      </trkpt>
      <trkpt lat="47.10216" lon="5.92965">
        <ele>406.4</ele>
        <time>2023-05-07T09:25:53Z</time>
      </trkpt>
      <trkpt lat="47.10223" lon="5.92966">
        <ele>406.2</ele>
        <time>2023-05-07T09:25:54Z</time>
      </trkpt>
      <trkpt lat="47.1023" lon="5.92968">
        <ele>405.8</ele>
        <time>2023-05-07T09:25:55Z</time>
      </trkpt>
      <trkpt lat="47.10244" lon="5.92973">
        <ele>405</ele>
        <time>2023-05-07T09:25:57Z</time>
      </trkpt>
      <trkpt lat="47.10272" lon="5.92983">
        <ele>403.8</ele>
        <time>2023-05-07T09:26:01Z</time>
      </trkpt>
      <trkpt lat="47.1031" lon="5.92992">
        <ele>402.6</ele>
        <time>2023-05-07T09:26:06Z</time>
      </trkpt>
      <trkpt lat="47.10343" lon="5.93006">
        <ele>402</ele>
        <time>2023-05-07T09:26:11Z</time>
      </trkpt>
      <trkpt lat="47.10377" lon="5.93023">
        <ele>401.6</ele>
        <time>2023-05-07T09:26:16Z</time>
      </trkpt>
      <trkpt lat="47.10384" lon="5.93026">
        <ele>401.6</ele>
        <time>2023-05-07T09:26:17Z</time>
      </trkpt>
      <trkpt lat="47.10397" lon="5.93031">
        <ele>401.2</ele>
        <time>2023-05-07T09:26:19Z</time>
      </trkpt>
      <trkpt lat="47.10417" lon="5.93037">
        <ele>400.8</ele>
        <time>2023-05-07T09:26:22Z</time>
      </trkpt>
      <trkpt lat="47.10455" lon="5.93054">
        <ele>400.4</ele>
        <time>2023-05-07T09:26:28Z</time>
      </trkpt>
      <trkpt lat="47.10462" lon="5.93057">
        <ele>400.2</ele>
        <time>2023-05-07T09:26:29Z</time>
      </trkpt>
      <trkpt lat="47.10497" lon="5.93071">
        <ele>400.4</ele>
        <time>2023-05-07T09:26:35Z</time>
      </trkpt>
      <trkpt lat="47.10503" lon="5.93073">
        <ele>400.6</ele>
        <time>2023-05-07T09:26:36Z</time>
      </trkpt>
      <trkpt lat="47.10518" lon="5.93082">
        <ele>401</ele>
        <time>2023-05-07T09:26:39Z</time>
      </trkpt>
      <trkpt lat="47.10542" lon="5.93102">
        <ele>400.6</ele>
        <time>2023-05-07T09:26:44Z</time>
      </trkpt>
      <trkpt lat="47.10572" lon="5.9312">
        <ele>401</ele>
        <time>2023-05-07T09:26:50Z</time>
      </trkpt>
      <trkpt lat="47.10599" lon="5.93131">
        <ele>401.6</ele>
        <time>2023-05-07T09:26:56Z</time>
      </trkpt>
      <trkpt lat="47.10612" lon="5.93136">
        <ele>402.6</ele>
        <time>2023-05-07T09:27:00Z</time>
      </trkpt>
      <trkpt lat="47.10615" lon="5.93136">
        <ele>402.8</ele>
        <time>2023-05-07T09:27:01Z</time>
      </trkpt>
      <trkpt lat="47.1063" lon="5.93142">
        <ele>404</ele>
        <time>2023-05-07T09:27:07Z</time>
      </trkpt>
      <trkpt lat="47.10633" lon="5.93142">
        <ele>404.2</ele>
        <time>2023-05-07T09:27:08Z</time>
      </trkpt>
      <trkpt lat="47.10649" lon="5.93149">
        <ele>405.2</ele>
        <time>2023-05-07T09:27:13Z</time>
      </trkpt>
      <trkpt lat="47.10654" lon="5.93153">
        <ele>405.6</ele>
        <time>2023-05-07T09:27:15Z</time>
      </trkpt>
      <trkpt lat="47.10659" lon="5.93158">
        <ele>406.2</ele>
        <time>2023-05-07T09:27:17Z</time>
      </trkpt>
      <trkpt lat="47.10668" lon="5.93166">
        <ele>407.4</ele>
        <time>2023-05-07T09:27:20Z</time>
      </trkpt>
      <trkpt lat="47.10675" lon="5.9317">
        <ele>407.8</ele>
        <time>2023-05-07T09:27:22Z</time>
      </trkpt>
      <trkpt lat="47.1069" lon="5.93178">
        <ele>408.4</ele>
        <time>2023-05-07T09:27:26Z</time>
      </trkpt>
      <trkpt lat="47.10698" lon="5.93181">
        <ele>408.8</ele>
        <time>2023-05-07T09:27:28Z</time>
      </trkpt>
      <trkpt lat="47.10719" lon="5.93178">
        <ele>409.2</ele>
        <time>2023-05-07T09:27:33Z</time>
      </trkpt>
      <trkpt lat="47.10746" lon="5.93173">
        <ele>409.2</ele>
        <time>2023-05-07T09:27:39Z</time>
      </trkpt>
      <trkpt lat="47.10767" lon="5.9317">
        <ele>409.4</ele>
        <time>2023-05-07T09:27:44Z</time>
      </trkpt>
      <trkpt lat="47.10789" lon="5.93175">
        <ele>409.4</ele>
        <time>2023-05-07T09:27:49Z</time>
      </trkpt>
      <trkpt lat="47.10794" lon="5.93175">
        <ele>409.4</ele>
        <time>2023-05-07T09:27:50Z</time>
      </trkpt>
      <trkpt lat="47.10798" lon="5.93174">
        <ele>409.6</ele>
        <time>2023-05-07T09:27:51Z</time>
      </trkpt>
      <trkpt lat="47.1081" lon="5.93175">
        <ele>409</ele>
        <time>2023-05-07T09:27:54Z</time>
      </trkpt>
      <trkpt lat="47.10818" lon="5.93173">
        <ele>408.4</ele>
        <time>2023-05-07T09:27:56Z</time>
      </trkpt>
      <trkpt lat="47.10827" lon="5.93175">
        <ele>407.6</ele>
        <time>2023-05-07T09:27:59Z</time>
      </trkpt>
      <trkpt lat="47.10845" lon="5.93182">
        <ele>407.6</ele>
        <time>2023-05-07T09:28:04Z</time>
      </trkpt>
      <trkpt lat="47.10849" lon="5.93182">
        <ele>407.4</ele>
        <time>2023-05-07T09:28:05Z</time>
      </trkpt>
      <trkpt lat="47.10858" lon="5.93182">
        <ele>407.4</ele>
        <time>2023-05-07T09:28:07Z</time>
      </trkpt>
      <trkpt lat="47.10867" lon="5.93186">
        <ele>407.4</ele>
        <time>2023-05-07T09:28:09Z</time>
      </trkpt>
      <trkpt lat="47.10878" lon="5.932">
        <ele>408</ele>
        <time>2023-05-07T09:28:13Z</time>
      </trkpt>
      <trkpt lat="47.10882" lon="5.93208">
        <ele>408.4</ele>
        <time>2023-05-07T09:28:15Z</time>
      </trkpt>
      <trkpt lat="47.1089" lon="5.93222">
        <ele>408.2</ele>
        <time>2023-05-07T09:28:18Z</time>
      </trkpt>
      <trkpt lat="47.10895" lon="5.93232">
        <ele>407.4</ele>
        <time>2023-05-07T09:28:20Z</time>
      </trkpt>
      <trkpt lat="47.10901" lon="5.93246">
        <ele>406.2</ele>
        <time>2023-05-07T09:28:23Z</time>
      </trkpt>
      <trkpt lat="47.10903" lon="5.93249">
        <ele>406.2</ele>
        <time>2023-05-07T09:28:24Z</time>
      </trkpt>
      <trkpt lat="47.10914" lon="5.93266">
        <ele>405.6</ele>
        <time>2023-05-07T09:28:30Z</time>
      </trkpt>
      <trkpt lat="47.10919" lon="5.93272">
        <ele>405</ele>
        <time>2023-05-07T09:28:31Z</time>
      </trkpt>
      <trkpt lat="47.1093" lon="5.93287">
        <ele>403.6</ele>
        <time>2023-05-07T09:28:34Z</time>
      </trkpt>
      <trkpt lat="47.10933" lon="5.9329">
        <ele>402.8</ele>
        <time>2023-05-07T09:28:35Z</time>
      </trkpt>
      <trkpt lat="47.10938" lon="5.93294">
        <ele>401.8</ele>
        <time>2023-05-07T09:28:36Z</time>
      </trkpt>
      <trkpt lat="47.10949" lon="5.93302">
        <ele>400.6</ele>
        <time>2023-05-07T09:28:39Z</time>
      </trkpt>
      <trkpt lat="47.10957" lon="5.93306">
        <ele>400.8</ele>
        <time>2023-05-07T09:28:41Z</time>
      </trkpt>
      <trkpt lat="47.10967" lon="5.93311">
        <ele>401.2</ele>
        <time>2023-05-07T09:28:43Z</time>
      </trkpt>
      <trkpt lat="47.10977" lon="5.93319">
        <ele>401.6</ele>
        <time>2023-05-07T09:28:45Z</time>
      </trkpt>
      <trkpt lat="47.10982" lon="5.93324">
        <ele>401.8</ele>
        <time>2023-05-07T09:28:46Z</time>
      </trkpt>
      <trkpt lat="47.11001" lon="5.93341">
        <ele>402</ele>
        <time>2023-05-07T09:28:51Z</time>
      </trkpt>
      <trkpt lat="47.11009" lon="5.93341">
        <ele>402</ele>
        <time>2023-05-07T09:28:53Z</time>
      </trkpt>
      <trkpt lat="47.11018" lon="5.93339">
        <ele>401.8</ele>
        <time>2023-05-07T09:28:55Z</time>
      </trkpt>
      <trkpt lat="47.11041" lon="5.93335">
        <ele>401.6</ele>
        <time>2023-05-07T09:29:00Z</time>
      </trkpt>
      <trkpt lat="47.11045" lon="5.93335">
        <ele>401.6</ele>
        <time>2023-05-07T09:29:01Z</time>
      </trkpt>
      <trkpt lat="47.11056" lon="5.93341">
        <ele>401.4</ele>
        <time>2023-05-07T09:29:04Z</time>
      </trkpt>
      <trkpt lat="47.11061" lon="5.93344">
        <ele>401</ele>
        <time>2023-05-07T09:29:06Z</time>
      </trkpt>
      <trkpt lat="47.11071" lon="5.93348">
        <ele>400.6</ele>
        <time>2023-05-07T09:29:10Z</time>
      </trkpt>
      <trkpt lat="47.11077" lon="5.9335">
        <ele>400.4</ele>
        <time>2023-05-07T09:29:12Z</time>
      </trkpt>
      <trkpt lat="47.11096" lon="5.93362">
        <ele>399.8</ele>
        <time>2023-05-07T09:29:17Z</time>
      </trkpt>
      <trkpt lat="47.11116" lon="5.93374">
        <ele>400.4</ele>
        <time>2023-05-07T09:29:23Z</time>
      </trkpt>
      <trkpt lat="47.1114" lon="5.93388">
        <ele>400.8</ele>
        <time>2023-05-07T09:29:30Z</time>
      </trkpt>
      <trkpt lat="47.11168" lon="5.93405">
        <ele>401</ele>
        <time>2023-05-07T09:29:37Z</time>
      </trkpt>
      <trkpt lat="47.11189" lon="5.93417">
        <ele>401.4</ele>
        <time>2023-05-07T09:29:44Z</time>
      </trkpt>
      <trkpt lat="47.11192" lon="5.93419">
        <ele>401.6</ele>
        <time>2023-05-07T09:29:45Z</time>
      </trkpt>
      <trkpt lat="47.11204" lon="5.93429">
        <ele>402.8</ele>
        <time>2023-05-07T09:29:49Z</time>
      </trkpt>
      <trkpt lat="47.11214" lon="5.93438">
        <ele>403.2</ele>
        <time>2023-05-07T09:29:53Z</time>
      </trkpt>
      <trkpt lat="47.11229" lon="5.93456">
        <ele>403.6</ele>
        <time>2023-05-07T09:29:59Z</time>
      </trkpt>
      <trkpt lat="47.11236" lon="5.93467">
        <ele>404</ele>
        <time>2023-05-07T09:30:02Z</time>
      </trkpt>
      <trkpt lat="47.11248" lon="5.93483">
        <ele>403.8</ele>
        <time>2023-05-07T09:30:06Z</time>
      </trkpt>
      <trkpt lat="47.11269" lon="5.9349">
        <ele>404</ele>
        <time>2023-05-07T09:30:11Z</time>
      </trkpt>
      <trkpt lat="47.11297" lon="5.93492">
        <ele>403.4</ele>
        <time>2023-05-07T09:30:17Z</time>
      </trkpt>
      <trkpt lat="47.11312" lon="5.93497">
        <ele>404.2</ele>
        <time>2023-05-07T09:30:21Z</time>
      </trkpt>
      <trkpt lat="47.11319" lon="5.93502">
        <ele>405.4</ele>
        <time>2023-05-07T09:30:24Z</time>
      </trkpt>
      <trkpt lat="47.11325" lon="5.93504">
        <ele>405.8</ele>
        <time>2023-05-07T09:30:27Z</time>
      </trkpt>
      <trkpt lat="47.11333" lon="5.93506">
        <ele>406.4</ele>
        <time>2023-05-07T09:30:31Z</time>
      </trkpt>
      <trkpt lat="47.11338" lon="5.93505">
        <ele>406.8</ele>
        <time>2023-05-07T09:30:34Z</time>
      </trkpt>
      <trkpt lat="47.1134" lon="5.93506">
        <ele>407</ele>
        <time>2023-05-07T09:30:35Z</time>
      </trkpt>
      <trkpt lat="47.11349" lon="5.93507">
        <ele>407.6</ele>
        <time>2023-05-07T09:30:39Z</time>
      </trkpt>
      <trkpt lat="47.1135" lon="5.93508">
        <ele>407.8</ele>
        <time>2023-05-07T09:30:40Z</time>
      </trkpt>
      <trkpt lat="47.11358" lon="5.93507">
        <ele>409</ele>
        <time>2023-05-07T09:30:44Z</time>
      </trkpt>
      <trkpt lat="47.11361" lon="5.93508">
        <ele>409.4</ele>
        <time>2023-05-07T09:30:46Z</time>
      </trkpt>
      <trkpt lat="47.11373" lon="5.93509">
        <ele>409.8</ele>
        <time>2023-05-07T09:30:53Z</time>
      </trkpt>
      <trkpt lat="47.11379" lon="5.9351">
        <ele>410.2</ele>
        <time>2023-05-07T09:30:56Z</time>
      </trkpt>
      <trkpt lat="47.11385" lon="5.9351">
        <ele>410.4</ele>
        <time>2023-05-07T09:30:59Z</time>
      </trkpt>
      <trkpt lat="47.11387" lon="5.9351">
        <ele>410.4</ele>
        <time>2023-05-07T09:31:00Z</time>
      </trkpt>
      <trkpt lat="47.11404" lon="5.93512">
        <ele>410.6</ele>
        <time>2023-05-07T09:31:08Z</time>
      </trkpt>
      <trkpt lat="47.11418" lon="5.93517">
        <ele>411</ele>
        <time>2023-05-07T09:31:15Z</time>
      </trkpt>
      <trkpt lat="47.11421" lon="5.9352">
        <ele>411.2</ele>
        <time>2023-05-07T09:31:17Z</time>
      </trkpt>
      <trkpt lat="47.11432" lon="5.93523">
        <ele>412.4</ele>
        <time>2023-05-07T09:31:22Z</time>
      </trkpt>
      <trkpt lat="47.11434" lon="5.93524">
        <ele>412.4</ele>
        <time>2023-05-07T09:31:23Z</time>
      </trkpt>
      <trkpt lat="47.11454" lon="5.93526">
        <ele>412.2</ele>
        <time>2023-05-07T09:31:34Z</time>
      </trkpt>
      <trkpt lat="47.11462" lon="5.93529">
        <ele>413.4</ele>
        <time>2023-05-07T09:31:38Z</time>
      </trkpt>
      <trkpt lat="47.11481" lon="5.93538">
        <ele>413.6</ele>
        <time>2023-05-07T09:31:45Z</time>
      </trkpt>
      <trkpt lat="47.11508" lon="5.93555">
        <ele>412.8</ele>
        <time>2023-05-07T09:31:52Z</time>
      </trkpt>
      <trkpt lat="47.1152" lon="5.93557">
        <ele>412</ele>
        <time>2023-05-07T09:31:54Z</time>
      </trkpt>
      <trkpt lat="47.1153" lon="5.93558">
        <ele>411.4</ele>
        <time>2023-05-07T09:31:56Z</time>
      </trkpt>
      <trkpt lat="47.11539" lon="5.93559">
        <ele>411.4</ele>
        <time>2023-05-07T09:31:58Z</time>
      </trkpt>
      <trkpt lat="47.1156" lon="5.93566">
        <ele>411.2</ele>
        <time>2023-05-07T09:32:03Z</time>
      </trkpt>
      <trkpt lat="47.11574" lon="5.93575">
        <ele>412.4</ele>
        <time>2023-05-07T09:32:09Z</time>
      </trkpt>
      <trkpt lat="47.11586" lon="5.93583">
        <ele>413</ele>
        <time>2023-05-07T09:32:15Z</time>
      </trkpt>
      <trkpt lat="47.11597" lon="5.93589">
        <ele>414</ele>
        <time>2023-05-07T09:32:20Z</time>
      </trkpt>
      <trkpt lat="47.116" lon="5.9359">
        <ele>414.4</ele>
        <time>2023-05-07T09:32:21Z</time>
      </trkpt>
      <trkpt lat="47.11605" lon="5.93593">
        <ele>415.4</ele>
        <time>2023-05-07T09:32:23Z</time>
      </trkpt>
      <trkpt lat="47.11615" lon="5.936">
        <ele>416</ele>
        <time>2023-05-07T09:32:27Z</time>
      </trkpt>
      <trkpt lat="47.11632" lon="5.93613">
        <ele>416.4</ele>
        <time>2023-05-07T09:32:34Z</time>
      </trkpt>
      <trkpt lat="47.11655" lon="5.93627">
        <ele>415.8</ele>
        <time>2023-05-07T09:32:40Z</time>
      </trkpt>
      <trkpt lat="47.11666" lon="5.93638">
        <ele>415.8</ele>
        <time>2023-05-07T09:32:43Z</time>
      </trkpt>
      <trkpt lat="47.11671" lon="5.93646">
        <ele>416</ele>
        <time>2023-05-07T09:32:45Z</time>
      </trkpt>
      <trkpt lat="47.11676" lon="5.93659">
        <ele>415.6</ele>
        <time>2023-05-07T09:32:48Z</time>
      </trkpt>
      <trkpt lat="47.11679" lon="5.93669">
        <ele>414.6</ele>
        <time>2023-05-07T09:32:50Z</time>
      </trkpt>
      <trkpt lat="47.11681" lon="5.93673">
        <ele>414.2</ele>
        <time>2023-05-07T09:32:51Z</time>
      </trkpt>
      <trkpt lat="47.11689" lon="5.93706">
        <ele>413</ele>
        <time>2023-05-07T09:32:57Z</time>
      </trkpt>
      <trkpt lat="47.11691" lon="5.93715">
        <ele>411.8</ele>
        <time>2023-05-07T09:32:59Z</time>
      </trkpt>
      <trkpt lat="47.11691" lon="5.93725">
        <ele>410.2</ele>
        <time>2023-05-07T09:33:01Z</time>
      </trkpt>
      <trkpt lat="47.11689" lon="5.9373">
        <ele>409.8</ele>
        <time>2023-05-07T09:33:02Z</time>
      </trkpt>
      <trkpt lat="47.11683" lon="5.93738">
        <ele>409</ele>
        <time>2023-05-07T09:33:04Z</time>
      </trkpt>
      <trkpt lat="47.11675" lon="5.93743">
        <ele>408.2</ele>
        <time>2023-05-07T09:33:06Z</time>
      </trkpt>
      <trkpt lat="47.11669" lon="5.93745">
        <ele>407.6</ele>
        <time>2023-05-07T09:33:07Z</time>
      </trkpt>
      <trkpt lat="47.11655" lon="5.93755">
        <ele>406.6</ele>
        <time>2023-05-07T09:33:10Z</time>
      </trkpt>
      <trkpt lat="47.11642" lon="5.93778">
        <ele>405.6</ele>
        <time>2023-05-07T09:33:14Z</time>
      </trkpt>
      <trkpt lat="47.11637" lon="5.9379">
        <ele>405.4</ele>
        <time>2023-05-07T09:33:16Z</time>
      </trkpt>
      <trkpt lat="47.11632" lon="5.93801">
        <ele>405.2</ele>
        <time>2023-05-07T09:33:19Z</time>
      </trkpt>
      <trkpt lat="47.1163" lon="5.93826">
        <ele>405.2</ele>
        <time>2023-05-07T09:33:25Z</time>
      </trkpt>
      <trkpt lat="47.11637" lon="5.93848">
        <ele>405.4</ele>
        <time>2023-05-07T09:33:31Z</time>
      </trkpt>
      <trkpt lat="47.11646" lon="5.93874">
        <ele>406.6</ele>
        <time>2023-05-07T09:33:38Z</time>
      </trkpt>
      <trkpt lat="47.11646" lon="5.93876">
        <ele>406.6</ele>
        <time>2023-05-07T09:33:39Z</time>
      </trkpt>
      <trkpt lat="47.11647" lon="5.93887">
        <ele>406.8</ele>
        <time>2023-05-07T09:33:43Z</time>
      </trkpt>
      <trkpt lat="47.11647" lon="5.93902">
        <ele>405.2</ele>
        <time>2023-05-07T09:33:47Z</time>
      </trkpt>
      <trkpt lat="47.11647" lon="5.93909">
        <ele>404.4</ele>
        <time>2023-05-07T09:33:49Z</time>
      </trkpt>
      <trkpt lat="47.11646" lon="5.93912">
        <ele>404</ele>
        <time>2023-05-07T09:33:50Z</time>
      </trkpt>
      <trkpt lat="47.11647" lon="5.93925">
        <ele>403</ele>
        <time>2023-05-07T09:33:54Z</time>
      </trkpt>
      <trkpt lat="47.11648" lon="5.93937">
        <ele>401.6</ele>
        <time>2023-05-07T09:34:02Z</time>
      </trkpt>
      <trkpt lat="47.11649" lon="5.93949">
        <ele>401</ele>
        <time>2023-05-07T09:34:05Z</time>
      </trkpt>
      <trkpt lat="47.11653" lon="5.93994">
        <ele>402.8</ele>
        <time>2023-05-07T09:34:14Z</time>
      </trkpt>
      <trkpt lat="47.11663" lon="5.94018">
        <ele>403.2</ele>
        <time>2023-05-07T09:34:20Z</time>
      </trkpt>
      <trkpt lat="47.1168" lon="5.94029">
        <ele>402.8</ele>
        <time>2023-05-07T09:34:26Z</time>
      </trkpt>
      <trkpt lat="47.11697" lon="5.94047">
        <ele>402</ele>
        <time>2023-05-07T09:34:33Z</time>
      </trkpt>
      <trkpt lat="47.1171" lon="5.94069">
        <ele>403.8</ele>
        <time>2023-05-07T09:34:39Z</time>
      </trkpt>
      <trkpt lat="47.11714" lon="5.94078">
        <ele>404.8</ele>
        <time>2023-05-07T09:34:41Z</time>
      </trkpt>
      <trkpt lat="47.11721" lon="5.94099">
        <ele>406</ele>
        <time>2023-05-07T09:34:45Z</time>
      </trkpt>
      <trkpt lat="47.11723" lon="5.94142">
        <ele>405.6</ele>
        <time>2023-05-07T09:34:52Z</time>
      </trkpt>
      <trkpt lat="47.11723" lon="5.94162">
        <ele>404.8</ele>
        <time>2023-05-07T09:34:55Z</time>
      </trkpt>
      <trkpt lat="47.11721" lon="5.94183">
        <ele>405.2</ele>
        <time>2023-05-07T09:34:59Z</time>
      </trkpt>
      <trkpt lat="47.11721" lon="5.94193">
        <ele>405.8</ele>
        <time>2023-05-07T09:35:01Z</time>
      </trkpt>
      <trkpt lat="47.1172" lon="5.94213">
        <ele>406.8</ele>
        <time>2023-05-07T09:35:04Z</time>
      </trkpt>
      <trkpt lat="47.1172" lon="5.94219">
        <ele>407</ele>
        <time>2023-05-07T09:35:05Z</time>
      </trkpt>
      <trkpt lat="47.11724" lon="5.9424">
        <ele>407</ele>
        <time>2023-05-07T09:35:09Z</time>
      </trkpt>
      <trkpt lat="47.11731" lon="5.94265">
        <ele>407</ele>
        <time>2023-05-07T09:35:15Z</time>
      </trkpt>
      <trkpt lat="47.11735" lon="5.94302">
        <ele>406.2</ele>
        <time>2023-05-07T09:35:22Z</time>
      </trkpt>
      <trkpt lat="47.11735" lon="5.94314">
        <ele>405.6</ele>
        <time>2023-05-07T09:35:24Z</time>
      </trkpt>
      <trkpt lat="47.11736" lon="5.94333">
        <ele>404.6</ele>
        <time>2023-05-07T09:35:27Z</time>
      </trkpt>
      <trkpt lat="47.11736" lon="5.94339">
        <ele>404.2</ele>
        <time>2023-05-07T09:35:28Z</time>
      </trkpt>
      <trkpt lat="47.11743" lon="5.94375">
        <ele>404.4</ele>
        <time>2023-05-07T09:35:34Z</time>
      </trkpt>
      <trkpt lat="47.11749" lon="5.94394">
        <ele>403.8</ele>
        <time>2023-05-07T09:35:37Z</time>
      </trkpt>
      <trkpt lat="47.11754" lon="5.94407">
        <ele>403.4</ele>
        <time>2023-05-07T09:35:39Z</time>
      </trkpt>
      <trkpt lat="47.11757" lon="5.94413">
        <ele>402.8</ele>
        <time>2023-05-07T09:35:40Z</time>
      </trkpt>
      <trkpt lat="47.11768" lon="5.94431">
        <ele>402.2</ele>
        <time>2023-05-07T09:35:43Z</time>
      </trkpt>
      <trkpt lat="47.11779" lon="5.9445">
        <ele>401.8</ele>
        <time>2023-05-07T09:35:46Z</time>
      </trkpt>
      <trkpt lat="47.11794" lon="5.94469">
        <ele>401</ele>
        <time>2023-05-07T09:35:49Z</time>
      </trkpt>
      <trkpt lat="47.11808" lon="5.94488">
        <ele>400.2</ele>
        <time>2023-05-07T09:35:52Z</time>
      </trkpt>
      <trkpt lat="47.11812" lon="5.94495">
        <ele>400</ele>
        <time>2023-05-07T09:35:53Z</time>
      </trkpt>
      <trkpt lat="47.11816" lon="5.94502">
        <ele>399.8</ele>
        <time>2023-05-07T09:35:54Z</time>
      </trkpt>
      <trkpt lat="47.11823" lon="5.94529">
        <ele>399.4</ele>
        <time>2023-05-07T09:35:57Z</time>
      </trkpt>
      <trkpt lat="47.1182" lon="5.94558">
        <ele>398.6</ele>
        <time>2023-05-07T09:36:00Z</time>
      </trkpt>
      <trkpt lat="47.11813" lon="5.94579">
        <ele>398</ele>
        <time>2023-05-07T09:36:02Z</time>
      </trkpt>
      <trkpt lat="47.11806" lon="5.94599">
        <ele>397.4</ele>
        <time>2023-05-07T09:36:04Z</time>
      </trkpt>
      <trkpt lat="47.11805" lon="5.94629">
        <ele>396.8</ele>
        <time>2023-05-07T09:36:07Z</time>
      </trkpt>
      <trkpt lat="47.11803" lon="5.94649">
        <ele>396.2</ele>
        <time>2023-05-07T09:36:09Z</time>
      </trkpt>
      <trkpt lat="47.11795" lon="5.94682">
        <ele>395.2</ele>
        <time>2023-05-07T09:36:12Z</time>
      </trkpt>
      <trkpt lat="47.11793" lon="5.94694">
        <ele>394.8</ele>
        <time>2023-05-07T09:36:13Z</time>
      </trkpt>
      <trkpt lat="47.11796" lon="5.94717">
        <ele>394.8</ele>
        <time>2023-05-07T09:36:15Z</time>
      </trkpt>
      <trkpt lat="47.11809" lon="5.94747">
        <ele>395</ele>
        <time>2023-05-07T09:36:18Z</time>
      </trkpt>
      <trkpt lat="47.11819" lon="5.94778">
        <ele>394.6</ele>
        <time>2023-05-07T09:36:21Z</time>
      </trkpt>
      <trkpt lat="47.11822" lon="5.948">
        <ele>394.4</ele>
        <time>2023-05-07T09:36:23Z</time>
      </trkpt>
      <trkpt lat="47.11831" lon="5.94842">
        <ele>394.8</ele>
        <time>2023-05-07T09:36:27Z</time>
      </trkpt>
      <trkpt lat="47.11851" lon="5.94874">
        <ele>395</ele>
        <time>2023-05-07T09:36:31Z</time>
      </trkpt>
      <trkpt lat="47.1188" lon="5.94888">
        <ele>394.4</ele>
        <time>2023-05-07T09:36:35Z</time>
      </trkpt>
      <trkpt lat="47.11889" lon="5.94891">
        <ele>394.4</ele>
        <time>2023-05-07T09:36:36Z</time>
      </trkpt>
      <trkpt lat="47.11925" lon="5.94905">
        <ele>394.6</ele>
        <time>2023-05-07T09:36:40Z</time>
      </trkpt>
      <trkpt lat="47.11961" lon="5.94933">
        <ele>394</ele>
        <time>2023-05-07T09:36:45Z</time>
      </trkpt>
      <trkpt lat="47.11968" lon="5.9494">
        <ele>394</ele>
        <time>2023-05-07T09:36:46Z</time>
      </trkpt>
      <trkpt lat="47.12002" lon="5.94976">
        <ele>393</ele>
        <time>2023-05-07T09:36:51Z</time>
      </trkpt>
      <trkpt lat="47.12009" lon="5.94983">
        <ele>392.6</ele>
        <time>2023-05-07T09:36:52Z</time>
      </trkpt>
      <trkpt lat="47.12016" lon="5.94991">
        <ele>392.4</ele>
        <time>2023-05-07T09:36:53Z</time>
      </trkpt>
      <trkpt lat="47.12023" lon="5.94999">
        <ele>392</ele>
        <time>2023-05-07T09:36:54Z</time>
      </trkpt>
      <trkpt lat="47.12034" lon="5.95016">
        <ele>391.6</ele>
        <time>2023-05-07T09:36:56Z</time>
      </trkpt>
      <trkpt lat="47.12049" lon="5.95049">
        <ele>391.2</ele>
        <time>2023-05-07T09:37:00Z</time>
      </trkpt>
      <trkpt lat="47.12054" lon="5.95068">
        <ele>390.6</ele>
        <time>2023-05-07T09:37:02Z</time>
      </trkpt>
      <trkpt lat="47.12059" lon="5.95089">
        <ele>389.4</ele>
        <time>2023-05-07T09:37:04Z</time>
      </trkpt>
      <trkpt lat="47.12063" lon="5.951">
        <ele>388.6</ele>
        <time>2023-05-07T09:37:05Z</time>
      </trkpt>
      <trkpt lat="47.12067" lon="5.9511">
        <ele>388</ele>
        <time>2023-05-07T09:37:06Z</time>
      </trkpt>
      <trkpt lat="47.12074" lon="5.9513">
        <ele>386.8</ele>
        <time>2023-05-07T09:37:08Z</time>
      </trkpt>
      <trkpt lat="47.12089" lon="5.9518">
        <ele>386.6</ele>
        <time>2023-05-07T09:37:13Z</time>
      </trkpt>
      <trkpt lat="47.12111" lon="5.95248">
        <ele>387</ele>
        <time>2023-05-07T09:37:20Z</time>
      </trkpt>
      <trkpt lat="47.12125" lon="5.95275">
        <ele>387.4</ele>
        <time>2023-05-07T09:37:23Z</time>
      </trkpt>
      <trkpt lat="47.12135" lon="5.9529">
        <ele>387.2</ele>
        <time>2023-05-07T09:37:25Z</time>
      </trkpt>
      <trkpt lat="47.12154" lon="5.95315">
        <ele>386.8</ele>
        <time>2023-05-07T09:37:29Z</time>
      </trkpt>
      <trkpt lat="47.12156" lon="5.95323">
        <ele>386.8</ele>
        <time>2023-05-07T09:37:30Z</time>
      </trkpt>
      <trkpt lat="47.12155" lon="5.95341">
        <ele>387.2</ele>
        <time>2023-05-07T09:37:33Z</time>
      </trkpt>
      <trkpt lat="47.1214" lon="5.95346">
        <ele>386.4</ele>
        <time>2023-05-07T09:37:36Z</time>
      </trkpt>
      <trkpt lat="47.12136" lon="5.95347">
        <ele>386</ele>
        <time>2023-05-07T09:37:37Z</time>
      </trkpt>
      <trkpt lat="47.12132" lon="5.95349">
        <ele>385.6</ele>
        <time>2023-05-07T09:37:38Z</time>
      </trkpt>
      <trkpt lat="47.12118" lon="5.95358">
        <ele>384.8</ele>
        <time>2023-05-07T09:37:41Z</time>
      </trkpt>
      <trkpt lat="47.12114" lon="5.9536">
        <ele>384.4</ele>
        <time>2023-05-07T09:37:42Z</time>
      </trkpt>
      <trkpt lat="47.12098" lon="5.95368">
        <ele>383.4</ele>
        <time>2023-05-07T09:37:45Z</time>
      </trkpt>
      <trkpt lat="47.1209" lon="5.95373">
        <ele>382.6</ele>
        <time>2023-05-07T09:37:47Z</time>
      </trkpt>
      <trkpt lat="47.12086" lon="5.95377">
        <ele>382.2</ele>
        <time>2023-05-07T09:37:48Z</time>
      </trkpt>
      <trkpt lat="47.12078" lon="5.95394">
        <ele>380.8</ele>
        <time>2023-05-07T09:37:51Z</time>
      </trkpt>
      <trkpt lat="47.12069" lon="5.95403">
        <ele>379.6</ele>
        <time>2023-05-07T09:37:53Z</time>
      </trkpt>
      <trkpt lat="47.12063" lon="5.95405">
        <ele>379.2</ele>
        <time>2023-05-07T09:37:54Z</time>
      </trkpt>
      <trkpt lat="47.12057" lon="5.95407">
        <ele>378.4</ele>
        <time>2023-05-07T09:37:55Z</time>
      </trkpt>
      <trkpt lat="47.12046" lon="5.95416">
        <ele>377</ele>
        <time>2023-05-07T09:37:57Z</time>
      </trkpt>
      <trkpt lat="47.12041" lon="5.95421">
        <ele>376.2</ele>
        <time>2023-05-07T09:37:58Z</time>
      </trkpt>
      <trkpt lat="47.12035" lon="5.95426">
        <ele>375.4</ele>
        <time>2023-05-07T09:37:59Z</time>
      </trkpt>
      <trkpt lat="47.12025" lon="5.95438">
        <ele>374</ele>
        <time>2023-05-07T09:38:01Z</time>
      </trkpt>
      <trkpt lat="47.1202" lon="5.95442">
        <ele>373.4</ele>
        <time>2023-05-07T09:38:02Z</time>
      </trkpt>
      <trkpt lat="47.12014" lon="5.95445">
        <ele>372.6</ele>
        <time>2023-05-07T09:38:03Z</time>
      </trkpt>
      <trkpt lat="47.12003" lon="5.95446">
        <ele>371</ele>
        <time>2023-05-07T09:38:05Z</time>
      </trkpt>
      <trkpt lat="47.11997" lon="5.95447">
        <ele>370.2</ele>
        <time>2023-05-07T09:38:06Z</time>
      </trkpt>
      <trkpt lat="47.11991" lon="5.95449">
        <ele>369.6</ele>
        <time>2023-05-07T09:38:07Z</time>
      </trkpt>
      <trkpt lat="47.11981" lon="5.95451">
        <ele>368.2</ele>
        <time>2023-05-07T09:38:09Z</time>
      </trkpt>
      <trkpt lat="47.11974" lon="5.95457">
        <ele>366.8</ele>
        <time>2023-05-07T09:38:11Z</time>
      </trkpt>
      <trkpt lat="47.11967" lon="5.95466">
        <ele>365.2</ele>
        <time>2023-05-07T09:38:13Z</time>
      </trkpt>
      <trkpt lat="47.11958" lon="5.95476">
        <ele>363.4</ele>
        <time>2023-05-07T09:38:15Z</time>
      </trkpt>
      <trkpt lat="47.11949" lon="5.95489">
        <ele>361.4</ele>
        <time>2023-05-07T09:38:17Z</time>
      </trkpt>
      <trkpt lat="47.11945" lon="5.95496">
        <ele>360.6</ele>
        <time>2023-05-07T09:38:18Z</time>
      </trkpt>
      <trkpt lat="47.1194" lon="5.95504">
        <ele>359.8</ele>
        <time>2023-05-07T09:38:19Z</time>
      </trkpt>
      <trkpt lat="47.11936" lon="5.95512">
        <ele>358.8</ele>
        <time>2023-05-07T09:38:20Z</time>
      </trkpt>
      <trkpt lat="47.11931" lon="5.95521">
        <ele>358</ele>
        <time>2023-05-07T09:38:21Z</time>
      </trkpt>
      <trkpt lat="47.11923" lon="5.95539">
        <ele>356.2</ele>
        <time>2023-05-07T09:38:23Z</time>
      </trkpt>
      <trkpt lat="47.11922" lon="5.95559">
        <ele>355</ele>
        <time>2023-05-07T09:38:25Z</time>
      </trkpt>
      <trkpt lat="47.11926" lon="5.95587">
        <ele>354.6</ele>
        <time>2023-05-07T09:38:28Z</time>
      </trkpt>
      <trkpt lat="47.11925" lon="5.95596">
        <ele>354.6</ele>
        <time>2023-05-07T09:38:29Z</time>
      </trkpt>
      <trkpt lat="47.11921" lon="5.95626">
        <ele>355.6</ele>
        <time>2023-05-07T09:38:33Z</time>
      </trkpt>
      <trkpt lat="47.1192" lon="5.95633">
        <ele>356</ele>
        <time>2023-05-07T09:38:34Z</time>
      </trkpt>
      <trkpt lat="47.11917" lon="5.95639">
        <ele>356.8</ele>
        <time>2023-05-07T09:38:35Z</time>
      </trkpt>
      <trkpt lat="47.11912" lon="5.95651">
        <ele>357.2</ele>
        <time>2023-05-07T09:38:37Z</time>
      </trkpt>
      <trkpt lat="47.11909" lon="5.95657">
        <ele>357.2</ele>
        <time>2023-05-07T09:38:38Z</time>
      </trkpt>
      <trkpt lat="47.11903" lon="5.95669">
        <ele>357.4</ele>
        <time>2023-05-07T09:38:40Z</time>
      </trkpt>
      <trkpt lat="47.11893" lon="5.95675">
        <ele>357.6</ele>
        <time>2023-05-07T09:38:42Z</time>
      </trkpt>
      <trkpt lat="47.11874" lon="5.95668">
        <ele>357.6</ele>
        <time>2023-05-07T09:38:45Z</time>
      </trkpt>
      <trkpt lat="47.11835" lon="5.95654">
        <ele>357.6</ele>
        <time>2023-05-07T09:38:50Z</time>
      </trkpt>
      <trkpt lat="47.11782" lon="5.95638">
        <ele>356.2</ele>
        <time>2023-05-07T09:38:56Z</time>
      </trkpt>
      <trkpt lat="47.11772" lon="5.95635">
        <ele>355.8</ele>
        <time>2023-05-07T09:38:57Z</time>
      </trkpt>
      <trkpt lat="47.11763" lon="5.95633">
        <ele>355.8</ele>
        <time>2023-05-07T09:38:58Z</time>
      </trkpt>
      <trkpt lat="47.11704" lon="5.95618">
        <ele>354.6</ele>
        <time>2023-05-07T09:39:04Z</time>
      </trkpt>
      <trkpt lat="47.11675" lon="5.95611">
        <ele>353.6</ele>
        <time>2023-05-07T09:39:07Z</time>
      </trkpt>
      <trkpt lat="47.11643" lon="5.95604">
        <ele>352.2</ele>
        <time>2023-05-07T09:39:10Z</time>
      </trkpt>
      <trkpt lat="47.11621" lon="5.956">
        <ele>351.2</ele>
        <time>2023-05-07T09:39:12Z</time>
      </trkpt>
      <trkpt lat="47.1161" lon="5.956">
        <ele>350.6</ele>
        <time>2023-05-07T09:39:13Z</time>
      </trkpt>
      <trkpt lat="47.11599" lon="5.95602">
        <ele>350</ele>
        <time>2023-05-07T09:39:14Z</time>
      </trkpt>
      <trkpt lat="47.11588" lon="5.95605">
        <ele>349.2</ele>
        <time>2023-05-07T09:39:15Z</time>
      </trkpt>
      <trkpt lat="47.11566" lon="5.95612">
        <ele>348</ele>
        <time>2023-05-07T09:39:17Z</time>
      </trkpt>
      <trkpt lat="47.11536" lon="5.95623">
        <ele>346.6</ele>
        <time>2023-05-07T09:39:20Z</time>
      </trkpt>
      <trkpt lat="47.11504" lon="5.95644">
        <ele>346.6</ele>
        <time>2023-05-07T09:39:24Z</time>
      </trkpt>
      <trkpt lat="47.11475" lon="5.95673">
        <ele>347</ele>
        <time>2023-05-07T09:39:29Z</time>
      </trkpt>
      <trkpt lat="47.11459" lon="5.95685">
        <ele>347.2</ele>
        <time>2023-05-07T09:39:32Z</time>
      </trkpt>
      <trkpt lat="47.1145" lon="5.95696">
        <ele>347.6</ele>
        <time>2023-05-07T09:39:34Z</time>
      </trkpt>
      <trkpt lat="47.11444" lon="5.95709">
        <ele>348.2</ele>
        <time>2023-05-07T09:39:36Z</time>
      </trkpt>
      <trkpt lat="47.11443" lon="5.95715">
        <ele>348.8</ele>
        <time>2023-05-07T09:39:37Z</time>
      </trkpt>
      <trkpt lat="47.1144" lon="5.95722">
        <ele>348.8</ele>
        <time>2023-05-07T09:39:38Z</time>
      </trkpt>
      <trkpt lat="47.11437" lon="5.95728">
        <ele>348.8</ele>
        <time>2023-05-07T09:39:39Z</time>
      </trkpt>
      <trkpt lat="47.11427" lon="5.95743">
        <ele>348.4</ele>
        <time>2023-05-07T09:39:41Z</time>
      </trkpt>
      <trkpt lat="47.11407" lon="5.9577">
        <ele>346.6</ele>
        <time>2023-05-07T09:39:45Z</time>
      </trkpt>
      <trkpt lat="47.11404" lon="5.95777">
        <ele>346</ele>
        <time>2023-05-07T09:39:46Z</time>
      </trkpt>
      <trkpt lat="47.114" lon="5.95784">
        <ele>345.6</ele>
        <time>2023-05-07T09:39:47Z</time>
      </trkpt>
      <trkpt lat="47.11391" lon="5.95796">
        <ele>344</ele>
        <time>2023-05-07T09:39:49Z</time>
      </trkpt>
      <trkpt lat="47.11382" lon="5.95809">
        <ele>342.4</ele>
        <time>2023-05-07T09:39:51Z</time>
      </trkpt>
      <trkpt lat="47.11377" lon="5.95816">
        <ele>341.4</ele>
        <time>2023-05-07T09:39:52Z</time>
      </trkpt>
      <trkpt lat="47.11372" lon="5.95822">
        <ele>340.2</ele>
        <time>2023-05-07T09:39:53Z</time>
      </trkpt>
      <trkpt lat="47.11367" lon="5.95829">
        <ele>339.2</ele>
        <time>2023-05-07T09:39:54Z</time>
      </trkpt>
      <trkpt lat="47.11361" lon="5.95835">
        <ele>338</ele>
        <time>2023-05-07T09:39:55Z</time>
      </trkpt>
      <trkpt lat="47.11355" lon="5.95841">
        <ele>336.6</ele>
        <time>2023-05-07T09:39:56Z</time>
      </trkpt>
      <trkpt lat="47.11348" lon="5.95846">
        <ele>335.4</ele>
        <time>2023-05-07T09:39:57Z</time>
      </trkpt>
      <trkpt lat="47.11342" lon="5.95851">
        <ele>334.2</ele>
        <time>2023-05-07T09:39:58Z</time>
      </trkpt>
      <trkpt lat="47.11335" lon="5.95855">
        <ele>333</ele>
        <time>2023-05-07T09:39:59Z</time>
      </trkpt>
      <trkpt lat="47.11329" lon="5.95859">
        <ele>331.6</ele>
        <time>2023-05-07T09:40:00Z</time>
      </trkpt>
      <trkpt lat="47.11321" lon="5.95862">
        <ele>330.4</ele>
        <time>2023-05-07T09:40:01Z</time>
      </trkpt>
      <trkpt lat="47.11314" lon="5.95866">
        <ele>329.2</ele>
        <time>2023-05-07T09:40:02Z</time>
      </trkpt>
      <trkpt lat="47.11307" lon="5.9587">
        <ele>327.8</ele>
        <time>2023-05-07T09:40:03Z</time>
      </trkpt>
      <trkpt lat="47.11299" lon="5.95873">
        <ele>326.4</ele>
        <time>2023-05-07T09:40:04Z</time>
      </trkpt>
      <trkpt lat="47.11293" lon="5.95876">
        <ele>325.2</ele>
        <time>2023-05-07T09:40:05Z</time>
      </trkpt>
      <trkpt lat="47.11285" lon="5.9588">
        <ele>323.8</ele>
        <time>2023-05-07T09:40:06Z</time>
      </trkpt>
      <trkpt lat="47.11277" lon="5.95886">
        <ele>322.4</ele>
        <time>2023-05-07T09:40:07Z</time>
      </trkpt>
      <trkpt lat="47.11269" lon="5.95893">
        <ele>321</ele>
        <time>2023-05-07T09:40:08Z</time>
      </trkpt>
      <trkpt lat="47.11261" lon="5.959">
        <ele>319.6</ele>
        <time>2023-05-07T09:40:09Z</time>
      </trkpt>
      <trkpt lat="47.11252" lon="5.95907">
        <ele>318.2</ele>
        <time>2023-05-07T09:40:10Z</time>
      </trkpt>
      <trkpt lat="47.11243" lon="5.95913">
        <ele>316.8</ele>
        <time>2023-05-07T09:40:11Z</time>
      </trkpt>
      <trkpt lat="47.11236" lon="5.95919">
        <ele>315.4</ele>
        <time>2023-05-07T09:40:12Z</time>
      </trkpt>
      <trkpt lat="47.11228" lon="5.95925">
        <ele>314</ele>
        <time>2023-05-07T09:40:13Z</time>
      </trkpt>
      <trkpt lat="47.1122" lon="5.95931">
        <ele>312.6</ele>
        <time>2023-05-07T09:40:14Z</time>
      </trkpt>
      <trkpt lat="47.11214" lon="5.95938">
        <ele>311.2</ele>
        <time>2023-05-07T09:40:15Z</time>
      </trkpt>
      <trkpt lat="47.11209" lon="5.95943">
        <ele>309.6</ele>
        <time>2023-05-07T09:40:16Z</time>
      </trkpt>
      <trkpt lat="47.11205" lon="5.95947">
        <ele>308.2</ele>
        <time>2023-05-07T09:40:17Z</time>
      </trkpt>
      <trkpt lat="47.11201" lon="5.95951">
        <ele>306.6</ele>
        <time>2023-05-07T09:40:18Z</time>
      </trkpt>
      <trkpt lat="47.11196" lon="5.95955">
        <ele>305.2</ele>
        <time>2023-05-07T09:40:19Z</time>
      </trkpt>
      <trkpt lat="47.11193" lon="5.95958">
        <ele>303.8</ele>
        <time>2023-05-07T09:40:20Z</time>
      </trkpt>
      <trkpt lat="47.1119" lon="5.95961">
        <ele>302.2</ele>
        <time>2023-05-07T09:40:21Z</time>
      </trkpt>
      <trkpt lat="47.11187" lon="5.95964">
        <ele>301</ele>
        <time>2023-05-07T09:40:22Z</time>
      </trkpt>
      <trkpt lat="47.11186" lon="5.95966">
        <ele>299.8</ele>
        <time>2023-05-07T09:40:23Z</time>
      </trkpt>
      <trkpt lat="47.11185" lon="5.95969">
        <ele>298.6</ele>
        <time>2023-05-07T09:40:24Z</time>
      </trkpt>
      <trkpt lat="47.11184" lon="5.95975">
        <ele>296.6</ele>
        <time>2023-05-07T09:40:26Z</time>
      </trkpt>
      <trkpt lat="47.11186" lon="5.95979">
        <ele>295.6</ele>
        <time>2023-05-07T09:40:27Z</time>
      </trkpt>
      <trkpt lat="47.11189" lon="5.95981">
        <ele>294.6</ele>
        <time>2023-05-07T09:40:28Z</time>
      </trkpt>
      <trkpt lat="47.11191" lon="5.95982">
        <ele>293.6</ele>
        <time>2023-05-07T09:40:29Z</time>
      </trkpt>
      <trkpt lat="47.11195" lon="5.95985">
        <ele>291.8</ele>
        <time>2023-05-07T09:40:31Z</time>
      </trkpt>
      <trkpt lat="47.11201" lon="5.95986">
        <ele>289.8</ele>
        <time>2023-05-07T09:40:33Z</time>
      </trkpt>
      <trkpt lat="47.11207" lon="5.95988">
        <ele>287.8</ele>
        <time>2023-05-07T09:40:35Z</time>
      </trkpt>
      <trkpt lat="47.11216" lon="5.95989">
        <ele>286</ele>
        <time>2023-05-07T09:40:37Z</time>
      </trkpt>
      <trkpt lat="47.11225" lon="5.95991">
        <ele>284.4</ele>
        <time>2023-05-07T09:40:39Z</time>
      </trkpt>
      <trkpt lat="47.11231" lon="5.95993">
        <ele>283.6</ele>
        <time>2023-05-07T09:40:40Z</time>
      </trkpt>
      <trkpt lat="47.11236" lon="5.95995">
        <ele>282.8</ele>
        <time>2023-05-07T09:40:41Z</time>
      </trkpt>
      <trkpt lat="47.11249" lon="5.96001">
        <ele>281.2</ele>
        <time>2023-05-07T09:40:43Z</time>
      </trkpt>
      <trkpt lat="47.11257" lon="5.96004">
        <ele>280.2</ele>
        <time>2023-05-07T09:40:44Z</time>
      </trkpt>
      <trkpt lat="47.11264" lon="5.96007">
        <ele>279.4</ele>
        <time>2023-05-07T09:40:45Z</time>
      </trkpt>
      <trkpt lat="47.11281" lon="5.96011">
        <ele>277.6</ele>
        <time>2023-05-07T09:40:47Z</time>
      </trkpt>
      <trkpt lat="47.113" lon="5.96013">
        <ele>275.6</ele>
        <time>2023-05-07T09:40:49Z</time>
      </trkpt>
      <trkpt lat="47.1132" lon="5.96016">
        <ele>274</ele>
        <time>2023-05-07T09:40:51Z</time>
      </trkpt>
      <trkpt lat="47.1134" lon="5.96018">
        <ele>272.6</ele>
        <time>2023-05-07T09:40:53Z</time>
      </trkpt>
      <trkpt lat="47.11351" lon="5.96017">
        <ele>271.8</ele>
        <time>2023-05-07T09:40:54Z</time>
      </trkpt>
      <trkpt lat="47.11359" lon="5.96013">
        <ele>270.8</ele>
        <time>2023-05-07T09:40:55Z</time>
      </trkpt>
      <trkpt lat="47.11374" lon="5.96007">
        <ele>269</ele>
        <time>2023-05-07T09:40:57Z</time>
      </trkpt>
      <trkpt lat="47.1139" lon="5.96008">
        <ele>267.6</ele>
        <time>2023-05-07T09:40:59Z</time>
      </trkpt>
      <trkpt lat="47.11411" lon="5.96013">
        <ele>266.6</ele>
        <time>2023-05-07T09:41:02Z</time>
      </trkpt>
      <trkpt lat="47.11416" lon="5.96012">
        <ele>266</ele>
        <time>2023-05-07T09:41:03Z</time>
      </trkpt>
      <trkpt lat="47.11422" lon="5.96011">
        <ele>265.4</ele>
        <time>2023-05-07T09:41:04Z</time>
      </trkpt>
      <trkpt lat="47.11434" lon="5.96009">
        <ele>264</ele>
        <time>2023-05-07T09:41:06Z</time>
      </trkpt>
      <trkpt lat="47.11446" lon="5.96">
        <ele>262.2</ele>
        <time>2023-05-07T09:41:08Z</time>
      </trkpt>
      <trkpt lat="47.11457" lon="5.95995">
        <ele>260.8</ele>
        <time>2023-05-07T09:41:10Z</time>
      </trkpt>
      <trkpt lat="47.11463" lon="5.95993">
        <ele>260.2</ele>
        <time>2023-05-07T09:41:11Z</time>
      </trkpt>
      <trkpt lat="47.1147" lon="5.95991">
        <ele>259.2</ele>
        <time>2023-05-07T09:41:12Z</time>
      </trkpt>
      <trkpt lat="47.11483" lon="5.9599">
        <ele>257.6</ele>
        <time>2023-05-07T09:41:14Z</time>
      </trkpt>
      <trkpt lat="47.11497" lon="5.95986">
        <ele>255.6</ele>
        <time>2023-05-07T09:41:16Z</time>
      </trkpt>
      <trkpt lat="47.11503" lon="5.95983">
        <ele>254.6</ele>
        <time>2023-05-07T09:41:17Z</time>
      </trkpt>
      <trkpt lat="47.11517" lon="5.95976">
        <ele>252.6</ele>
        <time>2023-05-07T09:41:19Z</time>
      </trkpt>
      <trkpt lat="47.11523" lon="5.95973">
        <ele>251.4</ele>
        <time>2023-05-07T09:41:20Z</time>
      </trkpt>
      <trkpt lat="47.11531" lon="5.95969">
        <ele>250.4</ele>
        <time>2023-05-07T09:41:21Z</time>
      </trkpt>
      <trkpt lat="47.11537" lon="5.95966">
        <ele>249.2</ele>
        <time>2023-05-07T09:41:22Z</time>
      </trkpt>
      <trkpt lat="47.11544" lon="5.95962">
        <ele>248</ele>
        <time>2023-05-07T09:41:23Z</time>
      </trkpt>
      <trkpt lat="47.11551" lon="5.95957">
        <ele>246.8</ele>
        <time>2023-05-07T09:41:24Z</time>
      </trkpt>
      <trkpt lat="47.11558" lon="5.95953">
        <ele>245.8</ele>
        <time>2023-05-07T09:41:25Z</time>
      </trkpt>
      <trkpt lat="47.11564" lon="5.95949">
        <ele>244.6</ele>
        <time>2023-05-07T09:41:26Z</time>
      </trkpt>
      <trkpt lat="47.11582" lon="5.95936">
        <ele>244.6</ele>
        <time>2023-05-07T09:41:29Z</time>
      </trkpt>
      <trkpt lat="47.11618" lon="5.95907">
        <ele>245</ele>
        <time>2023-05-07T09:41:35Z</time>
      </trkpt>
      <trkpt lat="47.11627" lon="5.95895">
        <ele>245.4</ele>
        <time>2023-05-07T09:41:37Z</time>
      </trkpt>
      <trkpt lat="47.11632" lon="5.95889">
        <ele>246</ele>
        <time>2023-05-07T09:41:38Z</time>
      </trkpt>
      <trkpt lat="47.11637" lon="5.95884">
        <ele>246.4</ele>
        <time>2023-05-07T09:41:39Z</time>
      </trkpt>
      <trkpt lat="47.11648" lon="5.95878">
        <ele>247.6</ele>
        <time>2023-05-07T09:41:41Z</time>
      </trkpt>
      <trkpt lat="47.11656" lon="5.95877">
        <ele>249.2</ele>
        <time>2023-05-07T09:41:43Z</time>
      </trkpt>
      <trkpt lat="47.1166" lon="5.95877">
        <ele>250.4</ele>
        <time>2023-05-07T09:41:44Z</time>
      </trkpt>
      <trkpt lat="47.11664" lon="5.95878">
        <ele>251.4</ele>
        <time>2023-05-07T09:41:45Z</time>
      </trkpt>
      <trkpt lat="47.11667" lon="5.95879">
        <ele>252.4</ele>
        <time>2023-05-07T09:41:46Z</time>
      </trkpt>
      <trkpt lat="47.11671" lon="5.95879">
        <ele>253.2</ele>
        <time>2023-05-07T09:41:47Z</time>
      </trkpt>
      <trkpt lat="47.11678" lon="5.95878">
        <ele>254.8</ele>
        <time>2023-05-07T09:41:49Z</time>
      </trkpt>
      <trkpt lat="47.11683" lon="5.95878">
        <ele>255.8</ele>
        <time>2023-05-07T09:41:50Z</time>
      </trkpt>
      <trkpt lat="47.11687" lon="5.95879">
        <ele>256.6</ele>
        <time>2023-05-07T09:41:51Z</time>
      </trkpt>
      <trkpt lat="47.11693" lon="5.95879">
        <ele>257.8</ele>
        <time>2023-05-07T09:41:52Z</time>
      </trkpt>
      <trkpt lat="47.11704" lon="5.9588">
        <ele>259.4</ele>
        <time>2023-05-07T09:41:54Z</time>
      </trkpt>
      <trkpt lat="47.11709" lon="5.9588">
        <ele>260</ele>
        <time>2023-05-07T09:41:55Z</time>
      </trkpt>
      <trkpt lat="47.11715" lon="5.9588">
        <ele>260.6</ele>
        <time>2023-05-07T09:41:56Z</time>
      </trkpt>
      <trkpt lat="47.11725" lon="5.95881">
        <ele>261.6</ele>
        <time>2023-05-07T09:41:58Z</time>
      </trkpt>
      <trkpt lat="47.1174" lon="5.95882">
        <ele>263</ele>
        <time>2023-05-07T09:42:01Z</time>
      </trkpt>
      <trkpt lat="47.11745" lon="5.95883">
        <ele>263.4</ele>
        <time>2023-05-07T09:42:02Z</time>
      </trkpt>
      <trkpt lat="47.11755" lon="5.95885">
        <ele>264.2</ele>
        <time>2023-05-07T09:42:04Z</time>
      </trkpt>
      <trkpt lat="47.11776" lon="5.95891">
        <ele>265.8</ele>
        <time>2023-05-07T09:42:08Z</time>
      </trkpt>
      <trkpt lat="47.11782" lon="5.95895">
        <ele>266.6</ele>
        <time>2023-05-07T09:42:09Z</time>
      </trkpt>
      <trkpt lat="47.11787" lon="5.95899">
        <ele>266.6</ele>
        <time>2023-05-07T09:42:10Z</time>
      </trkpt>
      <trkpt lat="47.11792" lon="5.95904">
        <ele>267</ele>
        <time>2023-05-07T09:42:11Z</time>
      </trkpt>
      <trkpt lat="47.11807" lon="5.95915">
        <ele>267.4</ele>
        <time>2023-05-07T09:42:14Z</time>
      </trkpt>
      <trkpt lat="47.11817" lon="5.95922">
        <ele>268.2</ele>
        <time>2023-05-07T09:42:16Z</time>
      </trkpt>
      <trkpt lat="47.11826" lon="5.95931">
        <ele>269.2</ele>
        <time>2023-05-07T09:42:18Z</time>
      </trkpt>
      <trkpt lat="47.1183" lon="5.95936">
        <ele>270</ele>
        <time>2023-05-07T09:42:19Z</time>
      </trkpt>
      <trkpt lat="47.11834" lon="5.95941">
        <ele>270.6</ele>
        <time>2023-05-07T09:42:20Z</time>
      </trkpt>
      <trkpt lat="47.11843" lon="5.95953">
        <ele>271.8</ele>
        <time>2023-05-07T09:42:22Z</time>
      </trkpt>
      <trkpt lat="47.11856" lon="5.95968">
        <ele>273.2</ele>
        <time>2023-05-07T09:42:25Z</time>
      </trkpt>
      <trkpt lat="47.1186" lon="5.95973">
        <ele>273.2</ele>
        <time>2023-05-07T09:42:26Z</time>
      </trkpt>
      <trkpt lat="47.11866" lon="5.95983">
        <ele>273.8</ele>
        <time>2023-05-07T09:42:28Z</time>
      </trkpt>
      <trkpt lat="47.1187" lon="5.95989">
        <ele>274.4</ele>
        <time>2023-05-07T09:42:29Z</time>
      </trkpt>
      <trkpt lat="47.11877" lon="5.96">
        <ele>275.4</ele>
        <time>2023-05-07T09:42:31Z</time>
      </trkpt>
      <trkpt lat="47.11881" lon="5.96005">
        <ele>275.8</ele>
        <time>2023-05-07T09:42:32Z</time>
      </trkpt>
      <trkpt lat="47.11888" lon="5.96015">
        <ele>276.4</ele>
        <time>2023-05-07T09:42:34Z</time>
      </trkpt>
      <trkpt lat="47.119" lon="5.96038">
        <ele>277.2</ele>
        <time>2023-05-07T09:42:38Z</time>
      </trkpt>
      <trkpt lat="47.11903" lon="5.96044">
        <ele>277.6</ele>
        <time>2023-05-07T09:42:39Z</time>
      </trkpt>
      <trkpt lat="47.1191" lon="5.96058">
        <ele>279</ele>
        <time>2023-05-07T09:42:41Z</time>
      </trkpt>
      <trkpt lat="47.11916" lon="5.96073">
        <ele>280.4</ele>
        <time>2023-05-07T09:42:43Z</time>
      </trkpt>
      <trkpt lat="47.11923" lon="5.96086">
        <ele>281.4</ele>
        <time>2023-05-07T09:42:45Z</time>
      </trkpt>
      <trkpt lat="47.11929" lon="5.961">
        <ele>282.6</ele>
        <time>2023-05-07T09:42:47Z</time>
      </trkpt>
      <trkpt lat="47.1194" lon="5.96122">
        <ele>283.8</ele>
        <time>2023-05-07T09:42:50Z</time>
      </trkpt>
      <trkpt lat="47.11944" lon="5.96129">
        <ele>284</ele>
        <time>2023-05-07T09:42:51Z</time>
      </trkpt>
      <trkpt lat="47.1195" lon="5.96145">
        <ele>284.8</ele>
        <time>2023-05-07T09:42:53Z</time>
      </trkpt>
      <trkpt lat="47.11966" lon="5.96175">
        <ele>285.8</ele>
        <time>2023-05-07T09:42:57Z</time>
      </trkpt>
      <trkpt lat="47.11969" lon="5.96183">
        <ele>286.2</ele>
        <time>2023-05-07T09:42:58Z</time>
      </trkpt>
      <trkpt lat="47.11977" lon="5.96199">
        <ele>287</ele>
        <time>2023-05-07T09:43:00Z</time>
      </trkpt>
      <trkpt lat="47.11987" lon="5.96217">
        <ele>288.6</ele>
        <time>2023-05-07T09:43:03Z</time>
      </trkpt>
      <trkpt lat="47.1199" lon="5.96222">
        <ele>289.2</ele>
        <time>2023-05-07T09:43:04Z</time>
      </trkpt>
      <trkpt lat="47.11993" lon="5.96229">
        <ele>290</ele>
        <time>2023-05-07T09:43:05Z</time>
      </trkpt>
      <trkpt lat="47.11999" lon="5.9624">
        <ele>291</ele>
        <time>2023-05-07T09:43:07Z</time>
      </trkpt>
      <trkpt lat="47.12006" lon="5.9625">
        <ele>292.2</ele>
        <time>2023-05-07T09:43:09Z</time>
      </trkpt>
      <trkpt lat="47.12009" lon="5.96255">
        <ele>292.8</ele>
        <time>2023-05-07T09:43:10Z</time>
      </trkpt>
      <trkpt lat="47.12012" lon="5.96261">
        <ele>293.6</ele>
        <time>2023-05-07T09:43:11Z</time>
      </trkpt>
      <trkpt lat="47.12017" lon="5.9627">
        <ele>294.8</ele>
        <time>2023-05-07T09:43:13Z</time>
      </trkpt>
      <trkpt lat="47.12022" lon="5.96279">
        <ele>296.4</ele>
        <time>2023-05-07T09:43:15Z</time>
      </trkpt>
      <trkpt lat="47.12025" lon="5.9629">
        <ele>297.6</ele>
        <time>2023-05-07T09:43:17Z</time>
      </trkpt>
      <trkpt lat="47.1203" lon="5.963">
        <ele>298.8</ele>
        <time>2023-05-07T09:43:19Z</time>
      </trkpt>
      <trkpt lat="47.12032" lon="5.96304">
        <ele>299.4</ele>
        <time>2023-05-07T09:43:20Z</time>
      </trkpt>
      <trkpt lat="47.12034" lon="5.96309">
        <ele>299.8</ele>
        <time>2023-05-07T09:43:21Z</time>
      </trkpt>
      <trkpt lat="47.12037" lon="5.96316">
        <ele>301.2</ele>
        <time>2023-05-07T09:43:23Z</time>
      </trkpt>
      <trkpt lat="47.12041" lon="5.96323">
        <ele>302.6</ele>
        <time>2023-05-07T09:43:25Z</time>
      </trkpt>
      <trkpt lat="47.12044" lon="5.96329">
        <ele>304.2</ele>
        <time>2023-05-07T09:43:27Z</time>
      </trkpt>
      <trkpt lat="47.12048" lon="5.96335">
        <ele>305.6</ele>
        <time>2023-05-07T09:43:29Z</time>
      </trkpt>
      <trkpt lat="47.12054" lon="5.9634">
        <ele>307</ele>
        <time>2023-05-07T09:43:31Z</time>
      </trkpt>
      <trkpt lat="47.12058" lon="5.96345">
        <ele>308.6</ele>
        <time>2023-05-07T09:43:33Z</time>
      </trkpt>
      <trkpt lat="47.12063" lon="5.96351">
        <ele>310.2</ele>
        <time>2023-05-07T09:43:35Z</time>
      </trkpt>
      <trkpt lat="47.12069" lon="5.96358">
        <ele>312.2</ele>
        <time>2023-05-07T09:43:37Z</time>
      </trkpt>
      <trkpt lat="47.12071" lon="5.96361">
        <ele>313.2</ele>
        <time>2023-05-07T09:43:38Z</time>
      </trkpt>
      <trkpt lat="47.12076" lon="5.96367">
        <ele>314.6</ele>
        <time>2023-05-07T09:43:40Z</time>
      </trkpt>
      <trkpt lat="47.12086" lon="5.96376">
        <ele>316.2</ele>
        <time>2023-05-07T09:43:43Z</time>
      </trkpt>
      <trkpt lat="47.12092" lon="5.96382">
        <ele>317.4</ele>
        <time>2023-05-07T09:43:45Z</time>
      </trkpt>
      <trkpt lat="47.12098" lon="5.96388">
        <ele>318.8</ele>
        <time>2023-05-07T09:43:47Z</time>
      </trkpt>
      <trkpt lat="47.12101" lon="5.96391">
        <ele>319.6</ele>
        <time>2023-05-07T09:43:48Z</time>
      </trkpt>
      <trkpt lat="47.12103" lon="5.96394">
        <ele>320.4</ele>
        <time>2023-05-07T09:43:49Z</time>
      </trkpt>
      <trkpt lat="47.12108" lon="5.964">
        <ele>321.6</ele>
        <time>2023-05-07T09:43:51Z</time>
      </trkpt>
      <trkpt lat="47.12118" lon="5.9641">
        <ele>323</ele>
        <time>2023-05-07T09:43:55Z</time>
      </trkpt>
      <trkpt lat="47.12124" lon="5.96415">
        <ele>324</ele>
        <time>2023-05-07T09:43:57Z</time>
      </trkpt>
      <trkpt lat="47.12134" lon="5.96423">
        <ele>325.4</ele>
        <time>2023-05-07T09:44:00Z</time>
      </trkpt>
      <trkpt lat="47.1214" lon="5.96427">
        <ele>326.4</ele>
        <time>2023-05-07T09:44:02Z</time>
      </trkpt>
      <trkpt lat="47.12143" lon="5.96429">
        <ele>327</ele>
        <time>2023-05-07T09:44:03Z</time>
      </trkpt>
      <trkpt lat="47.12153" lon="5.96436">
        <ele>328.2</ele>
        <time>2023-05-07T09:44:06Z</time>
      </trkpt>
      <trkpt lat="47.12162" lon="5.96442">
        <ele>329.6</ele>
        <time>2023-05-07T09:44:09Z</time>
      </trkpt>
      <trkpt lat="47.12172" lon="5.96447">
        <ele>330.6</ele>
        <time>2023-05-07T09:44:12Z</time>
      </trkpt>
      <trkpt lat="47.12186" lon="5.96458">
        <ele>331.2</ele>
        <time>2023-05-07T09:44:16Z</time>
      </trkpt>
      <trkpt lat="47.12207" lon="5.96471">
        <ele>331</ele>
        <time>2023-05-07T09:44:21Z</time>
      </trkpt>
      <trkpt lat="47.12217" lon="5.96477">
        <ele>329.6</ele>
        <time>2023-05-07T09:44:23Z</time>
      </trkpt>
      <trkpt lat="47.12232" lon="5.9649">
        <ele>328.2</ele>
        <time>2023-05-07T09:44:27Z</time>
      </trkpt>
      <trkpt lat="47.12241" lon="5.96498">
        <ele>328.2</ele>
        <time>2023-05-07T09:44:30Z</time>
      </trkpt>
      <trkpt lat="47.12261" lon="5.96518">
        <ele>328.8</ele>
        <time>2023-05-07T09:44:37Z</time>
      </trkpt>
      <trkpt lat="47.12266" lon="5.96523">
        <ele>329.4</ele>
        <time>2023-05-07T09:44:39Z</time>
      </trkpt>
      <trkpt lat="47.12272" lon="5.96528">
        <ele>330.4</ele>
        <time>2023-05-07T09:44:41Z</time>
      </trkpt>
      <trkpt lat="47.12277" lon="5.96533">
        <ele>331.2</ele>
        <time>2023-05-07T09:44:43Z</time>
      </trkpt>
      <trkpt lat="47.12285" lon="5.96542">
        <ele>332.2</ele>
        <time>2023-05-07T09:44:46Z</time>
      </trkpt>
      <trkpt lat="47.1229" lon="5.96546">
        <ele>333.6</ele>
        <time>2023-05-07T09:44:48Z</time>
      </trkpt>
      <trkpt lat="47.12297" lon="5.96551">
        <ele>334.8</ele>
        <time>2023-05-07T09:44:50Z</time>
      </trkpt>
      <trkpt lat="47.1231" lon="5.9656">
        <ele>336</ele>
        <time>2023-05-07T09:44:54Z</time>
      </trkpt>
      <trkpt lat="47.12323" lon="5.96569">
        <ele>337</ele>
        <time>2023-05-07T09:44:58Z</time>
      </trkpt>
      <trkpt lat="47.12325" lon="5.96571">
        <ele>337.4</ele>
        <time>2023-05-07T09:44:59Z</time>
      </trkpt>
      <trkpt lat="47.12339" lon="5.9658">
        <ele>338.4</ele>
        <time>2023-05-07T09:45:04Z</time>
      </trkpt>
      <trkpt lat="47.1235" lon="5.96587">
        <ele>339.8</ele>
        <time>2023-05-07T09:45:08Z</time>
      </trkpt>
      <trkpt lat="47.12358" lon="5.96591">
        <ele>340.8</ele>
        <time>2023-05-07T09:45:11Z</time>
      </trkpt>
      <trkpt lat="47.12367" lon="5.96596">
        <ele>341.8</ele>
        <time>2023-05-07T09:45:14Z</time>
      </trkpt>
      <trkpt lat="47.12378" lon="5.96603">
        <ele>341.8</ele>
        <time>2023-05-07T09:45:18Z</time>
      </trkpt>
      <trkpt lat="47.12395" lon="5.96615">
        <ele>341.8</ele>
        <time>2023-05-07T09:45:24Z</time>
      </trkpt>
      <trkpt lat="47.12413" lon="5.96627">
        <ele>340.8</ele>
        <time>2023-05-07T09:45:30Z</time>
      </trkpt>
      <trkpt lat="47.12417" lon="5.9663">
        <ele>340.6</ele>
        <time>2023-05-07T09:45:31Z</time>
      </trkpt>
      <trkpt lat="47.12442" lon="5.96647">
        <ele>339.8</ele>
        <time>2023-05-07T09:45:39Z</time>
      </trkpt>
      <trkpt lat="47.12453" lon="5.96652">
        <ele>339.6</ele>
        <time>2023-05-07T09:45:42Z</time>
      </trkpt>
      <trkpt lat="47.12466" lon="5.96658">
        <ele>339.4</ele>
        <time>2023-05-07T09:45:46Z</time>
      </trkpt>
      <trkpt lat="47.12479" lon="5.96663">
        <ele>338.6</ele>
        <time>2023-05-07T09:45:50Z</time>
      </trkpt>
      <trkpt lat="47.12489" lon="5.96663">
        <ele>337.8</ele>
        <time>2023-05-07T09:45:53Z</time>
      </trkpt>
      <trkpt lat="47.12492" lon="5.96664">
        <ele>337.4</ele>
        <time>2023-05-07T09:45:54Z</time>
      </trkpt>
      <trkpt lat="47.12504" lon="5.96665">
        <ele>336.2</ele>
        <time>2023-05-07T09:45:58Z</time>
      </trkpt>
      <trkpt lat="47.12507" lon="5.96664">
        <ele>336</ele>
        <time>2023-05-07T09:45:59Z</time>
      </trkpt>
      <trkpt lat="47.12523" lon="5.96664">
        <ele>335.4</ele>
        <time>2023-05-07T09:46:05Z</time>
      </trkpt>
      <trkpt lat="47.1253" lon="5.96664">
        <ele>335.2</ele>
        <time>2023-05-07T09:46:07Z</time>
      </trkpt>
      <trkpt lat="47.12546" lon="5.96664">
        <ele>335.6</ele>
        <time>2023-05-07T09:46:13Z</time>
      </trkpt>
      <trkpt lat="47.12555" lon="5.96667">
        <ele>336.2</ele>
        <time>2023-05-07T09:46:17Z</time>
      </trkpt>
      <trkpt lat="47.12562" lon="5.96668">
        <ele>336.6</ele>
        <time>2023-05-07T09:46:20Z</time>
      </trkpt>
      <trkpt lat="47.12573" lon="5.9667">
        <ele>337.2</ele>
        <time>2023-05-07T09:46:24Z</time>
      </trkpt>
      <trkpt lat="47.12585" lon="5.96671">
        <ele>337.6</ele>
        <time>2023-05-07T09:46:28Z</time>
      </trkpt>
      <trkpt lat="47.12604" lon="5.96673">
        <ele>338</ele>
        <time>2023-05-07T09:46:35Z</time>
      </trkpt>
      <trkpt lat="47.12636" lon="5.96664">
        <ele>337.6</ele>
        <time>2023-05-07T09:46:44Z</time>
      </trkpt>
      <trkpt lat="47.12658" lon="5.96655">
        <ele>336.8</ele>
        <time>2023-05-07T09:46:50Z</time>
      </trkpt>
      <trkpt lat="47.12674" lon="5.9665">
        <ele>336.2</ele>
        <time>2023-05-07T09:46:55Z</time>
      </trkpt>
      <trkpt lat="47.1268" lon="5.96648">
        <ele>336</ele>
        <time>2023-05-07T09:46:57Z</time>
      </trkpt>
      <trkpt lat="47.12709" lon="5.96637">
        <ele>335.6</ele>
        <time>2023-05-07T09:47:06Z</time>
      </trkpt>
      <trkpt lat="47.12728" lon="5.96627">
        <ele>336.2</ele>
        <time>2023-05-07T09:47:12Z</time>
      </trkpt>
      <trkpt lat="47.12741" lon="5.96613">
        <ele>336.4</ele>
        <time>2023-05-07T09:47:17Z</time>
      </trkpt>
      <trkpt lat="47.12755" lon="5.966">
        <ele>336</ele>
        <time>2023-05-07T09:47:22Z</time>
      </trkpt>
      <trkpt lat="47.12767" lon="5.96584">
        <ele>335.4</ele>
        <time>2023-05-07T09:47:27Z</time>
      </trkpt>
      <trkpt lat="47.12775" lon="5.96574">
        <ele>335.2</ele>
        <time>2023-05-07T09:47:30Z</time>
      </trkpt>
      <trkpt lat="47.12783" lon="5.96563">
        <ele>335</ele>
        <time>2023-05-07T09:47:33Z</time>
      </trkpt>
      <trkpt lat="47.12801" lon="5.96538">
        <ele>334.4</ele>
        <time>2023-05-07T09:47:41Z</time>
      </trkpt>
      <trkpt lat="47.12807" lon="5.9653">
        <ele>334</ele>
        <time>2023-05-07T09:47:44Z</time>
      </trkpt>
      <trkpt lat="47.12814" lon="5.96521">
        <ele>333.8</ele>
        <time>2023-05-07T09:47:47Z</time>
      </trkpt>
      <trkpt lat="47.12826" lon="5.96501">
        <ele>333</ele>
        <time>2023-05-07T09:47:52Z</time>
      </trkpt>
      <trkpt lat="47.1283" lon="5.96492">
        <ele>333</ele>
        <time>2023-05-07T09:47:54Z</time>
      </trkpt>
      <trkpt lat="47.12843" lon="5.96472">
        <ele>334</ele>
        <time>2023-05-07T09:47:59Z</time>
      </trkpt>
      <trkpt lat="47.12847" lon="5.96465">
        <ele>335</ele>
        <time>2023-05-07T09:48:01Z</time>
      </trkpt>
      <trkpt lat="47.1285" lon="5.96461">
        <ele>335.4</ele>
        <time>2023-05-07T09:48:02Z</time>
      </trkpt>
      <trkpt lat="47.12865" lon="5.96438">
        <ele>336.6</ele>
        <time>2023-05-07T09:48:09Z</time>
      </trkpt>
      <trkpt lat="47.12872" lon="5.96417">
        <ele>337.6</ele>
        <time>2023-05-07T09:48:14Z</time>
      </trkpt>
      <trkpt lat="47.12873" lon="5.96412">
        <ele>338</ele>
        <time>2023-05-07T09:48:15Z</time>
      </trkpt>
      <trkpt lat="47.12876" lon="5.9639">
        <ele>339</ele>
        <time>2023-05-07T09:48:20Z</time>
      </trkpt>
      <trkpt lat="47.12876" lon="5.96386">
        <ele>339.4</ele>
        <time>2023-05-07T09:48:21Z</time>
      </trkpt>
      <trkpt lat="47.12876" lon="5.96377">
        <ele>340.2</ele>
        <time>2023-05-07T09:48:23Z</time>
      </trkpt>
      <trkpt lat="47.12875" lon="5.9637">
        <ele>341.2</ele>
        <time>2023-05-07T09:48:25Z</time>
      </trkpt>
      <trkpt lat="47.12873" lon="5.96363">
        <ele>342.2</ele>
        <time>2023-05-07T09:48:27Z</time>
      </trkpt>
      <trkpt lat="47.12873" lon="5.96359">
        <ele>342.8</ele>
        <time>2023-05-07T09:48:28Z</time>
      </trkpt>
      <trkpt lat="47.1287" lon="5.9635">
        <ele>344</ele>
        <time>2023-05-07T09:48:30Z</time>
      </trkpt>
      <trkpt lat="47.12868" lon="5.96341">
        <ele>345.2</ele>
        <time>2023-05-07T09:48:32Z</time>
      </trkpt>
      <trkpt lat="47.12866" lon="5.96332">
        <ele>346.6</ele>
        <time>2023-05-07T09:48:34Z</time>
      </trkpt>
      <trkpt lat="47.12865" lon="5.96327">
        <ele>347.4</ele>
        <time>2023-05-07T09:48:35Z</time>
      </trkpt>
      <trkpt lat="47.12864" lon="5.96323">
        <ele>348.4</ele>
        <time>2023-05-07T09:48:36Z</time>
      </trkpt>
      <trkpt lat="47.12862" lon="5.96314">
        <ele>349.8</ele>
        <time>2023-05-07T09:48:38Z</time>
      </trkpt>
      <trkpt lat="47.1286" lon="5.96305">
        <ele>351.8</ele>
        <time>2023-05-07T09:48:40Z</time>
      </trkpt>
      <trkpt lat="47.1286" lon="5.96301">
        <ele>353</ele>
        <time>2023-05-07T09:48:41Z</time>
      </trkpt>
      <trkpt lat="47.12859" lon="5.96293">
        <ele>354.4</ele>
        <time>2023-05-07T09:48:43Z</time>
      </trkpt>
      <trkpt lat="47.12859" lon="5.96284">
        <ele>356</ele>
        <time>2023-05-07T09:48:45Z</time>
      </trkpt>
      <trkpt lat="47.12858" lon="5.96277">
        <ele>357.6</ele>
        <time>2023-05-07T09:48:47Z</time>
      </trkpt>
      <trkpt lat="47.12858" lon="5.96269">
        <ele>359.4</ele>
        <time>2023-05-07T09:48:49Z</time>
      </trkpt>
      <trkpt lat="47.12858" lon="5.96262">
        <ele>361</ele>
        <time>2023-05-07T09:48:51Z</time>
      </trkpt>
      <trkpt lat="47.12856" lon="5.96255">
        <ele>362.6</ele>
        <time>2023-05-07T09:48:53Z</time>
      </trkpt>
      <trkpt lat="47.12853" lon="5.96248">
        <ele>364.6</ele>
        <time>2023-05-07T09:48:55Z</time>
      </trkpt>
      <trkpt lat="47.12851" lon="5.96244">
        <ele>365</ele>
        <time>2023-05-07T09:48:56Z</time>
      </trkpt>
      <trkpt lat="47.12845" lon="5.96238">
        <ele>365.8</ele>
        <time>2023-05-07T09:48:58Z</time>
      </trkpt>
      <trkpt lat="47.12832" lon="5.96226">
        <ele>367.2</ele>
        <time>2023-05-07T09:49:02Z</time>
      </trkpt>
      <trkpt lat="47.1282" lon="5.96214">
        <ele>368.4</ele>
        <time>2023-05-07T09:49:06Z</time>
      </trkpt>
      <trkpt lat="47.12808" lon="5.96203">
        <ele>369.4</ele>
        <time>2023-05-07T09:49:10Z</time>
      </trkpt>
      <trkpt lat="47.12804" lon="5.962">
        <ele>369.4</ele>
        <time>2023-05-07T09:49:11Z</time>
      </trkpt>
      <trkpt lat="47.12783" lon="5.96175">
        <ele>370</ele>
        <time>2023-05-07T09:49:19Z</time>
      </trkpt>
      <trkpt lat="47.12786" lon="5.96154">
        <ele>370</ele>
        <time>2023-05-07T09:49:23Z</time>
      </trkpt>
      <trkpt lat="47.12794" lon="5.96118">
        <ele>370.4</ele>
        <time>2023-05-07T09:49:30Z</time>
      </trkpt>
      <trkpt lat="47.12795" lon="5.96113">
        <ele>370.6</ele>
        <time>2023-05-07T09:49:31Z</time>
      </trkpt>
      <trkpt lat="47.12797" lon="5.96086">
        <ele>370.6</ele>
        <time>2023-05-07T09:49:37Z</time>
      </trkpt>
      <trkpt lat="47.12795" lon="5.96052">
        <ele>371.4</ele>
        <time>2023-05-07T09:49:45Z</time>
      </trkpt>
      <trkpt lat="47.12793" lon="5.96035">
        <ele>372.8</ele>
        <time>2023-05-07T09:49:49Z</time>
      </trkpt>
      <trkpt lat="47.12791" lon="5.96022">
        <ele>373</ele>
        <time>2023-05-07T09:49:52Z</time>
      </trkpt>
      <trkpt lat="47.12784" lon="5.95997">
        <ele>373.2</ele>
        <time>2023-05-07T09:49:58Z</time>
      </trkpt>
      <trkpt lat="47.12775" lon="5.95972">
        <ele>372</ele>
        <time>2023-05-07T09:50:04Z</time>
      </trkpt>
      <trkpt lat="47.12773" lon="5.95968">
        <ele>371.6</ele>
        <time>2023-05-07T09:50:05Z</time>
      </trkpt>
      <trkpt lat="47.12761" lon="5.95937">
        <ele>371.4</ele>
        <time>2023-05-07T09:50:13Z</time>
      </trkpt>
      <trkpt lat="47.12747" lon="5.95906">
        <ele>371.6</ele>
        <time>2023-05-07T09:50:21Z</time>
      </trkpt>
      <trkpt lat="47.12745" lon="5.95903">
        <ele>372.6</ele>
        <time>2023-05-07T09:50:22Z</time>
      </trkpt>
      <trkpt lat="47.12741" lon="5.95883">
        <ele>373.6</ele>
        <time>2023-05-07T09:50:27Z</time>
      </trkpt>
      <trkpt lat="47.12741" lon="5.95878">
        <ele>374</ele>
        <time>2023-05-07T09:50:28Z</time>
      </trkpt>
      <trkpt lat="47.12739" lon="5.95862">
        <ele>374.8</ele>
        <time>2023-05-07T09:50:31Z</time>
      </trkpt>
      <trkpt lat="47.12741" lon="5.95844">
        <ele>375.4</ele>
        <time>2023-05-07T09:50:34Z</time>
      </trkpt>
      <trkpt lat="47.12743" lon="5.95838">
        <ele>375.8</ele>
        <time>2023-05-07T09:50:35Z</time>
      </trkpt>
      <trkpt lat="47.12745" lon="5.95824">
        <ele>376.2</ele>
        <time>2023-05-07T09:50:37Z</time>
      </trkpt>
      <trkpt lat="47.12746" lon="5.95811">
        <ele>376.6</ele>
        <time>2023-05-07T09:50:39Z</time>
      </trkpt>
      <trkpt lat="47.12752" lon="5.95795">
        <ele>376.2</ele>
        <time>2023-05-07T09:50:42Z</time>
      </trkpt>
      <trkpt lat="47.12763" lon="5.9578">
        <ele>375.6</ele>
        <time>2023-05-07T09:50:45Z</time>
      </trkpt>
      <trkpt lat="47.12768" lon="5.95776">
        <ele>375.2</ele>
        <time>2023-05-07T09:50:46Z</time>
      </trkpt>
      <trkpt lat="47.12776" lon="5.95766">
        <ele>374.8</ele>
        <time>2023-05-07T09:50:48Z</time>
      </trkpt>
      <trkpt lat="47.12778" lon="5.95759">
        <ele>374.8</ele>
        <time>2023-05-07T09:50:49Z</time>
      </trkpt>
      <trkpt lat="47.12779" lon="5.95751">
        <ele>374.6</ele>
        <time>2023-05-07T09:50:50Z</time>
      </trkpt>
      <trkpt lat="47.12771" lon="5.95732">
        <ele>374.8</ele>
        <time>2023-05-07T09:50:53Z</time>
      </trkpt>
      <trkpt lat="47.12755" lon="5.95696">
        <ele>374.4</ele>
        <time>2023-05-07T09:51:00Z</time>
      </trkpt>
      <trkpt lat="47.1275" lon="5.9568">
        <ele>374.4</ele>
        <time>2023-05-07T09:51:03Z</time>
      </trkpt>
      <trkpt lat="47.12752" lon="5.95666">
        <ele>374.2</ele>
        <time>2023-05-07T09:51:05Z</time>
      </trkpt>
      <trkpt lat="47.12755" lon="5.95658">
        <ele>373.8</ele>
        <time>2023-05-07T09:51:06Z</time>
      </trkpt>
      <trkpt lat="47.12758" lon="5.9565">
        <ele>373.6</ele>
        <time>2023-05-07T09:51:07Z</time>
      </trkpt>
      <trkpt lat="47.12762" lon="5.95641">
        <ele>372.8</ele>
        <time>2023-05-07T09:51:08Z</time>
      </trkpt>
      <trkpt lat="47.12767" lon="5.95633">
        <ele>372</ele>
        <time>2023-05-07T09:51:09Z</time>
      </trkpt>
      <trkpt lat="47.12778" lon="5.95616">
        <ele>370.6</ele>
        <time>2023-05-07T09:51:11Z</time>
      </trkpt>
      <trkpt lat="47.12783" lon="5.95606">
        <ele>370</ele>
        <time>2023-05-07T09:51:12Z</time>
      </trkpt>
      <trkpt lat="47.12788" lon="5.95595">
        <ele>369.6</ele>
        <time>2023-05-07T09:51:13Z</time>
      </trkpt>
      <trkpt lat="47.12796" lon="5.95574">
        <ele>368.2</ele>
        <time>2023-05-07T09:51:15Z</time>
      </trkpt>
      <trkpt lat="47.12808" lon="5.95547">
        <ele>367</ele>
        <time>2023-05-07T09:51:18Z</time>
      </trkpt>
      <trkpt lat="47.1281" lon="5.9554">
        <ele>367</ele>
        <time>2023-05-07T09:51:19Z</time>
      </trkpt>
      <trkpt lat="47.12813" lon="5.9553">
        <ele>366.6</ele>
        <time>2023-05-07T09:51:21Z</time>
      </trkpt>
      <trkpt lat="47.12815" lon="5.95521">
        <ele>366.4</ele>
        <time>2023-05-07T09:51:23Z</time>
      </trkpt>
      <trkpt lat="47.12816" lon="5.95513">
        <ele>366</ele>
        <time>2023-05-07T09:51:25Z</time>
      </trkpt>
      <trkpt lat="47.12819" lon="5.95501">
        <ele>365.2</ele>
        <time>2023-05-07T09:51:29Z</time>
      </trkpt>
      <trkpt lat="47.12823" lon="5.95498">
        <ele>365</ele>
        <time>2023-05-07T09:51:31Z</time>
      </trkpt>
      <trkpt lat="47.12828" lon="5.95493">
        <ele>365.2</ele>
        <time>2023-05-07T09:51:34Z</time>
      </trkpt>
      <trkpt lat="47.1283" lon="5.95491">
        <ele>365.4</ele>
        <time>2023-05-07T09:51:35Z</time>
      </trkpt>
      <trkpt lat="47.12836" lon="5.95485">
        <ele>366.2</ele>
        <time>2023-05-07T09:51:39Z</time>
      </trkpt>
      <trkpt lat="47.12838" lon="5.95488">
        <ele>366.4</ele>
        <time>2023-05-07T10:02:43Z</time>
      </trkpt>
      <trkpt lat="47.12844" lon="5.95492">
        <ele>365.6</ele>
        <time>2023-05-07T10:02:47Z</time>
      </trkpt>
      <trkpt lat="47.12845" lon="5.95491">
        <ele>365.6</ele>
        <time>2023-05-07T10:02:48Z</time>
      </trkpt>
      <trkpt lat="47.12858" lon="5.95485">
        <ele>365.8</ele>
        <time>2023-05-07T10:02:54Z</time>
      </trkpt>
      <trkpt lat="47.12875" lon="5.95474">
        <ele>366.8</ele>
        <time>2023-05-07T10:03:01Z</time>
      </trkpt>
      <trkpt lat="47.1288" lon="5.9547">
        <ele>367.4</ele>
        <time>2023-05-07T10:03:03Z</time>
      </trkpt>
      <trkpt lat="47.12888" lon="5.9546">
        <ele>368.2</ele>
        <time>2023-05-07T10:03:07Z</time>
      </trkpt>
      <trkpt lat="47.12895" lon="5.95454">
        <ele>368.6</ele>
        <time>2023-05-07T10:03:10Z</time>
      </trkpt>
      <trkpt lat="47.12908" lon="5.95445">
        <ele>368.8</ele>
        <time>2023-05-07T10:03:15Z</time>
      </trkpt>
      <trkpt lat="47.12929" lon="5.95445">
        <ele>368.6</ele>
        <time>2023-05-07T10:03:22Z</time>
      </trkpt>
      <trkpt lat="47.12951" lon="5.95443">
        <ele>369</ele>
        <time>2023-05-07T10:03:29Z</time>
      </trkpt>
      <trkpt lat="47.12976" lon="5.95438">
        <ele>369</ele>
        <time>2023-05-07T10:03:36Z</time>
      </trkpt>
      <trkpt lat="47.12998" lon="5.95436">
        <ele>369.6</ele>
        <time>2023-05-07T10:03:42Z</time>
      </trkpt>
      <trkpt lat="47.13002" lon="5.95436">
        <ele>369.6</ele>
        <time>2023-05-07T10:03:43Z</time>
      </trkpt>
      <trkpt lat="47.13034" lon="5.95431">
        <ele>369.6</ele>
        <time>2023-05-07T10:03:50Z</time>
      </trkpt>
      <trkpt lat="47.13057" lon="5.9541">
        <ele>369.8</ele>
        <time>2023-05-07T10:03:55Z</time>
      </trkpt>
      <trkpt lat="47.13089" lon="5.95387">
        <ele>370.2</ele>
        <time>2023-05-07T10:04:02Z</time>
      </trkpt>
      <trkpt lat="47.13114" lon="5.95374">
        <ele>370.4</ele>
        <time>2023-05-07T10:04:08Z</time>
      </trkpt>
      <trkpt lat="47.13134" lon="5.9537">
        <ele>370.6</ele>
        <time>2023-05-07T10:04:13Z</time>
      </trkpt>
      <trkpt lat="47.13138" lon="5.95369">
        <ele>370.8</ele>
        <time>2023-05-07T10:04:14Z</time>
      </trkpt>
      <trkpt lat="47.1315" lon="5.95358">
        <ele>370.8</ele>
        <time>2023-05-07T10:04:17Z</time>
      </trkpt>
      <trkpt lat="47.13156" lon="5.95351">
        <ele>370.8</ele>
        <time>2023-05-07T10:04:19Z</time>
      </trkpt>
      <trkpt lat="47.13165" lon="5.95336">
        <ele>370.6</ele>
        <time>2023-05-07T10:04:22Z</time>
      </trkpt>
      <trkpt lat="47.13173" lon="5.95326">
        <ele>370.6</ele>
        <time>2023-05-07T10:04:24Z</time>
      </trkpt>
      <trkpt lat="47.13184" lon="5.95311">
        <ele>370.8</ele>
        <time>2023-05-07T10:04:27Z</time>
      </trkpt>
      <trkpt lat="47.13185" lon="5.95306">
        <ele>370.6</ele>
        <time>2023-05-07T10:04:28Z</time>
      </trkpt>
      <trkpt lat="47.13185" lon="5.95294">
        <ele>370.4</ele>
        <time>2023-05-07T10:04:30Z</time>
      </trkpt>
      <trkpt lat="47.1318" lon="5.95255">
        <ele>371.2</ele>
        <time>2023-05-07T10:04:36Z</time>
      </trkpt>
      <trkpt lat="47.13177" lon="5.95224">
        <ele>371.6</ele>
        <time>2023-05-07T10:04:41Z</time>
      </trkpt>
      <trkpt lat="47.13174" lon="5.95211">
        <ele>371.8</ele>
        <time>2023-05-07T10:04:43Z</time>
      </trkpt>
      <trkpt lat="47.13165" lon="5.95177">
        <ele>373</ele>
        <time>2023-05-07T10:04:48Z</time>
      </trkpt>
      <trkpt lat="47.1316" lon="5.95164">
        <ele>373.2</ele>
        <time>2023-05-07T10:04:50Z</time>
      </trkpt>
      <trkpt lat="47.13156" lon="5.95157">
        <ele>373.8</ele>
        <time>2023-05-07T10:04:52Z</time>
      </trkpt>
      <trkpt lat="47.13152" lon="5.95152">
        <ele>374</ele>
        <time>2023-05-07T10:04:54Z</time>
      </trkpt>
      <trkpt lat="47.13146" lon="5.95146">
        <ele>374.2</ele>
        <time>2023-05-07T10:04:57Z</time>
      </trkpt>
      <trkpt lat="47.13135" lon="5.95138">
        <ele>374.6</ele>
        <time>2023-05-07T10:05:03Z</time>
      </trkpt>
      <trkpt lat="47.13128" lon="5.95132">
        <ele>375</ele>
        <time>2023-05-07T10:05:07Z</time>
      </trkpt>
      <trkpt lat="47.13121" lon="5.95125">
        <ele>375.2</ele>
        <time>2023-05-07T10:05:10Z</time>
      </trkpt>
      <trkpt lat="47.13108" lon="5.9511">
        <ele>375.2</ele>
        <time>2023-05-07T10:05:17Z</time>
      </trkpt>
      <trkpt lat="47.13097" lon="5.95092">
        <ele>374.2</ele>
        <time>2023-05-07T10:05:24Z</time>
      </trkpt>
      <trkpt lat="47.13094" lon="5.95088">
        <ele>374</ele>
        <time>2023-05-07T10:05:26Z</time>
      </trkpt>
      <trkpt lat="47.13085" lon="5.95076">
        <ele>374.2</ele>
        <time>2023-05-07T10:05:31Z</time>
      </trkpt>
      <trkpt lat="47.13074" lon="5.95062">
        <ele>373.8</ele>
        <time>2023-05-07T10:05:37Z</time>
      </trkpt>
      <trkpt lat="47.13069" lon="5.95049">
        <ele>375</ele>
        <time>2023-05-07T10:05:41Z</time>
      </trkpt>
      <trkpt lat="47.13065" lon="5.95043">
        <ele>375.4</ele>
        <time>2023-05-07T10:05:43Z</time>
      </trkpt>
      <trkpt lat="47.13052" lon="5.95025">
        <ele>374.4</ele>
        <time>2023-05-07T10:05:49Z</time>
      </trkpt>
      <trkpt lat="47.13051" lon="5.95021">
        <ele>374.4</ele>
        <time>2023-05-07T10:05:50Z</time>
      </trkpt>
      <trkpt lat="47.13053" lon="5.95008">
        <ele>374.6</ele>
        <time>2023-05-07T10:05:53Z</time>
      </trkpt>
      <trkpt lat="47.13055" lon="5.95">
        <ele>374.2</ele>
        <time>2023-05-07T10:05:55Z</time>
      </trkpt>
      <trkpt lat="47.13058" lon="5.94991">
        <ele>374</ele>
        <time>2023-05-07T10:05:57Z</time>
      </trkpt>
      <trkpt lat="47.1306" lon="5.94981">
        <ele>373.4</ele>
        <time>2023-05-07T10:05:59Z</time>
      </trkpt>
      <trkpt lat="47.13063" lon="5.9497">
        <ele>373</ele>
        <time>2023-05-07T10:06:01Z</time>
      </trkpt>
      <trkpt lat="47.13072" lon="5.94944">
        <ele>372</ele>
        <time>2023-05-07T10:06:06Z</time>
      </trkpt>
      <trkpt lat="47.13075" lon="5.94939">
        <ele>371.8</ele>
        <time>2023-05-07T10:06:07Z</time>
      </trkpt>
      <trkpt lat="47.13087" lon="5.94918">
        <ele>371.4</ele>
        <time>2023-05-07T10:06:11Z</time>
      </trkpt>
      <trkpt lat="47.13092" lon="5.94914">
        <ele>371.2</ele>
        <time>2023-05-07T10:06:12Z</time>
      </trkpt>
      <trkpt lat="47.13109" lon="5.94896">
        <ele>370.8</ele>
        <time>2023-05-07T10:06:16Z</time>
      </trkpt>
      <trkpt lat="47.13117" lon="5.94882">
        <ele>370.4</ele>
        <time>2023-05-07T10:06:18Z</time>
      </trkpt>
      <trkpt lat="47.13122" lon="5.94854">
        <ele>370</ele>
        <time>2023-05-07T10:06:21Z</time>
      </trkpt>
      <trkpt lat="47.13121" lon="5.94843">
        <ele>369.6</ele>
        <time>2023-05-07T10:06:22Z</time>
      </trkpt>
      <trkpt lat="47.13114" lon="5.94813">
        <ele>368.8</ele>
        <time>2023-05-07T10:06:25Z</time>
      </trkpt>
      <trkpt lat="47.1311" lon="5.94804">
        <ele>368.6</ele>
        <time>2023-05-07T10:06:26Z</time>
      </trkpt>
      <trkpt lat="47.13095" lon="5.94769">
        <ele>367.2</ele>
        <time>2023-05-07T10:06:30Z</time>
      </trkpt>
      <trkpt lat="47.13083" lon="5.94743">
        <ele>366.4</ele>
        <time>2023-05-07T10:06:33Z</time>
      </trkpt>
      <trkpt lat="47.13079" lon="5.94735">
        <ele>366</ele>
        <time>2023-05-07T10:06:34Z</time>
      </trkpt>
      <trkpt lat="47.13063" lon="5.94705">
        <ele>364.8</ele>
        <time>2023-05-07T10:06:38Z</time>
      </trkpt>
      <trkpt lat="47.13055" lon="5.94688">
        <ele>364</ele>
        <time>2023-05-07T10:06:40Z</time>
      </trkpt>
      <trkpt lat="47.13052" lon="5.94679">
        <ele>363.4</ele>
        <time>2023-05-07T10:06:41Z</time>
      </trkpt>
      <trkpt lat="47.1304" lon="5.94652">
        <ele>362.2</ele>
        <time>2023-05-07T10:06:44Z</time>
      </trkpt>
      <trkpt lat="47.13027" lon="5.94623">
        <ele>361</ele>
        <time>2023-05-07T10:06:47Z</time>
      </trkpt>
      <trkpt lat="47.13018" lon="5.94595">
        <ele>360</ele>
        <time>2023-05-07T10:06:50Z</time>
      </trkpt>
      <trkpt lat="47.13014" lon="5.94576">
        <ele>359.2</ele>
        <time>2023-05-07T10:06:52Z</time>
      </trkpt>
      <trkpt lat="47.13011" lon="5.94558">
        <ele>358.8</ele>
        <time>2023-05-07T10:06:54Z</time>
      </trkpt>
      <trkpt lat="47.1301" lon="5.94531">
        <ele>358</ele>
        <time>2023-05-07T10:06:57Z</time>
      </trkpt>
      <trkpt lat="47.13011" lon="5.94514">
        <ele>357.4</ele>
        <time>2023-05-07T10:06:59Z</time>
      </trkpt>
      <trkpt lat="47.13013" lon="5.94501">
        <ele>356.6</ele>
        <time>2023-05-07T10:07:01Z</time>
      </trkpt>
      <trkpt lat="47.13015" lon="5.94491">
        <ele>356.2</ele>
        <time>2023-05-07T10:07:03Z</time>
      </trkpt>
      <trkpt lat="47.13019" lon="5.94485">
        <ele>355.8</ele>
        <time>2023-05-07T10:07:05Z</time>
      </trkpt>
      <trkpt lat="47.13021" lon="5.94483">
        <ele>355.6</ele>
        <time>2023-05-07T10:07:06Z</time>
      </trkpt>
      <trkpt lat="47.13026" lon="5.94479">
        <ele>355</ele>
        <time>2023-05-07T10:07:09Z</time>
      </trkpt>
      <trkpt lat="47.13031" lon="5.94475">
        <ele>354.4</ele>
        <time>2023-05-07T10:07:12Z</time>
      </trkpt>
      <trkpt lat="47.1304" lon="5.9447">
        <ele>354.6</ele>
        <time>2023-05-07T10:07:18Z</time>
      </trkpt>
      <trkpt lat="47.13055" lon="5.94462">
        <ele>355</ele>
        <time>2023-05-07T10:07:25Z</time>
      </trkpt>
      <trkpt lat="47.13066" lon="5.94459">
        <ele>356</ele>
        <time>2023-05-07T10:07:30Z</time>
      </trkpt>
      <trkpt lat="47.1307" lon="5.94458">
        <ele>356.4</ele>
        <time>2023-05-07T10:07:32Z</time>
      </trkpt>
      <trkpt lat="47.13078" lon="5.94457">
        <ele>357.2</ele>
        <time>2023-05-07T10:07:36Z</time>
      </trkpt>
      <trkpt lat="47.13086" lon="5.9446">
        <ele>358.6</ele>
        <time>2023-05-07T10:07:40Z</time>
      </trkpt>
      <trkpt lat="47.13094" lon="5.94461">
        <ele>359.6</ele>
        <time>2023-05-07T10:07:45Z</time>
      </trkpt>
      <trkpt lat="47.13096" lon="5.94461">
        <ele>360</ele>
        <time>2023-05-07T10:07:47Z</time>
      </trkpt>
      <trkpt lat="47.13101" lon="5.94462">
        <ele>360.6</ele>
        <time>2023-05-07T10:07:50Z</time>
      </trkpt>
      <trkpt lat="47.1311" lon="5.94464">
        <ele>361.6</ele>
        <time>2023-05-07T10:07:56Z</time>
      </trkpt>
      <trkpt lat="47.13111" lon="5.94464">
        <ele>361.8</ele>
        <time>2023-05-07T10:07:57Z</time>
      </trkpt>
      <trkpt lat="47.13118" lon="5.94463">
        <ele>362.8</ele>
        <time>2023-05-07T10:08:02Z</time>
      </trkpt>
      <trkpt lat="47.13122" lon="5.94464">
        <ele>364</ele>
        <time>2023-05-07T10:08:05Z</time>
      </trkpt>
      <trkpt lat="47.13148" lon="5.94469">
        <ele>375.6</ele>
        <time>2023-05-07T10:08:24Z</time>
      </trkpt>
      <trkpt lat="47.13149" lon="5.94469">
        <ele>376</ele>
        <time>2023-05-07T10:08:25Z</time>
      </trkpt>
      <trkpt lat="47.13162" lon="5.94477">
        <ele>379.4</ele>
        <time>2023-05-07T10:08:36Z</time>
      </trkpt>
      <trkpt lat="47.13165" lon="5.94478">
        <ele>379.6</ele>
        <time>2023-05-07T10:08:38Z</time>
      </trkpt>
      <trkpt lat="47.1318" lon="5.94481">
        <ele>380.2</ele>
        <time>2023-05-07T10:08:48Z</time>
      </trkpt>
      <trkpt lat="47.13181" lon="5.94481">
        <ele>380.4</ele>
        <time>2023-05-07T10:08:49Z</time>
      </trkpt>
      <trkpt lat="47.13187" lon="5.94484">
        <ele>381.6</ele>
        <time>2023-05-07T10:08:53Z</time>
      </trkpt>
      <trkpt lat="47.13192" lon="5.94484">
        <ele>382</ele>
        <time>2023-05-07T10:08:56Z</time>
      </trkpt>
      <trkpt lat="47.13199" lon="5.94487">
        <ele>382.6</ele>
        <time>2023-05-07T10:09:01Z</time>
      </trkpt>
      <trkpt lat="47.13202" lon="5.94489">
        <ele>382.2</ele>
        <time>2023-05-07T10:09:03Z</time>
      </trkpt>
      <trkpt lat="47.13207" lon="5.9449">
        <ele>381.4</ele>
        <time>2023-05-07T10:09:07Z</time>
      </trkpt>
      <trkpt lat="47.13229" lon="5.94498">
        <ele>384</ele>
        <time>2023-05-07T10:09:21Z</time>
      </trkpt>
      <trkpt lat="47.13232" lon="5.94499">
        <ele>384.6</ele>
        <time>2023-05-07T10:09:23Z</time>
      </trkpt>
      <trkpt lat="47.13237" lon="5.94502">
        <ele>385.2</ele>
        <time>2023-05-07T10:09:25Z</time>
      </trkpt>
      <trkpt lat="47.13246" lon="5.94508">
        <ele>385.4</ele>
        <time>2023-05-07T10:09:30Z</time>
      </trkpt>
      <trkpt lat="47.13252" lon="5.9451">
        <ele>386.2</ele>
        <time>2023-05-07T10:09:33Z</time>
      </trkpt>
      <trkpt lat="47.13262" lon="5.94513">
        <ele>387.2</ele>
        <time>2023-05-07T10:09:38Z</time>
      </trkpt>
      <trkpt lat="47.13265" lon="5.94514">
        <ele>387.4</ele>
        <time>2023-05-07T10:09:40Z</time>
      </trkpt>
      <trkpt lat="47.13275" lon="5.94516">
        <ele>387.8</ele>
        <time>2023-05-07T10:09:44Z</time>
      </trkpt>
      <trkpt lat="47.13287" lon="5.94515">
        <ele>387.8</ele>
        <time>2023-05-07T10:09:49Z</time>
      </trkpt>
      <trkpt lat="47.13305" lon="5.94505">
        <ele>388.2</ele>
        <time>2023-05-07T10:09:57Z</time>
      </trkpt>
      <trkpt lat="47.13312" lon="5.94499">
        <ele>388.6</ele>
        <time>2023-05-07T10:10:00Z</time>
      </trkpt>
      <trkpt lat="47.13319" lon="5.94494">
        <ele>387.6</ele>
        <time>2023-05-07T10:10:04Z</time>
      </trkpt>
      <trkpt lat="47.13321" lon="5.94492">
        <ele>387.4</ele>
        <time>2023-05-07T10:10:05Z</time>
      </trkpt>
      <trkpt lat="47.13334" lon="5.94487">
        <ele>388</ele>
        <time>2023-05-07T10:10:10Z</time>
      </trkpt>
      <trkpt lat="47.13352" lon="5.94485">
        <ele>387</ele>
        <time>2023-05-07T10:10:17Z</time>
      </trkpt>
      <trkpt lat="47.1337" lon="5.94496">
        <ele>386.8</ele>
        <time>2023-05-07T10:10:25Z</time>
      </trkpt>
      <trkpt lat="47.13387" lon="5.94512">
        <ele>387.4</ele>
        <time>2023-05-07T10:10:34Z</time>
      </trkpt>
      <trkpt lat="47.13407" lon="5.94529">
        <ele>387.2</ele>
        <time>2023-05-07T10:10:44Z</time>
      </trkpt>
      <trkpt lat="47.13421" lon="5.94539">
        <ele>386.4</ele>
        <time>2023-05-07T10:10:51Z</time>
      </trkpt>
      <trkpt lat="47.13423" lon="5.9454">
        <ele>386.2</ele>
        <time>2023-05-07T10:10:52Z</time>
      </trkpt>
      <trkpt lat="47.13442" lon="5.94553">
        <ele>386</ele>
        <time>2023-05-07T10:11:01Z</time>
      </trkpt>
      <trkpt lat="47.13458" lon="5.94556">
        <ele>386.4</ele>
        <time>2023-05-07T10:11:09Z</time>
      </trkpt>
      <trkpt lat="47.13466" lon="5.94549">
        <ele>387.4</ele>
        <time>2023-05-07T10:11:14Z</time>
      </trkpt>
      <trkpt lat="47.13468" lon="5.94545">
        <ele>387.8</ele>
        <time>2023-05-07T10:11:16Z</time>
      </trkpt>
      <trkpt lat="47.13473" lon="5.94533">
        <ele>388.6</ele>
        <time>2023-05-07T10:11:22Z</time>
      </trkpt>
      <trkpt lat="47.13473" lon="5.94531">
        <ele>388.8</ele>
        <time>2023-05-07T10:11:23Z</time>
      </trkpt>
      <trkpt lat="47.13475" lon="5.94519">
        <ele>389.8</ele>
        <time>2023-05-07T10:11:28Z</time>
      </trkpt>
      <trkpt lat="47.13477" lon="5.94512">
        <ele>389.8</ele>
        <time>2023-05-07T10:11:31Z</time>
      </trkpt>
      <trkpt lat="47.13481" lon="5.94492">
        <ele>389.8</ele>
        <time>2023-05-07T10:11:40Z</time>
      </trkpt>
      <trkpt lat="47.13486" lon="5.94475">
        <ele>390.2</ele>
        <time>2023-05-07T10:11:48Z</time>
      </trkpt>
      <trkpt lat="47.13488" lon="5.94467">
        <ele>391</ele>
        <time>2023-05-07T10:11:52Z</time>
      </trkpt>
      <trkpt lat="47.13491" lon="5.9446">
        <ele>391</ele>
        <time>2023-05-07T10:11:56Z</time>
      </trkpt>
      <trkpt lat="47.13496" lon="5.94452">
        <ele>392</ele>
        <time>2023-05-07T10:12:02Z</time>
      </trkpt>
      <trkpt lat="47.13498" lon="5.9445">
        <ele>392.2</ele>
        <time>2023-05-07T10:12:04Z</time>
      </trkpt>
      <trkpt lat="47.13506" lon="5.94443">
        <ele>393</ele>
        <time>2023-05-07T10:12:10Z</time>
      </trkpt>
      <trkpt lat="47.13508" lon="5.9444">
        <ele>393.2</ele>
        <time>2023-05-07T10:12:12Z</time>
      </trkpt>
      <trkpt lat="47.13513" lon="5.94436">
        <ele>393.8</ele>
        <time>2023-05-07T10:12:16Z</time>
      </trkpt>
      <trkpt lat="47.13515" lon="5.94435">
        <ele>394.4</ele>
        <time>2023-05-07T10:12:18Z</time>
      </trkpt>
      <trkpt lat="47.13519" lon="5.94429">
        <ele>395.4</ele>
        <time>2023-05-07T10:12:23Z</time>
      </trkpt>
      <trkpt lat="47.1352" lon="5.94428">
        <ele>395.6</ele>
        <time>2023-05-07T10:12:24Z</time>
      </trkpt>
      <trkpt lat="47.13522" lon="5.94423">
        <ele>396.6</ele>
        <time>2023-05-07T10:12:27Z</time>
      </trkpt>
      <trkpt lat="47.13523" lon="5.94414">
        <ele>397.6</ele>
        <time>2023-05-07T10:12:32Z</time>
      </trkpt>
      <trkpt lat="47.13523" lon="5.9441">
        <ele>397.6</ele>
        <time>2023-05-07T10:12:34Z</time>
      </trkpt>
      <trkpt lat="47.13523" lon="5.94401">
        <ele>399</ele>
        <time>2023-05-07T10:12:39Z</time>
      </trkpt>
      <trkpt lat="47.13523" lon="5.94399">
        <ele>399.4</ele>
        <time>2023-05-07T10:12:40Z</time>
      </trkpt>
      <trkpt lat="47.13523" lon="5.94396">
        <ele>400.2</ele>
        <time>2023-05-07T10:12:42Z</time>
      </trkpt>
      <trkpt lat="47.13524" lon="5.94388">
        <ele>401.2</ele>
        <time>2023-05-07T10:12:47Z</time>
      </trkpt>
      <trkpt lat="47.13524" lon="5.94386">
        <ele>401.4</ele>
        <time>2023-05-07T10:12:48Z</time>
      </trkpt>
      <trkpt lat="47.13523" lon="5.94384">
        <ele>401.4</ele>
        <time>2023-05-07T10:12:49Z</time>
      </trkpt>
      <trkpt lat="47.13522" lon="5.94373">
        <ele>402</ele>
        <time>2023-05-07T10:12:55Z</time>
      </trkpt>
      <trkpt lat="47.1352" lon="5.94366">
        <ele>402.4</ele>
        <time>2023-05-07T10:12:59Z</time>
      </trkpt>
      <trkpt lat="47.13518" lon="5.94357">
        <ele>403</ele>
        <time>2023-05-07T10:13:04Z</time>
      </trkpt>
      <trkpt lat="47.13514" lon="5.94345">
        <ele>404</ele>
        <time>2023-05-07T10:13:38Z</time>
      </trkpt>
      <trkpt lat="47.13514" lon="5.94343">
        <ele>404.2</ele>
        <time>2023-05-07T10:13:39Z</time>
      </trkpt>
      <trkpt lat="47.13512" lon="5.9434">
        <ele>405</ele>
        <time>2023-05-07T10:13:41Z</time>
      </trkpt>
      <trkpt lat="47.13508" lon="5.94334">
        <ele>406.6</ele>
        <time>2023-05-07T10:13:44Z</time>
      </trkpt>
      <trkpt lat="47.13506" lon="5.9433">
        <ele>407.6</ele>
        <time>2023-05-07T10:13:46Z</time>
      </trkpt>
      <trkpt lat="47.13505" lon="5.94327">
        <ele>408</ele>
        <time>2023-05-07T10:13:47Z</time>
      </trkpt>
      <trkpt lat="47.13503" lon="5.94322">
        <ele>408.6</ele>
        <time>2023-05-07T10:13:49Z</time>
      </trkpt>
      <trkpt lat="47.13496" lon="5.94312">
        <ele>409.8</ele>
        <time>2023-05-07T10:13:54Z</time>
      </trkpt>
      <trkpt lat="47.13488" lon="5.943">
        <ele>411</ele>
        <time>2023-05-07T10:13:59Z</time>
      </trkpt>
      <trkpt lat="47.13483" lon="5.94293">
        <ele>411.4</ele>
        <time>2023-05-07T10:14:02Z</time>
      </trkpt>
      <trkpt lat="47.13479" lon="5.94278">
        <ele>412</ele>
        <time>2023-05-07T10:14:07Z</time>
      </trkpt>
      <trkpt lat="47.1348" lon="5.94276">
        <ele>412.4</ele>
        <time>2023-05-07T10:14:08Z</time>
      </trkpt>
      <trkpt lat="47.1348" lon="5.94271">
        <ele>413.2</ele>
        <time>2023-05-07T10:14:10Z</time>
      </trkpt>
      <trkpt lat="47.13481" lon="5.94261">
        <ele>414.4</ele>
        <time>2023-05-07T10:14:14Z</time>
      </trkpt>
      <trkpt lat="47.13483" lon="5.94251">
        <ele>415.8</ele>
        <time>2023-05-07T10:14:19Z</time>
      </trkpt>
      <trkpt lat="47.13484" lon="5.94246">
        <ele>416.4</ele>
        <time>2023-05-07T10:14:21Z</time>
      </trkpt>
      <trkpt lat="47.13487" lon="5.9424">
        <ele>417</ele>
        <time>2023-05-07T10:14:24Z</time>
      </trkpt>
      <trkpt lat="47.13488" lon="5.94238">
        <ele>417.4</ele>
        <time>2023-05-07T10:14:25Z</time>
      </trkpt>
      <trkpt lat="47.13491" lon="5.94235">
        <ele>417.8</ele>
        <time>2023-05-07T10:14:27Z</time>
      </trkpt>
      <trkpt lat="47.13494" lon="5.94231">
        <ele>418.2</ele>
        <time>2023-05-07T10:14:29Z</time>
      </trkpt>
      <trkpt lat="47.13499" lon="5.94224">
        <ele>418.6</ele>
        <time>2023-05-07T10:14:33Z</time>
      </trkpt>
      <trkpt lat="47.13506" lon="5.9422">
        <ele>419.4</ele>
        <time>2023-05-07T10:14:38Z</time>
      </trkpt>
      <trkpt lat="47.1351" lon="5.94219">
        <ele>420</ele>
        <time>2023-05-07T10:14:41Z</time>
      </trkpt>
      <trkpt lat="47.13515" lon="5.94217">
        <ele>420.4</ele>
        <time>2023-05-07T10:14:44Z</time>
      </trkpt>
      <trkpt lat="47.13521" lon="5.94217">
        <ele>420</ele>
        <time>2023-05-07T10:14:48Z</time>
      </trkpt>
      <trkpt lat="47.13534" lon="5.94216">
        <ele>419.4</ele>
        <time>2023-05-07T10:14:57Z</time>
      </trkpt>
      <trkpt lat="47.13537" lon="5.94216">
        <ele>419.2</ele>
        <time>2023-05-07T10:14:59Z</time>
      </trkpt>
      <trkpt lat="47.13546" lon="5.94217">
        <ele>418</ele>
        <time>2023-05-07T10:15:04Z</time>
      </trkpt>
      <trkpt lat="47.13556" lon="5.9422">
        <ele>416.8</ele>
        <time>2023-05-07T10:15:11Z</time>
      </trkpt>
      <trkpt lat="47.13562" lon="5.94223">
        <ele>415.4</ele>
        <time>2023-05-07T10:15:15Z</time>
      </trkpt>
      <trkpt lat="47.13569" lon="5.94227">
        <ele>414.8</ele>
        <time>2023-05-07T10:15:21Z</time>
      </trkpt>
      <trkpt lat="47.13573" lon="5.94229">
        <ele>414.8</ele>
        <time>2023-05-07T10:15:25Z</time>
      </trkpt>
      <trkpt lat="47.13574" lon="5.94231">
        <ele>415.4</ele>
        <time>2023-05-07T10:15:27Z</time>
      </trkpt>
      <trkpt lat="47.13576" lon="5.94233">
        <ele>416.6</ele>
        <time>2023-05-07T10:15:30Z</time>
      </trkpt>
      <trkpt lat="47.13577" lon="5.94236">
        <ele>417.4</ele>
        <time>2023-05-07T10:15:33Z</time>
      </trkpt>
      <trkpt lat="47.13577" lon="5.94237">
        <ele>417.8</ele>
        <time>2023-05-07T10:15:34Z</time>
      </trkpt>
      <trkpt lat="47.13579" lon="5.94239">
        <ele>418.4</ele>
        <time>2023-05-07T10:15:36Z</time>
      </trkpt>
      <trkpt lat="47.13582" lon="5.94242">
        <ele>418.8</ele>
        <time>2023-05-07T10:15:38Z</time>
      </trkpt>
      <trkpt lat="47.13586" lon="5.94247">
        <ele>420</ele>
        <time>2023-05-07T10:15:41Z</time>
      </trkpt>
      <trkpt lat="47.13588" lon="5.9425">
        <ele>420.6</ele>
        <time>2023-05-07T10:15:43Z</time>
      </trkpt>
      <trkpt lat="47.13593" lon="5.94259">
        <ele>421.2</ele>
        <time>2023-05-07T10:15:48Z</time>
      </trkpt>
      <trkpt lat="47.13596" lon="5.94264">
        <ele>421.8</ele>
        <time>2023-05-07T10:15:51Z</time>
      </trkpt>
      <trkpt lat="47.13597" lon="5.94265">
        <ele>422.4</ele>
        <time>2023-05-07T10:15:52Z</time>
      </trkpt>
      <trkpt lat="47.13604" lon="5.94277">
        <ele>423.4</ele>
        <time>2023-05-07T10:15:59Z</time>
      </trkpt>
      <trkpt lat="47.13606" lon="5.94279">
        <ele>423.8</ele>
        <time>2023-05-07T10:16:00Z</time>
      </trkpt>
      <trkpt lat="47.13608" lon="5.94285">
        <ele>424.6</ele>
        <time>2023-05-07T10:16:03Z</time>
      </trkpt>
      <trkpt lat="47.13614" lon="5.94294">
        <ele>424.8</ele>
        <time>2023-05-07T10:16:08Z</time>
      </trkpt>
      <trkpt lat="47.13624" lon="5.94309">
        <ele>424.4</ele>
        <time>2023-05-07T10:16:17Z</time>
      </trkpt>
      <trkpt lat="47.13634" lon="5.94322">
        <ele>424</ele>
        <time>2023-05-07T10:16:25Z</time>
      </trkpt>
      <trkpt lat="47.13641" lon="5.94329">
        <ele>423.6</ele>
        <time>2023-05-07T10:16:30Z</time>
      </trkpt>
      <trkpt lat="47.13646" lon="5.94336">
        <ele>423.8</ele>
        <time>2023-05-07T10:16:34Z</time>
      </trkpt>
      <trkpt lat="47.13658" lon="5.9435">
        <ele>424.8</ele>
        <time>2023-05-07T10:16:43Z</time>
      </trkpt>
      <trkpt lat="47.13664" lon="5.94356">
        <ele>425.8</ele>
        <time>2023-05-07T10:16:47Z</time>
      </trkpt>
      <trkpt lat="47.1367" lon="5.94362">
        <ele>426.6</ele>
        <time>2023-05-07T10:16:52Z</time>
      </trkpt>
      <trkpt lat="47.13672" lon="5.94365">
        <ele>427</ele>
        <time>2023-05-07T10:16:54Z</time>
      </trkpt>
      <trkpt lat="47.1368" lon="5.94368">
        <ele>427.8</ele>
        <time>2023-05-07T10:17:00Z</time>
      </trkpt>
      <trkpt lat="47.13686" lon="5.94369">
        <ele>428</ele>
        <time>2023-05-07T10:17:06Z</time>
      </trkpt>
      <trkpt lat="47.13688" lon="5.94369">
        <ele>428.4</ele>
        <time>2023-05-07T10:17:07Z</time>
      </trkpt>
      <trkpt lat="47.13692" lon="5.94367">
        <ele>429</ele>
        <time>2023-05-07T10:17:12Z</time>
      </trkpt>
      <trkpt lat="47.13694" lon="5.94367">
        <ele>429.2</ele>
        <time>2023-05-07T10:17:14Z</time>
      </trkpt>
      <trkpt lat="47.13699" lon="5.94368">
        <ele>429.8</ele>
        <time>2023-05-07T10:17:20Z</time>
      </trkpt>
      <trkpt lat="47.13704" lon="5.94366">
        <ele>430</ele>
        <time>2023-05-07T10:17:24Z</time>
      </trkpt>
      <trkpt lat="47.13706" lon="5.94364">
        <ele>430.4</ele>
        <time>2023-05-07T10:17:27Z</time>
      </trkpt>
      <trkpt lat="47.13713" lon="5.94358">
        <ele>431</ele>
        <time>2023-05-07T10:17:35Z</time>
      </trkpt>
      <trkpt lat="47.13715" lon="5.94357">
        <ele>431.2</ele>
        <time>2023-05-07T10:17:37Z</time>
      </trkpt>
      <trkpt lat="47.13718" lon="5.94352">
        <ele>431.6</ele>
        <time>2023-05-07T10:17:42Z</time>
      </trkpt>
      <trkpt lat="47.13721" lon="5.94349">
        <ele>432.2</ele>
        <time>2023-05-07T10:17:45Z</time>
      </trkpt>
      <trkpt lat="47.13724" lon="5.94348">
        <ele>432.4</ele>
        <time>2023-05-07T10:17:48Z</time>
      </trkpt>
      <trkpt lat="47.13727" lon="5.94344">
        <ele>433.4</ele>
        <time>2023-05-07T10:17:52Z</time>
      </trkpt>
      <trkpt lat="47.1373" lon="5.9434">
        <ele>434</ele>
        <time>2023-05-07T10:17:55Z</time>
      </trkpt>
      <trkpt lat="47.1373" lon="5.94338">
        <ele>434.4</ele>
        <time>2023-05-07T10:17:56Z</time>
      </trkpt>
      <trkpt lat="47.13735" lon="5.94329">
        <ele>435.4</ele>
        <time>2023-05-07T10:18:02Z</time>
      </trkpt>
      <trkpt lat="47.13736" lon="5.94327">
        <ele>435.6</ele>
        <time>2023-05-07T10:18:03Z</time>
      </trkpt>
      <trkpt lat="47.13741" lon="5.94313">
        <ele>435.8</ele>
        <time>2023-05-07T10:18:11Z</time>
      </trkpt>
      <trkpt lat="47.13745" lon="5.94305">
        <ele>436.6</ele>
        <time>2023-05-07T10:18:16Z</time>
      </trkpt>
      <trkpt lat="47.1386" lon="5.94236">
        <ele>461.4</ele>
        <time>2023-05-07T10:22:43Z</time>
      </trkpt>
      <trkpt lat="47.13864" lon="5.94232">
        <ele>462.4</ele>
        <time>2023-05-07T10:22:47Z</time>
      </trkpt>
      <trkpt lat="47.13872" lon="5.94224">
        <ele>463.6</ele>
        <time>2023-05-07T10:22:53Z</time>
      </trkpt>
      <trkpt lat="47.13873" lon="5.94222">
        <ele>463.8</ele>
        <time>2023-05-07T10:22:54Z</time>
      </trkpt>
      <trkpt lat="47.13876" lon="5.94217">
        <ele>464.6</ele>
        <time>2023-05-07T10:22:58Z</time>
      </trkpt>
      <trkpt lat="47.13878" lon="5.94212">
        <ele>465.2</ele>
        <time>2023-05-07T10:23:01Z</time>
      </trkpt>
      <trkpt lat="47.13869" lon="5.94185">
        <ele>462.2</ele>
        <time>2023-05-07T10:23:58Z</time>
      </trkpt>
      <trkpt lat="47.13866" lon="5.94183">
        <ele>462</ele>
        <time>2023-05-07T10:23:59Z</time>
      </trkpt>
      <trkpt lat="47.13857" lon="5.94177">
        <ele>461.2</ele>
        <time>2023-05-07T10:24:02Z</time>
      </trkpt>
      <trkpt lat="47.1385" lon="5.94171">
        <ele>460.8</ele>
        <time>2023-05-07T10:24:04Z</time>
      </trkpt>
      <trkpt lat="47.13842" lon="5.94165">
        <ele>460.4</ele>
        <time>2023-05-07T10:24:06Z</time>
      </trkpt>
      <trkpt lat="47.13838" lon="5.94162">
        <ele>460.2</ele>
        <time>2023-05-07T10:24:07Z</time>
      </trkpt>
      <trkpt lat="47.13834" lon="5.94157">
        <ele>459.8</ele>
        <time>2023-05-07T10:24:08Z</time>
      </trkpt>
      <trkpt lat="47.13829" lon="5.94153">
        <ele>459.2</ele>
        <time>2023-05-07T10:24:09Z</time>
      </trkpt>
      <trkpt lat="47.13824" lon="5.9415">
        <ele>458.8</ele>
        <time>2023-05-07T10:24:10Z</time>
      </trkpt>
      <trkpt lat="47.1382" lon="5.94144">
        <ele>458.2</ele>
        <time>2023-05-07T10:24:11Z</time>
      </trkpt>
      <trkpt lat="47.13812" lon="5.94132">
        <ele>457.4</ele>
        <time>2023-05-07T10:24:13Z</time>
      </trkpt>
      <trkpt lat="47.13808" lon="5.94126">
        <ele>457</ele>
        <time>2023-05-07T10:24:14Z</time>
      </trkpt>
      <trkpt lat="47.13801" lon="5.94113">
        <ele>456</ele>
        <time>2023-05-07T10:24:16Z</time>
      </trkpt>
      <trkpt lat="47.13793" lon="5.94101">
        <ele>455</ele>
        <time>2023-05-07T10:24:18Z</time>
      </trkpt>
      <trkpt lat="47.13789" lon="5.94096">
        <ele>454.6</ele>
        <time>2023-05-07T10:24:19Z</time>
      </trkpt>
      <trkpt lat="47.13777" lon="5.94084">
        <ele>453.2</ele>
        <time>2023-05-07T10:24:22Z</time>
      </trkpt>
      <trkpt lat="47.13774" lon="5.94078">
        <ele>452.6</ele>
        <time>2023-05-07T10:24:23Z</time>
      </trkpt>
      <trkpt lat="47.13771" lon="5.94072">
        <ele>452.2</ele>
        <time>2023-05-07T10:24:24Z</time>
      </trkpt>
      <trkpt lat="47.13768" lon="5.94065">
        <ele>451.8</ele>
        <time>2023-05-07T10:24:25Z</time>
      </trkpt>
      <trkpt lat="47.13762" lon="5.94053">
        <ele>451</ele>
        <time>2023-05-07T10:24:27Z</time>
      </trkpt>
      <trkpt lat="47.13757" lon="5.94049">
        <ele>450.6</ele>
        <time>2023-05-07T10:24:28Z</time>
      </trkpt>
      <trkpt lat="47.13752" lon="5.94045">
        <ele>450.2</ele>
        <time>2023-05-07T10:24:29Z</time>
      </trkpt>
      <trkpt lat="47.13742" lon="5.94038">
        <ele>449.4</ele>
        <time>2023-05-07T10:24:31Z</time>
      </trkpt>
      <trkpt lat="47.13732" lon="5.94034">
        <ele>448.4</ele>
        <time>2023-05-07T10:24:33Z</time>
      </trkpt>
      <trkpt lat="47.13728" lon="5.94034">
        <ele>448.2</ele>
        <time>2023-05-07T10:24:34Z</time>
      </trkpt>
      <trkpt lat="47.13711" lon="5.94031">
        <ele>447.6</ele>
        <time>2023-05-07T10:24:39Z</time>
      </trkpt>
      <trkpt lat="47.13697" lon="5.94029">
        <ele>448</ele>
        <time>2023-05-07T10:24:46Z</time>
      </trkpt>
      <trkpt lat="47.13689" lon="5.94026">
        <ele>448.8</ele>
        <time>2023-05-07T10:24:52Z</time>
      </trkpt>
      <trkpt lat="47.13687" lon="5.94024">
        <ele>449</ele>
        <time>2023-05-07T10:24:53Z</time>
      </trkpt>
      <trkpt lat="47.13683" lon="5.94019">
        <ele>449.4</ele>
        <time>2023-05-07T10:24:55Z</time>
      </trkpt>
      <trkpt lat="47.13679" lon="5.94013">
        <ele>449.6</ele>
        <time>2023-05-07T10:24:57Z</time>
      </trkpt>
      <trkpt lat="47.13677" lon="5.9401">
        <ele>449.8</ele>
        <time>2023-05-07T10:24:58Z</time>
      </trkpt>
      <trkpt lat="47.13668" lon="5.94001">
        <ele>450.6</ele>
        <time>2023-05-07T10:25:02Z</time>
      </trkpt>
      <trkpt lat="47.13658" lon="5.93994">
        <ele>451.6</ele>
        <time>2023-05-07T10:25:06Z</time>
      </trkpt>
      <trkpt lat="47.13654" lon="5.9399">
        <ele>452</ele>
        <time>2023-05-07T10:25:08Z</time>
      </trkpt>
      <trkpt lat="47.1365" lon="5.93986">
        <ele>452.6</ele>
        <time>2023-05-07T10:25:10Z</time>
      </trkpt>
      <trkpt lat="47.13641" lon="5.93975">
        <ele>453.4</ele>
        <time>2023-05-07T10:25:14Z</time>
      </trkpt>
      <trkpt lat="47.13627" lon="5.93965">
        <ele>453.2</ele>
        <time>2023-05-07T10:25:19Z</time>
      </trkpt>
      <trkpt lat="47.13618" lon="5.9396">
        <ele>453.8</ele>
        <time>2023-05-07T10:25:23Z</time>
      </trkpt>
      <trkpt lat="47.1361" lon="5.93954">
        <ele>455</ele>
        <time>2023-05-07T10:25:26Z</time>
      </trkpt>
      <trkpt lat="47.13601" lon="5.93946">
        <ele>456.2</ele>
        <time>2023-05-07T10:25:31Z</time>
      </trkpt>
      <trkpt lat="47.13594" lon="5.9394">
        <ele>455.8</ele>
        <time>2023-05-07T10:25:33Z</time>
      </trkpt>
      <trkpt lat="47.13584" lon="5.93931">
        <ele>455</ele>
        <time>2023-05-07T10:25:36Z</time>
      </trkpt>
      <trkpt lat="47.13578" lon="5.93925">
        <ele>454.4</ele>
        <time>2023-05-07T10:25:38Z</time>
      </trkpt>
      <trkpt lat="47.13565" lon="5.9392">
        <ele>455</ele>
        <time>2023-05-07T10:25:43Z</time>
      </trkpt>
      <trkpt lat="47.13557" lon="5.93918">
        <ele>456.2</ele>
        <time>2023-05-07T10:25:47Z</time>
      </trkpt>
      <trkpt lat="47.13552" lon="5.93917">
        <ele>457.2</ele>
        <time>2023-05-07T10:25:50Z</time>
      </trkpt>
      <trkpt lat="47.13544" lon="5.93916">
        <ele>458.4</ele>
        <time>2023-05-07T10:25:54Z</time>
      </trkpt>
      <trkpt lat="47.13536" lon="5.93913">
        <ele>459</ele>
        <time>2023-05-07T10:25:58Z</time>
      </trkpt>
      <trkpt lat="47.13523" lon="5.93909">
        <ele>459</ele>
        <time>2023-05-07T10:26:05Z</time>
      </trkpt>
      <trkpt lat="47.13511" lon="5.93904">
        <ele>457.4</ele>
        <time>2023-05-07T10:26:12Z</time>
      </trkpt>
      <trkpt lat="47.13499" lon="5.93897">
        <ele>456.8</ele>
        <time>2023-05-07T10:26:20Z</time>
      </trkpt>
      <trkpt lat="47.13449" lon="5.93871">
        <ele>458.4</ele>
        <time>2023-05-07T10:27:36Z</time>
      </trkpt>
      <trkpt lat="47.13443" lon="5.93869">
        <ele>459</ele>
        <time>2023-05-07T10:27:39Z</time>
      </trkpt>
      <trkpt lat="47.13431" lon="5.93867">
        <ele>459.6</ele>
        <time>2023-05-07T10:27:45Z</time>
      </trkpt>
      <trkpt lat="47.13429" lon="5.93866">
        <ele>460</ele>
        <time>2023-05-07T10:27:46Z</time>
      </trkpt>
      <trkpt lat="47.13425" lon="5.93861">
        <ele>460.6</ele>
        <time>2023-05-07T10:27:49Z</time>
      </trkpt>
      <trkpt lat="47.13419" lon="5.93855">
        <ele>461</ele>
        <time>2023-05-07T10:27:53Z</time>
      </trkpt>
      <trkpt lat="47.13413" lon="5.9385">
        <ele>461.8</ele>
        <time>2023-05-07T10:27:57Z</time>
      </trkpt>
      <trkpt lat="47.13409" lon="5.93846">
        <ele>462.2</ele>
        <time>2023-05-07T10:28:00Z</time>
      </trkpt>
      <trkpt lat="47.13406" lon="5.93843">
        <ele>462.4</ele>
        <time>2023-05-07T10:28:02Z</time>
      </trkpt>
      <trkpt lat="47.134" lon="5.93838">
        <ele>462.2</ele>
        <time>2023-05-07T10:28:06Z</time>
      </trkpt>
      <trkpt lat="47.1339" lon="5.9383">
        <ele>462.6</ele>
        <time>2023-05-07T10:28:13Z</time>
      </trkpt>
      <trkpt lat="47.13377" lon="5.93818">
        <ele>462.4</ele>
        <time>2023-05-07T10:28:21Z</time>
      </trkpt>
      <trkpt lat="47.13366" lon="5.93799">
        <ele>462</ele>
        <time>2023-05-07T10:28:29Z</time>
      </trkpt>
      <trkpt lat="47.13355" lon="5.93788">
        <ele>461.8</ele>
        <time>2023-05-07T10:28:35Z</time>
      </trkpt>
      <trkpt lat="47.13345" lon="5.93781">
        <ele>460.8</ele>
        <time>2023-05-07T10:28:40Z</time>
      </trkpt>
      <trkpt lat="47.13341" lon="5.93778">
        <ele>460.4</ele>
        <time>2023-05-07T10:28:42Z</time>
      </trkpt>
      <trkpt lat="47.13326" lon="5.93767">
        <ele>461.4</ele>
        <time>2023-05-07T10:28:48Z</time>
      </trkpt>
      <trkpt lat="47.13322" lon="5.93764">
        <ele>462</ele>
        <time>2023-05-07T10:28:50Z</time>
      </trkpt>
      <trkpt lat="47.13311" lon="5.93761">
        <ele>462.6</ele>
        <time>2023-05-07T10:28:54Z</time>
      </trkpt>
      <trkpt lat="47.13294" lon="5.93753">
        <ele>463</ele>
        <time>2023-05-07T10:29:02Z</time>
      </trkpt>
      <trkpt lat="47.1329" lon="5.93752">
        <ele>463.2</ele>
        <time>2023-05-07T10:29:05Z</time>
      </trkpt>
      <trkpt lat="47.13277" lon="5.93746">
        <ele>464.6</ele>
        <time>2023-05-07T10:29:27Z</time>
      </trkpt>
      <trkpt lat="47.13272" lon="5.93735">
        <ele>464.6</ele>
        <time>2023-05-07T10:29:31Z</time>
      </trkpt>
      <trkpt lat="47.13259" lon="5.93715">
        <ele>463.6</ele>
        <time>2023-05-07T10:29:37Z</time>
      </trkpt>
      <trkpt lat="47.13243" lon="5.93694">
        <ele>463.2</ele>
        <time>2023-05-07T10:29:43Z</time>
      </trkpt>
      <trkpt lat="47.13231" lon="5.93678">
        <ele>463.2</ele>
        <time>2023-05-07T10:29:49Z</time>
      </trkpt>
      <trkpt lat="47.13219" lon="5.9366">
        <ele>463.4</ele>
        <time>2023-05-07T10:29:54Z</time>
      </trkpt>
      <trkpt lat="47.13215" lon="5.93657">
        <ele>463.4</ele>
        <time>2023-05-07T10:29:55Z</time>
      </trkpt>
      <trkpt lat="47.13203" lon="5.93643">
        <ele>463.6</ele>
        <time>2023-05-07T10:29:58Z</time>
      </trkpt>
      <trkpt lat="47.13183" lon="5.9362">
        <ele>462.4</ele>
        <time>2023-05-07T10:30:04Z</time>
      </trkpt>
      <trkpt lat="47.13182" lon="5.93616">
        <ele>462.2</ele>
        <time>2023-05-07T10:30:05Z</time>
      </trkpt>
      <trkpt lat="47.13184" lon="5.93609">
        <ele>461.2</ele>
        <time>2023-05-07T10:30:07Z</time>
      </trkpt>
      <trkpt lat="47.13189" lon="5.93605">
        <ele>460.4</ele>
        <time>2023-05-07T10:30:09Z</time>
      </trkpt>
      <trkpt lat="47.13192" lon="5.93602">
        <ele>460.2</ele>
        <time>2023-05-07T10:30:10Z</time>
      </trkpt>
      <trkpt lat="47.13195" lon="5.93599">
        <ele>460</ele>
        <time>2023-05-07T10:30:11Z</time>
      </trkpt>
      <trkpt lat="47.13211" lon="5.93581">
        <ele>459.2</ele>
        <time>2023-05-07T10:30:16Z</time>
      </trkpt>
      <trkpt lat="47.13215" lon="5.93576">
        <ele>458.8</ele>
        <time>2023-05-07T10:30:17Z</time>
      </trkpt>
      <trkpt lat="47.13232" lon="5.93556">
        <ele>458</ele>
        <time>2023-05-07T10:30:21Z</time>
      </trkpt>
      <trkpt lat="47.13237" lon="5.9355">
        <ele>457.8</ele>
        <time>2023-05-07T10:30:22Z</time>
      </trkpt>
      <trkpt lat="47.13253" lon="5.93532">
        <ele>457.4</ele>
        <time>2023-05-07T10:30:26Z</time>
      </trkpt>
      <trkpt lat="47.13259" lon="5.93528">
        <ele>456.8</ele>
        <time>2023-05-07T10:30:29Z</time>
      </trkpt>
      <trkpt lat="47.13263" lon="5.93527">
        <ele>456.6</ele>
        <time>2023-05-07T10:30:31Z</time>
      </trkpt>
      <trkpt lat="47.13275" lon="5.93527">
        <ele>455.8</ele>
        <time>2023-05-07T10:30:37Z</time>
      </trkpt>
      <trkpt lat="47.13283" lon="5.93529">
        <ele>454.6</ele>
        <time>2023-05-07T10:30:42Z</time>
      </trkpt>
      <trkpt lat="47.13284" lon="5.93528">
        <ele>454.6</ele>
        <time>2023-05-07T10:30:43Z</time>
      </trkpt>
      <trkpt lat="47.13287" lon="5.93526">
        <ele>453.8</ele>
        <time>2023-05-07T10:30:45Z</time>
      </trkpt>
      <trkpt lat="47.13288" lon="5.93523">
        <ele>453.4</ele>
        <time>2023-05-07T10:30:47Z</time>
      </trkpt>
      <trkpt lat="47.13287" lon="5.93521">
        <ele>453</ele>
        <time>2023-05-07T10:30:48Z</time>
      </trkpt>
      <trkpt lat="47.13284" lon="5.93517">
        <ele>452.6</ele>
        <time>2023-05-07T10:30:50Z</time>
      </trkpt>
      <trkpt lat="47.13276" lon="5.93506">
        <ele>451.4</ele>
        <time>2023-05-07T10:30:54Z</time>
      </trkpt>
      <trkpt lat="47.13266" lon="5.93496">
        <ele>450.8</ele>
        <time>2023-05-07T10:30:57Z</time>
      </trkpt>
      <trkpt lat="47.13258" lon="5.9349">
        <ele>450.2</ele>
        <time>2023-05-07T10:30:59Z</time>
      </trkpt>
      <trkpt lat="47.13254" lon="5.93487">
        <ele>450</ele>
        <time>2023-05-07T10:31:00Z</time>
      </trkpt>
      <trkpt lat="47.13245" lon="5.93483">
        <ele>449.2</ele>
        <time>2023-05-07T10:31:02Z</time>
      </trkpt>
      <trkpt lat="47.13234" lon="5.9348">
        <ele>448</ele>
        <time>2023-05-07T10:31:04Z</time>
      </trkpt>
      <trkpt lat="47.13229" lon="5.93477">
        <ele>447.4</ele>
        <time>2023-05-07T10:31:05Z</time>
      </trkpt>
      <trkpt lat="47.13223" lon="5.93472">
        <ele>446.6</ele>
        <time>2023-05-07T10:31:06Z</time>
      </trkpt>
      <trkpt lat="47.13212" lon="5.93463">
        <ele>445.2</ele>
        <time>2023-05-07T10:31:08Z</time>
      </trkpt>
      <trkpt lat="47.13198" lon="5.93455">
        <ele>443.4</ele>
        <time>2023-05-07T10:31:10Z</time>
      </trkpt>
      <trkpt lat="47.1319" lon="5.93451">
        <ele>442.4</ele>
        <time>2023-05-07T10:31:11Z</time>
      </trkpt>
      <trkpt lat="47.13181" lon="5.93445">
        <ele>441.2</ele>
        <time>2023-05-07T10:31:12Z</time>
      </trkpt>
      <trkpt lat="47.13172" lon="5.93439">
        <ele>440</ele>
        <time>2023-05-07T10:31:13Z</time>
      </trkpt>
      <trkpt lat="47.13163" lon="5.93431">
        <ele>438.8</ele>
        <time>2023-05-07T10:31:14Z</time>
      </trkpt>
      <trkpt lat="47.13155" lon="5.93423">
        <ele>437.4</ele>
        <time>2023-05-07T10:31:15Z</time>
      </trkpt>
      <trkpt lat="47.13146" lon="5.93415">
        <ele>436.2</ele>
        <time>2023-05-07T10:31:16Z</time>
      </trkpt>
      <trkpt lat="47.13137" lon="5.93408">
        <ele>435.2</ele>
        <time>2023-05-07T10:31:17Z</time>
      </trkpt>
      <trkpt lat="47.13129" lon="5.93402">
        <ele>434.2</ele>
        <time>2023-05-07T10:31:18Z</time>
      </trkpt>
      <trkpt lat="47.13121" lon="5.93395">
        <ele>433</ele>
        <time>2023-05-07T10:31:19Z</time>
      </trkpt>
      <trkpt lat="47.13113" lon="5.9339">
        <ele>432.2</ele>
        <time>2023-05-07T10:31:20Z</time>
      </trkpt>
      <trkpt lat="47.13105" lon="5.93385">
        <ele>431.4</ele>
        <time>2023-05-07T10:31:21Z</time>
      </trkpt>
      <trkpt lat="47.13091" lon="5.93372">
        <ele>429.6</ele>
        <time>2023-05-07T10:31:23Z</time>
      </trkpt>
      <trkpt lat="47.13085" lon="5.93364">
        <ele>428.6</ele>
        <time>2023-05-07T10:31:24Z</time>
      </trkpt>
      <trkpt lat="47.13079" lon="5.93356">
        <ele>427.4</ele>
        <time>2023-05-07T10:31:25Z</time>
      </trkpt>
      <trkpt lat="47.13068" lon="5.93336">
        <ele>425.4</ele>
        <time>2023-05-07T10:31:27Z</time>
      </trkpt>
      <trkpt lat="47.13061" lon="5.93326">
        <ele>424.4</ele>
        <time>2023-05-07T10:31:28Z</time>
      </trkpt>
      <trkpt lat="47.13055" lon="5.93317">
        <ele>423.4</ele>
        <time>2023-05-07T10:31:29Z</time>
      </trkpt>
      <trkpt lat="47.13049" lon="5.93308">
        <ele>422.4</ele>
        <time>2023-05-07T10:31:30Z</time>
      </trkpt>
      <trkpt lat="47.13039" lon="5.93295">
        <ele>420.6</ele>
        <time>2023-05-07T10:31:32Z</time>
      </trkpt>
      <trkpt lat="47.13033" lon="5.9329">
        <ele>419</ele>
        <time>2023-05-07T10:31:34Z</time>
      </trkpt>
      <trkpt lat="47.13031" lon="5.93287">
        <ele>418.4</ele>
        <time>2023-05-07T10:31:35Z</time>
      </trkpt>
      <trkpt lat="47.1303" lon="5.93285">
        <ele>417.8</ele>
        <time>2023-05-07T10:31:36Z</time>
      </trkpt>
      <trkpt lat="47.13027" lon="5.93277">
        <ele>415.2</ele>
        <time>2023-05-07T10:31:42Z</time>
      </trkpt>
      <trkpt lat="47.13031" lon="5.93278">
        <ele>414</ele>
        <time>2023-05-07T10:31:48Z</time>
      </trkpt>
      <trkpt lat="47.13036" lon="5.9328">
        <ele>413.4</ele>
        <time>2023-05-07T10:31:51Z</time>
      </trkpt>
      <trkpt lat="47.13039" lon="5.9328">
        <ele>413</ele>
        <time>2023-05-07T10:31:53Z</time>
      </trkpt>
      <trkpt lat="47.13046" lon="5.93282">
        <ele>411.4</ele>
        <time>2023-05-07T10:31:57Z</time>
      </trkpt>
      <trkpt lat="47.13049" lon="5.93282">
        <ele>410.2</ele>
        <time>2023-05-07T10:31:59Z</time>
      </trkpt>
      <trkpt lat="47.13053" lon="5.93281">
        <ele>409</ele>
        <time>2023-05-07T10:32:01Z</time>
      </trkpt>
      <trkpt lat="47.13057" lon="5.9328">
        <ele>407.8</ele>
        <time>2023-05-07T10:32:03Z</time>
      </trkpt>
      <trkpt lat="47.13061" lon="5.93278">
        <ele>407.2</ele>
        <time>2023-05-07T10:32:04Z</time>
      </trkpt>
      <trkpt lat="47.13065" lon="5.93275">
        <ele>406.8</ele>
        <time>2023-05-07T10:32:05Z</time>
      </trkpt>
      <trkpt lat="47.13073" lon="5.93268">
        <ele>405.6</ele>
        <time>2023-05-07T10:32:07Z</time>
      </trkpt>
      <trkpt lat="47.13084" lon="5.93262">
        <ele>403.6</ele>
        <time>2023-05-07T10:32:09Z</time>
      </trkpt>
      <trkpt lat="47.13091" lon="5.93259">
        <ele>402.4</ele>
        <time>2023-05-07T10:32:10Z</time>
      </trkpt>
      <trkpt lat="47.13098" lon="5.93258">
        <ele>401.2</ele>
        <time>2023-05-07T10:32:11Z</time>
      </trkpt>
      <trkpt lat="47.13107" lon="5.93257">
        <ele>400</ele>
        <time>2023-05-07T10:32:12Z</time>
      </trkpt>
      <trkpt lat="47.13116" lon="5.93256">
        <ele>398.8</ele>
        <time>2023-05-07T10:32:13Z</time>
      </trkpt>
      <trkpt lat="47.13136" lon="5.93256">
        <ele>397</ele>
        <time>2023-05-07T10:32:15Z</time>
      </trkpt>
      <trkpt lat="47.13152" lon="5.93259">
        <ele>395.2</ele>
        <time>2023-05-07T10:32:17Z</time>
      </trkpt>
      <trkpt lat="47.1316" lon="5.93261">
        <ele>394.2</ele>
        <time>2023-05-07T10:32:18Z</time>
      </trkpt>
      <trkpt lat="47.13168" lon="5.93263">
        <ele>393.4</ele>
        <time>2023-05-07T10:32:19Z</time>
      </trkpt>
      <trkpt lat="47.13183" lon="5.9327">
        <ele>391.6</ele>
        <time>2023-05-07T10:32:21Z</time>
      </trkpt>
      <trkpt lat="47.1319" lon="5.93273">
        <ele>390.4</ele>
        <time>2023-05-07T10:32:22Z</time>
      </trkpt>
      <trkpt lat="47.13199" lon="5.93277">
        <ele>389.6</ele>
        <time>2023-05-07T10:32:23Z</time>
      </trkpt>
      <trkpt lat="47.13207" lon="5.93281">
        <ele>388.6</ele>
        <time>2023-05-07T10:32:24Z</time>
      </trkpt>
      <trkpt lat="47.13221" lon="5.9329">
        <ele>386.8</ele>
        <time>2023-05-07T10:32:26Z</time>
      </trkpt>
      <trkpt lat="47.1325" lon="5.93306">
        <ele>386</ele>
        <time>2023-05-07T10:32:29Z</time>
      </trkpt>
      <trkpt lat="47.13264" lon="5.93313">
        <ele>385.4</ele>
        <time>2023-05-07T10:32:31Z</time>
      </trkpt>
      <trkpt lat="47.13271" lon="5.93317">
        <ele>385.2</ele>
        <time>2023-05-07T10:32:32Z</time>
      </trkpt>
      <trkpt lat="47.13277" lon="5.9332">
        <ele>385</ele>
        <time>2023-05-07T10:32:33Z</time>
      </trkpt>
      <trkpt lat="47.13293" lon="5.93329">
        <ele>384.4</ele>
        <time>2023-05-07T10:32:36Z</time>
      </trkpt>
      <trkpt lat="47.13299" lon="5.93333">
        <ele>384.2</ele>
        <time>2023-05-07T10:32:37Z</time>
      </trkpt>
      <trkpt lat="47.13308" lon="5.93341">
        <ele>383.6</ele>
        <time>2023-05-07T10:32:39Z</time>
      </trkpt>
      <trkpt lat="47.13313" lon="5.93346">
        <ele>383.2</ele>
        <time>2023-05-07T10:32:40Z</time>
      </trkpt>
      <trkpt lat="47.13317" lon="5.9335">
        <ele>382.8</ele>
        <time>2023-05-07T10:32:41Z</time>
      </trkpt>
      <trkpt lat="47.13333" lon="5.93368">
        <ele>381.6</ele>
        <time>2023-05-07T10:32:44Z</time>
      </trkpt>
      <trkpt lat="47.13357" lon="5.93391">
        <ele>380.4</ele>
        <time>2023-05-07T10:32:48Z</time>
      </trkpt>
      <trkpt lat="47.13374" lon="5.93408">
        <ele>379.4</ele>
        <time>2023-05-07T10:32:51Z</time>
      </trkpt>
      <trkpt lat="47.13384" lon="5.9342">
        <ele>379</ele>
        <time>2023-05-07T10:32:53Z</time>
      </trkpt>
      <trkpt lat="47.13398" lon="5.93437">
        <ele>378.8</ele>
        <time>2023-05-07T10:32:56Z</time>
      </trkpt>
      <trkpt lat="47.13402" lon="5.93442">
        <ele>378.4</ele>
        <time>2023-05-07T10:32:57Z</time>
      </trkpt>
      <trkpt lat="47.13409" lon="5.93451">
        <ele>377.4</ele>
        <time>2023-05-07T10:32:59Z</time>
      </trkpt>
      <trkpt lat="47.13416" lon="5.9346">
        <ele>375.8</ele>
        <time>2023-05-07T10:33:01Z</time>
      </trkpt>
      <trkpt lat="47.13422" lon="5.93467">
        <ele>374</ele>
        <time>2023-05-07T10:33:03Z</time>
      </trkpt>
      <trkpt lat="47.13429" lon="5.93475">
        <ele>372</ele>
        <time>2023-05-07T10:33:05Z</time>
      </trkpt>
      <trkpt lat="47.13434" lon="5.93482">
        <ele>370.6</ele>
        <time>2023-05-07T10:33:06Z</time>
      </trkpt>
      <trkpt lat="47.13439" lon="5.93488">
        <ele>369.2</ele>
        <time>2023-05-07T10:33:07Z</time>
      </trkpt>
      <trkpt lat="47.13444" lon="5.93495">
        <ele>367.8</ele>
        <time>2023-05-07T10:33:08Z</time>
      </trkpt>
      <trkpt lat="47.1345" lon="5.93502">
        <ele>366.4</ele>
        <time>2023-05-07T10:33:09Z</time>
      </trkpt>
      <trkpt lat="47.13455" lon="5.93507">
        <ele>365</ele>
        <time>2023-05-07T10:33:10Z</time>
      </trkpt>
      <trkpt lat="47.13461" lon="5.93513">
        <ele>363.6</ele>
        <time>2023-05-07T10:33:11Z</time>
      </trkpt>
      <trkpt lat="47.13466" lon="5.9352">
        <ele>362.2</ele>
        <time>2023-05-07T10:33:12Z</time>
      </trkpt>
      <trkpt lat="47.13472" lon="5.93526">
        <ele>360.8</ele>
        <time>2023-05-07T10:33:13Z</time>
      </trkpt>
      <trkpt lat="47.13479" lon="5.93533">
        <ele>359.6</ele>
        <time>2023-05-07T10:33:14Z</time>
      </trkpt>
      <trkpt lat="47.13486" lon="5.9354">
        <ele>358.6</ele>
        <time>2023-05-07T10:33:15Z</time>
      </trkpt>
      <trkpt lat="47.13493" lon="5.93546">
        <ele>357.4</ele>
        <time>2023-05-07T10:33:16Z</time>
      </trkpt>
      <trkpt lat="47.135" lon="5.93553">
        <ele>356.2</ele>
        <time>2023-05-07T10:33:17Z</time>
      </trkpt>
      <trkpt lat="47.13506" lon="5.93558">
        <ele>354.8</ele>
        <time>2023-05-07T10:33:18Z</time>
      </trkpt>
      <trkpt lat="47.13512" lon="5.93563">
        <ele>353.4</ele>
        <time>2023-05-07T10:33:19Z</time>
      </trkpt>
      <trkpt lat="47.13517" lon="5.93565">
        <ele>352</ele>
        <time>2023-05-07T10:33:20Z</time>
      </trkpt>
      <trkpt lat="47.13521" lon="5.93568">
        <ele>350.8</ele>
        <time>2023-05-07T10:33:21Z</time>
      </trkpt>
      <trkpt lat="47.13525" lon="5.93571">
        <ele>349.6</ele>
        <time>2023-05-07T10:33:22Z</time>
      </trkpt>
      <trkpt lat="47.13529" lon="5.93572">
        <ele>348.8</ele>
        <time>2023-05-07T10:33:23Z</time>
      </trkpt>
      <trkpt lat="47.13533" lon="5.93573">
        <ele>347.6</ele>
        <time>2023-05-07T10:33:24Z</time>
      </trkpt>
      <trkpt lat="47.13536" lon="5.93575">
        <ele>346.4</ele>
        <time>2023-05-07T10:33:25Z</time>
      </trkpt>
      <trkpt lat="47.13539" lon="5.93576">
        <ele>345.2</ele>
        <time>2023-05-07T10:33:26Z</time>
      </trkpt>
      <trkpt lat="47.13543" lon="5.93577">
        <ele>344</ele>
        <time>2023-05-07T10:33:27Z</time>
      </trkpt>
      <trkpt lat="47.13545" lon="5.93577">
        <ele>342.6</ele>
        <time>2023-05-07T10:33:28Z</time>
      </trkpt>
      <trkpt lat="47.13549" lon="5.93578">
        <ele>341.2</ele>
        <time>2023-05-07T10:33:29Z</time>
      </trkpt>
      <trkpt lat="47.13552" lon="5.93579">
        <ele>339.6</ele>
        <time>2023-05-07T10:33:30Z</time>
      </trkpt>
      <trkpt lat="47.13555" lon="5.9358">
        <ele>337.8</ele>
        <time>2023-05-07T10:33:31Z</time>
      </trkpt>
      <trkpt lat="47.1356" lon="5.93583">
        <ele>336.6</ele>
        <time>2023-05-07T10:33:32Z</time>
      </trkpt>
      <trkpt lat="47.13565" lon="5.93585">
        <ele>335</ele>
        <time>2023-05-07T10:33:33Z</time>
      </trkpt>
      <trkpt lat="47.1357" lon="5.93587">
        <ele>333.4</ele>
        <time>2023-05-07T10:33:34Z</time>
      </trkpt>
      <trkpt lat="47.13575" lon="5.93589">
        <ele>331.8</ele>
        <time>2023-05-07T10:33:35Z</time>
      </trkpt>
      <trkpt lat="47.13582" lon="5.93591">
        <ele>330.2</ele>
        <time>2023-05-07T10:33:36Z</time>
      </trkpt>
      <trkpt lat="47.13589" lon="5.93593">
        <ele>328.6</ele>
        <time>2023-05-07T10:33:37Z</time>
      </trkpt>
      <trkpt lat="47.13596" lon="5.93594">
        <ele>327.4</ele>
        <time>2023-05-07T10:33:38Z</time>
      </trkpt>
      <trkpt lat="47.1364" lon="5.93607">
        <ele>328.4</ele>
        <time>2023-05-07T10:33:45Z</time>
      </trkpt>
      <trkpt lat="47.13645" lon="5.93606">
        <ele>328.6</ele>
        <time>2023-05-07T10:33:46Z</time>
      </trkpt>
      <trkpt lat="47.13662" lon="5.93608">
        <ele>329.2</ele>
        <time>2023-05-07T10:33:49Z</time>
      </trkpt>
      <trkpt lat="47.13668" lon="5.93609">
        <ele>329.6</ele>
        <time>2023-05-07T10:33:50Z</time>
      </trkpt>
      <trkpt lat="47.13707" lon="5.93612">
        <ele>330.6</ele>
        <time>2023-05-07T10:33:57Z</time>
      </trkpt>
      <trkpt lat="47.13713" lon="5.93613">
        <ele>330.6</ele>
        <time>2023-05-07T10:33:58Z</time>
      </trkpt>
      <trkpt lat="47.13733" lon="5.93606">
        <ele>331.2</ele>
        <time>2023-05-07T10:34:02Z</time>
      </trkpt>
      <trkpt lat="47.1374" lon="5.936">
        <ele>332.4</ele>
        <time>2023-05-07T10:34:03Z</time>
      </trkpt>
      <trkpt lat="47.13746" lon="5.93593">
        <ele>334</ele>
        <time>2023-05-07T10:34:05Z</time>
      </trkpt>
      <trkpt lat="47.13746" lon="5.93589">
        <ele>335</ele>
        <time>2023-05-07T10:34:06Z</time>
      </trkpt>
      <trkpt lat="47.13747" lon="5.93584">
        <ele>335.8</ele>
        <time>2023-05-07T10:34:07Z</time>
      </trkpt>
      <trkpt lat="47.13736" lon="5.93565">
        <ele>336</ele>
        <time>2023-05-07T10:34:11Z</time>
      </trkpt>
      <trkpt lat="47.13718" lon="5.9354">
        <ele>335.4</ele>
        <time>2023-05-07T10:34:16Z</time>
      </trkpt>
      <trkpt lat="47.13706" lon="5.93521">
        <ele>335</ele>
        <time>2023-05-07T10:34:21Z</time>
      </trkpt>
      <trkpt lat="47.13701" lon="5.93514">
        <ele>334.6</ele>
        <time>2023-05-07T10:34:23Z</time>
      </trkpt>
      <trkpt lat="47.13694" lon="5.93502">
        <ele>333.8</ele>
        <time>2023-05-07T10:34:26Z</time>
      </trkpt>
      <trkpt lat="47.13694" lon="5.93498">
        <ele>333.4</ele>
        <time>2023-05-07T10:34:27Z</time>
      </trkpt>
      <trkpt lat="47.13699" lon="5.93493">
        <ele>332.8</ele>
        <time>2023-05-07T10:34:30Z</time>
      </trkpt>
      <trkpt lat="47.13702" lon="5.93493">
        <ele>332.4</ele>
        <time>2023-05-07T10:34:31Z</time>
      </trkpt>
      <trkpt lat="47.13711" lon="5.93495">
        <ele>331.2</ele>
        <time>2023-05-07T10:34:33Z</time>
      </trkpt>
      <trkpt lat="47.13723" lon="5.935">
        <ele>330.8</ele>
        <time>2023-05-07T10:34:35Z</time>
      </trkpt>
      <trkpt lat="47.13736" lon="5.93502">
        <ele>330</ele>
        <time>2023-05-07T10:34:37Z</time>
      </trkpt>
      <trkpt lat="47.13751" lon="5.93503">
        <ele>328.2</ele>
        <time>2023-05-07T10:34:40Z</time>
      </trkpt>
      <trkpt lat="47.13761" lon="5.93502">
        <ele>327</ele>
        <time>2023-05-07T10:34:44Z</time>
      </trkpt>
      <trkpt lat="47.13764" lon="5.93501">
        <ele>326.6</ele>
        <time>2023-05-07T10:34:45Z</time>
      </trkpt>
      <trkpt lat="47.13767" lon="5.93497">
        <ele>325.8</ele>
        <time>2023-05-07T10:34:47Z</time>
      </trkpt>
      <trkpt lat="47.13767" lon="5.93494">
        <ele>325.6</ele>
        <time>2023-05-07T10:34:48Z</time>
      </trkpt>
      <trkpt lat="47.13764" lon="5.93487">
        <ele>325</ele>
        <time>2023-05-07T10:34:50Z</time>
      </trkpt>
      <trkpt lat="47.13763" lon="5.93483">
        <ele>324.6</ele>
        <time>2023-05-07T10:34:51Z</time>
      </trkpt>
      <trkpt lat="47.13757" lon="5.93471">
        <ele>324</ele>
        <time>2023-05-07T10:34:54Z</time>
      </trkpt>
      <trkpt lat="47.13754" lon="5.93465">
        <ele>323.4</ele>
        <time>2023-05-07T10:34:56Z</time>
      </trkpt>
      <trkpt lat="47.13749" lon="5.93456">
        <ele>322.2</ele>
        <time>2023-05-07T10:34:59Z</time>
      </trkpt>
      <trkpt lat="47.13747" lon="5.93452">
        <ele>321.8</ele>
        <time>2023-05-07T10:35:00Z</time>
      </trkpt>
      <trkpt lat="47.13743" lon="5.93443">
        <ele>320.8</ele>
        <time>2023-05-07T10:35:03Z</time>
      </trkpt>
      <trkpt lat="47.13739" lon="5.93434">
        <ele>319.4</ele>
        <time>2023-05-07T10:35:06Z</time>
      </trkpt>
      <trkpt lat="47.13738" lon="5.93432">
        <ele>319</ele>
        <time>2023-05-07T10:35:07Z</time>
      </trkpt>
      <trkpt lat="47.13735" lon="5.93427">
        <ele>318</ele>
        <time>2023-05-07T10:35:10Z</time>
      </trkpt>
      <trkpt lat="47.13736" lon="5.93424">
        <ele>317</ele>
        <time>2023-05-07T10:35:11Z</time>
      </trkpt>
      <trkpt lat="47.13736" lon="5.93419">
        <ele>316</ele>
        <time>2023-05-07T10:35:13Z</time>
      </trkpt>
      <trkpt lat="47.13737" lon="5.93415">
        <ele>314.6</ele>
        <time>2023-05-07T10:35:15Z</time>
      </trkpt>
      <trkpt lat="47.13737" lon="5.93412">
        <ele>313</ele>
        <time>2023-05-07T10:35:17Z</time>
      </trkpt>
      <trkpt lat="47.1371" lon="5.93392">
        <ele>301.6</ele>
        <time>2023-05-07T10:36:54Z</time>
      </trkpt>
      <trkpt lat="47.13707" lon="5.9339">
        <ele>299.8</ele>
        <time>2023-05-07T10:36:55Z</time>
      </trkpt>
      <trkpt lat="47.13704" lon="5.93387">
        <ele>298.6</ele>
        <time>2023-05-07T10:36:56Z</time>
      </trkpt>
      <trkpt lat="47.13702" lon="5.93384">
        <ele>297.2</ele>
        <time>2023-05-07T10:36:57Z</time>
      </trkpt>
      <trkpt lat="47.13699" lon="5.93381">
        <ele>296.2</ele>
        <time>2023-05-07T10:36:58Z</time>
      </trkpt>
      <trkpt lat="47.1369" lon="5.93365">
        <ele>294.8</ele>
        <time>2023-05-07T10:37:03Z</time>
      </trkpt>
      <trkpt lat="47.13683" lon="5.93352">
        <ele>292.8</ele>
        <time>2023-05-07T10:37:06Z</time>
      </trkpt>
      <trkpt lat="47.1368" lon="5.93347">
        <ele>291.4</ele>
        <time>2023-05-07T10:37:07Z</time>
      </trkpt>
      <trkpt lat="47.13676" lon="5.93343">
        <ele>290.4</ele>
        <time>2023-05-07T10:37:08Z</time>
      </trkpt>
      <trkpt lat="47.13669" lon="5.93335">
        <ele>288.6</ele>
        <time>2023-05-07T10:37:10Z</time>
      </trkpt>
      <trkpt lat="47.13662" lon="5.93328">
        <ele>287.4</ele>
        <time>2023-05-07T10:37:12Z</time>
      </trkpt>
      <trkpt lat="47.13656" lon="5.93322">
        <ele>286.2</ele>
        <time>2023-05-07T10:37:14Z</time>
      </trkpt>
      <trkpt lat="47.13651" lon="5.93316">
        <ele>285</ele>
        <time>2023-05-07T10:37:16Z</time>
      </trkpt>
      <trkpt lat="47.13636" lon="5.933">
        <ele>284.6</ele>
        <time>2023-05-07T10:37:21Z</time>
      </trkpt>
      <trkpt lat="47.13621" lon="5.93299">
        <ele>285.2</ele>
        <time>2023-05-07T10:37:26Z</time>
      </trkpt>
      <trkpt lat="47.13615" lon="5.93296">
        <ele>285.4</ele>
        <time>2023-05-07T10:37:28Z</time>
      </trkpt>
      <trkpt lat="47.13612" lon="5.93291">
        <ele>284.8</ele>
        <time>2023-05-07T10:37:30Z</time>
      </trkpt>
      <trkpt lat="47.13602" lon="5.93275">
        <ele>284.4</ele>
        <time>2023-05-07T10:37:35Z</time>
      </trkpt>
      <trkpt lat="47.136" lon="5.93272">
        <ele>284</ele>
        <time>2023-05-07T10:37:36Z</time>
      </trkpt>
      <trkpt lat="47.13597" lon="5.93267">
        <ele>282.8</ele>
        <time>2023-05-07T10:37:38Z</time>
      </trkpt>
      <trkpt lat="47.13587" lon="5.93252">
        <ele>282.2</ele>
        <time>2023-05-07T10:37:41Z</time>
      </trkpt>
      <trkpt lat="47.13582" lon="5.93247">
        <ele>281.4</ele>
        <time>2023-05-07T10:37:42Z</time>
      </trkpt>
      <trkpt lat="47.13567" lon="5.93233">
        <ele>280.4</ele>
        <time>2023-05-07T10:37:45Z</time>
      </trkpt>
      <trkpt lat="47.13559" lon="5.93224">
        <ele>280.8</ele>
        <time>2023-05-07T10:37:47Z</time>
      </trkpt>
      <trkpt lat="47.13537" lon="5.93201">
        <ele>279.6</ele>
        <time>2023-05-07T10:37:54Z</time>
      </trkpt>
      <trkpt lat="47.13535" lon="5.93198">
        <ele>279.4</ele>
        <time>2023-05-07T10:37:55Z</time>
      </trkpt>
      <trkpt lat="47.13521" lon="5.93179">
        <ele>280.4</ele>
        <time>2023-05-07T10:38:00Z</time>
      </trkpt>
      <trkpt lat="47.13519" lon="5.93176">
        <ele>280.2</ele>
        <time>2023-05-07T10:38:01Z</time>
      </trkpt>
      <trkpt lat="47.135" lon="5.93151">
        <ele>281</ele>
        <time>2023-05-07T10:38:07Z</time>
      </trkpt>
      <trkpt lat="47.13495" lon="5.93139">
        <ele>281.6</ele>
        <time>2023-05-07T10:38:09Z</time>
      </trkpt>
      <trkpt lat="47.13486" lon="5.93124">
        <ele>282.8</ele>
        <time>2023-05-07T10:38:12Z</time>
      </trkpt>
      <trkpt lat="47.13484" lon="5.93121">
        <ele>282.8</ele>
        <time>2023-05-07T10:38:13Z</time>
      </trkpt>
      <trkpt lat="47.13473" lon="5.93105">
        <ele>283.2</ele>
        <time>2023-05-07T10:38:18Z</time>
      </trkpt>
      <trkpt lat="47.13467" lon="5.93096">
        <ele>283.8</ele>
        <time>2023-05-07T10:38:20Z</time>
      </trkpt>
      <trkpt lat="47.13456" lon="5.93077">
        <ele>284.8</ele>
        <time>2023-05-07T10:38:23Z</time>
      </trkpt>
      <trkpt lat="47.13438" lon="5.93041">
        <ele>285.2</ele>
        <time>2023-05-07T10:38:29Z</time>
      </trkpt>
      <trkpt lat="47.13419" lon="5.92992">
        <ele>285</ele>
        <time>2023-05-07T10:38:37Z</time>
      </trkpt>
      <trkpt lat="47.13411" lon="5.92976">
        <ele>284.8</ele>
        <time>2023-05-07T10:38:40Z</time>
      </trkpt>
      <trkpt lat="47.13401" lon="5.92961">
        <ele>284.6</ele>
        <time>2023-05-07T10:38:43Z</time>
      </trkpt>
      <trkpt lat="47.13396" lon="5.92957">
        <ele>284</ele>
        <time>2023-05-07T10:38:44Z</time>
      </trkpt>
      <trkpt lat="47.13392" lon="5.92954">
        <ele>283.6</ele>
        <time>2023-05-07T10:38:45Z</time>
      </trkpt>
      <trkpt lat="47.1338" lon="5.92938">
        <ele>282.2</ele>
        <time>2023-05-07T10:38:48Z</time>
      </trkpt>
      <trkpt lat="47.13357" lon="5.92897">
        <ele>282</ele>
        <time>2023-05-07T10:38:55Z</time>
      </trkpt>
      <trkpt lat="47.13331" lon="5.92851">
        <ele>282</ele>
        <time>2023-05-07T10:39:03Z</time>
      </trkpt>
      <trkpt lat="47.13322" lon="5.92835">
        <ele>282</ele>
        <time>2023-05-07T10:39:06Z</time>
      </trkpt>
      <trkpt lat="47.13311" lon="5.92812">
        <ele>281.6</ele>
        <time>2023-05-07T10:39:10Z</time>
      </trkpt>
      <trkpt lat="47.13296" lon="5.92796">
        <ele>281.4</ele>
        <time>2023-05-07T10:39:14Z</time>
      </trkpt>
      <trkpt lat="47.13292" lon="5.92791">
        <ele>281.2</ele>
        <time>2023-05-07T10:39:15Z</time>
      </trkpt>
      <trkpt lat="47.13289" lon="5.92786">
        <ele>281.2</ele>
        <time>2023-05-07T10:39:16Z</time>
      </trkpt>
      <trkpt lat="47.13286" lon="5.92781">
        <ele>280.8</ele>
        <time>2023-05-07T10:39:17Z</time>
      </trkpt>
      <trkpt lat="47.13282" lon="5.9277">
        <ele>280.4</ele>
        <time>2023-05-07T10:39:19Z</time>
      </trkpt>
      <trkpt lat="47.13275" lon="5.92752">
        <ele>280.2</ele>
        <time>2023-05-07T10:39:22Z</time>
      </trkpt>
      <trkpt lat="47.13264" lon="5.92729">
        <ele>279.6</ele>
        <time>2023-05-07T10:39:26Z</time>
      </trkpt>
      <trkpt lat="47.13252" lon="5.92708">
        <ele>279.2</ele>
        <time>2023-05-07T10:39:30Z</time>
      </trkpt>
      <trkpt lat="47.13249" lon="5.92703">
        <ele>279</ele>
        <time>2023-05-07T10:39:31Z</time>
      </trkpt>
      <trkpt lat="47.13232" lon="5.92665">
        <ele>278.6</ele>
        <time>2023-05-07T10:39:38Z</time>
      </trkpt>
      <trkpt lat="47.13221" lon="5.9264">
        <ele>278</ele>
        <time>2023-05-07T10:39:43Z</time>
      </trkpt>
      <trkpt lat="47.13215" lon="5.92626">
        <ele>277.4</ele>
        <time>2023-05-07T10:39:46Z</time>
      </trkpt>
      <trkpt lat="47.13211" lon="5.92602">
        <ele>277.6</ele>
        <time>2023-05-07T10:39:51Z</time>
      </trkpt>
      <trkpt lat="47.132" lon="5.92565">
        <ele>278.8</ele>
        <time>2023-05-07T10:39:58Z</time>
      </trkpt>
      <trkpt lat="47.13198" lon="5.9256">
        <ele>279.2</ele>
        <time>2023-05-07T10:39:59Z</time>
      </trkpt>
      <trkpt lat="47.13192" lon="5.92547">
        <ele>280.4</ele>
        <time>2023-05-07T10:40:02Z</time>
      </trkpt>
      <trkpt lat="47.13189" lon="5.92542">
        <ele>280.6</ele>
        <time>2023-05-07T10:40:03Z</time>
      </trkpt>
      <trkpt lat="47.13181" lon="5.92524">
        <ele>281.2</ele>
        <time>2023-05-07T10:40:08Z</time>
      </trkpt>
      <trkpt lat="47.13171" lon="5.92503">
        <ele>281</ele>
        <time>2023-05-07T10:40:12Z</time>
      </trkpt>
      <trkpt lat="47.13169" lon="5.92496">
        <ele>280.8</ele>
        <time>2023-05-07T10:40:13Z</time>
      </trkpt>
      <trkpt lat="47.13153" lon="5.92457">
        <ele>280.2</ele>
        <time>2023-05-07T10:40:20Z</time>
      </trkpt>
      <trkpt lat="47.13146" lon="5.92442">
        <ele>279.2</ele>
        <time>2023-05-07T10:40:23Z</time>
      </trkpt>
      <trkpt lat="47.13134" lon="5.92425">
        <ele>278</ele>
        <time>2023-05-07T10:40:27Z</time>
      </trkpt>
      <trkpt lat="47.1313" lon="5.92421">
        <ele>277.4</ele>
        <time>2023-05-07T10:40:28Z</time>
      </trkpt>
      <trkpt lat="47.13124" lon="5.92413">
        <ele>276.6</ele>
        <time>2023-05-07T10:40:30Z</time>
      </trkpt>
      <trkpt lat="47.13113" lon="5.92392">
        <ele>276</ele>
        <time>2023-05-07T10:40:35Z</time>
      </trkpt>
      <trkpt lat="47.13106" lon="5.92379">
        <ele>275.4</ele>
        <time>2023-05-07T10:40:38Z</time>
      </trkpt>
      <trkpt lat="47.13094" lon="5.92363">
        <ele>274.6</ele>
        <time>2023-05-07T10:40:43Z</time>
      </trkpt>
      <trkpt lat="47.13089" lon="5.92358">
        <ele>274.2</ele>
        <time>2023-05-07T10:40:45Z</time>
      </trkpt>
      <trkpt lat="47.13073" lon="5.92344">
        <ele>273.4</ele>
        <time>2023-05-07T10:40:50Z</time>
      </trkpt>
      <trkpt lat="47.13063" lon="5.92337">
        <ele>273</ele>
        <time>2023-05-07T10:40:53Z</time>
      </trkpt>
      <trkpt lat="47.13049" lon="5.92328">
        <ele>272.8</ele>
        <time>2023-05-07T10:40:57Z</time>
      </trkpt>
      <trkpt lat="47.1302" lon="5.92316">
        <ele>272.8</ele>
        <time>2023-05-07T10:41:05Z</time>
      </trkpt>
      <trkpt lat="47.12993" lon="5.92316">
        <ele>273.2</ele>
        <time>2023-05-07T10:41:12Z</time>
      </trkpt>
      <trkpt lat="47.12982" lon="5.92328">
        <ele>273.4</ele>
        <time>2023-05-07T10:41:16Z</time>
      </trkpt>
      <trkpt lat="47.12969" lon="5.92354">
        <ele>273.6</ele>
        <time>2023-05-07T10:41:22Z</time>
      </trkpt>
      <trkpt lat="47.12958" lon="5.92376">
        <ele>273.6</ele>
        <time>2023-05-07T10:41:27Z</time>
      </trkpt>
      <trkpt lat="47.12947" lon="5.92384">
        <ele>274</ele>
        <time>2023-05-07T10:41:30Z</time>
      </trkpt>
      <trkpt lat="47.12939" lon="5.92388">
        <ele>274.4</ele>
        <time>2023-05-07T10:41:32Z</time>
      </trkpt>
      <trkpt lat="47.12928" lon="5.92393">
        <ele>275.2</ele>
        <time>2023-05-07T10:41:35Z</time>
      </trkpt>
      <trkpt lat="47.12914" lon="5.92399">
        <ele>275.2</ele>
        <time>2023-05-07T10:41:39Z</time>
      </trkpt>
      <trkpt lat="47.1289" lon="5.92409">
        <ele>275.8</ele>
        <time>2023-05-07T10:41:46Z</time>
      </trkpt>
      <trkpt lat="47.12864" lon="5.92424">
        <ele>274.4</ele>
        <time>2023-05-07T10:41:54Z</time>
      </trkpt>
      <trkpt lat="47.12852" lon="5.9243">
        <ele>274.2</ele>
        <time>2023-05-07T10:41:58Z</time>
      </trkpt>
      <trkpt lat="47.12839" lon="5.92435">
        <ele>273.6</ele>
        <time>2023-05-07T10:42:02Z</time>
      </trkpt>
      <trkpt lat="47.12825" lon="5.92435">
        <ele>273.2</ele>
        <time>2023-05-07T10:42:06Z</time>
      </trkpt>
      <trkpt lat="47.12818" lon="5.92435">
        <ele>273</ele>
        <time>2023-05-07T10:42:08Z</time>
      </trkpt>
      <trkpt lat="47.12802" lon="5.92437">
        <ele>272.6</ele>
        <time>2023-05-07T10:42:13Z</time>
      </trkpt>
      <trkpt lat="47.12776" lon="5.92441">
        <ele>272.2</ele>
        <time>2023-05-07T10:42:20Z</time>
      </trkpt>
      <trkpt lat="47.12748" lon="5.92444">
        <ele>272.6</ele>
        <time>2023-05-07T10:42:28Z</time>
      </trkpt>
      <trkpt lat="47.12721" lon="5.92447">
        <ele>272.2</ele>
        <time>2023-05-07T10:42:35Z</time>
      </trkpt>
      <trkpt lat="47.12717" lon="5.92447">
        <ele>272.2</ele>
        <time>2023-05-07T10:42:36Z</time>
      </trkpt>
      <trkpt lat="47.12678" lon="5.9245">
        <ele>271.6</ele>
        <time>2023-05-07T10:42:45Z</time>
      </trkpt>
      <trkpt lat="47.12658" lon="5.92451">
        <ele>271.6</ele>
        <time>2023-05-07T10:42:51Z</time>
      </trkpt>
      <trkpt lat="47.12636" lon="5.92446">
        <ele>271.6</ele>
        <time>2023-05-07T10:42:57Z</time>
      </trkpt>
      <trkpt lat="47.12623" lon="5.92438">
        <ele>271</ele>
        <time>2023-05-07T10:43:01Z</time>
      </trkpt>
      <trkpt lat="47.12612" lon="5.92432">
        <ele>271.2</ele>
        <time>2023-05-07T10:43:04Z</time>
      </trkpt>
      <trkpt lat="47.12582" lon="5.92412">
        <ele>270.8</ele>
        <time>2023-05-07T10:43:12Z</time>
      </trkpt>
      <trkpt lat="47.1256" lon="5.92396">
        <ele>270.4</ele>
        <time>2023-05-07T10:43:19Z</time>
      </trkpt>
      <trkpt lat="47.12539" lon="5.92382">
        <ele>270</ele>
        <time>2023-05-07T10:43:26Z</time>
      </trkpt>
      <trkpt lat="47.12536" lon="5.92381">
        <ele>270</ele>
        <time>2023-05-07T10:43:27Z</time>
      </trkpt>
      <trkpt lat="47.12519" lon="5.9237">
        <ele>271</ele>
        <time>2023-05-07T10:43:33Z</time>
      </trkpt>
      <trkpt lat="47.12516" lon="5.92368">
        <ele>271.2</ele>
        <time>2023-05-07T10:43:34Z</time>
      </trkpt>
      <trkpt lat="47.12492" lon="5.92353">
        <ele>271.8</ele>
        <time>2023-05-07T10:43:41Z</time>
      </trkpt>
      <trkpt lat="47.12488" lon="5.92351">
        <ele>272.2</ele>
        <time>2023-05-07T10:43:42Z</time>
      </trkpt>
      <trkpt lat="47.12478" lon="5.92339">
        <ele>273.2</ele>
        <time>2023-05-07T10:43:46Z</time>
      </trkpt>
      <trkpt lat="47.12473" lon="5.92334">
        <ele>273.4</ele>
        <time>2023-05-07T10:43:48Z</time>
      </trkpt>
      <trkpt lat="47.12461" lon="5.92324">
        <ele>274.2</ele>
        <time>2023-05-07T10:43:53Z</time>
      </trkpt>
      <trkpt lat="47.12459" lon="5.92323">
        <ele>274.2</ele>
        <time>2023-05-07T10:43:54Z</time>
      </trkpt>
      <trkpt lat="47.12444" lon="5.92313">
        <ele>275.4</ele>
        <time>2023-05-07T10:43:59Z</time>
      </trkpt>
      <trkpt lat="47.12441" lon="5.9231">
        <ele>275.8</ele>
        <time>2023-05-07T10:44:00Z</time>
      </trkpt>
      <trkpt lat="47.12433" lon="5.92303">
        <ele>276.8</ele>
        <time>2023-05-07T10:44:03Z</time>
      </trkpt>
      <trkpt lat="47.12428" lon="5.92298">
        <ele>277.8</ele>
        <time>2023-05-07T10:44:05Z</time>
      </trkpt>
      <trkpt lat="47.12422" lon="5.92294">
        <ele>279</ele>
        <time>2023-05-07T10:44:07Z</time>
      </trkpt>
      <trkpt lat="47.12416" lon="5.92288">
        <ele>280.2</ele>
        <time>2023-05-07T10:44:09Z</time>
      </trkpt>
      <trkpt lat="47.12411" lon="5.92283">
        <ele>281</ele>
        <time>2023-05-07T10:44:11Z</time>
      </trkpt>
      <trkpt lat="47.12409" lon="5.92281">
        <ele>281.4</ele>
        <time>2023-05-07T10:44:12Z</time>
      </trkpt>
      <trkpt lat="47.12402" lon="5.92273">
        <ele>283</ele>
        <time>2023-05-07T10:44:15Z</time>
      </trkpt>
      <trkpt lat="47.12397" lon="5.92266">
        <ele>284</ele>
        <time>2023-05-07T10:44:17Z</time>
      </trkpt>
      <trkpt lat="47.12395" lon="5.92263">
        <ele>284.8</ele>
        <time>2023-05-07T10:44:18Z</time>
      </trkpt>
      <trkpt lat="47.12393" lon="5.9226">
        <ele>285.4</ele>
        <time>2023-05-07T10:44:19Z</time>
      </trkpt>
      <trkpt lat="47.12388" lon="5.92253">
        <ele>286.6</ele>
        <time>2023-05-07T10:44:21Z</time>
      </trkpt>
      <trkpt lat="47.12384" lon="5.92246">
        <ele>287.6</ele>
        <time>2023-05-07T10:44:23Z</time>
      </trkpt>
      <trkpt lat="47.12379" lon="5.92239">
        <ele>289</ele>
        <time>2023-05-07T10:44:25Z</time>
      </trkpt>
      <trkpt lat="47.12374" lon="5.92232">
        <ele>290.2</ele>
        <time>2023-05-07T10:44:27Z</time>
      </trkpt>
      <trkpt lat="47.12369" lon="5.92223">
        <ele>291.6</ele>
        <time>2023-05-07T10:44:29Z</time>
      </trkpt>
      <trkpt lat="47.12366" lon="5.92219">
        <ele>292.2</ele>
        <time>2023-05-07T10:44:30Z</time>
      </trkpt>
      <trkpt lat="47.12363" lon="5.92215">
        <ele>292.6</ele>
        <time>2023-05-07T10:44:31Z</time>
      </trkpt>
      <trkpt lat="47.1235" lon="5.92193">
        <ele>293</ele>
        <time>2023-05-07T10:44:37Z</time>
      </trkpt>
      <trkpt lat="47.1234" lon="5.92171">
        <ele>292.6</ele>
        <time>2023-05-07T10:44:43Z</time>
      </trkpt>
      <trkpt lat="47.12328" lon="5.92147">
        <ele>292.2</ele>
        <time>2023-05-07T10:44:49Z</time>
      </trkpt>
      <trkpt lat="47.1232" lon="5.92136">
        <ele>291.6</ele>
        <time>2023-05-07T10:44:52Z</time>
      </trkpt>
      <trkpt lat="47.12315" lon="5.92129">
        <ele>290.4</ele>
        <time>2023-05-07T10:44:54Z</time>
      </trkpt>
      <trkpt lat="47.1231" lon="5.92121">
        <ele>289.4</ele>
        <time>2023-05-07T10:44:56Z</time>
      </trkpt>
      <trkpt lat="47.12308" lon="5.92118">
        <ele>289</ele>
        <time>2023-05-07T10:44:57Z</time>
      </trkpt>
      <trkpt lat="47.12304" lon="5.9211">
        <ele>288.2</ele>
        <time>2023-05-07T10:44:59Z</time>
      </trkpt>
      <trkpt lat="47.12297" lon="5.92097">
        <ele>287.2</ele>
        <time>2023-05-07T10:45:02Z</time>
      </trkpt>
      <trkpt lat="47.12291" lon="5.92083">
        <ele>286.6</ele>
        <time>2023-05-07T10:45:05Z</time>
      </trkpt>
      <trkpt lat="47.12287" lon="5.92074">
        <ele>286.2</ele>
        <time>2023-05-07T10:45:07Z</time>
      </trkpt>
      <trkpt lat="47.12272" lon="5.92047">
        <ele>285.2</ele>
        <time>2023-05-07T10:45:12Z</time>
      </trkpt>
      <trkpt lat="47.12269" lon="5.92043">
        <ele>285</ele>
        <time>2023-05-07T10:45:13Z</time>
      </trkpt>
      <trkpt lat="47.1226" lon="5.92026">
        <ele>284</ele>
        <time>2023-05-07T10:45:17Z</time>
      </trkpt>
      <trkpt lat="47.12259" lon="5.92023">
        <ele>284</ele>
        <time>2023-05-07T10:45:18Z</time>
      </trkpt>
      <trkpt lat="47.12251" lon="5.92004">
        <ele>283.8</ele>
        <time>2023-05-07T10:45:23Z</time>
      </trkpt>
      <trkpt lat="47.12243" lon="5.91967">
        <ele>283.2</ele>
        <time>2023-05-07T10:45:29Z</time>
      </trkpt>
      <trkpt lat="47.12241" lon="5.91954">
        <ele>283</ele>
        <time>2023-05-07T10:45:31Z</time>
      </trkpt>
      <trkpt lat="47.12239" lon="5.91925">
        <ele>282.4</ele>
        <time>2023-05-07T10:45:36Z</time>
      </trkpt>
      <trkpt lat="47.12239" lon="5.9192">
        <ele>282</ele>
        <time>2023-05-07T10:45:37Z</time>
      </trkpt>
      <trkpt lat="47.12236" lon="5.91904">
        <ele>281</ele>
        <time>2023-05-07T10:45:40Z</time>
      </trkpt>
      <trkpt lat="47.12233" lon="5.91893">
        <ele>281</ele>
        <time>2023-05-07T10:45:42Z</time>
      </trkpt>
      <trkpt lat="47.12221" lon="5.91868">
        <ele>279.8</ele>
        <time>2023-05-07T10:45:46Z</time>
      </trkpt>
      <trkpt lat="47.12218" lon="5.91862">
        <ele>279.4</ele>
        <time>2023-05-07T10:45:47Z</time>
      </trkpt>
      <trkpt lat="47.12213" lon="5.91853">
        <ele>278.6</ele>
        <time>2023-05-07T10:45:49Z</time>
      </trkpt>
      <trkpt lat="47.12205" lon="5.9184">
        <ele>277.4</ele>
        <time>2023-05-07T10:45:52Z</time>
      </trkpt>
      <trkpt lat="47.12199" lon="5.91832">
        <ele>277.2</ele>
        <time>2023-05-07T10:45:54Z</time>
      </trkpt>
      <trkpt lat="47.12189" lon="5.91816">
        <ele>276.4</ele>
        <time>2023-05-07T10:45:58Z</time>
      </trkpt>
      <trkpt lat="47.12181" lon="5.91806">
        <ele>275.8</ele>
        <time>2023-05-07T10:46:01Z</time>
      </trkpt>
      <trkpt lat="47.12173" lon="5.91798">
        <ele>275.2</ele>
        <time>2023-05-07T10:46:04Z</time>
      </trkpt>
      <trkpt lat="47.12163" lon="5.91788">
        <ele>274.6</ele>
        <time>2023-05-07T10:46:08Z</time>
      </trkpt>
      <trkpt lat="47.12148" lon="5.91775">
        <ele>274</ele>
        <time>2023-05-07T10:46:13Z</time>
      </trkpt>
      <trkpt lat="47.12138" lon="5.91767">
        <ele>273.6</ele>
        <time>2023-05-07T10:46:16Z</time>
      </trkpt>
      <trkpt lat="47.12109" lon="5.91745">
        <ele>273</ele>
        <time>2023-05-07T10:46:24Z</time>
      </trkpt>
      <trkpt lat="47.12105" lon="5.91743">
        <ele>272.8</ele>
        <time>2023-05-07T10:46:25Z</time>
      </trkpt>
      <trkpt lat="47.12082" lon="5.91725">
        <ele>272.6</ele>
        <time>2023-05-07T10:46:31Z</time>
      </trkpt>
      <trkpt lat="47.12046" lon="5.91698">
        <ele>272.4</ele>
        <time>2023-05-07T10:46:40Z</time>
      </trkpt>
      <trkpt lat="47.12018" lon="5.91676">
        <ele>273</ele>
        <time>2023-05-07T10:46:48Z</time>
      </trkpt>
      <trkpt lat="47.11984" lon="5.91651">
        <ele>273.2</ele>
        <time>2023-05-07T10:46:57Z</time>
      </trkpt>
      <trkpt lat="47.1196" lon="5.91636">
        <ele>273</ele>
        <time>2023-05-07T10:47:04Z</time>
      </trkpt>
      <trkpt lat="47.11929" lon="5.91614">
        <ele>272</ele>
        <time>2023-05-07T10:47:13Z</time>
      </trkpt>
      <trkpt lat="47.11916" lon="5.91605">
        <ele>271.8</ele>
        <time>2023-05-07T10:47:17Z</time>
      </trkpt>
      <trkpt lat="47.11902" lon="5.91596">
        <ele>271.2</ele>
        <time>2023-05-07T10:47:21Z</time>
      </trkpt>
      <trkpt lat="47.11868" lon="5.91573">
        <ele>271.2</ele>
        <time>2023-05-07T10:47:31Z</time>
      </trkpt>
      <trkpt lat="47.11838" lon="5.91563">
        <ele>271.8</ele>
        <time>2023-05-07T10:47:39Z</time>
      </trkpt>
      <trkpt lat="47.1181" lon="5.91551">
        <ele>272.4</ele>
        <time>2023-05-07T10:47:47Z</time>
      </trkpt>
      <trkpt lat="47.11774" lon="5.91535">
        <ele>272.4</ele>
        <time>2023-05-07T10:47:57Z</time>
      </trkpt>
      <trkpt lat="47.11762" lon="5.91533">
        <ele>272.8</ele>
        <time>2023-05-07T10:48:00Z</time>
      </trkpt>
      <trkpt lat="47.11751" lon="5.91535">
        <ele>273.2</ele>
        <time>2023-05-07T10:48:03Z</time>
      </trkpt>
      <trkpt lat="47.11738" lon="5.91543">
        <ele>274</ele>
        <time>2023-05-07T10:48:07Z</time>
      </trkpt>
      <trkpt lat="47.11734" lon="5.91547">
        <ele>274.2</ele>
        <time>2023-05-07T10:48:09Z</time>
      </trkpt>
      <trkpt lat="47.11731" lon="5.9155">
        <ele>275</ele>
        <time>2023-05-07T10:48:11Z</time>
      </trkpt>
      <trkpt lat="47.11727" lon="5.91554">
        <ele>275.6</ele>
        <time>2023-05-07T10:48:15Z</time>
      </trkpt>
      <trkpt lat="47.11723" lon="5.91558">
        <ele>276.2</ele>
        <time>2023-05-07T10:48:18Z</time>
      </trkpt>
      <trkpt lat="47.11716" lon="5.91562">
        <ele>277</ele>
        <time>2023-05-07T10:48:22Z</time>
      </trkpt>
      <trkpt lat="47.11714" lon="5.91564">
        <ele>277.2</ele>
        <time>2023-05-07T10:48:23Z</time>
      </trkpt>
      <trkpt lat="47.11704" lon="5.91572">
        <ele>278.4</ele>
        <time>2023-05-07T10:48:29Z</time>
      </trkpt>
      <trkpt lat="47.11702" lon="5.91573">
        <ele>278.6</ele>
        <time>2023-05-07T10:48:30Z</time>
      </trkpt>
      <trkpt lat="47.11693" lon="5.91577">
        <ele>279.4</ele>
        <time>2023-05-07T10:48:35Z</time>
      </trkpt>
      <trkpt lat="47.11685" lon="5.9158">
        <ele>279.8</ele>
        <time>2023-05-07T10:48:39Z</time>
      </trkpt>
      <trkpt lat="47.11674" lon="5.91582">
        <ele>280.6</ele>
        <time>2023-05-07T10:48:44Z</time>
      </trkpt>
      <trkpt lat="47.11669" lon="5.91583">
        <ele>281.6</ele>
        <time>2023-05-07T10:48:47Z</time>
      </trkpt>
      <trkpt lat="47.11659" lon="5.91583">
        <ele>282.6</ele>
        <time>2023-05-07T10:48:52Z</time>
      </trkpt>
      <trkpt lat="47.11653" lon="5.91583">
        <ele>283.4</ele>
        <time>2023-05-07T10:48:55Z</time>
      </trkpt>
      <trkpt lat="47.11648" lon="5.91582">
        <ele>283.6</ele>
        <time>2023-05-07T10:48:57Z</time>
      </trkpt>
      <trkpt lat="47.11638" lon="5.91582">
        <ele>283.6</ele>
        <time>2023-05-07T10:49:01Z</time>
      </trkpt>
      <trkpt lat="47.11622" lon="5.91577">
        <ele>283.6</ele>
        <time>2023-05-07T10:49:09Z</time>
      </trkpt>
      <trkpt lat="47.11605" lon="5.91568">
        <ele>283.6</ele>
        <time>2023-05-07T10:49:18Z</time>
      </trkpt>
      <trkpt lat="47.11592" lon="5.91559">
        <ele>284.6</ele>
        <time>2023-05-07T10:49:26Z</time>
      </trkpt>
      <trkpt lat="47.1159" lon="5.91557">
        <ele>284.6</ele>
        <time>2023-05-07T10:49:27Z</time>
      </trkpt>
      <trkpt lat="47.11579" lon="5.9155">
        <ele>285</ele>
        <time>2023-05-07T10:49:34Z</time>
      </trkpt>
      <trkpt lat="47.11568" lon="5.91545">
        <ele>284.8</ele>
        <time>2023-05-07T10:49:40Z</time>
      </trkpt>
      <trkpt lat="47.11556" lon="5.91539">
        <ele>284.8</ele>
        <time>2023-05-07T10:49:47Z</time>
      </trkpt>
      <trkpt lat="47.1154" lon="5.91531">
        <ele>284.6</ele>
        <time>2023-05-07T10:49:56Z</time>
      </trkpt>
      <trkpt lat="47.11519" lon="5.91521">
        <ele>285</ele>
        <time>2023-05-07T10:50:07Z</time>
      </trkpt>
      <trkpt lat="47.11506" lon="5.91516">
        <ele>285.8</ele>
        <time>2023-05-07T10:50:14Z</time>
      </trkpt>
      <trkpt lat="47.11503" lon="5.91514">
        <ele>286</ele>
        <time>2023-05-07T10:50:16Z</time>
      </trkpt>
      <trkpt lat="47.11492" lon="5.9151">
        <ele>287</ele>
        <time>2023-05-07T10:50:23Z</time>
      </trkpt>
      <trkpt lat="47.11485" lon="5.91508">
        <ele>288</ele>
        <time>2023-05-07T10:50:27Z</time>
      </trkpt>
      <trkpt lat="47.11472" lon="5.91503">
        <ele>288.4</ele>
        <time>2023-05-07T10:50:34Z</time>
      </trkpt>
      <trkpt lat="47.11466" lon="5.91502">
        <ele>289.2</ele>
        <time>2023-05-07T10:50:37Z</time>
      </trkpt>
      <trkpt lat="47.11456" lon="5.915">
        <ele>289.6</ele>
        <time>2023-05-07T10:50:43Z</time>
      </trkpt>
      <trkpt lat="47.1145" lon="5.91498">
        <ele>290.2</ele>
        <time>2023-05-07T10:50:46Z</time>
      </trkpt>
      <trkpt lat="47.1144" lon="5.91495">
        <ele>291</ele>
        <time>2023-05-07T10:50:51Z</time>
      </trkpt>
      <trkpt lat="47.11429" lon="5.91492">
        <ele>291.6</ele>
        <time>2023-05-07T10:50:58Z</time>
      </trkpt>
      <trkpt lat="47.11419" lon="5.91491">
        <ele>292.4</ele>
        <time>2023-05-07T10:51:04Z</time>
      </trkpt>
      <trkpt lat="47.11412" lon="5.91488">
        <ele>292.8</ele>
        <time>2023-05-07T10:51:08Z</time>
      </trkpt>
      <trkpt lat="47.11408" lon="5.91487">
        <ele>293.4</ele>
        <time>2023-05-07T10:51:10Z</time>
      </trkpt>
      <trkpt lat="47.11403" lon="5.91486">
        <ele>294</ele>
        <time>2023-05-07T10:51:12Z</time>
      </trkpt>
      <trkpt lat="47.1139" lon="5.91484">
        <ele>294.2</ele>
        <time>2023-05-07T10:51:18Z</time>
      </trkpt>
      <trkpt lat="47.11376" lon="5.91481">
        <ele>294.4</ele>
        <time>2023-05-07T10:51:26Z</time>
      </trkpt>
      <trkpt lat="47.11362" lon="5.9148">
        <ele>295</ele>
        <time>2023-05-07T10:51:34Z</time>
      </trkpt>
      <trkpt lat="47.11346" lon="5.91476">
        <ele>294.8</ele>
        <time>2023-05-07T10:51:42Z</time>
      </trkpt>
      <trkpt lat="47.11344" lon="5.91476">
        <ele>295</ele>
        <time>2023-05-07T10:51:43Z</time>
      </trkpt>
      <trkpt lat="47.11328" lon="5.91473">
        <ele>296</ele>
        <time>2023-05-07T10:51:51Z</time>
      </trkpt>
      <trkpt lat="47.1132" lon="5.91472">
        <ele>296</ele>
        <time>2023-05-07T10:51:55Z</time>
      </trkpt>
      <trkpt lat="47.11313" lon="5.91471">
        <ele>296</ele>
        <time>2023-05-07T10:51:59Z</time>
      </trkpt>
      <trkpt lat="47.11295" lon="5.91469">
        <ele>295.4</ele>
        <time>2023-05-07T10:52:08Z</time>
      </trkpt>
      <trkpt lat="47.11291" lon="5.91468">
        <ele>295</ele>
        <time>2023-05-07T10:52:10Z</time>
      </trkpt>
      <trkpt lat="47.11284" lon="5.91467">
        <ele>293.8</ele>
        <time>2023-05-07T10:52:14Z</time>
      </trkpt>
      <trkpt lat="47.11282" lon="5.91466">
        <ele>293.6</ele>
        <time>2023-05-07T10:52:15Z</time>
      </trkpt>
      <trkpt lat="47.11261" lon="5.91464">
        <ele>293.4</ele>
        <time>2023-05-07T10:52:23Z</time>
      </trkpt>
      <trkpt lat="47.11242" lon="5.91462">
        <ele>293.6</ele>
        <time>2023-05-07T10:52:30Z</time>
      </trkpt>
      <trkpt lat="47.11222" lon="5.91457">
        <ele>295</ele>
        <time>2023-05-07T10:52:38Z</time>
      </trkpt>
      <trkpt lat="47.11219" lon="5.91457">
        <ele>295.4</ele>
        <time>2023-05-07T10:52:39Z</time>
      </trkpt>
      <trkpt lat="47.11211" lon="5.91456">
        <ele>296.2</ele>
        <time>2023-05-07T10:52:42Z</time>
      </trkpt>
      <trkpt lat="47.11196" lon="5.91455">
        <ele>296.2</ele>
        <time>2023-05-07T10:52:47Z</time>
      </trkpt>
      <trkpt lat="47.11182" lon="5.91453">
        <ele>297.4</ele>
        <time>2023-05-07T10:52:52Z</time>
      </trkpt>
      <trkpt lat="47.11177" lon="5.91452">
        <ele>297.6</ele>
        <time>2023-05-07T10:52:54Z</time>
      </trkpt>
      <trkpt lat="47.11157" lon="5.91448">
        <ele>298.6</ele>
        <time>2023-05-07T10:53:01Z</time>
      </trkpt>
      <trkpt lat="47.11151" lon="5.91448">
        <ele>299.2</ele>
        <time>2023-05-07T10:53:03Z</time>
      </trkpt>
      <trkpt lat="47.11142" lon="5.91447">
        <ele>299.8</ele>
        <time>2023-05-07T10:53:06Z</time>
      </trkpt>
      <trkpt lat="47.11131" lon="5.91446">
        <ele>301</ele>
        <time>2023-05-07T10:53:10Z</time>
      </trkpt>
      <trkpt lat="47.11125" lon="5.91446">
        <ele>301.6</ele>
        <time>2023-05-07T10:53:12Z</time>
      </trkpt>
      <trkpt lat="47.1112" lon="5.91446">
        <ele>302</ele>
        <time>2023-05-07T10:53:14Z</time>
      </trkpt>
      <trkpt lat="47.11097" lon="5.91446">
        <ele>302.8</ele>
        <time>2023-05-07T10:53:22Z</time>
      </trkpt>
      <trkpt lat="47.11095" lon="5.91446">
        <ele>303</ele>
        <time>2023-05-07T10:53:23Z</time>
      </trkpt>
      <trkpt lat="47.11079" lon="5.91447">
        <ele>303.6</ele>
        <time>2023-05-07T10:53:30Z</time>
      </trkpt>
      <trkpt lat="47.11072" lon="5.91451">
        <ele>304.2</ele>
        <time>2023-05-07T10:53:33Z</time>
      </trkpt>
      <trkpt lat="47.11068" lon="5.91453">
        <ele>304.8</ele>
        <time>2023-05-07T10:53:36Z</time>
      </trkpt>
      <trkpt lat="47.11058" lon="5.91455">
        <ele>304.8</ele>
        <time>2023-05-07T10:53:42Z</time>
      </trkpt>
      <trkpt lat="47.1104" lon="5.91451">
        <ele>304.8</ele>
        <time>2023-05-07T10:53:48Z</time>
      </trkpt>
      <trkpt lat="47.11009" lon="5.91452">
        <ele>304.4</ele>
        <time>2023-05-07T10:53:56Z</time>
      </trkpt>
      <trkpt lat="47.10996" lon="5.91457">
        <ele>305.2</ele>
        <time>2023-05-07T10:54:00Z</time>
      </trkpt>
      <trkpt lat="47.10991" lon="5.91461">
        <ele>305.2</ele>
        <time>2023-05-07T10:54:02Z</time>
      </trkpt>
      <trkpt lat="47.10976" lon="5.9148">
        <ele>306.2</ele>
        <time>2023-05-07T10:54:09Z</time>
      </trkpt>
      <trkpt lat="47.10974" lon="5.91483">
        <ele>306.4</ele>
        <time>2023-05-07T10:54:10Z</time>
      </trkpt>
      <trkpt lat="47.10963" lon="5.9151">
        <ele>307.2</ele>
        <time>2023-05-07T10:54:17Z</time>
      </trkpt>
      <trkpt lat="47.10962" lon="5.91513">
        <ele>307.6</ele>
        <time>2023-05-07T10:54:18Z</time>
      </trkpt>
      <trkpt lat="47.10959" lon="5.91522">
        <ele>308.8</ele>
        <time>2023-05-07T10:54:22Z</time>
      </trkpt>
      <trkpt lat="47.10958" lon="5.91523">
        <ele>308.8</ele>
        <time>2023-05-07T10:54:23Z</time>
      </trkpt>
      <trkpt lat="47.10954" lon="5.91525">
        <ele>309</ele>
        <time>2023-05-07T10:54:26Z</time>
      </trkpt>
      <trkpt lat="47.10952" lon="5.91523">
        <ele>309.2</ele>
        <time>2023-05-07T10:54:27Z</time>
      </trkpt>
      <trkpt lat="47.10937" lon="5.91513">
        <ele>309.2</ele>
        <time>2023-05-07T10:54:35Z</time>
      </trkpt>
      <trkpt lat="47.10927" lon="5.91506">
        <ele>308.8</ele>
        <time>2023-05-07T10:54:42Z</time>
      </trkpt>
      <trkpt lat="47.10922" lon="5.91502">
        <ele>309.8</ele>
        <time>2023-05-07T10:54:45Z</time>
      </trkpt>
      <trkpt lat="47.10915" lon="5.91496">
        <ele>310.4</ele>
        <time>2023-05-07T10:54:49Z</time>
      </trkpt>
      <trkpt lat="47.1091" lon="5.91492">
        <ele>311</ele>
        <time>2023-05-07T10:54:52Z</time>
      </trkpt>
      <trkpt lat="47.10907" lon="5.91487">
        <ele>311.8</ele>
        <time>2023-05-07T10:54:55Z</time>
      </trkpt>
      <trkpt lat="47.10905" lon="5.91485">
        <ele>312</ele>
        <time>2023-05-07T10:54:56Z</time>
      </trkpt>
      <trkpt lat="47.10899" lon="5.91477">
        <ele>312.4</ele>
        <time>2023-05-07T10:55:01Z</time>
      </trkpt>
      <trkpt lat="47.10892" lon="5.9147">
        <ele>313</ele>
        <time>2023-05-07T10:55:06Z</time>
      </trkpt>
      <trkpt lat="47.10889" lon="5.91465">
        <ele>313.2</ele>
        <time>2023-05-07T10:55:09Z</time>
      </trkpt>
      <trkpt lat="47.1088" lon="5.91445">
        <ele>314.2</ele>
        <time>2023-05-07T10:55:18Z</time>
      </trkpt>
      <trkpt lat="47.1087" lon="5.91426">
        <ele>314.6</ele>
        <time>2023-05-07T10:55:26Z</time>
      </trkpt>
      <trkpt lat="47.10864" lon="5.91415">
        <ele>315.2</ele>
        <time>2023-05-07T10:55:30Z</time>
      </trkpt>
      <trkpt lat="47.10858" lon="5.91403">
        <ele>315</ele>
        <time>2023-05-07T10:55:34Z</time>
      </trkpt>
      <trkpt lat="47.1084" lon="5.91372">
        <ele>315.2</ele>
        <time>2023-05-07T10:55:44Z</time>
      </trkpt>
      <trkpt lat="47.10822" lon="5.91353">
        <ele>315.2</ele>
        <time>2023-05-07T10:55:51Z</time>
      </trkpt>
      <trkpt lat="47.10794" lon="5.91335">
        <ele>315</ele>
        <time>2023-05-07T10:56:00Z</time>
      </trkpt>
      <trkpt lat="47.10764" lon="5.91321">
        <ele>314.8</ele>
        <time>2023-05-07T10:56:08Z</time>
      </trkpt>
      <trkpt lat="47.10746" lon="5.91312">
        <ele>314.8</ele>
        <time>2023-05-07T10:56:13Z</time>
      </trkpt>
      <trkpt lat="47.10742" lon="5.91309">
        <ele>314.6</ele>
        <time>2023-05-07T10:56:14Z</time>
      </trkpt>
      <trkpt lat="47.10731" lon="5.91299">
        <ele>314</ele>
        <time>2023-05-07T10:56:17Z</time>
      </trkpt>
      <trkpt lat="47.10724" lon="5.91291">
        <ele>313.4</ele>
        <time>2023-05-07T10:56:19Z</time>
      </trkpt>
      <trkpt lat="47.10717" lon="5.91281">
        <ele>312.8</ele>
        <time>2023-05-07T10:56:21Z</time>
      </trkpt>
      <trkpt lat="47.10701" lon="5.91258">
        <ele>312.2</ele>
        <time>2023-05-07T10:56:25Z</time>
      </trkpt>
      <trkpt lat="47.10691" lon="5.91246">
        <ele>311.6</ele>
        <time>2023-05-07T10:56:27Z</time>
      </trkpt>
      <trkpt lat="47.10673" lon="5.91228">
        <ele>310.2</ele>
        <time>2023-05-07T10:56:30Z</time>
      </trkpt>
      <trkpt lat="47.10652" lon="5.91213">
        <ele>309</ele>
        <time>2023-05-07T10:56:33Z</time>
      </trkpt>
      <trkpt lat="47.10635" lon="5.912">
        <ele>308.2</ele>
        <time>2023-05-07T10:56:36Z</time>
      </trkpt>
      <trkpt lat="47.1063" lon="5.91196">
        <ele>307.8</ele>
        <time>2023-05-07T10:56:37Z</time>
      </trkpt>
      <trkpt lat="47.10619" lon="5.91189">
        <ele>306.6</ele>
        <time>2023-05-07T10:56:40Z</time>
      </trkpt>
      <trkpt lat="47.10615" lon="5.9118">
        <ele>305.8</ele>
        <time>2023-05-07T10:56:43Z</time>
      </trkpt>
      <trkpt lat="47.10615" lon="5.91167">
        <ele>305.4</ele>
        <time>2023-05-07T10:56:45Z</time>
      </trkpt>
      <trkpt lat="47.10615" lon="5.91158">
        <ele>305</ele>
        <time>2023-05-07T10:56:46Z</time>
      </trkpt>
      <trkpt lat="47.10616" lon="5.9114">
        <ele>304</ele>
        <time>2023-05-07T10:56:48Z</time>
      </trkpt>
      <trkpt lat="47.10617" lon="5.91124">
        <ele>302.8</ele>
        <time>2023-05-07T10:56:50Z</time>
      </trkpt>
      <trkpt lat="47.10618" lon="5.91114">
        <ele>302.4</ele>
        <time>2023-05-07T10:56:51Z</time>
      </trkpt>
      <trkpt lat="47.10618" lon="5.91104">
        <ele>301.8</ele>
        <time>2023-05-07T10:56:52Z</time>
      </trkpt>
      <trkpt lat="47.10617" lon="5.91095">
        <ele>301.2</ele>
        <time>2023-05-07T10:56:53Z</time>
      </trkpt>
      <trkpt lat="47.10616" lon="5.91086">
        <ele>300.8</ele>
        <time>2023-05-07T10:56:54Z</time>
      </trkpt>
      <trkpt lat="47.10615" lon="5.91078">
        <ele>300.2</ele>
        <time>2023-05-07T10:56:55Z</time>
      </trkpt>
      <trkpt lat="47.10614" lon="5.9107">
        <ele>299.6</ele>
        <time>2023-05-07T10:56:56Z</time>
      </trkpt>
      <trkpt lat="47.1061" lon="5.91053">
        <ele>298.2</ele>
        <time>2023-05-07T10:56:59Z</time>
      </trkpt>
      <trkpt lat="47.10611" lon="5.91042">
        <ele>297</ele>
        <time>2023-05-07T10:57:01Z</time>
      </trkpt>
      <trkpt lat="47.10615" lon="5.91033">
        <ele>295.6</ele>
        <time>2023-05-07T10:57:03Z</time>
      </trkpt>
      <trkpt lat="47.10619" lon="5.91029">
        <ele>294.8</ele>
        <time>2023-05-07T10:57:04Z</time>
      </trkpt>
      <trkpt lat="47.10623" lon="5.91025">
        <ele>294.2</ele>
        <time>2023-05-07T10:57:05Z</time>
      </trkpt>
      <trkpt lat="47.10634" lon="5.9102">
        <ele>292.4</ele>
        <time>2023-05-07T10:57:07Z</time>
      </trkpt>
      <trkpt lat="47.1064" lon="5.91017">
        <ele>291.4</ele>
        <time>2023-05-07T10:57:08Z</time>
      </trkpt>
      <trkpt lat="47.10647" lon="5.91014">
        <ele>290.4</ele>
        <time>2023-05-07T10:57:09Z</time>
      </trkpt>
      <trkpt lat="47.1066" lon="5.91006">
        <ele>288.4</ele>
        <time>2023-05-07T10:57:11Z</time>
      </trkpt>
      <trkpt lat="47.10666" lon="5.91002">
        <ele>287.2</ele>
        <time>2023-05-07T10:57:12Z</time>
      </trkpt>
      <trkpt lat="47.10672" lon="5.90997">
        <ele>286</ele>
        <time>2023-05-07T10:57:13Z</time>
      </trkpt>
      <trkpt lat="47.10679" lon="5.90993">
        <ele>285</ele>
        <time>2023-05-07T10:57:14Z</time>
      </trkpt>
      <trkpt lat="47.10684" lon="5.90989">
        <ele>283.8</ele>
        <time>2023-05-07T10:57:15Z</time>
      </trkpt>
      <trkpt lat="47.1069" lon="5.90985">
        <ele>282.8</ele>
        <time>2023-05-07T10:57:16Z</time>
      </trkpt>
      <trkpt lat="47.10694" lon="5.9098">
        <ele>281.8</ele>
        <time>2023-05-07T10:57:17Z</time>
      </trkpt>
      <trkpt lat="47.10698" lon="5.90975">
        <ele>280.8</ele>
        <time>2023-05-07T10:57:18Z</time>
      </trkpt>
      <trkpt lat="47.10702" lon="5.9097">
        <ele>279.6</ele>
        <time>2023-05-07T10:57:19Z</time>
      </trkpt>
      <trkpt lat="47.10706" lon="5.90964">
        <ele>278.6</ele>
        <time>2023-05-07T10:57:20Z</time>
      </trkpt>
      <trkpt lat="47.1071" lon="5.90959">
        <ele>277.6</ele>
        <time>2023-05-07T10:57:21Z</time>
      </trkpt>
      <trkpt lat="47.10713" lon="5.90953">
        <ele>276.4</ele>
        <time>2023-05-07T10:57:22Z</time>
      </trkpt>
      <trkpt lat="47.10716" lon="5.90947">
        <ele>275.2</ele>
        <time>2023-05-07T10:57:23Z</time>
      </trkpt>
      <trkpt lat="47.10718" lon="5.90941">
        <ele>274</ele>
        <time>2023-05-07T10:57:24Z</time>
      </trkpt>
      <trkpt lat="47.1072" lon="5.90935">
        <ele>272.8</ele>
        <time>2023-05-07T10:57:25Z</time>
      </trkpt>
      <trkpt lat="47.10722" lon="5.90928">
        <ele>271.6</ele>
        <time>2023-05-07T10:57:26Z</time>
      </trkpt>
      <trkpt lat="47.10725" lon="5.90921">
        <ele>270.2</ele>
        <time>2023-05-07T10:57:27Z</time>
      </trkpt>
      <trkpt lat="47.10728" lon="5.90914">
        <ele>268.8</ele>
        <time>2023-05-07T10:57:28Z</time>
      </trkpt>
      <trkpt lat="47.10732" lon="5.90906">
        <ele>267.4</ele>
        <time>2023-05-07T10:57:29Z</time>
      </trkpt>
      <trkpt lat="47.10735" lon="5.90898">
        <ele>266</ele>
        <time>2023-05-07T10:57:30Z</time>
      </trkpt>
      <trkpt lat="47.10738" lon="5.90891">
        <ele>264.6</ele>
        <time>2023-05-07T10:57:31Z</time>
      </trkpt>
      <trkpt lat="47.10741" lon="5.90884">
        <ele>263.4</ele>
        <time>2023-05-07T10:57:32Z</time>
      </trkpt>
      <trkpt lat="47.10743" lon="5.90878">
        <ele>262.2</ele>
        <time>2023-05-07T10:57:33Z</time>
      </trkpt>
      <trkpt lat="47.10744" lon="5.90865">
        <ele>260.2</ele>
        <time>2023-05-07T10:57:35Z</time>
      </trkpt>
      <trkpt lat="47.10744" lon="5.9085">
        <ele>258.8</ele>
        <time>2023-05-07T10:57:37Z</time>
      </trkpt>
      <trkpt lat="47.10743" lon="5.90842">
        <ele>258.4</ele>
        <time>2023-05-07T10:57:38Z</time>
      </trkpt>
      <trkpt lat="47.10738" lon="5.90817">
        <ele>258.4</ele>
        <time>2023-05-07T10:57:41Z</time>
      </trkpt>
      <trkpt lat="47.10733" lon="5.90789">
        <ele>258.8</ele>
        <time>2023-05-07T10:57:46Z</time>
      </trkpt>
      <trkpt lat="47.10726" lon="5.90759">
        <ele>258.6</ele>
        <time>2023-05-07T10:57:52Z</time>
      </trkpt>
      <trkpt lat="47.10717" lon="5.90723">
        <ele>259.2</ele>
        <time>2023-05-07T10:57:57Z</time>
      </trkpt>
      <trkpt lat="47.10715" lon="5.90708">
        <ele>259.8</ele>
        <time>2023-05-07T10:57:59Z</time>
      </trkpt>
      <trkpt lat="47.10713" lon="5.90694">
        <ele>260.4</ele>
        <time>2023-05-07T10:58:01Z</time>
      </trkpt>
      <trkpt lat="47.10713" lon="5.90681">
        <ele>261</ele>
        <time>2023-05-07T10:58:03Z</time>
      </trkpt>
      <trkpt lat="47.10712" lon="5.90652">
        <ele>262</ele>
        <time>2023-05-07T10:58:07Z</time>
      </trkpt>
      <trkpt lat="47.1071" lon="5.90639">
        <ele>262.6</ele>
        <time>2023-05-07T10:58:09Z</time>
      </trkpt>
      <trkpt lat="47.10709" lon="5.90624">
        <ele>263.2</ele>
        <time>2023-05-07T10:58:11Z</time>
      </trkpt>
      <trkpt lat="47.10707" lon="5.90605">
        <ele>264.4</ele>
        <time>2023-05-07T10:58:14Z</time>
      </trkpt>
      <trkpt lat="47.10706" lon="5.90594">
        <ele>265</ele>
        <time>2023-05-07T10:58:16Z</time>
      </trkpt>
      <trkpt lat="47.10705" lon="5.90589">
        <ele>265.4</ele>
        <time>2023-05-07T10:58:17Z</time>
      </trkpt>
      <trkpt lat="47.10701" lon="5.90575">
        <ele>266.4</ele>
        <time>2023-05-07T10:58:20Z</time>
      </trkpt>
      <trkpt lat="47.107" lon="5.9057">
        <ele>267</ele>
        <time>2023-05-07T10:58:21Z</time>
      </trkpt>
      <trkpt lat="47.10699" lon="5.90564">
        <ele>267.6</ele>
        <time>2023-05-07T10:58:22Z</time>
      </trkpt>
      <trkpt lat="47.10696" lon="5.90554">
        <ele>268.8</ele>
        <time>2023-05-07T10:58:24Z</time>
      </trkpt>
      <trkpt lat="47.10694" lon="5.90544">
        <ele>270.4</ele>
        <time>2023-05-07T10:58:26Z</time>
      </trkpt>
      <trkpt lat="47.10692" lon="5.90535">
        <ele>272.2</ele>
        <time>2023-05-07T10:58:28Z</time>
      </trkpt>
      <trkpt lat="47.1069" lon="5.90525">
        <ele>273.8</ele>
        <time>2023-05-07T10:58:30Z</time>
      </trkpt>
      <trkpt lat="47.10687" lon="5.90515">
        <ele>275</ele>
        <time>2023-05-07T10:58:32Z</time>
      </trkpt>
      <trkpt lat="47.10682" lon="5.90501">
        <ele>276.4</ele>
        <time>2023-05-07T10:58:35Z</time>
      </trkpt>
      <trkpt lat="47.1068" lon="5.90496">
        <ele>276.8</ele>
        <time>2023-05-07T10:58:36Z</time>
      </trkpt>
      <trkpt lat="47.10678" lon="5.90486">
        <ele>277.4</ele>
        <time>2023-05-07T10:58:38Z</time>
      </trkpt>
      <trkpt lat="47.10674" lon="5.90467">
        <ele>278.6</ele>
        <time>2023-05-07T10:58:42Z</time>
      </trkpt>
      <trkpt lat="47.10669" lon="5.90444">
        <ele>279.8</ele>
        <time>2023-05-07T10:58:46Z</time>
      </trkpt>
      <trkpt lat="47.10667" lon="5.9044">
        <ele>280.2</ele>
        <time>2023-05-07T10:58:47Z</time>
      </trkpt>
      <trkpt lat="47.10664" lon="5.90435">
        <ele>280.8</ele>
        <time>2023-05-07T10:58:48Z</time>
      </trkpt>
      <trkpt lat="47.1066" lon="5.90427">
        <ele>282</ele>
        <time>2023-05-07T10:58:50Z</time>
      </trkpt>
      <trkpt lat="47.10657" lon="5.90422">
        <ele>283.2</ele>
        <time>2023-05-07T10:58:52Z</time>
      </trkpt>
      <trkpt lat="47.10654" lon="5.90417">
        <ele>284.6</ele>
        <time>2023-05-07T10:58:54Z</time>
      </trkpt>
      <trkpt lat="47.10647" lon="5.90408">
        <ele>285.6</ele>
        <time>2023-05-07T10:58:57Z</time>
      </trkpt>
      <trkpt lat="47.10645" lon="5.90405">
        <ele>285.8</ele>
        <time>2023-05-07T10:58:58Z</time>
      </trkpt>
      <trkpt lat="47.1064" lon="5.90398">
        <ele>286.8</ele>
        <time>2023-05-07T10:59:00Z</time>
      </trkpt>
      <trkpt lat="47.10625" lon="5.90371">
        <ele>285.8</ele>
        <time>2023-05-07T11:00:15Z</time>
      </trkpt>
      <trkpt lat="47.10624" lon="5.90369">
        <ele>285.8</ele>
        <time>2023-05-07T11:00:16Z</time>
      </trkpt>
      <trkpt lat="47.10619" lon="5.90362">
        <ele>286.8</ele>
        <time>2023-05-07T11:00:19Z</time>
      </trkpt>
      <trkpt lat="47.10616" lon="5.90359">
        <ele>287</ele>
        <time>2023-05-07T11:00:20Z</time>
      </trkpt>
      <trkpt lat="47.10597" lon="5.90339">
        <ele>287.2</ele>
        <time>2023-05-07T11:00:26Z</time>
      </trkpt>
      <trkpt lat="47.10595" lon="5.90336">
        <ele>287.6</ele>
        <time>2023-05-07T11:00:28Z</time>
      </trkpt>
      <trkpt lat="47.10594" lon="5.90333">
        <ele>287.8</ele>
        <time>2023-05-07T11:00:29Z</time>
      </trkpt>
      <trkpt lat="47.10592" lon="5.9033">
        <ele>288</ele>
        <time>2023-05-07T11:00:30Z</time>
      </trkpt>
      <trkpt lat="47.10587" lon="5.90312">
        <ele>288.2</ele>
        <time>2023-05-07T11:00:35Z</time>
      </trkpt>
      <trkpt lat="47.10574" lon="5.90284">
        <ele>287.8</ele>
        <time>2023-05-07T11:00:40Z</time>
      </trkpt>
      <trkpt lat="47.10568" lon="5.90264">
        <ele>287.6</ele>
        <time>2023-05-07T11:00:43Z</time>
      </trkpt>
      <trkpt lat="47.10563" lon="5.90246">
        <ele>287.2</ele>
        <time>2023-05-07T11:00:46Z</time>
      </trkpt>
      <trkpt lat="47.10548" lon="5.90217">
        <ele>287.4</ele>
        <time>2023-05-07T11:00:52Z</time>
      </trkpt>
      <trkpt lat="47.10537" lon="5.90192">
        <ele>289.2</ele>
        <time>2023-05-07T11:00:58Z</time>
      </trkpt>
      <trkpt lat="47.10533" lon="5.90184">
        <ele>289.8</ele>
        <time>2023-05-07T11:01:00Z</time>
      </trkpt>
      <trkpt lat="47.10528" lon="5.90174">
        <ele>290.2</ele>
        <time>2023-05-07T11:01:02Z</time>
      </trkpt>
      <trkpt lat="47.10522" lon="5.90158">
        <ele>290.8</ele>
        <time>2023-05-07T11:01:05Z</time>
      </trkpt>
      <trkpt lat="47.10507" lon="5.90126">
        <ele>291.2</ele>
        <time>2023-05-07T11:01:10Z</time>
      </trkpt>
      <trkpt lat="47.1049" lon="5.90098">
        <ele>291.2</ele>
        <time>2023-05-07T11:01:14Z</time>
      </trkpt>
      <trkpt lat="47.10486" lon="5.90091">
        <ele>291.4</ele>
        <time>2023-05-07T11:01:15Z</time>
      </trkpt>
      <trkpt lat="47.10466" lon="5.90055">
        <ele>291.6</ele>
        <time>2023-05-07T11:01:21Z</time>
      </trkpt>
      <trkpt lat="47.10463" lon="5.90049">
        <ele>291.6</ele>
        <time>2023-05-07T11:01:22Z</time>
      </trkpt>
      <trkpt lat="47.10457" lon="5.90032">
        <ele>292.4</ele>
        <time>2023-05-07T11:01:25Z</time>
      </trkpt>
      <trkpt lat="47.10451" lon="5.90014">
        <ele>292.8</ele>
        <time>2023-05-07T11:01:28Z</time>
      </trkpt>
      <trkpt lat="47.10446" lon="5.89992">
        <ele>293.6</ele>
        <time>2023-05-07T11:01:31Z</time>
      </trkpt>
      <trkpt lat="47.10443" lon="5.89969">
        <ele>294.8</ele>
        <time>2023-05-07T11:01:34Z</time>
      </trkpt>
      <trkpt lat="47.10443" lon="5.89961">
        <ele>295.2</ele>
        <time>2023-05-07T11:01:35Z</time>
      </trkpt>
      <trkpt lat="47.10443" lon="5.89945">
        <ele>296</ele>
        <time>2023-05-07T11:01:37Z</time>
      </trkpt>
      <trkpt lat="47.10445" lon="5.89921">
        <ele>297.4</ele>
        <time>2023-05-07T11:01:40Z</time>
      </trkpt>
      <trkpt lat="47.10447" lon="5.89897">
        <ele>298.8</ele>
        <time>2023-05-07T11:01:43Z</time>
      </trkpt>
      <trkpt lat="47.10448" lon="5.89873">
        <ele>299.8</ele>
        <time>2023-05-07T11:01:46Z</time>
      </trkpt>
      <trkpt lat="47.10447" lon="5.89833">
        <ele>300.8</ele>
        <time>2023-05-07T11:01:51Z</time>
      </trkpt>
      <trkpt lat="47.10447" lon="5.89817">
        <ele>301.4</ele>
        <time>2023-05-07T11:01:53Z</time>
      </trkpt>
      <trkpt lat="47.10448" lon="5.89801">
        <ele>302</ele>
        <time>2023-05-07T11:01:55Z</time>
      </trkpt>
      <trkpt lat="47.10451" lon="5.89774">
        <ele>302.8</ele>
        <time>2023-05-07T11:01:58Z</time>
      </trkpt>
      <trkpt lat="47.10452" lon="5.89765">
        <ele>303.2</ele>
        <time>2023-05-07T11:01:59Z</time>
      </trkpt>
      <trkpt lat="47.10454" lon="5.89707">
        <ele>303.4</ele>
        <time>2023-05-07T11:02:05Z</time>
      </trkpt>
      <trkpt lat="47.10452" lon="5.89674">
        <ele>302</ele>
        <time>2023-05-07T11:02:08Z</time>
      </trkpt>
      <trkpt lat="47.1045" lon="5.89653">
        <ele>301</ele>
        <time>2023-05-07T11:02:10Z</time>
      </trkpt>
      <trkpt lat="47.10449" lon="5.89643">
        <ele>300.6</ele>
        <time>2023-05-07T11:02:11Z</time>
      </trkpt>
      <trkpt lat="47.10449" lon="5.89632">
        <ele>300</ele>
        <time>2023-05-07T11:02:12Z</time>
      </trkpt>
      <trkpt lat="47.10447" lon="5.8961">
        <ele>298.6</ele>
        <time>2023-05-07T11:02:14Z</time>
      </trkpt>
      <trkpt lat="47.10444" lon="5.89589">
        <ele>297.4</ele>
        <time>2023-05-07T11:02:16Z</time>
      </trkpt>
      <trkpt lat="47.10443" lon="5.89579">
        <ele>296.6</ele>
        <time>2023-05-07T11:02:17Z</time>
      </trkpt>
      <trkpt lat="47.10441" lon="5.89568">
        <ele>296</ele>
        <time>2023-05-07T11:02:18Z</time>
      </trkpt>
      <trkpt lat="47.10438" lon="5.89547">
        <ele>294.8</ele>
        <time>2023-05-07T11:02:20Z</time>
      </trkpt>
      <trkpt lat="47.10431" lon="5.89506">
        <ele>293.8</ele>
        <time>2023-05-07T11:02:24Z</time>
      </trkpt>
      <trkpt lat="47.10428" lon="5.89485">
        <ele>292.4</ele>
        <time>2023-05-07T11:02:26Z</time>
      </trkpt>
      <trkpt lat="47.10426" lon="5.89464">
        <ele>291</ele>
        <time>2023-05-07T11:02:28Z</time>
      </trkpt>
      <trkpt lat="47.10425" lon="5.89443">
        <ele>289.4</ele>
        <time>2023-05-07T11:02:30Z</time>
      </trkpt>
      <trkpt lat="47.10425" lon="5.89433">
        <ele>288.4</ele>
        <time>2023-05-07T11:02:31Z</time>
      </trkpt>
      <trkpt lat="47.10424" lon="5.89415">
        <ele>287</ele>
        <time>2023-05-07T11:02:33Z</time>
      </trkpt>
      <trkpt lat="47.10421" lon="5.89397">
        <ele>285.4</ele>
        <time>2023-05-07T11:02:35Z</time>
      </trkpt>
      <trkpt lat="47.10418" lon="5.89378">
        <ele>284</ele>
        <time>2023-05-07T11:02:37Z</time>
      </trkpt>
      <trkpt lat="47.10409" lon="5.89354">
        <ele>282.6</ele>
        <time>2023-05-07T11:02:40Z</time>
      </trkpt>
      <trkpt lat="47.10406" lon="5.89347">
        <ele>282.2</ele>
        <time>2023-05-07T11:02:41Z</time>
      </trkpt>
      <trkpt lat="47.10399" lon="5.89334">
        <ele>281.8</ele>
        <time>2023-05-07T11:02:43Z</time>
      </trkpt>
      <trkpt lat="47.10396" lon="5.89329">
        <ele>281.6</ele>
        <time>2023-05-07T11:02:44Z</time>
      </trkpt>
      <trkpt lat="47.1039" lon="5.89317">
        <ele>280.8</ele>
        <time>2023-05-07T11:02:46Z</time>
      </trkpt>
      <trkpt lat="47.10387" lon="5.89311">
        <ele>280.4</ele>
        <time>2023-05-07T11:02:47Z</time>
      </trkpt>
      <trkpt lat="47.10373" lon="5.8929">
        <ele>280.2</ele>
        <time>2023-05-07T11:02:51Z</time>
      </trkpt>
      <trkpt lat="47.10368" lon="5.89287">
        <ele>280.2</ele>
        <time>2023-05-07T11:02:52Z</time>
      </trkpt>
      <trkpt lat="47.10351" lon="5.89276">
        <ele>280</ele>
        <time>2023-05-07T11:02:57Z</time>
      </trkpt>
      <trkpt lat="47.10343" lon="5.89269">
        <ele>279.4</ele>
        <time>2023-05-07T11:02:59Z</time>
      </trkpt>
      <trkpt lat="47.10336" lon="5.89259">
        <ele>278.8</ele>
        <time>2023-05-07T11:03:01Z</time>
      </trkpt>
      <trkpt lat="47.1032" lon="5.89236">
        <ele>278</ele>
        <time>2023-05-07T11:03:05Z</time>
      </trkpt>
      <trkpt lat="47.10312" lon="5.89223">
        <ele>277.2</ele>
        <time>2023-05-07T11:03:07Z</time>
      </trkpt>
      <trkpt lat="47.10307" lon="5.89215">
        <ele>276.8</ele>
        <time>2023-05-07T11:03:08Z</time>
      </trkpt>
      <trkpt lat="47.10299" lon="5.89199">
        <ele>275.8</ele>
        <time>2023-05-07T11:03:10Z</time>
      </trkpt>
      <trkpt lat="47.10292" lon="5.89181">
        <ele>275</ele>
        <time>2023-05-07T11:03:12Z</time>
      </trkpt>
      <trkpt lat="47.10289" lon="5.89171">
        <ele>274.4</ele>
        <time>2023-05-07T11:03:13Z</time>
      </trkpt>
      <trkpt lat="47.10282" lon="5.89141">
        <ele>273</ele>
        <time>2023-05-07T11:03:16Z</time>
      </trkpt>
      <trkpt lat="47.1028" lon="5.8913">
        <ele>272.6</ele>
        <time>2023-05-07T11:03:17Z</time>
      </trkpt>
      <trkpt lat="47.10278" lon="5.8912">
        <ele>272</ele>
        <time>2023-05-07T11:03:18Z</time>
      </trkpt>
      <trkpt lat="47.10271" lon="5.89089">
        <ele>270.8</ele>
        <time>2023-05-07T11:03:21Z</time>
      </trkpt>
      <trkpt lat="47.10264" lon="5.89059">
        <ele>270.4</ele>
        <time>2023-05-07T11:03:24Z</time>
      </trkpt>
      <trkpt lat="47.10252" lon="5.89002">
        <ele>269.6</ele>
        <time>2023-05-07T11:03:30Z</time>
      </trkpt>
      <trkpt lat="47.10237" lon="5.88939">
        <ele>268.8</ele>
        <time>2023-05-07T11:03:37Z</time>
      </trkpt>
      <trkpt lat="47.10229" lon="5.88905">
        <ele>268.6</ele>
        <time>2023-05-07T11:03:41Z</time>
      </trkpt>
      <trkpt lat="47.10218" lon="5.88863">
        <ele>268.2</ele>
        <time>2023-05-07T11:03:46Z</time>
      </trkpt>
      <trkpt lat="47.10205" lon="5.88805">
        <ele>268</ele>
        <time>2023-05-07T11:03:53Z</time>
      </trkpt>
      <trkpt lat="47.10189" lon="5.88733">
        <ele>268.2</ele>
        <time>2023-05-07T11:04:02Z</time>
      </trkpt>
      <trkpt lat="47.10176" lon="5.88669">
        <ele>268</ele>
        <time>2023-05-07T11:04:10Z</time>
      </trkpt>
      <trkpt lat="47.10173" lon="5.88654">
        <ele>268</ele>
        <time>2023-05-07T11:04:12Z</time>
      </trkpt>
      <trkpt lat="47.10171" lon="5.8864">
        <ele>268</ele>
        <time>2023-05-07T11:04:14Z</time>
      </trkpt>
      <trkpt lat="47.10168" lon="5.88627">
        <ele>267.8</ele>
        <time>2023-05-07T11:04:16Z</time>
      </trkpt>
      <trkpt lat="47.10169" lon="5.88621">
        <ele>268</ele>
        <time>2023-05-07T11:04:17Z</time>
      </trkpt>
      <trkpt lat="47.10174" lon="5.88613">
        <ele>268.2</ele>
        <time>2023-05-07T11:04:19Z</time>
      </trkpt>
      <trkpt lat="47.10182" lon="5.88608">
        <ele>268.4</ele>
        <time>2023-05-07T11:04:21Z</time>
      </trkpt>
      <trkpt lat="47.10191" lon="5.886">
        <ele>268.6</ele>
        <time>2023-05-07T11:04:23Z</time>
      </trkpt>
      <trkpt lat="47.10211" lon="5.88574">
        <ele>268.2</ele>
        <time>2023-05-07T11:04:28Z</time>
      </trkpt>
      <trkpt lat="47.10238" lon="5.88527">
        <ele>267.8</ele>
        <time>2023-05-07T11:04:36Z</time>
      </trkpt>
      <trkpt lat="47.1025" lon="5.88491">
        <ele>268.4</ele>
        <time>2023-05-07T11:04:42Z</time>
      </trkpt>
      <trkpt lat="47.10268" lon="5.88431">
        <ele>269.2</ele>
        <time>2023-05-07T11:04:52Z</time>
      </trkpt>
      <trkpt lat="47.10271" lon="5.88419">
        <ele>269.2</ele>
        <time>2023-05-07T11:04:54Z</time>
      </trkpt>
      <trkpt lat="47.10275" lon="5.88407">
        <ele>269.6</ele>
        <time>2023-05-07T11:04:56Z</time>
      </trkpt>
      <trkpt lat="47.10279" lon="5.88395">
        <ele>269.6</ele>
        <time>2023-05-07T11:04:58Z</time>
      </trkpt>
      <trkpt lat="47.10289" lon="5.88363">
        <ele>269.2</ele>
        <time>2023-05-07T11:05:03Z</time>
      </trkpt>
      <trkpt lat="47.1029" lon="5.88357">
        <ele>269.2</ele>
        <time>2023-05-07T11:05:04Z</time>
      </trkpt>
      <trkpt lat="47.10293" lon="5.8834">
        <ele>269.6</ele>
        <time>2023-05-07T11:05:07Z</time>
      </trkpt>
      <trkpt lat="47.10298" lon="5.88325">
        <ele>270</ele>
        <time>2023-05-07T11:05:10Z</time>
      </trkpt>
      <trkpt lat="47.10305" lon="5.88309">
        <ele>270.4</ele>
        <time>2023-05-07T11:05:15Z</time>
      </trkpt>
      <trkpt lat="47.10304" lon="5.88302">
        <ele>270.8</ele>
        <time>2023-05-07T11:05:17Z</time>
      </trkpt>
      <trkpt lat="47.10302" lon="5.8829">
        <ele>271.4</ele>
        <time>2023-05-07T11:05:20Z</time>
      </trkpt>
      <trkpt lat="47.10295" lon="5.8828">
        <ele>270.6</ele>
        <time>2023-05-07T11:05:22Z</time>
      </trkpt>
      <trkpt lat="47.10288" lon="5.88274">
        <ele>269.6</ele>
        <time>2023-05-07T11:05:23Z</time>
      </trkpt>
      <trkpt lat="47.10283" lon="5.88269">
        <ele>268.8</ele>
        <time>2023-05-07T11:05:24Z</time>
      </trkpt>
      <trkpt lat="47.10278" lon="5.88264">
        <ele>268.2</ele>
        <time>2023-05-07T11:05:25Z</time>
      </trkpt>
      <trkpt lat="47.10274" lon="5.8826">
        <ele>267.8</ele>
        <time>2023-05-07T11:05:26Z</time>
      </trkpt>
      <trkpt lat="47.10267" lon="5.8825">
        <ele>267.4</ele>
        <time>2023-05-07T11:05:28Z</time>
      </trkpt>
      <trkpt lat="47.1026" lon="5.8824">
        <ele>267.2</ele>
        <time>2023-05-07T11:05:30Z</time>
      </trkpt>
      <trkpt lat="47.10257" lon="5.88235">
        <ele>266.8</ele>
        <time>2023-05-07T11:05:31Z</time>
      </trkpt>
      <trkpt lat="47.10247" lon="5.8822">
        <ele>265.8</ele>
        <time>2023-05-07T11:05:34Z</time>
      </trkpt>
      <trkpt lat="47.10242" lon="5.88214">
        <ele>265.4</ele>
        <time>2023-05-07T11:05:36Z</time>
      </trkpt>
      <trkpt lat="47.10222" lon="5.88197">
        <ele>265.4</ele>
        <time>2023-05-07T11:05:41Z</time>
      </trkpt>
      <trkpt lat="47.10206" lon="5.88187">
        <ele>264.8</ele>
        <time>2023-05-07T11:05:44Z</time>
      </trkpt>
      <trkpt lat="47.10201" lon="5.88185">
        <ele>264.6</ele>
        <time>2023-05-07T11:05:45Z</time>
      </trkpt>
      <trkpt lat="47.10196" lon="5.88183">
        <ele>264.4</ele>
        <time>2023-05-07T11:05:46Z</time>
      </trkpt>
      <trkpt lat="47.1019" lon="5.88183">
        <ele>264.4</ele>
        <time>2023-05-07T11:05:47Z</time>
      </trkpt>
      <trkpt lat="47.10174" lon="5.88188">
        <ele>264.2</ele>
        <time>2023-05-07T11:05:50Z</time>
      </trkpt>
      <trkpt lat="47.10169" lon="5.88191">
        <ele>264.2</ele>
        <time>2023-05-07T11:05:51Z</time>
      </trkpt>
      <trkpt lat="47.10153" lon="5.88197">
        <ele>264.2</ele>
        <time>2023-05-07T11:05:54Z</time>
      </trkpt>
      <trkpt lat="47.10142" lon="5.88191">
        <ele>264.2</ele>
        <time>2023-05-07T11:05:56Z</time>
      </trkpt>
      <trkpt lat="47.10133" lon="5.88181">
        <ele>264.4</ele>
        <time>2023-05-07T11:05:58Z</time>
      </trkpt>
      <trkpt lat="47.10125" lon="5.88174">
        <ele>264.6</ele>
        <time>2023-05-07T11:06:00Z</time>
      </trkpt>
      <trkpt lat="47.10114" lon="5.88164">
        <ele>265</ele>
        <time>2023-05-07T11:06:03Z</time>
      </trkpt>
      <trkpt lat="47.10108" lon="5.88166">
        <ele>265.2</ele>
        <time>2023-05-07T11:06:05Z</time>
      </trkpt>
      <trkpt lat="47.10103" lon="5.88169">
        <ele>265.8</ele>
        <time>2023-05-07T11:06:08Z</time>
      </trkpt>
      <trkpt lat="47.10101" lon="5.88172">
        <ele>266.2</ele>
        <time>2023-05-07T11:06:11Z</time>
      </trkpt>
      <trkpt lat="47.10098" lon="5.88175">
        <ele>266.8</ele>
        <time>2023-05-07T11:06:13Z</time>
      </trkpt>
      <trkpt lat="47.10088" lon="5.88185">
        <ele>267.4</ele>
        <time>2023-05-07T11:06:18Z</time>
      </trkpt>
      <trkpt lat="47.10071" lon="5.88203">
        <ele>267.2</ele>
        <time>2023-05-07T11:06:25Z</time>
      </trkpt>
      <trkpt lat="47.10063" lon="5.88207">
        <ele>267</ele>
        <time>2023-05-07T11:06:28Z</time>
      </trkpt>
      <trkpt lat="47.10059" lon="5.88204">
        <ele>266.6</ele>
        <time>2023-05-07T11:06:30Z</time>
      </trkpt>
      <trkpt lat="47.10057" lon="5.88194">
        <ele>266.2</ele>
        <time>2023-05-07T11:06:34Z</time>
      </trkpt>
      <trkpt lat="47.10063" lon="5.88183">
        <ele>266.8</ele>
        <time>2023-05-07T11:08:26Z</time>
      </trkpt>
      <trkpt lat="47.10061" lon="5.88184">
        <ele>267.4</ele>
        <time>2023-05-07T11:08:27Z</time>
      </trkpt>
      <trkpt lat="47.10058" lon="5.88185">
        <ele>268</ele>
        <time>2023-05-07T11:08:29Z</time>
      </trkpt>
      <trkpt lat="47.1005" lon="5.88189">
        <ele>268.4</ele>
        <time>2023-05-07T11:08:37Z</time>
      </trkpt>
      <trkpt lat="47.10046" lon="5.88195">
        <ele>268.2</ele>
        <time>2023-05-07T11:08:44Z</time>
      </trkpt>
    </trkseg>
  </trk>
</gpx>